# Wetter Temperatur Luftdruck Luftfeuchtigkeit Sichtweite Windgeschwindigkeit Windrichtung Zeit
1 Clear 27 1019 36 10000 2.01 119.692 19:42 17.10.2019
2 Clear 27 1019 36 10000 2.01 119.692 19:42 17.10.2019
3 Clear 27 1019 36 10000 2.01 119.692 19:20 17.10.2019
4 Clear 29 1018 30 10000 1 130 18:59 17.10.2019
5 Clear 29 1018 30 10000 1 130 18:39 17.10.2019
6 Clear 29 1018 30 10000 1 130 18:21 17.10.2019
7 Clouds 31 1018 25 10000 1.5 110 17:44 17.10.2019
8 Clouds 31 1018 25 10000 1.5 110 17:25 17.10.2019
9 Clouds 33 1018 17 10000 2.1 90 16:59 17.10.2019
10 Clouds 33 1018 17 10000 2.1 90 16:41 17.10.2019
11 Clouds 33 1018 17 10000 2.1 90 16:19 17.10.2019
12 Clouds 34 1018 13 10000 1 50 15:57 17.10.2019
13 Clouds 34 1018 13 10000 1 50 15:39 17.10.2019
14 Clouds 34 1018 13 10000 1 50 15:20 17.10.2019
15 Clouds 35 1018 12 10000 1.5 130 14:57 17.10.2019
16 Clouds 35 1018 12 10000 1.5 130 14:38 17.10.2019
17 Clouds 35 1018 12 10000 1.5 130 14:20 17.10.2019
18 Clouds 34 1018 13 10000 2.6 90 13:41 17.10.2019
19 Clouds 34 1018 13 10000 2.6 90 13:20 17.10.2019
20 Clouds 34 1019 12 10000 2.1 140 12:58 17.10.2019
21 Clouds 34 1019 12 10000 2.1 140 12:38 17.10.2019
22 Clouds 34 1019 12 10000 2.1 140 12:19 17.10.2019
23 Clouds 34 1019 14 10000 2.1 90 11:55 17.10.2019
24 -273 0 0 0 0 0 11:55 17.10.2019
25 Clouds 34 1019 14 10000 2.1 90 11:55 17.10.2019
26 Clouds 34 1019 14 10000 2.1 90 11:37 17.10.2019
27 Clouds 34 1019 14 10000 2.1 90 11:18 17.10.2019
28 Clouds 34 1020 18 10000 2.1 160 10:41 17.10.2019
29 Clouds 34 1020 18 10000 2.1 160 10:19 17.10.2019
30 Clouds 32 1021 24 10000 3.1 280 09:57 17.10.2019
31 Clouds 32 1021 24 10000 3.1 280 09:38 17.10.2019
32 Clear 32 1021 24 10000 3.1 280 09:19 17.10.2019
33 Clear 28 1021 23 10000 2.1 20 08:49 17.10.2019
34 Clear 28 1021 23 10000 2.1 20 08:27 17.10.2019
35 Clear 27 1020 32 10000 3.119 162 07:59 17.10.2019
36 Clear 27 1020 32 10000 3.119 162 07:41 17.10.2019
37 Clear 27 1020 32 10000 3.119 162 07:21 17.10.2019
38 Clear 22 1020 35 10000 1.5 280 06:51 17.10.2019
39 Clear 22 1020 35 10000 1.5 280 06:31 17.10.2019
40 Clear 21 1019 40 8000 1 350 05:59 17.10.2019
41 Clear 21 1019 40 8000 1 350 05:37 17.10.2019
42 Clear 21 1019 40 8000 1 350 05:19 17.10.2019
43 Clear 22 1019 35 10000 1.5 220 04:45 17.10.2019
44 Clear 22 1018 37 10000 1 280 03:45 17.10.2019
45 Clouds 24 1018 31 10000 1 280 01:57 17.10.2019
46 Clouds 24 1018 31 10000 1 280 01:57 17.10.2019
47 Clouds 24 1019 36 10000 0.225 130 00:42 17.10.2019
48 Clouds 24 1019 36 10000 1.51 123 00:21 17.10.2019
49 Clouds 24 1019 36 10000 1.5 350 23:59 16.10.2019
50 Clouds 24 1019 36 10000 1.5 350 23:40 16.10.2019
51 Clouds 24 1019 36 10000 1.5 350 23:18 16.10.2019
52 Clouds 25 1019 33 10000 1 140 22:54 16.10.2019
53 Clouds 25 1019 33 10000 1 140 22:36 16.10.2019
54 Clouds 25 1019 33 10000 1 140 22:18 16.10.2019
55 Clouds 26 1019 36 10000 1.51 123 21:54 16.10.2019
56 Clouds 26 1019 36 10000 1.531 99 21:36 16.10.2019
57 Clouds 26 1019 36 10000 2.065 117 21:18 16.10.2019
58 Clouds 28 1019 28 10000 2.1 50 20:55 16.10.2019
59 Clouds 28 1019 28 10000 2.1 50 20:55 16.10.2019
60 Clouds 28 1019 28 10000 2.1 50 20:37 16.10.2019
61 Clouds 28 1019 28 10000 2.1 50 20:37 16.10.2019
62 Clouds 28 1019 28 10000 2.1 50 20:19 16.10.2019
63 Clouds 30 1018 25 10000 2.1 50 19:40 16.10.2019
64 Clouds 30 1018 25 10000 2.1 50 19:40 16.10.2019
65 Clouds 30 1018 25 10000 2.1 50 19:21 16.10.2019
66 Clouds 30 1018 25 10000 2.1 50 19:21 16.10.2019
67 Clouds 31 1018 23 10000 1.5 80 18:58 16.10.2019
68 Clouds 31 1018 23 10000 1.5 80 18:37 16.10.2019
69 Clouds 31 1018 23 10000 1.5 80 18:18 16.10.2019
70 Clouds 32 1017 22 10000 2.1 100 17:55 16.10.2019
71 Clouds 32 1017 22 10000 2.1 100 17:37 16.10.2019
72 -273 0 0 0 0 0 17:37 16.10.2019
73 Clouds 32 1017 22 10000 2.1 100 17:19 16.10.2019
74 Clouds 33 1017 22 10000 2.1 100 16:56 16.10.2019
75 Clouds 33 1017 22 10000 2.1 100 16:37 16.10.2019
76 Clouds 33 1017 22 10000 2.1 100 16:18 16.10.2019
77 Clouds 34 1017 16 10000 3.1 90 15:40 16.10.2019
78 -273 0 0 0 0 0 15:40 16.10.2019
79 Clouds 34 1017 17 10000 2.1 80 15:19 16.10.2019
80 Clouds 34 1017 17 10000 2.1 80 15:19 16.10.2019
81 Clouds 34 1017 17 10000 2.1 80 14:58 16.10.2019
82 Clouds 34 1017 17 10000 2.1 80 14:40 16.10.2019
83 Clouds 34 1017 17 10000 2.1 80 14:21 16.10.2019
84 Clouds 34 1017 17 10000 3.1 80 13:58 16.10.2019
85 Clouds 34 1017 17 10000 3.1 80 13:39 16.10.2019
86 Clouds 34 1017 17 10000 3.1 80 13:21 16.10.2019
87 Clouds 35 1018 15 10000 2.6 170 12:43 16.10.2019
88 Clouds 35 1018 15 10000 2.6 170 12:20 16.10.2019
89 Clouds 34 1019 17 10000 2.6 170 11:55 16.10.2019
90 Clouds 34 1019 17 10000 2.6 170 11:37 16.10.2019
91 Clouds 34 1019 17 10000 2.6 170 11:18 16.10.2019
92 Clouds 33 1020 18 10000 2.6 180 10:36 16.10.2019
93 Clouds 33 1020 18 10000 2.6 180 10:18 16.10.2019
94 Clouds 32 1020 22 10000 2.6 160 09:41 16.10.2019
95 Clouds 32 1020 22 10000 2.6 160 09:40 16.10.2019
96 Clouds 32 1020 22 10000 2.6 160 09:22 16.10.2019
97 Clouds 30 1020 35 10000 2.1 160 08:57 16.10.2019
98 Clouds 30 1020 35 10000 2.1 160 08:38 16.10.2019
99 Clouds 30 1020 35 10000 2.1 160 08:19 16.10.2019
100 Clouds 28 1020 48 10000 3.546 141 07:42 16.10.2019
101 Clouds 28 1020 48 10000 3.546 141 07:23 16.10.2019
102 Clouds 24 1019 57 10000 3.546 141 06:51 16.10.2019
103 Clouds 24 1019 57 10000 3.546 141 06:30 16.10.2019
104 Clouds 24 1018 57 10000 1 130 04:48 16.10.2019
105 Clear 24 1018 57 10000 1.287 98 02:51 16.10.2019
106 Clear 24 1018 53 10000 1.25 108 01:21 16.10.2019
107 Clear 26 1018 47 10000 1 160 00:59 16.10.2019
108 Clear 26 1018 47 10000 1 160 00:40 16.10.2019
109 Clear 27 1019 39 10000 2.6 110 23:59 15.10.2019
110 Clear 27 1019 39 10000 2.6 110 23:38 15.10.2019
111 Clear 27 1019 39 10000 2.6 110 23:20 15.10.2019
112 Clear 28 1019 34 10000 1.5 110 22:55 15.10.2019
113 Clear 28 1019 34 10000 1.5 110 22:37 15.10.2019
114 Clear 28 1019 34 10000 1.5 110 22:18 15.10.2019
115 Clear 28 1019 34 10000 1.5 110 22:18 15.10.2019
116 Clear 29 1019 25 10000 2.6 100 21:54 15.10.2019
117 Clear 29 1019 25 10000 2.6 100 21:36 15.10.2019
118 Clear 29 1019 25 10000 2.6 100 21:18 15.10.2019
119 Clear 29 1018 25 10000 2.1 80 20:55 15.10.2019
120 Clear 29 1018 25 10000 2.1 80 20:37 15.10.2019
121 Clear 29 1018 25 10000 2.1 80 20:19 15.10.2019
122 Clear 29 1018 25 10000 1.5 80 19:55 15.10.2019
123 Clear 29 1018 25 10000 1.5 80 19:36 15.10.2019
124 Clear 29 1018 25 10000 1.5 80 19:36 15.10.2019
125 Clear 29 1018 25 10000 1.5 80 19:18 15.10.2019
126 -273 0 0 0 0 0 18:41 15.10.2019
127 Clear 31 1017 23 10000 2.1 90 18:23 15.10.2019
128 Clouds 32 1017 24 10000 1.5 100 17:54 15.10.2019
129 Clouds 32 1017 24 10000 1.5 100 17:36 15.10.2019
130 Clouds 32 1017 24 10000 1.5 100 17:18 15.10.2019
131 Clouds 34 1017 15 10000 3.6 90 16:42 15.10.2019
132 Clouds 34 1017 15 10000 3.6 90 16:22 15.10.2019
133 Clear 34 1017 21 10000 2.1 90 15:57 15.10.2019
134 Clear 34 1017 21 10000 2.1 90 15:57 15.10.2019
135 Clear 34 1017 21 10000 2.1 90 15:39 15.10.2019
136 Clear 34 1017 21 10000 2.1 90 15:39 15.10.2019
137 Clear 34 1017 21 10000 2.1 90 15:19 15.10.2019
138 Clouds 36 1017 19 10000 3.23 83 14:55 15.10.2019
139 Clouds 36 1017 19 10000 2.65 86 14:37 15.10.2019
140 Clouds 36 1017 19 10000 2.65 86 14:18 15.10.2019
141 Clouds 35 1017 16 10000 2.6 50 13:43 15.10.2019
142 Clouds 35 1017 16 10000 2.6 50 13:20 15.10.2019
143 Clouds 35 1018 15 10000 3.6 50 12:56 15.10.2019
144 Clouds 35 1018 15 10000 3.6 50 12:56 15.10.2019
145 Clouds 35 1018 15 10000 3.6 50 12:38 15.10.2019
146 Clouds 35 1018 15 10000 3.6 50 12:19 15.10.2019
147 Clouds 35 1018 15 10000 3.6 50 12:19 15.10.2019
148 Clouds 35 1019 16 10000 2.6 90 11:42 15.10.2019
149 Clouds 35 1019 16 10000 2.6 90 11:20 15.10.2019
150 Clear 35 1020 24 10000 2.1 150 10:56 15.10.2019
151 Clear 35 1020 24 10000 2.1 150 10:37 15.10.2019
152 Clear 35 1020 24 10000 2.1 150 10:18 15.10.2019
153 Clear 31 1020 31 10000 3.1 110 09:40 15.10.2019
154 Clear 31 1020 31 10000 3.1 110 09:21 15.10.2019
155 Clear 30 1020 37 10000 1.5 130 08:58 15.10.2019
156 Clear 30 1020 37 10000 1.5 130 08:58 15.10.2019
157 Clear 30 1020 37 10000 1.5 130 08:40 15.10.2019
158 Clear 30 1020 37 10000 1.5 130 08:20 15.10.2019
159 Clear 30 1020 37 10000 1.5 130 08:19 15.10.2019
160 Clear 27 1020 42 10000 1 220 07:43 15.10.2019
161 Clear 27 1020 42 10000 1 220 07:22 15.10.2019
162 Clear 23 1019 53 10000 3.51 139.048 06:56 15.10.2019
163 Clear 23 1019 53 10000 3.51 139.048 06:37 15.10.2019
164 Clear 22 1019 53 8000 2.78 156.205 05:56 15.10.2019
165 Clear 22 1019 53 8000 2.78 156.205 05:36 15.10.2019
166 Clear 22 1018 49 10000 2.78 156.205 04:48 15.10.2019
167 Clear 22 1018 49 10000 2.78 156.205 04:18 15.10.2019
168 Clear 23 1018 53 10000 2.78 156.205 03:34 15.10.2019
169 Clear 23 1018 53 10000 2.78 156.205 03:34 15.10.2019
170 Clear 26 1018 47 10000 1 140 01:51 15.10.2019
171 Clear 26 1018 47 10000 1 140 01:26 15.10.2019
172 Clear 27 1018 34 10000 2.1 100 00:59 15.10.2019
173 Clear 27 1018 34 10000 2.1 100 00:24 15.10.2019
174 Clear 27 1019 30 10000 3.1 70 23:57 14.10.2019
175 Clear 27 1019 30 10000 3.1 70 23:37 14.10.2019
176 Clear 27 1019 30 10000 3.1 70 23:37 14.10.2019
177 Clear 27 1019 30 10000 3.1 70 23:18 14.10.2019
178 Clear 28 1019 26 10000 3.1 80 22:39 14.10.2019
179 Clear 28 1019 26 10000 3.1 80 22:20 14.10.2019
180 Clear 29 1019 23 10000 2.6 90 21:57 14.10.2019
181 Clear 29 1019 23 10000 2.6 90 21:39 14.10.2019
182 Clear 29 1019 23 10000 2.6 90 21:20 14.10.2019
183 Clear 29 1019 23 10000 2.6 90 20:57 14.10.2019
184 Clear 29 1019 23 10000 2.6 90 20:38 14.10.2019
185 Clear 29 1019 23 10000 2.6 90 20:19 14.10.2019
186 Clouds 31 1018 20 10000 2.6 90 19:44 14.10.2019
187 Clouds 31 1018 20 10000 2.6 90 19:25 14.10.2019
188 Clear 32 1018 19 10000 3.1 80 18:59 14.10.2019
189 Clear 32 1018 19 10000 3.1 80 18:40 14.10.2019
190 Clear 32 1018 19 10000 3.1 80 18:21 14.10.2019
191 Clouds 33 1017 18 10000 2.6 80 17:59 14.10.2019
192 Clouds 33 1017 18 10000 2.6 80 17:40 14.10.2019
193 Clouds 33 1017 18 10000 2.6 80 17:22 14.10.2019
194 Clouds 34 1017 18 10000 4.1 90 16:45 14.10.2019
195 Clouds 34 1017 18 10000 4.1 90 16:22 14.10.2019
196 Clouds 35 1017 19 10000 3.1 80 15:58 14.10.2019
197 Clouds 35 1017 19 10000 3.1 80 15:38 14.10.2019
198 Clouds 35 1017 19 10000 3.1 80 15:20 14.10.2019
199 Clouds 35 1017 17 10000 3.6 120 14:43 14.10.2019
200 Clouds 35 1017 17 10000 3.6 120 14:24 14.10.2019
201 Clouds 35 1017 20 10000 3.1 110 13:57 14.10.2019
202 Clouds 35 1017 20 10000 3.1 110 13:39 14.10.2019
203 Clouds 35 1017 20 10000 3.1 110 13:20 14.10.2019
204 Clear 35 1018 24 10000 2.6 110 12:41 14.10.2019
205 Clear 35 1018 24 10000 2.6 110 12:19 14.10.2019
206 Clear 34 1018 26 10000 3.6 140 11:47 14.10.2019
207 Clear 34 1018 26 10000 3.6 140 11:27 14.10.2019
208 Clouds 32 1019 31 10000 3.6 130 10:59 14.10.2019
209 Clouds 32 1019 31 10000 3.6 130 10:40 14.10.2019
210 Clouds 32 1019 31 10000 3.6 130 10:21 14.10.2019
211 Clouds 31 1020 38 10000 3.6 140 09:57 14.10.2019
212 Clouds 31 1020 38 10000 3.6 140 09:38 14.10.2019
213 Clouds 31 1020 38 10000 3.6 140 09:19 14.10.2019
214 Clear 30 1020 45 10000 3.1 130 08:45 14.10.2019
215 Clear 30 1020 45 10000 3.1 130 08:22 14.10.2019
216 Clear 28 1020 54 8000 1.5 130 07:43 14.10.2019
217 Clear 28 1020 54 8000 1.5 130 07:19 14.10.2019
218 Clear 25 1019 61 8000 1 110 06:53 14.10.2019
219 Clear 25 1019 61 8000 1 110 06:26 14.10.2019
220 Clear 24 1018 57 7000 1.5 130 05:49 14.10.2019
221 Clear 24 1017 57 10000 1 110 04:49 14.10.2019
222 Clear 26 1017 47 10000 1.5 140 03:28 14.10.2019
223 Clear 27 1017 42 10000 1.5 140 02:56 14.10.2019
224 Clear 27 1017 36 10000 2.1 130 01:25 14.10.2019
225 Clear 28 1017 34 10000 2.6 130 00:59 14.10.2019
226 Clear 28 1017 34 10000 2.6 130 00:21 14.10.2019
227 Clear 28 1017 34 10000 2.6 130 00:21 14.10.2019
228 Clear 29 1017 28 10000 3.1 130 23:45 13.10.2019
229 Clear 29 1017 28 10000 3.1 130 23:21 13.10.2019
230 Clouds 29 1017 32 10000 2.1 140 22:59 13.10.2019
231 Clouds 29 1017 32 10000 2.1 140 22:41 13.10.2019
232 Clouds 29 1017 32 10000 2.1 140 22:21 13.10.2019
233 Clouds 30 1016 25 10000 2.6 130 21:58 13.10.2019
234 Clouds 30 1016 25 10000 2.6 130 21:38 13.10.2019
235 Clouds 30 1016 25 10000 2.6 130 21:19 13.10.2019
236 Clear 30 1016 28 10000 1.5 130 20:58 13.10.2019
237 Clear 30 1016 28 10000 1.5 130 20:39 13.10.2019
238 Clear 30 1016 28 10000 1.5 130 20:21 13.10.2019
239 Clear 31 1015 27 10000 1.5 120 19:59 13.10.2019
240 Clear 31 1015 27 10000 1.5 120 19:39 13.10.2019
241 Clear 31 1015 27 10000 1.5 120 19:39 13.10.2019
242 Clear 31 1015 27 10000 1.5 120 19:21 13.10.2019
243 Clouds 33 1014 19 10000 3.1 120 18:57 13.10.2019
244 Clouds 33 1014 19 10000 3.1 120 18:57 13.10.2019
245 Clouds 33 1014 19 10000 3.1 120 18:37 13.10.2019
246 Clouds 33 1014 19 10000 3.1 120 18:19 13.10.2019
247 Clouds 33 1014 19 10000 3.1 120 18:19 13.10.2019
248 Clouds 34 1014 17 10000 3.1 100 17:57 13.10.2019
249 Clouds 34 1014 17 10000 3.1 100 17:39 13.10.2019
250 Clouds 34 1014 17 10000 3.1 100 17:21 13.10.2019
251 Clouds 35 1013 17 10000 2.6 130 16:42 13.10.2019
252 Clouds 35 1013 17 10000 2.6 130 16:19 13.10.2019
253 Clouds 36 1013 16 10000 2.1 70 15:57 13.10.2019
254 Clouds 36 1013 16 10000 2.1 70 15:57 13.10.2019
255 Clouds 36 1013 16 10000 2.1 70 15:38 13.10.2019
256 Clouds 36 1013 16 10000 2.1 70 15:19 13.10.2019
257 Clouds 37 1013 16 10000 3.1 140 14:57 13.10.2019
258 Clouds 37 1013 16 10000 3.1 140 14:56 13.10.2019
259 Clouds 37 1013 16 10000 3.1 140 14:38 13.10.2019
260 Clouds 37 1013 16 10000 3.1 140 14:18 13.10.2019
261 Clouds 36 1013 15 10000 3.6 180 13:41 13.10.2019
262 Clouds 36 1013 15 10000 3.6 180 13:22 13.10.2019
263 Clouds 36 1014 16 10000 4.1 180 12:59 13.10.2019
264 Clouds 36 1014 16 10000 4.1 180 12:39 13.10.2019
265 Clouds 36 1014 16 10000 4.1 180 12:20 13.10.2019
266 Clear 36 1014 15 10000 3.1 170 11:58 13.10.2019
267 Clear 36 1014 15 10000 3.1 170 11:39 13.10.2019
268 Clear 36 1014 15 10000 3.1 170 11:20 13.10.2019
269 Clear 35 1015 17 10000 3.6 150 10:43 13.10.2019
270 Clear 35 1015 17 10000 3.6 150 10:24 13.10.2019
271 Clear 34 1015 17 9000 4.1 160 09:59 13.10.2019
272 Clear 34 1015 17 9000 4.1 160 09:59 13.10.2019
273 Clear 34 1015 17 9000 4.1 160 09:39 13.10.2019
274 Clear 34 1015 17 9000 4.1 160 09:20 13.10.2019
275 Clear 34 1015 17 9000 4.1 160 09:20 13.10.2019
276 Clear 31 1016 19 9000 3.6 160 08:43 13.10.2019
277 Clear 31 1016 19 9000 3.6 160 08:25 13.10.2019
278 Clear 31 1016 19 9000 3.6 160 08:25 13.10.2019
279 Clear 28 1015 24 8000 1 140 07:51 13.10.2019
280 Clear 28 1015 24 8000 1 140 07:32 13.10.2019
281 Clear 24 1015 33 8000 2.61 194.084 06:49 13.10.2019
282 Clear 21 1014 37 8000 0.86 189.628 05:59 13.10.2019
283 Clear 22 1014 35 10000 0.86 189.628 04:59 13.10.2019
284 Clear 22 1014 35 10000 0.86 189.628 04:33 13.10.2019
285 Clear 24 1013 27 10000 1 290 02:50 13.10.2019
286 Clear 24 1013 27 10000 1 290 02:25 13.10.2019
287 Clear 25 1013 22 10000 2.1 290 01:34 13.10.2019
288 Clear 25 1013 22 10000 2.1 290 00:53 13.10.2019
289 Clear 25 1013 22 10000 2.1 290 00:23 13.10.2019
290 Clear 27 1013 28 10000 0.56 329.437 23:59 12.10.2019
291 Clear 27 1013 28 10000 0.56 329.437 23:40 12.10.2019
292 Clear 27 1013 28 10000 0.56 329.437 23:22 12.10.2019
293 Clear 28 1013 24 10000 1.5 170 22:58 12.10.2019
294 Clear 28 1013 24 10000 1.5 170 22:39 12.10.2019
295 Clear 28 1013 24 10000 1.5 170 22:21 12.10.2019
296 Clear 29 1013 23 10000 0.56 329.437 21:56 12.10.2019
297 Clear 29 1013 23 10000 0.56 329.437 21:37 12.10.2019
298 Clear 29 1013 23 10000 0.97 55.522 21:19 12.10.2019
299 Clear 30 1013 17 10000 2.6 40 20:44 12.10.2019
300 Clear 30 1013 17 10000 2.6 40 20:26 12.10.2019
301 Clear 29 1013 26 10000 1.36 84.79 19:42 12.10.2019
302 Clear 29 1013 26 10000 1.36 84.79 19:23 12.10.2019
303 Clear 30 1012 27 10000 1.36 84.79 18:59 12.10.2019
304 Clear 30 1012 27 10000 1.36 84.79 18:41 12.10.2019
305 Clear 30 1012 27 10000 1.36 84.79 18:41 12.10.2019
306 Clear 30 1012 27 10000 3.17 341.141 18:23 12.10.2019
307 Clear 33 1012 24 10000 3.17 341.141 17:45 12.10.2019
308 Clear 33 1012 24 10000 3.17 341.141 17:21 12.10.2019
309 Clear 37 1012 19 10000 3.17 341.141 16:57 12.10.2019
310 Clear 37 1012 19 10000 3.17 341.141 16:57 12.10.2019
311 Clear 37 1012 19 10000 3.17 341.141 16:38 12.10.2019
312 Clear 37 1012 19 10000 3.17 341.141 16:19 12.10.2019
313 Clear 36 1012 13 10000 2.6 100 15:45 12.10.2019
314 Clear 36 1012 13 10000 2.6 100 15:26 12.10.2019
315 Clear 36 1011 14 10000 2.1 70 14:59 12.10.2019
316 Clear 36 1011 14 10000 2.1 70 14:38 12.10.2019
317 Clear 36 1011 14 10000 2.1 70 14:19 12.10.2019
318 Clear 37 1012 18 10000 1.5 270 13:45 12.10.2019
319 Clear 37 1012 18 10000 1.5 270 13:27 12.10.2019
320 Clear 37 1012 18 10000 1.5 310 12:55 12.10.2019
321 Clear 37 1012 18 10000 1.5 310 12:36 12.10.2019
322 Clear 37 1012 18 10000 1.5 310 12:18 12.10.2019
323 Clear 37 1013 17 10000 1.5 310 11:40 12.10.2019
324 Clear 37 1013 17 10000 1.5 310 11:22 12.10.2019
325 Clear 37 1014 18 10000 1.5 280 10:56 12.10.2019
326 Clear 37 1014 18 10000 1.5 280 10:37 12.10.2019
327 Clear 37 1014 18 10000 1.5 280 10:19 12.10.2019
328 Clear 35 1010 9 0 2.48 14.176 09:56 12.10.2019
329 Clear 35 1010 9 0 2.48 14.176 09:55 12.10.2019
330 Clear 32 1015 19 10000 2.6 330 09:37 12.10.2019
331 Clear 32 1015 19 10000 2.6 330 09:19 12.10.2019
332 Clear 32 1015 19 10000 2.6 330 08:42 12.10.2019
333 Clear 32 1015 19 10000 2.6 330 08:22 12.10.2019
334 Clear 30 1015 28 10000 1 340 07:37 12.10.2019
335 Clear 30 1015 28 10000 1 340 07:18 12.10.2019
336 Clear 23 1014 33 10000 1.5 340 05:53 12.10.2019
337 Clear 23 1014 33 10000 1.5 340 05:24 12.10.2019
338 Clear 24 1013 29 10000 2.6 290 04:29 12.10.2019
339 Clear 25 1013 31 10000 2.1 280 03:42 12.10.2019
340 Clear 25 1012 25 10000 2.1 310 02:28 12.10.2019
341 Clear 26 1013 24 10000 2.1 290 01:30 12.10.2019
342 Clear 26 1013 27 10000 2.1 290 00:43 12.10.2019
343 Clear 26 1013 27 10000 2.1 290 00:19 12.10.2019
344 Clear 26 1013 34 10000 1.69 347.678 23:40 11.10.2019
345 Clear 26 1013 34 10000 1.69 347.678 23:40 11.10.2019
346 Clear 26 1013 34 10000 1.69 347.678 23:20 11.10.2019
347 Clear 28 1014 30 10000 1.69 347.678 22:56 11.10.2019
348 Clear 28 1014 30 10000 1.69 347.678 22:37 11.10.2019
349 Clear 28 1014 30 10000 1.69 347.678 22:18 11.10.2019
350 Clear 30 1014 23 10000 2.1 360 21:40 11.10.2019
351 Clear 30 1014 23 10000 2.1 360 21:21 11.10.2019
352 Clear 30 1014 19 10000 3.1 10 20:54 11.10.2019
353 Clear 30 1014 19 10000 3.1 10 20:36 11.10.2019
354 Clear 30 1014 19 10000 3.1 10 20:18 11.10.2019
355 Clouds 32 1014 15 10000 3.6 10 19:54 11.10.2019
356 Clouds 32 1014 15 10000 3.6 10 19:54 11.10.2019
357 Clouds 32 1014 15 10000 3.6 10 19:36 11.10.2019
358 Clouds 32 1014 15 10000 3.6 10 19:18 11.10.2019
359 Clouds 32 1014 15 10000 3.6 10 19:18 11.10.2019
360 Clouds 33 1014 14 10000 4.1 360 18:39 11.10.2019
361 Clouds 33 1014 14 10000 4.1 360 18:19 11.10.2019
362 Clouds 34 1013 15 10000 4.1 20 17:59 11.10.2019
363 Clouds 34 1013 15 10000 4.1 20 17:38 11.10.2019
364 Clouds 34 1013 15 10000 4.1 20 17:19 11.10.2019
365 Clouds 36 1013 13 10000 3.6 10 16:59 11.10.2019
366 Clouds 36 1013 13 10000 3.6 10 16:39 11.10.2019
367 Clouds 36 1013 13 10000 3.6 10 16:39 11.10.2019
368 Clouds 36 1013 13 10000 3.6 10 16:19 11.10.2019
369 Clouds 37 1013 16 10000 2.1 10 15:55 11.10.2019
370 Clouds 37 1013 16 10000 2.1 10 15:36 11.10.2019
371 Clouds 37 1013 16 10000 2.1 10 15:18 11.10.2019
372 Clouds 38 1013 15 10000 3.1 310 14:41 11.10.2019
373 Clouds 38 1013 15 10000 3.1 310 14:21 11.10.2019
374 Clouds 37 1014 13 10000 5.1 310 13:46 11.10.2019
375 Clouds 37 1014 13 10000 5.1 310 13:26 11.10.2019
376 Clouds 37 1015 16 10000 3.1 350 12:58 11.10.2019
377 Clouds 37 1015 16 10000 3.1 350 12:39 11.10.2019
378 Clouds 37 1015 16 10000 3.1 350 12:21 11.10.2019
379 Clear 36 1015 18 10000 3.6 10 11:59 11.10.2019
380 Clear 36 1015 18 10000 3.6 10 11:39 11.10.2019
381 Clear 36 1015 18 10000 3.6 10 11:21 11.10.2019
382 Clear 36 1017 19 10000 2.6 310 10:56 11.10.2019
383 Clear 36 1017 19 10000 2.6 310 10:56 11.10.2019
384 Clear 36 1017 19 10000 2.6 310 10:36 11.10.2019
385 Clear 36 1017 19 10000 2.6 310 10:18 11.10.2019
386 Clear 34 1017 23 10000 2.6 310 09:42 11.10.2019
387 Clear 34 1017 23 10000 2.6 310 09:21 11.10.2019
388 Clear 32 1017 24 10000 2.6 310 08:59 11.10.2019
389 Clear 32 1017 24 10000 2.6 310 08:38 11.10.2019
390 Clear 32 1017 24 10000 2.6 310 08:20 11.10.2019
391 Clear 30 1018 30 10000 2.1 310 07:53 11.10.2019
392 Clear 30 1018 30 10000 2.1 310 07:34 11.10.2019
393 Clear 25 1017 36 10000 2.1 310 06:50 11.10.2019
394 Clear 25 1017 36 10000 2.1 310 06:25 11.10.2019
395 Clear 25 1016 36 10000 2.1 20 05:47 11.10.2019
396 Clear 25 1016 36 10000 2.1 20 05:47 11.10.2019
397 Clear 25 1016 36 10000 2.1 20 05:29 11.10.2019
398 Clear 24 1016 38 10000 1.5 20 04:58 11.10.2019
399 Clear 26 1015 36 10000 1.65 224.754 03:40 11.10.2019
400 Clear 26 1015 34 10000 1.5 280 01:26 11.10.2019
401 Clear 27 1016 36 10000 1.81 8.211 00:31 11.10.2019
402 Clear 27 1016 36 10000 2.38 9.755 23:58 10.10.2019
403 Clear 27 1016 36 10000 2.38 9.755 23:40 10.10.2019
404 Clear 27 1016 36 10000 2.38 9.755 23:19 10.10.2019
405 Clear 29 1016 30 10000 2.38 9.755 22:56 10.10.2019
406 Clear 29 1016 30 10000 2.38 9.755 22:36 10.10.2019
407 Clear 29 1016 30 10000 2.38 9.755 22:18 10.10.2019
408 Clear 29 1016 35 10000 2.38 9.755 21:42 10.10.2019
409 Clear 29 1016 35 10000 2.38 9.755 21:42 10.10.2019
410 Clear 29 1016 35 10000 4.08 53.723 21:22 10.10.2019
411 Clear 31 1016 27 10000 2.1 60 20:58 10.10.2019
412 Clear 31 1016 27 10000 2.1 60 20:40 10.10.2019
413 Clear 31 1016 27 10000 2.1 60 20:20 10.10.2019
414 Clouds 32 1016 22 10000 2.6 40 19:57 10.10.2019
415 Clouds 32 1016 22 10000 2.6 40 19:39 10.10.2019
416 Clouds 32 1016 22 10000 2.6 40 19:19 10.10.2019
417 Clouds 33 1015 21 10000 2.1 50 18:42 10.10.2019
418 Clouds 33 1015 21 10000 2.1 50 18:21 10.10.2019
419 Clouds 34 1015 23 10000 2.1 70 17:59 10.10.2019
420 Clouds 34 1015 23 10000 2.1 70 17:40 10.10.2019
421 Clouds 34 1015 23 10000 2.1 70 17:19 10.10.2019
422 Clouds 35 1015 16 10000 3.1 40 16:56 10.10.2019
423 Clouds 35 1015 16 10000 3.1 40 16:37 10.10.2019
424 Clouds 35 1015 16 10000 3.1 40 16:19 10.10.2019
425 Clouds 36 1015 18 10000 3.1 70 15:40 10.10.2019
426 Clouds 36 1015 18 10000 3.1 70 15:22 10.10.2019
427 Clouds 37 1015 18 10000 3.1 80 14:58 10.10.2019
428 Clouds 37 1015 18 10000 3.1 80 14:37 10.10.2019
429 Clouds 37 1015 18 10000 3.1 80 14:19 10.10.2019
430 Clouds 37 1015 17 10000 5.1 360 13:57 10.10.2019
431 Clouds 37 1015 17 10000 5.1 360 13:39 10.10.2019
432 Clouds 37 1015 17 10000 5.1 360 13:18 10.10.2019
433 Clouds 37 1016 23 10000 2.1 30 12:42 10.10.2019
434 Clouds 37 1016 23 10000 2.1 30 12:21 10.10.2019
435 Clouds 36 1017 20 10000 4.1 100 11:58 10.10.2019
436 Clouds 36 1017 20 10000 4.1 100 11:40 10.10.2019
437 Clouds 36 1017 20 10000 4.1 100 11:19 10.10.2019
438 Clear 35 1018 26 10000 2.6 80 10:47 10.10.2019
439 Clear 35 1018 26 10000 2.6 80 10:28 10.10.2019
440 Clear 36 1018 28 9000 1.5 360 09:59 10.10.2019
441 Clear 36 1018 28 9000 1.5 360 09:41 10.10.2019
442 Clouds 36 1018 28 9000 1.5 360 09:23 10.10.2019
443 Clouds 33 1018 36 8000 1 180 08:59 10.10.2019
444 Clouds 33 1018 36 8000 1 180 08:39 10.10.2019
445 Clouds 33 1018 36 8000 1 180 08:20 10.10.2019
446 Clear 30 1018 40 10000 0.58 103.241 07:47 10.10.2019
447 Clear 30 1018 40 10000 0.58 103.241 07:25 10.10.2019
448 Clear 26 1018 44 10000 2.1 290 06:55 10.10.2019
449 Clear 26 1018 44 10000 2.1 290 06:36 10.10.2019
450 Clear 25 1017 50 10000 1.28 204.618 05:39 10.10.2019
451 Clear 25 1017 50 10000 1.28 204.618 05:18 10.10.2019
452 Clear 25 1017 50 10000 1.28 204.618 04:34 10.10.2019
453 Clear 26 1017 47 10000 1.65 143.088 02:19 10.10.2019
454 Clear 26 1017 44 10000 1 280 01:36 10.10.2019
455 Clear 26 1017 44 10000 1 280 01:18 10.10.2019
456 Clear 27 1017 44 10000 2.45 92.48 00:25 10.10.2019
457 Clear 29 1017 39 10000 1 70 23:42 09.10.2019
458 Clear 29 1017 39 10000 1 70 23:23 09.10.2019
459 Clear 29 1018 39 10000 2.1 90 22:59 09.10.2019
460 Clear 29 1018 39 10000 2.1 90 22:41 09.10.2019
461 Clear 29 1018 39 10000 2.1 90 22:22 09.10.2019
462 Clear 30 1018 37 10000 2.1 70 21:42 09.10.2019
463 Clear 30 1018 37 10000 2.1 70 21:21 09.10.2019
464 Clear 30 1018 37 10000 2.1 70 21:21 09.10.2019
465 Clear 31 1017 33 10000 2.6 80 20:58 09.10.2019
466 Clear 31 1017 33 10000 2.6 80 20:39 09.10.2019
467 Clear 31 1017 33 10000 2.6 80 20:21 09.10.2019
468 Clear 32 1017 31 10000 2.6 70 19:59 09.10.2019
469 Clear 32 1017 31 10000 2.6 70 19:59 09.10.2019
470 Clear 32 1017 31 10000 2.6 70 19:59 09.10.2019
471 Clear 32 1017 31 10000 2.6 70 19:59 09.10.2019
472 Clear 32 1017 31 10000 2.6 70 19:40 09.10.2019
473 Clear 32 1017 31 10000 2.6 70 19:22 09.10.2019
474 Clear 33 1017 29 10000 3.1 60 18:39 09.10.2019
475 Clear 33 1017 29 10000 3.1 60 18:21 09.10.2019
476 Clouds 34 1016 26 10000 4.1 70 17:58 09.10.2019
477 Clouds 34 1016 26 10000 4.1 70 17:40 09.10.2019
478 Clouds 34 1016 26 10000 4.1 70 17:22 09.10.2019
479 Clouds 35 1016 24 10000 3.6 70 16:56 09.10.2019
480 Clouds 35 1016 24 10000 3.6 70 16:38 09.10.2019
481 Clouds 35 1016 24 10000 3.6 70 16:20 09.10.2019
482 Clouds 35 1016 24 10000 3.6 40 15:55 09.10.2019
483 Clouds 35 1016 24 10000 3.6 40 15:37 09.10.2019
484 Clouds 35 1016 24 10000 3.6 40 15:18 09.10.2019
485 Clouds 35 1016 24 10000 3.6 60 14:44 09.10.2019
486 Clouds 35 1016 24 10000 3.6 60 14:19 09.10.2019
487 Clouds 36 1017 25 10000 3.6 10 13:59 09.10.2019
488 Clouds 36 1017 25 10000 3.6 10 13:38 09.10.2019
489 Clouds 36 1017 25 10000 3.6 10 13:18 09.10.2019
490 Clear 35 1018 28 10000 2.6 60 12:44 09.10.2019
491 Clear 35 1018 28 10000 2.6 60 12:23 09.10.2019
492 Clear 34 1019 28 10000 2.6 70 11:58 09.10.2019
493 Clear 34 1019 28 10000 2.6 70 11:40 09.10.2019
494 Clear 34 1019 28 10000 2.6 70 11:20 09.10.2019
495 Clear 34 1019 30 10000 1.5 120 10:58 09.10.2019
496 Clear 34 1019 30 10000 1.5 120 10:40 09.10.2019
497 Clear 34 1019 30 10000 1.5 120 10:40 09.10.2019
498 Clear 34 1019 30 10000 1.5 120 10:18 09.10.2019
499 Clear 32 1020 31 10000 1.5 180 09:43 09.10.2019
500 Clear 32 1020 31 10000 1.5 180 09:20 09.10.2019
501 Clear 31 1020 33 10000 2.1 170 08:58 09.10.2019
502 Clear 31 1020 33 10000 2.1 170 08:38 09.10.2019
503 Clear 31 1020 33 10000 2.1 170 08:19 09.10.2019
504 Clear 29 1020 45 10000 1.5 120 07:47 09.10.2019
505 Clear 29 1020 45 10000 1.5 120 07:24 09.10.2019
506 Clear 27 1020 47 10000 1 140 06:56 09.10.2019
507 Clear 27 1020 47 10000 1 140 06:34 09.10.2019
508 Clear 25 1019 47 10000 1.5 150 05:51 09.10.2019
509 Clear 26 1019 44 10000 1 150 04:50 09.10.2019
510 Clear 26 1018 41 10000 1 150 03:43 09.10.2019
511 Clear 26 1018 41 10000 1 140 02:27 09.10.2019
512 Clear 26 1018 44 10000 2.54 156.015 01:22 09.10.2019
513 Clear 27 1018 42 10000 1 140 00:59 09.10.2019
514 Clear 27 1018 42 10000 1 140 00:40 09.10.2019
515 Clear 27 1018 42 10000 1 140 00:22 09.10.2019
516 Clear 28 1018 37 10000 1.5 130 23:58 08.10.2019
517 Clear 28 1018 37 10000 1.5 130 23:37 08.10.2019
518 Clear 28 1018 37 10000 1.5 130 23:18 08.10.2019
519 Clear 30 1018 35 10000 2.1 130 22:41 08.10.2019
520 Clear 30 1018 35 10000 2.1 130 22:21 08.10.2019
521 Clear 31 1018 29 10000 3.1 110 21:58 08.10.2019
522 Clear 31 1018 29 10000 3.1 110 21:39 08.10.2019
523 Clear 31 1018 29 10000 3.1 110 21:20 08.10.2019
524 Clear 31 1018 29 8000 3.1 110 20:57 08.10.2019
525 Clear 31 1018 29 8000 3.1 110 20:57 08.10.2019
526 Clear 31 1018 29 8000 3.1 110 20:39 08.10.2019
527 Clear 31 1018 29 8000 3.1 110 20:21 08.10.2019
528 Clear 32 1017 25 8000 2.6 120 19:58 08.10.2019
529 Clear 32 1017 25 8000 2.6 120 19:58 08.10.2019
530 Clear 32 1017 25 8000 2.6 120 19:40 08.10.2019
531 Clear 32 1017 25 8000 2.6 120 19:22 08.10.2019
532 Clear 33 1016 22 8000 3.1 120 18:55 08.10.2019
533 Clear 33 1016 22 8000 3.1 120 18:55 08.10.2019
534 Clear 33 1016 22 8000 3.1 120 18:36 08.10.2019
535 Clear 33 1016 22 8000 3.1 120 18:18 08.10.2019
536 Clear 34 1016 21 8000 4.1 110 17:40 08.10.2019
537 Clear 34 1016 21 8000 4.1 110 17:20 08.10.2019
538 Clear 35 1015 23 8000 3.1 120 16:58 08.10.2019
539 Clear 35 1015 23 8000 3.1 120 16:39 08.10.2019
540 Clear 35 1015 23 8000 3.1 120 16:21 08.10.2019
541 Clear 36 1015 18 10000 4.1 120 15:41 08.10.2019
542 Clear 36 1015 18 10000 4.1 120 15:41 08.10.2019
543 Clear 36 1015 18 10000 4.1 120 15:21 08.10.2019
544 Clear 36 1015 20 10000 2.6 140 14:58 08.10.2019
545 Clear 36 1015 20 10000 2.6 140 14:39 08.10.2019
546 Clear 36 1015 20 10000 2.6 140 14:20 08.10.2019
547 Clear 36 1015 20 10000 3.1 150 13:57 08.10.2019
548 Clear 36 1015 20 10000 3.1 150 13:38 08.10.2019
549 Clear 36 1015 20 10000 3.1 150 13:19 08.10.2019
550 Clear 36 1016 23 10000 4.6 170 12:56 08.10.2019
551 Clear 36 1016 23 10000 4.6 170 12:37 08.10.2019
552 Clear 36 1016 23 10000 4.6 170 12:37 08.10.2019
553 Clear 36 1016 23 10000 4.6 170 12:18 08.10.2019
554 Clear 35 1017 26 10000 3.6 140 11:41 08.10.2019
555 Clear 35 1017 26 10000 3.6 140 11:23 08.10.2019
556 Clear 33 1018 36 10000 3.6 150 10:56 08.10.2019
557 Clear 33 1018 36 10000 3.6 150 10:36 08.10.2019
558 Clear 33 1018 36 10000 3.6 150 10:18 08.10.2019
559 Clear 33 1018 38 10000 2.6 150 09:41 08.10.2019
560 Clear 33 1018 38 10000 2.6 150 09:41 08.10.2019
561 Clear 33 1018 38 10000 2.6 150 09:23 08.10.2019
562 Clear 30 1018 51 9000 2.6 120 08:59 08.10.2019
563 Clear 30 1018 51 9000 2.6 120 08:41 08.10.2019
564 Clear 30 1018 51 9000 2.6 120 08:22 08.10.2019
565 Clear 29 1018 58 8000 2.6 120 07:42 08.10.2019
566 Clear 29 1018 58 8000 2.6 120 07:21 08.10.2019
567 Clear 29 1018 58 8000 2.6 120 07:21 08.10.2019
568 Clear 27 1017 65 8000 1 120 06:49 08.10.2019
569 Clear 27 1017 65 8000 1 120 06:28 08.10.2019
570 Clear 26 1017 74 7000 1.5 130 05:45 08.10.2019
571 Clear 26 1017 74 7000 1.5 130 05:45 08.10.2019
572 Clear 26 1017 74 7000 1.5 130 05:25 08.10.2019
573 Clear 27 1015 65 10000 1 130 03:33 08.10.2019
574 Clear 27 1015 57 10000 1 130 02:48 08.10.2019
575 Clear 27 1015 57 10000 1 130 02:29 08.10.2019
576 Clear 28 1015 48 10000 1.5 120 01:43 08.10.2019
577 Clear 28 1015 48 10000 1.5 120 01:19 08.10.2019
578 Clear 28 1015 45 10000 1.5 120 00:38 08.10.2019
579 Clear 28 1015 45 10000 1.5 120 00:19 08.10.2019
580 Clear 29 1015 39 10000 2.1 130 23:39 07.10.2019
581 Clear 29 1015 39 10000 2.1 130 23:19 07.10.2019
582 Clear 30 1015 40 10000 2.1 130 22:55 07.10.2019
583 Clear 30 1015 40 10000 2.1 130 22:55 07.10.2019
584 Clear 30 1015 40 10000 2.1 130 22:37 07.10.2019
585 Clear 30 1015 40 10000 2.1 130 22:19 07.10.2019
586 Clear 31 1015 31 10000 2.6 130 21:55 07.10.2019
587 Clear 31 1015 31 10000 2.6 130 21:37 07.10.2019
588 Clear 31 1015 31 10000 2.6 130 21:18 07.10.2019
589 Clear 32 1015 24 10000 4.6 120 20:56 07.10.2019
590 Clear 32 1015 24 10000 4.6 120 20:38 07.10.2019
591 Clear 32 1015 24 10000 4.6 120 20:18 07.10.2019
592 Clear 33 1014 21 10000 6.2 110 19:42 07.10.2019
593 Clear 33 1014 21 10000 6.2 110 19:21 07.10.2019
594 Clear 34 1013 17 10000 6.2 100 19:00 07.10.2019
595 Clear 34 1013 17 10000 6.2 100 18:41 07.10.2019
596 Clear 34 1013 17 10000 6.2 100 18:19 07.10.2019
597 Clear 36 1013 16 10000 4.6 110 17:58 07.10.2019
598 Clear 36 1013 16 10000 4.6 110 17:40 07.10.2019
599 Clear 36 1013 16 10000 4.6 110 17:18 07.10.2019
600 Clear 37 1012 17 10000 4.6 110 16:44 07.10.2019
601 Clear 37 1012 17 10000 4.6 110 16:26 07.10.2019
602 Clear 37 1012 18 10000 3.6 110 15:57 07.10.2019
603 Clear 37 1012 18 10000 3.6 110 15:38 07.10.2019
604 Clear 37 1012 18 10000 3.6 110 15:20 07.10.2019
605 Clear 38 1012 18 10000 3.1 120 14:41 07.10.2019
606 Clear 38 1012 18 10000 3.1 120 14:23 07.10.2019
607 Clear 38 1012 16 10000 3.1 120 13:45 07.10.2019
608 Clear 38 1012 16 10000 3.1 120 13:21 07.10.2019
609 Clouds 38 1013 18 8000 2.6 160 12:58 07.10.2019
610 Clouds 38 1013 18 8000 2.6 160 12:58 07.10.2019
611 Clouds 38 1013 18 8000 2.6 160 12:39 07.10.2019
612 Clouds 38 1013 18 8000 2.6 160 12:20 07.10.2019
613 Clouds 37 1013 17 8000 3.1 170 11:59 07.10.2019
614 Clouds 37 1013 17 8000 3.1 170 11:40 07.10.2019
615 Clouds 37 1013 17 8000 3.1 170 11:40 07.10.2019
616 Clouds 37 1013 17 8000 3.1 170 11:20 07.10.2019
617 Clouds 36 1014 18 8000 3.6 170 10:44 07.10.2019
618 Clouds 36 1014 18 8000 3.6 170 10:23 07.10.2019
619 Clouds 34 1015 21 8000 3.1 160 09:58 07.10.2019
620 Clouds 34 1015 21 8000 3.1 160 09:38 07.10.2019
621 Clouds 34 1015 21 8000 3.1 160 09:20 07.10.2019
622 Clouds 33 1015 24 9000 3.1 160 08:43 07.10.2019
623 Clouds 33 1015 24 9000 3.1 160 08:20 07.10.2019
624 Clouds 29 1014 32 8000 2.1 120 07:49 07.10.2019
625 Clouds 29 1014 32 8000 2.1 120 07:28 07.10.2019
626 Clouds 27 1014 39 8000 1 110 06:58 07.10.2019
627 Clouds 27 1014 39 8000 1 110 06:38 07.10.2019
628 Clouds 27 1014 39 8000 1 110 06:18 07.10.2019
629 Clouds 27 1013 32 8000 2.1 160 05:26 07.10.2019
630 Clear 27 1013 34 10000 1.5 150 04:50 07.10.2019
631 Clear 27 1012 32 10000 1.5 140 03:46 07.10.2019
632 Clear 27 1012 32 10000 1.5 140 03:27 07.10.2019
633 Clear 28 1011 30 10000 2.1 160 02:37 07.10.2019
634 Clear 28 1011 30 10000 2.1 160 02:19 07.10.2019
635 Clear 28 1011 32 10000 1 140 01:23 07.10.2019
636 Clear 28 1012 30 10000 2.1 100 00:51 07.10.2019
637 Clear 28 1012 30 10000 2.1 100 00:26 07.10.2019
638 Clear 30 1012 30 10000 1 170 23:59 06.10.2019
639 Clear 30 1012 30 10000 1 170 23:40 06.10.2019
640 Clear 30 1012 30 10000 1 170 23:20 06.10.2019
641 Clear 31 1012 22 10000 4.1 140 22:56 06.10.2019
642 Clear 31 1012 22 10000 4.1 140 22:37 06.10.2019
643 Clear 31 1012 22 10000 4.1 140 22:18 06.10.2019
644 Clear 32 1012 21 10000 3.1 140 21:55 06.10.2019
645 Clear 32 1012 21 10000 3.1 140 21:55 06.10.2019
646 Clear 32 1012 21 10000 3.1 140 21:55 06.10.2019
647 Clear 32 1012 21 10000 3.1 140 21:36 06.10.2019
648 Clear 32 1012 21 10000 3.1 140 21:18 06.10.2019
649 Clear 33 1011 19 10000 4.6 120 20:54 06.10.2019
650 Clear 33 1011 19 10000 4.6 120 20:54 06.10.2019
651 Clear 33 1011 19 10000 4.6 120 20:36 06.10.2019
652 Clear 33 1011 19 10000 4.6 120 20:18 06.10.2019
653 Clouds 34 1011 16 10000 6.2 90 19:55 06.10.2019
654 Clouds 34 1011 16 10000 6.2 90 19:36 06.10.2019
655 Clouds 34 1011 16 10000 6.2 90 19:18 06.10.2019
656 Clouds 35 1010 19 10000 2.6 80 18:54 06.10.2019
657 Clouds 35 1010 19 10000 2.6 80 18:54 06.10.2019
658 Clouds 35 1010 19 10000 2.6 80 18:36 06.10.2019
659 Clouds 35 1010 19 10000 2.6 80 18:18 06.10.2019
660 Clouds 37 1010 17 10000 2.1 80 17:42 06.10.2019
661 Clouds 37 1010 17 10000 2.1 80 17:20 06.10.2019
662 Clouds 39 1010 20 10000 1.5 10 16:55 06.10.2019
663 Clouds 39 1010 20 10000 1.5 10 16:36 06.10.2019
664 Clouds 39 1010 20 10000 1.5 10 16:18 06.10.2019
665 Clouds 39 1010 16 10000 3.6 240 15:42 06.10.2019
666 Clouds 39 1010 16 10000 3.6 240 15:19 06.10.2019
667 Clouds 39 1010 16 10000 3.6 240 15:19 06.10.2019
668 Clouds 39 1010 16 10000 3.6 240 15:19 06.10.2019
669 Clouds 40 1010 19 10000 1.5 20 14:44 06.10.2019
670 Clouds 40 1010 19 10000 1.5 20 14:25 06.10.2019
671 Clouds 40 1010 19 10000 1.5 190 13:59 06.10.2019
672 Clouds 40 1010 19 10000 1.5 190 13:39 06.10.2019
673 Clouds 40 1010 19 10000 1.5 190 13:21 06.10.2019
674 Clouds 40 1011 15 10000 2.1 160 12:58 06.10.2019
675 Clouds 40 1011 15 10000 2.1 160 12:39 06.10.2019
676 Clouds 40 1011 15 10000 2.1 160 12:39 06.10.2019
677 Clouds 40 1011 15 10000 2.1 160 12:21 06.10.2019
678 Clouds 37 1012 18 10000 2.6 270 11:58 06.10.2019
679 Clouds 37 1012 18 10000 2.6 270 11:39 06.10.2019
680 Clouds 37 1012 18 10000 2.6 270 11:20 06.10.2019
681 Clouds 37 1012 18 10000 2.6 270 11:20 06.10.2019
682 Clear 37 1013 20 10000 2.6 220 10:45 06.10.2019
683 Clear 37 1013 20 10000 2.6 220 10:26 06.10.2019
684 Clear 35 1013 26 10000 2.6 200 09:58 06.10.2019
685 Clear 35 1013 26 10000 2.6 200 09:40 06.10.2019
686 Clear 35 1013 26 10000 2.6 200 09:19 06.10.2019
687 Clear 33 1013 31 10000 4.1 190 08:45 06.10.2019
688 Clear 33 1013 31 10000 4.1 190 08:21 06.10.2019
689 Clear 30 1013 40 10000 1.5 180 07:57 06.10.2019
690 Clear 30 1013 40 10000 1.5 180 07:35 06.10.2019
691 Clear 26 1013 41 10000 1 130 06:23 06.10.2019
692 Clear 25 1013 41 8000 3.73 187.502 05:35 06.10.2019
693 Clear 25 1012 41 10000 3.73 187.502 04:26 06.10.2019
694 Clear 27 1011 36 10000 1 120 02:46 06.10.2019
695 Clear 27 1011 36 10000 1 120 02:27 06.10.2019
696 Clear 28 1012 32 10000 1.5 150 01:46 06.10.2019
697 Clear 28 1012 32 10000 1.5 150 01:27 06.10.2019
698 Clear 29 1012 32 10000 1.5 120 00:57 06.10.2019
699 Clear 29 1012 32 10000 1.5 120 00:57 06.10.2019
700 Clear 29 1012 32 10000 1.5 120 00:28 06.10.2019
701 Clouds 29 1012 32 10000 1.5 140 23:45 05.10.2019
702 Clouds 29 1012 32 10000 1.5 140 23:23 05.10.2019
703 Clouds 30 1013 30 10000 1.5 110 22:59 05.10.2019
704 Clouds 30 1013 30 10000 1.5 110 22:40 05.10.2019
705 Clouds 30 1013 30 10000 1.5 110 22:20 05.10.2019
706 Clouds 31 1013 23 10000 2.6 90 21:57 05.10.2019
707 Clouds 31 1013 23 10000 2.6 90 21:39 05.10.2019
708 Clouds 31 1013 23 10000 2.6 90 21:39 05.10.2019
709 Clouds 31 1013 23 10000 2.6 90 21:20 05.10.2019
710 Clouds 32 1013 22 10000 2.6 70 20:56 05.10.2019
711 Clouds 32 1013 22 10000 2.6 70 20:37 05.10.2019
712 Clouds 32 1013 22 10000 2.6 70 20:19 05.10.2019
713 Clouds 32 1013 22 10000 2.6 70 20:19 05.10.2019
714 Clouds 33 1013 22 10000 2.6 70 19:38 05.10.2019
715 Clouds 33 1013 22 10000 2.6 70 19:19 05.10.2019
716 Clouds 34 1012 21 10000 3.1 60 18:56 05.10.2019
717 Clouds 34 1012 21 10000 3.1 60 18:38 05.10.2019
718 Clouds 34 1012 21 10000 3.1 60 18:20 05.10.2019
719 Clouds 36 1011 20 10000 2.1 50 17:46 05.10.2019
720 Clouds 36 1011 20 10000 2.1 50 17:27 05.10.2019
721 Clouds 37 1011 19 10000 2.6 50 16:59 05.10.2019
722 Clouds 37 1011 19 10000 2.6 50 16:41 05.10.2019
723 Clouds 37 1011 19 10000 2.6 50 16:21 05.10.2019
724 Clear 38 1011 19 9000 4.1 30 15:57 05.10.2019
725 Clear 38 1011 19 9000 4.1 30 15:39 05.10.2019
726 Clear 38 1011 19 9000 4.1 30 15:21 05.10.2019
727 Clear 39 1011 16 9000 3.6 30 14:56 05.10.2019
728 Clear 39 1011 16 9000 3.6 30 14:38 05.10.2019
729 Clear 39 1011 16 9000 3.6 30 14:19 05.10.2019
730 Clear 38 1011 18 9000 2.1 60 13:41 05.10.2019
731 Clear 38 1011 18 9000 2.1 60 13:21 05.10.2019
732 Clear 38 1012 18 9000 2.1 120 12:46 05.10.2019
733 Clear 38 1012 18 9000 2.1 120 12:20 05.10.2019
734 Clear 37 1013 19 9000 3.6 90 11:54 05.10.2019
735 Clear 37 1013 19 9000 3.6 90 11:36 05.10.2019
736 Clear 37 1013 19 9000 3.6 90 11:18 05.10.2019
737 Clear 36 1014 22 9000 4.1 90 10:44 05.10.2019
738 Clear 36 1014 22 9000 4.1 90 10:24 05.10.2019
739 Clear 34 1014 26 9000 3.1 70 09:56 05.10.2019
740 Clear 34 1014 26 9000 3.1 70 09:38 05.10.2019
741 Clear 34 1014 26 9000 3.1 70 09:38 05.10.2019
742 Clear 34 1014 26 9000 3.1 70 09:20 05.10.2019
743 Clear 33 1015 31 9000 2.6 40 08:39 05.10.2019
744 Clear 33 1015 31 9000 2.6 40 08:19 05.10.2019
745 Clear 31 1014 29 10000 2.6 360 07:53 05.10.2019
746 Clear 31 1014 29 10000 2.6 360 07:32 05.10.2019
747 Clear 29 1013 32 10000 2.6 350 06:57 05.10.2019
748 Clear 29 1013 32 10000 2.6 350 06:26 05.10.2019
749 Clear 27 1013 36 10000 1.5 360 05:40 05.10.2019
750 Clear 29 1012 35 10000 1.5 320 03:39 05.10.2019
751 Clear 29 1012 35 10000 1.5 320 03:39 05.10.2019
752 Clear 29 1012 35 10000 1.5 320 03:20 05.10.2019
753 Clear 30 1012 33 10000 3.1 320 01:30 05.10.2019
754 Clear 31 1012 33 10000 2.6 20 00:51 05.10.2019
755 Clear 31 1012 33 10000 2.6 20 00:51 05.10.2019
756 Clear 31 1012 33 10000 2.6 20 00:28 05.10.2019
757 Clouds 32 1012 27 10000 3.6 40 23:59 04.10.2019
758 Clouds 32 1012 27 10000 3.6 40 23:41 04.10.2019
759 Clouds 32 1012 27 10000 3.6 40 23:23 04.10.2019
760 Clouds 33 1012 19 10000 3.6 10 22:57 04.10.2019
761 Clouds 33 1012 19 10000 3.6 10 22:38 04.10.2019
762 Clouds 33 1012 19 10000 3.6 10 22:19 04.10.2019
763 Clouds 33 1012 22 10000 2.1 350 21:41 04.10.2019
764 Clouds 33 1012 22 10000 2.1 350 21:23 04.10.2019
765 Clouds 34 1012 21 10000 2.1 30 21:00 04.10.2019
766 Clouds 34 1012 21 10000 2.1 30 20:41 04.10.2019
767 Clouds 34 1012 21 10000 2.1 30 20:23 04.10.2019
768 Clouds 34 1012 24 10000 1 360 19:57 04.10.2019
769 Clouds 34 1012 24 10000 1 360 19:57 04.10.2019
770 Clouds 34 1012 24 10000 1 360 19:38 04.10.2019
771 Clouds 34 1012 24 10000 1 360 19:20 04.10.2019
772 Clouds 36 1011 19 10000 1 300 18:55 04.10.2019
773 Clouds 36 1011 19 10000 1 300 18:36 04.10.2019
774 Clouds 36 1011 19 10000 1 300 18:18 04.10.2019
775 Clouds 38 1011 17 10000 2.1 320 17:40 04.10.2019
776 Clouds 38 1011 17 10000 2.1 320 17:22 04.10.2019
777 Clouds 38 1011 17 10000 2.1 320 17:22 04.10.2019
778 Clouds 40 1011 11 10000 4.1 320 16:58 04.10.2019
779 Clouds 40 1011 11 10000 4.1 320 16:39 04.10.2019
780 Clouds 40 1011 11 10000 4.1 320 16:39 04.10.2019
781 Clouds 40 1011 11 10000 4.1 320 16:18 04.10.2019
782 Clouds 40 1011 11 10000 4.1 320 16:18 04.10.2019
783 Clouds 41 1011 12 10000 2.6 350 15:56 04.10.2019
784 Clouds 41 1011 12 10000 2.6 350 15:38 04.10.2019
785 Clouds 41 1011 12 10000 2.6 350 15:19 04.10.2019
786 Clouds 42 1011 10 10000 3.1 360 14:55 04.10.2019
787 Clouds 42 1011 10 10000 3.1 360 14:37 04.10.2019
788 Clouds 42 1011 10 10000 3.1 360 14:19 04.10.2019
789 Clear 41 1012 11 10000 2.1 280 13:44 04.10.2019
790 Clear 41 1012 11 10000 2.1 280 13:21 04.10.2019
791 Clear 40 1012 11 10000 3.1 270 12:47 04.10.2019
792 Clear 40 1012 11 10000 3.1 270 12:29 04.10.2019
793 Clear 40 1013 11 10000 4.1 290 11:59 04.10.2019
794 Clear 40 1013 11 10000 4.1 290 11:41 04.10.2019
795 Clear 40 1013 11 10000 4.1 290 11:20 04.10.2019
796 Clear 40 1013 11 10000 4.1 290 11:20 04.10.2019
797 Clear 40 1014 14 10000 3.1 270 10:41 04.10.2019
798 Clear 40 1014 14 10000 3.1 270 10:41 04.10.2019
799 Clear 40 1014 14 10000 3.1 270 10:21 04.10.2019
800 Clear 40 1014 14 10000 3.1 270 10:21 04.10.2019
801 Clear 38 1015 16 10000 3.1 270 09:50 04.10.2019
802 Clear 38 1015 16 10000 3.1 270 09:31 04.10.2019
803 Clear 36 1015 16 10000 2.1 230 08:57 04.10.2019
804 Clear 36 1015 16 10000 2.1 230 08:38 04.10.2019
805 Clear 36 1015 16 10000 2.1 230 08:38 04.10.2019
806 Clear 36 1015 16 10000 2.1 230 08:20 04.10.2019
807 Clear 30 1015 33 10000 5.45 279.056 07:46 04.10.2019
808 Clear 30 1015 33 10000 5.45 279.056 07:23 04.10.2019
809 Clear 27 1014 28 10000 1 30 06:47 04.10.2019
810 Clear 27 1014 28 10000 1 30 06:47 04.10.2019
811 Clear 27 1014 28 10000 1 30 06:27 04.10.2019
812 Clear 27 1014 26 10000 1 260 05:52 04.10.2019
813 Clear 27 1014 26 10000 1 260 05:19 04.10.2019
814 Clear 27 1013 26 10000 1.5 300 03:50 04.10.2019
815 Clear 27 1012 30 10000 1 20 02:54 04.10.2019
816 Clear 27 1012 30 10000 1 20 02:18 04.10.2019
817 Clear 29 1012 28 10000 1 180 01:42 04.10.2019
818 Clear 29 1012 28 10000 1 180 01:23 04.10.2019
819 Clear 30 1013 23 10000 1.5 300 23:59 03.10.2019
820 Clear 30 1013 23 10000 1.5 300 23:37 03.10.2019
821 Clear 30 1013 23 10000 1.5 300 23:18 03.10.2019
822 Clear 30 1013 23 10000 1.5 300 23:18 03.10.2019
823 Clear 33 1013 21 10000 1 260 22:56 03.10.2019
824 Clear 33 1013 21 10000 1 260 22:38 03.10.2019
825 Clear 33 1013 21 10000 1 260 22:38 03.10.2019
826 Clear 33 1013 21 10000 1 260 22:20 03.10.2019
827 Clear 33 1013 21 10000 1.5 220 21:56 03.10.2019
828 Clear 33 1013 21 10000 1.5 220 21:37 03.10.2019
829 Clear 33 1013 21 10000 1.5 220 21:19 03.10.2019
830 Clear 35 1013 19 10000 2.1 170 20:56 03.10.2019
831 Clear 35 1013 19 10000 2.1 170 20:37 03.10.2019
832 Clear 35 1013 19 10000 2.1 170 20:37 03.10.2019
833 Clear 35 1013 19 10000 2.1 170 20:19 03.10.2019
834 Clear 36 1013 19 10000 2.1 170 19:41 03.10.2019
835 Clear 36 1013 19 10000 2.1 170 19:22 03.10.2019
836 Clear 34 1012 21 10000 1 150 18:59 03.10.2019
837 Clear 34 1012 21 10000 1 150 18:39 03.10.2019
838 Clear 34 1012 21 10000 1 150 18:39 03.10.2019
839 Clear 34 1012 21 10000 1 150 18:19 03.10.2019
840 Clear 36 1012 23 10000 1.2 222.61 17:56 03.10.2019
841 Clear 36 1012 23 10000 1.2 222.61 17:37 03.10.2019
842 Clear 36 1012 23 10000 1.2 222.61 17:19 03.10.2019
843 Clear 36 1012 23 10000 1.2 222.61 17:19 03.10.2019
844 Clear 40 1012 17 10000 1 200 16:43 03.10.2019
845 Clear 40 1012 17 10000 1 200 16:25 03.10.2019
846 Clear 40 1012 13 10000 2.6 220 15:56 03.10.2019
847 Clear 40 1012 13 10000 2.6 220 15:38 03.10.2019
848 Clear 40 1012 13 10000 2.6 220 15:38 03.10.2019
849 Clear 40 1012 13 10000 2.6 220 15:19 03.10.2019
850 Clear 40 1012 16 10000 1.5 280 14:45 03.10.2019
851 Clear 40 1012 16 10000 1.5 280 14:26 03.10.2019
852 Clear 42 1012 16 10000 1.5 280 13:57 03.10.2019
853 Clear 42 1012 16 10000 1.5 280 13:39 03.10.2019
854 Clear 42 1012 16 10000 1.5 280 13:19 03.10.2019
855 Clear 41 1013 13 10000 2.1 230 12:56 03.10.2019
856 Clear 41 1013 13 10000 2.1 230 12:37 03.10.2019
857 Clear 41 1013 13 10000 2.1 230 12:19 03.10.2019
858 Clear 41 1013 13 10000 2.1 230 12:19 03.10.2019
859 Clear 40 1013 12 10000 3.1 230 11:41 03.10.2019
860 Clear 40 1013 12 10000 3.1 230 11:41 03.10.2019
861 Clear 40 1013 12 10000 3.1 230 11:22 03.10.2019
862 Clear 39 1014 14 10000 3.1 230 10:58 03.10.2019
863 Clear 39 1014 14 10000 3.1 230 10:40 03.10.2019
864 Clear 39 1014 14 10000 3.1 230 10:19 03.10.2019
865 Clear 38 1015 15 10000 3.1 240 09:58 03.10.2019
866 Clear 38 1015 15 10000 3.1 240 09:39 03.10.2019
867 Clear 38 1015 15 10000 3.1 240 09:20 03.10.2019
868 Clear 36 1015 23 10000 1 210 08:44 03.10.2019
869 Clear 36 1015 23 10000 1 210 08:26 03.10.2019
870 Clear 32 1015 22 10000 1.5 320 07:57 03.10.2019
871 Clear 32 1015 22 10000 1.5 320 07:38 03.10.2019
872 Clear 32 1015 22 10000 1.5 320 07:19 03.10.2019
873 Clear 27 1014 24 10000 3.1 310 06:46 03.10.2019
874 Clear 27 1014 24 10000 3.1 310 06:20 03.10.2019
875 Clear 26 1014 26 10000 1.5 280 05:43 03.10.2019
876 Clear 27 1013 28 10000 1.5 210 04:51 03.10.2019
877 Clear 27 1013 28 10000 1.5 210 04:25 03.10.2019
878 Clear 26 1013 34 10000 2.08 142.425 03:23 03.10.2019
879 Clear 28 1013 30 10000 2.08 142.425 02:37 03.10.2019
880 Clear 28 1013 28 10000 1 190 01:51 03.10.2019
881 Clear 28 1013 28 10000 1 190 01:32 03.10.2019
882 Clear 28 1013 30 10000 1 20 00:47 03.10.2019
883 Clear 28 1013 30 10000 1 20 00:18 03.10.2019
884 Clear 31 1013 25 10000 1.5 300 23:43 02.10.2019
885 Clear 31 1013 25 10000 1.5 300 23:20 02.10.2019
886 Clear 32 1014 22 10000 1.5 220 22:43 02.10.2019
887 Clear 32 1014 22 10000 1.5 220 22:43 02.10.2019
888 Clear 32 1014 22 10000 1.5 220 22:21 02.10.2019
889 Clear 33 1014 22 10000 2.1 140 21:56 02.10.2019
890 Clear 33 1014 22 10000 2.1 140 21:38 02.10.2019
891 Clear 33 1014 22 10000 2.1 140 21:19 02.10.2019
892 Clear 33 1014 22 10000 1.5 150 20:56 02.10.2019
893 Clear 33 1014 22 10000 1.5 150 20:37 02.10.2019
894 Clear 33 1014 22 10000 1.5 150 20:19 02.10.2019
895 Clouds 34 1014 21 10000 1.5 150 19:46 02.10.2019
896 Clouds 34 1014 21 10000 1.5 150 19:23 02.10.2019
897 Clouds 34 1014 21 10000 1.5 150 19:23 02.10.2019
898 Clouds 33 1013 26 10000 2.89 157.698 18:59 02.10.2019
899 Clouds 33 1013 26 10000 2.89 157.698 18:59 02.10.2019
900 Clouds 33 1013 26 10000 2.89 157.698 18:40 02.10.2019
901 Clouds 33 1013 26 10000 3.11 130.011 18:21 02.10.2019
902 Clouds 36 1013 23 10000 1 90 17:58 02.10.2019
903 Clouds 36 1013 23 10000 1 90 17:40 02.10.2019
904 Clouds 36 1013 23 10000 1 90 17:21 02.10.2019
905 Clouds 39 1013 20 10000 1 80 16:57 02.10.2019
906 Clouds 39 1013 20 10000 1 80 16:37 02.10.2019
907 Clouds 40 1012 17 10000 1.5 210 16:19 02.10.2019
908 Clouds 40 1012 17 10000 1.5 210 15:55 02.10.2019
909 Clouds 40 1012 17 10000 1.5 210 15:37 02.10.2019
910 Clouds 40 1012 17 10000 1.5 210 15:37 02.10.2019
911 Clouds 40 1012 17 10000 1.5 210 15:18 02.10.2019
912 Clouds 40 1013 13 10000 3.1 270 14:43 02.10.2019
913 Clouds 40 1013 13 10000 3.1 270 14:23 02.10.2019
914 Clouds 40 1013 14 10000 2.6 240 13:57 02.10.2019
915 Clouds 40 1013 14 10000 2.6 240 13:38 02.10.2019
916 Clouds 40 1013 14 10000 2.6 240 13:19 02.10.2019
917 Clouds 40 1013 14 10000 2.6 240 13:19 02.10.2019
918 Clouds 40 1013 15 10000 2.6 150 12:40 02.10.2019
919 Clouds 40 1013 15 10000 2.6 150 12:22 02.10.2019
920 Clouds 39 1014 15 10000 4.1 200 11:55 02.10.2019
921 Clouds 39 1014 15 10000 4.1 200 11:36 02.10.2019
922 Clouds 39 1014 15 10000 4.1 200 11:18 02.10.2019
923 Clouds 39 1014 15 10000 4.1 200 11:18 02.10.2019
924 Clear 38 1015 16 10000 3.6 190 10:38 02.10.2019
925 Clear 38 1015 16 10000 3.6 190 10:18 02.10.2019
926 Clear 37 1015 17 10000 2.6 200 09:40 02.10.2019
927 Clear 37 1015 17 10000 2.6 200 09:20 02.10.2019
928 Clear 34 1015 21 10000 1.5 130 08:55 02.10.2019
929 Clear 34 1015 21 10000 1.5 130 08:36 02.10.2019
930 Clear 34 1015 21 10000 1.5 130 08:18 02.10.2019
931 Clouds 31 1015 25 8000 1.74 210.15 07:39 02.10.2019
932 Clouds 31 1015 25 8000 1.74 210.15 07:20 02.10.2019
933 Clouds 26 1014 47 8000 1.74 210.15 06:47 02.10.2019
934 Clouds 24 1014 33 8000 1 330 05:56 02.10.2019
935 Clouds 24 1014 33 8000 1 330 05:25 02.10.2019
936 Clear 25 1013 31 10000 1.31 201.965 04:53 02.10.2019
937 Clear 26 1013 29 10000 1.31 201.965 03:52 02.10.2019
938 Clear 27 1013 30 10000 1 180 02:43 02.10.2019
939 Clear 27 1013 30 10000 1 180 02:23 02.10.2019
940 Clear 28 1013 24 10000 1 220 01:40 02.10.2019
941 Clear 29 1013 26 10000 1 270 00:50 02.10.2019
942 Clear 29 1013 26 10000 1 270 00:27 02.10.2019
943 Clear 30 1013 22 10000 1 240 23:44 01.10.2019
944 Clear 30 1013 22 10000 1 240 23:25 01.10.2019
945 Clear 30 1013 27 10000 1 210 22:59 01.10.2019
946 Clear 30 1013 27 10000 1 210 22:40 01.10.2019
947 Clear 30 1013 27 10000 1 210 22:20 01.10.2019
948 Clear 32 1013 21 10000 1 160 21:57 01.10.2019
949 Clear 32 1013 21 10000 1 160 21:39 01.10.2019
950 Clear 32 1013 21 10000 1 160 21:20 01.10.2019
951 Clear 33 1013 21 10000 1.5 130 20:56 01.10.2019
952 Clear 33 1013 21 10000 1.5 130 20:38 01.10.2019
953 Clear 33 1013 21 10000 1.5 130 20:19 01.10.2019
954 Clear 34 1012 18 10000 1.5 90 19:56 01.10.2019
955 Clear 34 1012 18 10000 1.5 90 19:38 01.10.2019
956 Clear 34 1012 18 10000 1.5 90 19:18 01.10.2019
957 Clear 35 1011 20 10000 1.5 60 18:40 01.10.2019
958 Clear 35 1011 20 10000 1.5 60 18:22 01.10.2019
959 Clouds 37 1011 18 10000 2.1 60 17:58 01.10.2019
960 Clouds 37 1011 18 10000 2.1 60 17:39 01.10.2019
961 Clouds 37 1011 18 10000 2.1 60 17:19 01.10.2019
962 Clouds 38 1011 21 10000 1 80 16:57 01.10.2019
963 Clouds 38 1011 21 10000 1 80 16:39 01.10.2019
964 Clouds 38 1011 21 10000 1 80 16:39 01.10.2019
965 Clouds 38 1011 21 10000 1 80 16:21 01.10.2019
966 Clouds 38 1011 21 10000 1 80 16:21 01.10.2019
967 Clouds 40 1011 16 10000 2.1 350 15:42 01.10.2019
968 Clouds 40 1011 16 10000 2.1 350 15:23 01.10.2019
969 Clouds 39 1011 17 10000 1.5 90 14:41 01.10.2019
970 Clouds 39 1011 17 10000 1.5 90 14:20 01.10.2019
971 Clouds 40 1011 17 10000 2.1 190 13:58 01.10.2019
972 Clouds 40 1011 17 10000 2.1 190 13:58 01.10.2019
973 Clouds 40 1011 17 10000 2.1 190 13:58 01.10.2019
974 Clouds 40 1011 17 10000 2.1 190 13:39 01.10.2019
975 Clouds 40 1011 17 10000 2.1 190 13:20 01.10.2019
976 Clouds 40 1012 14 10000 2.1 60 12:57 01.10.2019
977 Clouds 40 1012 14 10000 2.1 60 12:39 01.10.2019
978 Clouds 40 1012 20 10000 1.5 240 12:18 01.10.2019
979 Clouds 40 1012 20 10000 1.5 240 11:58 01.10.2019
980 Clouds 40 1012 20 10000 1.5 240 11:38 01.10.2019
981 Clouds 40 1012 20 10000 1.5 240 11:18 01.10.2019
982 Clear 38 1013 17 10000 2.6 220 10:49 01.10.2019
983 Clear 38 1013 17 10000 2.6 220 10:29 01.10.2019
984 Clear 37 1014 20 10000 1.5 230 09:49 01.10.2019
985 Clear 37 1014 20 10000 1.5 230 09:31 01.10.2019
986 Clear 34 1014 21 10000 3.66 196.776 08:57 01.10.2019
987 Clear 34 1014 21 10000 2.4 215.654 08:39 01.10.2019
988 Clear 34 1014 21 10000 2.4 215.654 08:39 01.10.2019
989 Clear 34 1014 21 10000 2.4 215.654 08:21 01.10.2019
990 Clear 31 1014 27 10000 1 80 07:43 01.10.2019
991 Clear 31 1014 27 10000 1 80 07:24 01.10.2019
992 Clear 27 1013 28 10000 1 300 06:46 01.10.2019
993 Clear 27 1013 28 10000 1 300 06:18 01.10.2019
994 Clear 27 1013 28 10000 1 300 06:18 01.10.2019
995 Clear 26 1013 31 8000 1 20 05:45 01.10.2019
996 Clear 26 1013 31 8000 1 20 05:18 01.10.2019
997 Clear 26 1012 27 10000 1 360 04:26 01.10.2019
998 Clear 30 1012 23 10000 1.5 200 02:26 01.10.2019
999 Clear 30 1012 23 10000 1 200 01:58 01.10.2019
1000 Clouds 32 1012 22 10000 1 190 00:53 01.10.2019
1001 Clouds 32 1012 22 10000 1 190 00:27 01.10.2019
1002 Clouds 33 1012 16 10000 2.1 170 23:56 30.09.2019
1003 Clouds 33 1012 16 10000 2.1 170 23:56 30.09.2019
1004 Clouds 33 1012 16 10000 2.1 170 23:37 30.09.2019
1005 Clouds 33 1012 16 10000 2.1 170 23:19 30.09.2019
1006 Clouds 33 1012 16 10000 2.1 170 23:19 30.09.2019
1007 Clouds 30 1012 28 10000 2.38 175.712 22:42 30.09.2019
1008 Clouds 30 1012 28 10000 2.38 175.712 22:24 30.09.2019
1009 Clouds 33 1012 18 10000 2.1 110 21:57 30.09.2019
1010 Clouds 33 1012 18 10000 2.1 110 21:38 30.09.2019
1011 Clouds 33 1012 18 10000 2.1 110 21:19 30.09.2019
1012 Clear 33 1012 18 10000 2.1 90 20:56 30.09.2019
1013 Clear 33 1012 18 10000 2.1 90 20:38 30.09.2019
1014 Clear 33 1012 18 10000 2.1 90 20:19 30.09.2019
1015 Clear 31 1012 29 10000 1 70 19:56 30.09.2019
1016 Clear 31 1012 29 10000 1 70 19:38 30.09.2019
1017 Clouds 35 1011 20 10000 1 130 19:18 30.09.2019
1018 Clouds 35 1011 20 10000 1 130 18:54 30.09.2019
1019 Clouds 35 1011 20 10000 1 130 18:36 30.09.2019
1020 Clouds 36 1011 20 10000 1 130 18:18 30.09.2019
1021 Clouds 36 1011 20 10000 1 130 17:40 30.09.2019
1022 Clouds 36 1011 20 10000 1 130 17:22 30.09.2019
1023 Clouds 39 1011 17 10000 2.1 130 16:56 30.09.2019
1024 Clouds 39 1011 17 10000 2.1 130 16:56 30.09.2019
1025 Clouds 39 1011 17 10000 2.1 130 16:38 30.09.2019
1026 Clouds 39 1011 17 10000 2.1 130 16:19 30.09.2019
1027 Clouds 40 1011 16 10000 2.1 140 15:55 30.09.2019
1028 Clouds 40 1011 16 10000 2.1 140 15:37 30.09.2019
1029 Clouds 40 1011 16 10000 2.1 140 15:18 30.09.2019
1030 Clear 40 1011 12 10000 3.1 140 14:57 30.09.2019
1031 Clear 40 1011 12 10000 3.1 140 14:37 30.09.2019
1032 Clear 40 1011 12 10000 3.1 140 14:18 30.09.2019
1033 Clear 40 1011 13 10000 3.1 110 13:44 30.09.2019
1034 Clear 40 1011 13 10000 3.1 110 13:23 30.09.2019
1035 Clear 40 1012 13 10000 3.1 100 12:59 30.09.2019
1036 Clear 40 1012 13 10000 3.1 100 12:40 30.09.2019
1037 Clear 40 1012 13 10000 3.1 100 12:21 30.09.2019
1038 Clear 39 1012 15 10000 2.6 160 11:44 30.09.2019
1039 Clear 39 1012 15 10000 2.6 160 11:23 30.09.2019
1040 Clear 39 1013 16 9000 2.6 150 10:59 30.09.2019
1041 Clear 39 1013 16 9000 2.6 150 10:39 30.09.2019
1042 Clear 39 1013 16 9000 2.6 150 10:19 30.09.2019
1043 Clear 38 1014 16 9000 3.1 170 09:58 30.09.2019
1044 Clear 38 1014 16 9000 3.1 170 09:39 30.09.2019
1045 Clear 38 1014 16 9000 3.1 170 09:20 30.09.2019
1046 Clear 35 1014 21 8000 1 220 08:46 30.09.2019
1047 Clear 35 1014 21 8000 1 220 08:28 30.09.2019
1048 Clear 33 1014 26 8000 4.25 169.089 07:44 30.09.2019
1049 Clear 33 1014 26 8000 4.25 169.089 07:26 30.09.2019
1050 Clear 27 1014 34 8000 4.25 169.089 06:56 30.09.2019
1051 Clear 27 1014 34 8000 4.25 169.089 06:33 30.09.2019
1052 Clear 25 1013 33 8000 2.86 149.676 05:47 30.09.2019
1053 Clear 25 1013 33 8000 2.86 149.676 05:47 30.09.2019
1054 Clear 25 1013 33 8000 2.86 149.676 05:47 30.09.2019
1055 Clear 25 1013 33 8000 2.86 149.676 05:47 30.09.2019
1056 Clear 25 1012 31 10000 2.86 149.676 04:32 30.09.2019
1057 Clear 29 1012 25 10000 1 150 02:48 30.09.2019
1058 Clear 30 1012 23 10000 1.5 140 01:37 30.09.2019
1059 Clear 30 1012 23 10000 1.5 160 00:42 30.09.2019
1060 Clear 30 1012 23 10000 1.5 160 00:21 30.09.2019
1061 Clear 30 1012 23 10000 1.5 150 23:47 29.09.2019
1062 Clear 30 1012 23 10000 1.5 150 23:23 29.09.2019
1063 Clear 31 1013 27 10000 3.92 141.162 22:59 29.09.2019
1064 Clear 31 1013 27 10000 3.92 141.162 22:40 29.09.2019
1065 Clear 31 1013 27 10000 3.92 141.162 22:22 29.09.2019
1066 Clear 33 1013 22 10000 1.5 130 21:57 29.09.2019
1067 Clear 33 1013 22 10000 1.5 130 21:37 29.09.2019
1068 Clear 33 1013 22 10000 1.5 130 21:19 29.09.2019
1069 Clear 34 1012 17 10000 3.1 90 20:45 29.09.2019
1070 Clear 34 1012 17 10000 3.1 90 20:20 29.09.2019
1071 Clear 35 1011 16 10000 3.1 100 19:59 29.09.2019
1072 Clear 35 1011 16 10000 3.1 100 19:38 29.09.2019
1073 Clear 35 1011 16 10000 3.1 100 19:19 29.09.2019
1074 Clear 33 1011 29 10000 3.18 120.933 18:56 29.09.2019
1075 Clear 33 1011 29 10000 3.18 120.933 18:38 29.09.2019
1076 Clear 33 1011 29 10000 3.18 120.933 18:38 29.09.2019
1077 Clear 33 1011 29 10000 3.4 113.927 18:19 29.09.2019
1078 Clear 37 1011 23 10000 3.4 113.927 17:58 29.09.2019
1079 Clear 37 1011 23 10000 3.4 113.927 17:40 29.09.2019
1080 Clear 37 1011 23 10000 3.4 113.927 17:19 29.09.2019
1081 Clear 39 1011 18 10000 1.5 80 16:58 29.09.2019
1082 Clear 39 1011 18 10000 1.5 80 16:40 29.09.2019
1083 Clear 39 1011 18 10000 1.5 80 16:19 29.09.2019
1084 -273 0 0 0 0 0 16:19 29.09.2019
1085 Clear 40 1010 15 10000 2.6 140 15:56 29.09.2019
1086 Clear 40 1010 15 10000 2.6 140 15:36 29.09.2019
1087 Clear 40 1010 15 10000 2.6 140 15:18 29.09.2019
1088 Clear 40 1011 15 10000 2.6 110 14:55 29.09.2019
1089 Clear 40 1011 15 10000 2.6 110 14:36 29.09.2019
1090 Clear 40 1011 15 10000 2.6 110 14:18 29.09.2019
1091 Clear 40 1011 15 10000 2.1 170 13:41 29.09.2019
1092 Clear 40 1011 15 10000 2.1 170 13:19 29.09.2019
1093 Clear 39 1012 16 10000 2.6 120 12:58 29.09.2019
1094 Clear 39 1012 16 10000 2.6 120 12:40 29.09.2019
1095 Clear 39 1012 16 10000 2.6 120 12:21 29.09.2019
1096 Clear 39 1012 17 10000 3.1 110 11:57 29.09.2019
1097 Clear 39 1012 17 10000 3.1 110 11:39 29.09.2019
1098 Clear 39 1012 17 10000 3.1 110 11:18 29.09.2019
1099 Clear 38 1013 22 10000 2.1 190 10:57 29.09.2019
1100 Clear 38 1013 22 10000 2.1 190 10:36 29.09.2019
1101 Clear 38 1013 22 10000 2.1 190 10:18 29.09.2019
1102 Clear 36 1014 28 10000 2.1 180 09:45 29.09.2019
1103 Clear 36 1014 28 10000 2.1 180 09:21 29.09.2019
1104 Clear 35 1014 30 10000 2.1 190 08:58 29.09.2019
1105 Clear 35 1014 30 10000 2.1 190 08:38 29.09.2019
1106 Clear 35 1014 30 10000 2.1 190 08:20 29.09.2019
1107 Clear 31 1014 33 10000 2.33 143.882 07:42 29.09.2019
1108 Clear 31 1014 33 10000 2.33 143.882 07:42 29.09.2019
1109 Clear 31 1014 33 10000 2.33 143.882 07:23 29.09.2019
1110 Clear 28 1013 37 10000 2.33 143.882 06:42 29.09.2019
1111 Clear 26 1012 39 10000 1.46 170.104 04:59 29.09.2019
1112 Clear 26 1012 39 10000 1.46 170.104 04:25 29.09.2019
1113 Clear 27 1012 36 10000 1.46 170.104 03:56 29.09.2019
1114 Clear 27 1012 39 10000 1.47 141.578 02:45 29.09.2019
1115 Clear 27 1012 39 10000 1.47 141.578 02:18 29.09.2019
1116 Clear 29 1012 35 10000 1.32 144.321 01:31 29.09.2019
1117 Clear 29 1013 35 10000 1.32 144.321 00:47 29.09.2019
1118 Clear 29 1013 35 10000 2.11 157.891 00:20 29.09.2019
1119 Clear 26 1010 28 0 2.11 157.891 23:42 28.09.2019
1120 Clear 26 1010 28 0 2.11 157.891 23:22 28.09.2019
1121 Clear 26 1010 28 0 2.11 157.891 22:56 28.09.2019
1122 Clear 26 1010 28 0 2.11 157.891 22:38 28.09.2019
1123 Clear 26 1010 28 0 2.11 157.891 22:19 28.09.2019
1124 Clear 26 1010 28 0 2.11 157.891 21:56 28.09.2019
1125 Clear 26 1010 28 0 2.11 157.891 21:37 28.09.2019
1126 Clouds 30 1010 21 0 4.62 62.22 21:19 28.09.2019
1127 Clouds 30 1010 21 0 4.62 62.22 20:55 28.09.2019
1128 Clear 31 1009 20 0 4.63 66.424 20:37 28.09.2019
1129 Clear 31 1009 20 0 4.63 66.424 20:18 28.09.2019
1130 Clear 31 1009 20 0 4.63 66.424 19:54 28.09.2019
1131 Clear 31 1009 20 0 4.63 66.424 19:36 28.09.2019
1132 Clear 31 1009 20 0 4.63 66.424 19:18 28.09.2019
1133 Clear 31 1009 20 0 4.63 66.424 18:41 28.09.2019
1134 Clear 37 1011 16 8000 3.6 40 18:21 28.09.2019
1135 Clear 37 1011 16 8000 3.6 40 17:59 28.09.2019
1136 Clear 37 1011 16 8000 3.6 40 17:40 28.09.2019
1137 Clear 37 1011 16 8000 3.6 40 17:21 28.09.2019
1138 Clear 38 1011 16 8000 4.1 60 16:49 28.09.2019
1139 Clear 38 1011 16 8000 4.1 60 16:29 28.09.2019
1140 Clear 39 1011 14 8000 3.6 90 15:59 28.09.2019
1141 Clear 39 1011 14 8000 3.6 90 15:39 28.09.2019
1142 Clouds 39 1011 14 8000 3.6 90 15:21 28.09.2019
1143 Clear 41 1011 18 10000 2.6 10 14:54 28.09.2019
1144 Clear 41 1011 18 10000 2.6 10 14:36 28.09.2019
1145 Clear 41 1011 18 10000 2.6 10 14:18 28.09.2019
1146 Clear 40 1012 19 10000 2.1 340 13:43 28.09.2019
1147 Clear 40 1012 19 10000 2.1 340 13:20 28.09.2019
1148 Clear 39 1012 21 10000 2.1 40 12:55 28.09.2019
1149 Clear 39 1012 21 10000 2.1 40 12:36 28.09.2019
1150 Clear 39 1012 21 10000 2.1 40 12:18 28.09.2019
1151 Clear 38 1013 22 10000 2.6 80 11:40 28.09.2019
1152 Clear 38 1013 22 10000 2.6 80 11:20 28.09.2019
1153 Clear 38 1014 27 10000 2.1 340 10:44 28.09.2019
1154 Clear 38 1014 27 10000 2.1 340 10:21 28.09.2019
1155 Clear 37 1015 30 10000 1.5 310 09:59 28.09.2019
1156 Clear 37 1015 30 10000 1.5 310 09:59 28.09.2019
1157 Clear 37 1015 30 10000 1.5 310 09:40 28.09.2019
1158 Clear 37 1015 30 10000 1.5 310 09:19 28.09.2019
1159 Clear 35 1015 28 10000 1 10 08:48 28.09.2019
1160 Clear 35 1015 28 10000 1 10 08:29 28.09.2019
1161 Clear 32 1015 31 9000 2.1 360 07:57 28.09.2019
1162 Clear 32 1015 31 9000 2.1 360 07:38 28.09.2019
1163 Clear 28 1015 39 9000 1 300 07:19 28.09.2019
1164 Clear 28 1015 39 9000 1 300 06:38 28.09.2019
1165 Clear 28 1015 39 9000 1 300 06:20 28.09.2019
1166 Clear 27 1015 39 8000 2.6 340 05:25 28.09.2019
1167 -273 0 0 0 0 0 04:54 28.09.2019
1168 Clear 28 1014 39 10000 2.1 310 04:29 28.09.2019
1169 Clear 27 1014 42 10000 1 300 03:35 28.09.2019
1170 Clear 27 1014 44 10000 0.88 55.983 02:58 28.09.2019
1171 Clear 27 1014 44 10000 0.88 55.983 02:37 28.09.2019
1172 Clear 27 1014 44 10000 0.88 55.983 02:18 28.09.2019
1173 Clear 29 1014 42 10000 1 80 01:41 28.09.2019
1174 Clear 29 1014 42 10000 1 80 01:19 28.09.2019
1175 Clear 29 1014 45 10000 1.17 66.891 00:44 28.09.2019
1176 Clear 29 1014 45 10000 3.05 73.794 00:26 28.09.2019
1177 Clear 31 1015 38 10000 1 130 23:39 27.09.2019
1178 Clear 31 1015 38 10000 1 130 23:39 27.09.2019
1179 Clear 31 1015 38 10000 1 130 23:21 27.09.2019
1180 Clear 31 1015 38 10000 1 120 22:49 27.09.2019
1181 Clear 31 1015 38 10000 1 120 22:21 27.09.2019
1182 Clear 32 1015 35 10000 1 130 21:59 27.09.2019
1183 Clear 32 1015 35 10000 1 130 21:40 27.09.2019
1184 Clear 32 1015 35 10000 1 130 21:21 27.09.2019
1185 Clear 33 1014 33 10000 1.5 90 20:58 27.09.2019
1186 Clear 33 1014 33 10000 1.5 90 20:40 27.09.2019
1187 Clear 33 1014 33 10000 1.5 90 20:19 27.09.2019
1188 Clear 34 1014 32 10000 1.5 80 19:57 27.09.2019
1189 Clear 34 1014 32 10000 1.5 80 19:39 27.09.2019
1190 Clear 34 1014 32 10000 1.5 80 19:20 27.09.2019
1191 Clear 35 1013 30 10000 1 100 18:42 27.09.2019
1192 Clear 35 1013 30 10000 1 100 18:24 27.09.2019
1193 Clear 37 1013 23 10000 2.6 100 17:56 27.09.2019
1194 Clear 37 1013 23 10000 2.6 100 17:38 27.09.2019
1195 Clear 37 1013 23 10000 2.6 100 17:20 27.09.2019
1196 Clear 38 1013 22 10000 2.6 100 16:57 27.09.2019
1197 Clear 38 1013 22 10000 2.6 100 16:37 27.09.2019
1198 Clear 38 1013 22 10000 2.6 100 16:37 27.09.2019
1199 Clear 38 1013 22 10000 2.6 100 16:37 27.09.2019
1200 Clear 38 1013 22 10000 2.6 100 16:18 27.09.2019
1201 Clear 38 1013 22 10000 2.6 100 16:18 27.09.2019
1202 Clear 38 1013 22 10000 2.6 100 16:18 27.09.2019
1203 Clouds 38 1013 21 10000 3.6 110 15:46 27.09.2019
1204 Clouds 38 1013 21 10000 3.6 110 15:21 27.09.2019
1205 Clouds 38 1013 22 10000 3.1 90 14:59 27.09.2019
1206 Clouds 38 1013 22 10000 3.1 90 14:41 27.09.2019
1207 Clouds 38 1013 22 10000 3.1 90 14:21 27.09.2019
1208 Clear 38 1013 24 10000 2.6 150 13:58 27.09.2019
1209 Clear 38 1013 24 10000 2.6 150 13:39 27.09.2019
1210 Clear 38 1013 24 10000 2.6 150 13:21 27.09.2019
1211 Clear 38 1014 27 10000 3.1 140 12:54 27.09.2019
1212 Clear 38 1014 27 10000 3.1 140 12:24 27.09.2019
1213 Clear 37 1015 29 10000 2.6 140 11:58 27.09.2019
1214 Clear 37 1015 29 10000 2.6 140 11:38 27.09.2019
1215 Clear 37 1015 29 10000 2.6 140 11:20 27.09.2019
1216 Clear 36 1015 32 10000 2.1 170 10:43 27.09.2019
1217 Clear 36 1015 32 10000 2.1 170 10:23 27.09.2019
1218 Clear 35 1016 32 10000 2.1 200 09:58 27.09.2019
1219 Clear 35 1016 32 10000 2.1 200 09:40 27.09.2019
1220 Clear 35 1016 32 10000 2.1 200 09:19 27.09.2019
1221 Clear 33 1016 36 9000 2.1 220 08:42 27.09.2019
1222 Clear 33 1016 36 9000 2.1 220 08:21 27.09.2019
1223 Clear 31 1016 40 8000 1.5 130 07:55 27.09.2019
1224 Clear 31 1016 40 8000 1.5 130 07:37 27.09.2019
1225 Clear 29 1015 45 8000 1 120 07:18 27.09.2019
1226 Clear 29 1015 45 8000 1 120 06:40 27.09.2019
1227 Clear 29 1015 45 8000 1 120 06:21 27.09.2019
1228 Clear 27 1015 47 7000 2.1 120 05:45 27.09.2019
1229 Clear 27 1015 47 7000 2.1 120 05:26 27.09.2019
1230 Clear 28 1013 39 10000 1.5 140 03:39 27.09.2019
1231 Clear 28 1014 42 10000 1 110 01:56 27.09.2019
1232 Clear 28 1014 42 10000 1 110 01:31 27.09.2019
1233 Clear 28 1014 42 10000 1 80 00:41 27.09.2019
1234 Clear 29 1014 37 10000 1 360 23:57 26.09.2019
1235 Clear 29 1014 37 10000 1 360 23:39 26.09.2019
1236 Clear 29 1014 37 10000 1 360 23:20 26.09.2019
1237 Clear 30 1014 35 10000 1 40 22:58 26.09.2019
1238 Clear 30 1014 35 10000 1 40 22:58 26.09.2019
1239 Clear 30 1014 35 10000 1 40 22:39 26.09.2019
1240 Clear 30 1014 35 10000 1 40 22:18 26.09.2019
1241 Clear 30 1014 35 10000 1 40 22:18 26.09.2019
1242 Clear 31 1014 35 10000 1.5 40 21:58 26.09.2019
1243 Clear 31 1014 35 10000 1.5 40 21:38 26.09.2019
1244 Clear 33 1014 26 10000 2.1 50 21:19 26.09.2019
1245 Clear 31 1014 35 10000 1.5 40 21:19 26.09.2019
1246 Clear 33 1014 26 10000 2.1 50 20:58 26.09.2019
1247 Clear 33 1014 26 10000 2.1 50 20:39 26.09.2019
1248 Clear 33 1014 26 10000 2.1 50 20:21 26.09.2019
1249 Clear 34 1013 24 10000 2.6 60 19:58 26.09.2019
1250 Clear 34 1013 24 10000 2.6 60 19:39 26.09.2019
1251 Clouds 35 1012 20 8000 3.6 50 19:18 26.09.2019
1252 Clouds 35 1012 20 8000 3.6 50 18:44 26.09.2019
1253 Clear 35 1012 20 8000 3.6 50 18:22 26.09.2019
1254 Clear 37 1012 17 8000 3.6 40 17:59 26.09.2019
1255 Clear 37 1012 17 8000 3.6 40 17:38 26.09.2019
1256 Clear 37 1012 17 8000 3.6 40 17:19 26.09.2019
1257 Clear 38 1012 16 8000 4.1 70 16:56 26.09.2019
1258 Clear 38 1012 16 8000 4.1 70 16:37 26.09.2019
1259 Clear 38 1012 16 8000 4.1 70 16:37 26.09.2019
1260 Clear 38 1012 16 8000 4.1 70 16:19 26.09.2019
1261 Clear 39 1012 14 8000 4.1 70 15:55 26.09.2019
1262 Clear 39 1012 14 8000 4.1 70 15:36 26.09.2019
1263 Clear 39 1012 14 8000 4.1 70 15:18 26.09.2019
1264 Clear 39 1012 15 8000 4.1 70 14:41 26.09.2019
1265 Clear 39 1012 15 8000 4.1 70 14:22 26.09.2019
1266 Clear 39 1012 15 9000 4.1 90 13:58 26.09.2019
1267 Clear 39 1012 15 9000 4.1 90 13:39 26.09.2019
1268 Clear 38 1013 14 9000 4.6 70 13:19 26.09.2019
1269 Clear 38 1013 14 9000 4.6 70 12:55 26.09.2019
1270 Clear 38 1013 14 9000 4.6 70 12:55 26.09.2019
1271 Clear 38 1013 14 9000 4.6 70 12:55 26.09.2019
1272 Clear 38 1013 14 9000 4.6 70 12:36 26.09.2019
1273 Clouds 37 1014 19 9000 3.1 100 12:18 26.09.2019
1274 Clouds 37 1014 19 9000 3.1 100 11:41 26.09.2019
1275 Clouds 37 1014 19 9000 3.1 100 11:19 26.09.2019
1276 Clouds 37 1015 19 9000 3.1 100 10:42 26.09.2019
1277 Clouds 37 1015 19 9000 3.1 100 10:24 26.09.2019
1278 Clouds 35 1015 30 9000 2.1 140 09:59 26.09.2019
1279 Clouds 35 1015 30 9000 2.1 140 09:40 26.09.2019
1280 Clouds 35 1015 30 9000 2.1 140 09:20 26.09.2019
1281 Clouds 33 1015 31 9000 4.4 114.66 08:51 26.09.2019
1282 Clouds 33 1015 31 9000 4.4 114.66 08:31 26.09.2019
1283 Clouds 32 1015 29 8000 4.4 114.66 07:48 26.09.2019
1284 Clouds 32 1015 29 8000 4.4 114.66 07:22 26.09.2019
1285 Clouds 25 1015 36 8000 4.4 114.66 06:55 26.09.2019
1286 Clouds 25 1015 36 8000 4.4 114.66 06:29 26.09.2019
1287 Clouds 25 1014 36 8000 1.43 125.57 05:59 26.09.2019
1288 Clouds 25 1014 36 8000 1.43 125.57 05:32 26.09.2019
1289 Clear 24 1013 33 10000 1.5 300 04:34 26.09.2019
1290 Clear 26 1013 31 10000 1 290 02:33 26.09.2019
1291 Clear 27 1013 28 10000 1 280 01:48 26.09.2019
1292 Clear 27 1013 28 10000 1 280 01:22 26.09.2019
1293 Clear 28 1013 28 10000 1 290 00:46 26.09.2019
1294 Clear 28 1013 28 10000 1 290 00:25 26.09.2019
1295 Clear 31 1013 20 10000 2.1 90 23:44 25.09.2019
1296 Clear 31 1013 20 10000 2.1 90 23:25 25.09.2019
1297 Clear 31 1014 20 10000 2.6 70 22:56 25.09.2019
1298 Clear 31 1014 20 10000 2.6 70 22:37 25.09.2019
1299 Clear 31 1014 20 10000 2.6 70 22:37 25.09.2019
1300 Clear 31 1014 20 10000 2.6 70 22:18 25.09.2019
1301 Clear 31 1014 20 10000 2.6 70 22:18 25.09.2019
1302 Clear 32 1014 21 10000 2.6 70 21:56 25.09.2019
1303 Clear 32 1014 21 10000 2.6 70 21:56 25.09.2019
1304 Clear 32 1014 21 10000 2.6 70 21:37 25.09.2019
1305 Clear 32 1014 21 10000 2.6 70 21:18 25.09.2019
1306 Clear 33 1013 17 10000 2.1 80 20:56 25.09.2019
1307 Clear 33 1013 17 10000 2.1 80 20:56 25.09.2019
1308 Clear 33 1013 17 10000 2.1 80 20:37 25.09.2019
1309 Clear 33 1013 17 10000 2.1 80 20:18 25.09.2019
1310 Clear 34 1013 16 10000 2.6 70 19:40 25.09.2019
1311 Clear 34 1013 16 10000 2.6 70 19:40 25.09.2019
1312 Clear 34 1013 16 10000 2.6 70 19:21 25.09.2019
1313 Clear 35 1012 15 10000 2.6 80 18:56 25.09.2019
1314 Clear 35 1012 15 10000 2.6 80 18:38 25.09.2019
1315 Clear 35 1012 15 10000 2.6 80 18:20 25.09.2019
1316 Clouds 37 1012 14 8000 3.1 80 17:40 25.09.2019
1317 Clouds 37 1012 14 8000 3.1 80 17:22 25.09.2019
1318 Clouds 39 1011 11 9000 4.6 50 16:59 25.09.2019
1319 Clouds 39 1011 11 9000 4.6 50 16:41 25.09.2019
1320 Clouds 39 1011 11 9000 4.6 50 16:23 25.09.2019
1321 Clouds 39 1011 12 9000 4.6 80 15:56 25.09.2019
1322 Clouds 39 1011 12 9000 4.6 80 15:56 25.09.2019
1323 Clouds 39 1011 12 9000 4.6 80 15:38 25.09.2019
1324 Clear 39 1011 12 9000 4.6 80 15:19 25.09.2019
1325 Clear 40 1011 11 9000 3.6 60 14:42 25.09.2019
1326 Clear 40 1011 11 9000 3.6 60 14:22 25.09.2019
1327 Clear 40 1011 10 10000 4.1 30 13:58 25.09.2019
1328 Clear 40 1011 10 10000 4.1 30 13:40 25.09.2019
1329 Clear 40 1011 10 10000 4.1 30 13:20 25.09.2019
1330 Clear 40 1012 11 10000 3.6 80 12:56 25.09.2019
1331 Clear 40 1012 11 10000 3.6 80 12:37 25.09.2019
1332 Clear 40 1013 9 10000 4.1 50 12:18 25.09.2019
1333 Clear 40 1013 9 10000 4.1 50 11:40 25.09.2019
1334 Clear 40 1013 9 10000 4.1 50 11:40 25.09.2019
1335 Clear 40 1013 9 10000 4.1 50 11:20 25.09.2019
1336 Clear 39 1014 12 10000 3.6 70 10:47 25.09.2019
1337 Clear 39 1014 12 10000 3.6 70 10:27 25.09.2019
1338 Clear 39 1014 12 10000 3.6 70 10:27 25.09.2019
1339 Clear 37 1014 14 10000 2.6 50 09:59 25.09.2019
1340 Clear 37 1014 14 10000 2.6 50 09:59 25.09.2019
1341 Clear 37 1014 14 10000 2.6 50 09:41 25.09.2019
1342 Clear 37 1014 14 10000 2.6 50 09:23 25.09.2019
1343 Clear 36 1014 22 10000 2.1 330 08:57 25.09.2019
1344 Clear 36 1014 22 10000 2.1 330 08:39 25.09.2019
1345 Clear 36 1014 22 10000 2.1 330 08:19 25.09.2019
1346 Clear 31 1014 25 8000 1 300 07:40 25.09.2019
1347 Clear 27 1013 26 8000 2.1 300 07:22 25.09.2019
1348 Clear 27 1013 26 8000 2.1 300 06:55 25.09.2019
1349 Clear 27 1013 26 8000 2.1 300 06:33 25.09.2019
1350 Clear 25 1013 27 7000 2.1 300 05:43 25.09.2019
1351 Clear 26 1012 29 10000 1.5 310 04:58 25.09.2019
1352 Clear 28 1011 28 10000 2.1 280 02:32 25.09.2019
1353 Clear 30 1011 27 10000 1 250 01:29 25.09.2019
1354 Clear 31 1011 25 10000 1 120 00:37 25.09.2019
1355 Clear 31 1011 25 10000 1 120 00:19 25.09.2019
1356 Clear 30 1012 28 10000 2.26 77.504 23:41 24.09.2019
1357 Clear 30 1012 28 10000 2.26 77.504 23:22 24.09.2019
1358 Clear 32 1012 24 10000 2.1 70 22:56 24.09.2019
1359 Clear 32 1012 24 10000 2.1 70 22:56 24.09.2019
1360 Clear 32 1012 24 10000 2.1 70 22:36 24.09.2019
1361 Clear 32 1012 24 10000 2.1 70 22:18 24.09.2019
1362 Clear 33 1012 18 10000 2.6 70 21:54 24.09.2019
1363 Clear 33 1012 18 10000 2.6 70 21:36 24.09.2019
1364 Clear 33 1012 18 10000 2.6 70 21:18 24.09.2019
1365 Clear 33 1012 18 10000 2.6 70 21:18 24.09.2019
1366 Clear 33 1012 21 10000 2.1 70 20:55 24.09.2019
1367 Clear 33 1012 21 10000 2.1 70 20:55 24.09.2019
1368 Clear 33 1012 21 10000 2.1 70 20:37 24.09.2019
1369 Clear 33 1012 21 10000 2.1 70 20:18 24.09.2019
1370 Clear 35 1012 14 10000 2.6 100 19:41 24.09.2019
1371 Clear 35 1012 14 10000 2.6 100 19:19 24.09.2019
1372 Clear 37 1011 13 10000 2.6 70 18:56 24.09.2019
1373 Clear 37 1011 13 10000 2.6 70 18:56 24.09.2019
1374 Clear 37 1011 13 10000 2.6 70 18:56 24.09.2019
1375 Clear 37 1011 13 10000 2.6 70 18:38 24.09.2019
1376 Clear 38 1011 18 10000 2.1 70 18:20 24.09.2019
1377 Clear 38 1011 18 10000 2.1 70 17:55 24.09.2019
1378 Clear 38 1011 18 10000 2.1 70 17:37 24.09.2019
1379 Clear 38 1011 18 10000 2.1 70 17:19 24.09.2019
1380 Clear 40 1010 17 10000 0.83 130.045 16:42 24.09.2019
1381 Clear 40 1010 17 10000 0.83 130.045 16:20 24.09.2019
1382 Clear 40 1010 15 10000 1.5 100 15:57 24.09.2019
1383 Clear 40 1010 15 10000 1.5 100 15:38 24.09.2019
1384 Clear 40 1010 15 10000 1.5 100 15:19 24.09.2019
1385 Clear 41 1010 12 10000 2.6 160 14:38 24.09.2019
1386 Clear 41 1010 12 10000 2.6 160 14:18 24.09.2019
1387 Clear 40 1011 11 10000 3.1 180 13:45 24.09.2019
1388 Clear 40 1011 11 10000 3.1 180 13:21 24.09.2019
1389 Clear 41 1011 12 10000 2.1 90 12:42 24.09.2019
1390 Clear 41 1011 12 10000 2.1 90 12:22 24.09.2019
1391 Clear 41 1012 15 10000 2.6 360 11:58 24.09.2019
1392 Clear 41 1012 15 10000 2.6 360 11:40 24.09.2019
1393 Clear 41 1012 15 10000 2.6 360 11:21 24.09.2019
1394 Clear 39 1013 13 10000 2.6 280 10:42 24.09.2019
1395 Clear 39 1013 13 10000 2.6 280 10:22 24.09.2019
1396 Clear 38 1014 14 10000 3.1 260 09:58 24.09.2019
1397 Clear 38 1014 14 10000 3.1 260 09:58 24.09.2019
1398 Clear 38 1014 14 10000 3.1 260 09:40 24.09.2019
1399 Clear 38 1014 14 10000 3.1 260 09:19 24.09.2019
1400 Clear 37 1014 22 10000 2.51 176.498 08:55 24.09.2019
1401 Clear 37 1014 22 10000 2.99 176.935 08:37 24.09.2019
1402 Clear 37 1014 22 10000 2.99 176.935 08:19 24.09.2019
1403 Clear 33 1014 26 10000 2.99 176.935 07:42 24.09.2019
1404 Clear 33 1014 26 10000 2.99 176.935 07:24 24.09.2019
1405 Clear 28 1013 30 10000 1 70 06:48 24.09.2019
1406 Clear 28 1013 30 10000 1 70 06:28 24.09.2019
1407 Clear 28 1013 21 10000 2.6 190 05:51 24.09.2019
1408 Clear 28 1013 21 10000 2.6 190 05:18 24.09.2019
1409 Clear 26 1012 29 10000 2.85 132.399 03:43 24.09.2019
1410 Clear 28 1011 18 10000 3.6 70 02:46 24.09.2019
1411 Clear 28 1011 24 10000 1.5 100 01:45 24.09.2019
1412 Clear 29 1012 23 10000 1 130 00:43 24.09.2019
1413 Clear 29 1012 23 10000 1 130 00:23 24.09.2019
1414 Clear 30 1012 23 10000 2.6 110 23:45 23.09.2019
1415 Clear 30 1012 23 10000 2.6 110 23:24 23.09.2019
1416 Clear 31 1012 22 10000 2.1 130 22:59 23.09.2019
1417 Clear 31 1012 22 10000 2.1 130 22:39 23.09.2019
1418 Clear 31 1012 22 10000 2.1 130 22:20 23.09.2019
1419 Clear 31 1012 22 10000 1.5 130 21:56 23.09.2019
1420 Clear 31 1012 22 10000 1.5 130 21:37 23.09.2019
1421 Clear 31 1012 22 10000 1.5 130 21:19 23.09.2019
1422 Clear 33 1012 21 10000 1 120 20:41 23.09.2019
1423 Clear 33 1012 21 10000 1 120 20:20 23.09.2019
1424 Clear 34 1011 20 10000 1.5 110 19:58 23.09.2019
1425 Clear 34 1011 20 10000 1.5 110 19:38 23.09.2019
1426 Clear 34 1011 20 10000 1.5 110 19:20 23.09.2019
1427 Clear 35 1011 19 10000 1.5 120 18:55 23.09.2019
1428 Clear 35 1011 19 10000 1.5 120 18:36 23.09.2019
1429 Clear 38 1010 13 8000 3.1 140 18:18 23.09.2019
1430 Clear 38 1010 13 8000 3.1 140 17:39 23.09.2019
1431 Clear 38 1010 13 8000 3.1 140 17:21 23.09.2019
1432 Clear 40 1010 11 8000 3.1 130 17:00 23.09.2019
1433 Clear 40 1010 11 8000 3.1 130 16:39 23.09.2019
1434 Clear 40 1010 11 8000 3.1 130 16:21 23.09.2019
1435 Clear 40 1010 11 8000 4.1 150 15:58 23.09.2019
1436 Clear 40 1010 11 8000 4.1 150 15:39 23.09.2019
1437 Clear 40 1010 11 8000 4.1 150 15:19 23.09.2019
1438 Clear 41 1010 9 8000 4.6 160 14:57 23.09.2019
1439 Clear 41 1010 9 8000 4.6 160 14:36 23.09.2019
1440 Clear 41 1010 9 8000 6.2 180 14:18 23.09.2019
1441 Clear 41 1010 9 8000 6.2 180 13:40 23.09.2019
1442 Clear 41 1010 9 8000 6.2 180 13:19 23.09.2019
1443 Clear 41 1010 9 8000 6.2 180 13:19 23.09.2019
1444 Clear 41 1010 9 8000 5.1 150 12:59 23.09.2019
1445 Clear 41 1010 9 8000 5.1 150 12:40 23.09.2019
1446 Clear 41 1010 9 8000 5.1 150 12:21 23.09.2019
1447 Clear 40 1011 10 8000 7.2 200 11:45 23.09.2019
1448 Clear 40 1011 10 8000 7.2 200 11:45 23.09.2019
1449 Clear 40 1011 10 8000 7.2 200 11:26 23.09.2019
1450 Clear 39 1012 10 8000 6.2 170 10:57 23.09.2019
1451 Clear 39 1012 10 8000 6.2 170 10:39 23.09.2019
1452 Clear 39 1012 10 8000 6.2 170 10:20 23.09.2019
1453 Clear 39 1012 10 8000 6.2 170 10:20 23.09.2019
1454 Clear 38 1013 11 10000 6.2 170 09:40 23.09.2019
1455 Clear 38 1013 11 10000 6.2 170 09:40 23.09.2019
1456 Clear 38 1013 11 10000 6.2 170 09:21 23.09.2019
1457 Clear 34 1013 16 10000 2.6 140 08:57 23.09.2019
1458 Clear 34 1013 16 10000 2.6 140 08:38 23.09.2019
1459 Clear 34 1013 16 10000 2.6 140 08:18 23.09.2019
1460 Clear 34 1013 16 10000 2.6 140 08:18 23.09.2019
1461 Clear 29 1013 23 10000 1.5 160 07:33 23.09.2019
1462 Clear 25 1012 33 10000 3.69 114.254 06:52 23.09.2019
1463 Clear 25 1012 33 10000 1.77 46.331 06:19 23.09.2019
1464 Clear 23 1011 35 10000 1 290 05:22 23.09.2019
1465 Clear 23 1011 27 10000 2.6 300 04:55 23.09.2019
1466 Clear 24 1010 27 10000 1.5 290 03:56 23.09.2019
1467 Clear 26 1009 24 10000 1.5 290 01:25 23.09.2019
1468 Clear 26 1009 27 10000 1 360 00:24 23.09.2019
1469 Clear 28 1010 23 10000 1 310 23:58 22.09.2019
1470 Clear 28 1010 23 10000 1 310 23:39 22.09.2019
1471 Clear 28 1010 23 10000 1 310 23:20 22.09.2019
1472 Clear 29 1010 23 10000 1.5 290 22:54 22.09.2019
1473 Clear 29 1010 23 10000 1.5 290 22:36 22.09.2019
1474 Clear 29 1010 23 10000 1.5 290 22:18 22.09.2019
1475 Clear 30 1010 22 10000 1.5 300 21:40 22.09.2019
1476 Clear 30 1010 22 10000 1.5 300 21:20 22.09.2019
1477 Clear 32 1010 19 10000 1.5 330 20:43 22.09.2019
1478 Clear 32 1010 19 10000 1.5 330 20:24 22.09.2019
1479 Clear 34 1009 15 10000 2.1 40 19:56 22.09.2019
1480 Clear 34 1009 15 10000 2.1 40 19:38 22.09.2019
1481 Clear 35 1008 19 10000 1.5 50 19:20 22.09.2019
1482 Clear 35 1008 19 10000 1.5 50 18:57 22.09.2019
1483 Clear 35 1008 19 10000 1.5 50 18:37 22.09.2019
1484 Clear 37 1008 13 8000 2.6 70 18:18 22.09.2019
1485 Clear 37 1008 13 8000 2.6 70 17:42 22.09.2019
1486 Clear 37 1008 13 8000 2.6 70 17:24 22.09.2019
1487 Clear 38 1008 11 10000 3.6 50 16:56 22.09.2019
1488 Clear 38 1008 11 10000 3.6 50 16:37 22.09.2019
1489 Clear 39 1007 9 10000 4.6 50 16:18 22.09.2019
1490 Clear 39 1007 9 10000 4.6 50 15:43 22.09.2019
1491 Clear 39 1007 9 10000 4.6 50 15:24 22.09.2019
1492 Clear 41 1008 5 10000 4.6 50 14:47 22.09.2019
1493 Clear 41 1008 5 10000 4.6 50 14:27 22.09.2019
1494 Clear 41 1008 5 10000 5.1 200 13:59 22.09.2019
1495 Clear 41 1008 5 10000 5.1 200 13:41 22.09.2019
1496 Clear 41 1008 5 10000 5.1 200 13:41 22.09.2019
1497 Clear 41 1008 5 10000 5.1 200 13:23 22.09.2019
1498 Clear 41 1008 4 10000 5.7 360 12:56 22.09.2019
1499 Clear 41 1008 4 10000 5.7 360 12:38 22.09.2019
1500 Clear 40 1009 6 10000 6.2 40 12:18 22.09.2019
1501 Clear 40 1009 6 10000 6.2 40 11:43 22.09.2019
1502 Clear 40 1009 6 10000 6.2 40 11:24 22.09.2019
1503 Clear 39 1010 9 10000 5.1 20 10:56 22.09.2019
1504 Clear 39 1010 9 10000 5.1 20 10:37 22.09.2019
1505 Clear 39 1010 10 10000 4.6 330 10:19 22.09.2019
1506 Clear 39 1010 9 10000 5.1 20 10:19 22.09.2019
1507 Clear 39 1010 10 10000 4.6 330 09:42 22.09.2019
1508 Clear 39 1010 10 10000 4.6 330 09:21 22.09.2019
1509 Clear 39 1010 10 10000 4.6 330 09:21 22.09.2019
1510 Clear 34 1011 8 10000 4.6 310 08:49 22.09.2019
1511 Clear 34 1011 8 10000 4.6 310 08:26 22.09.2019
1512 Clear 32 1011 15 10000 2.1 330 07:58 22.09.2019
1513 Clear 32 1011 15 10000 2.1 330 07:39 22.09.2019
1514 Clear 32 1011 15 10000 2.1 330 07:21 22.09.2019
1515 Clear 27 1010 18 10000 3.1 280 06:56 22.09.2019
1516 Clear 26 1009 16 10000 3.6 280 05:37 22.09.2019
1517 Clear 26 1009 16 10000 3.1 280 03:50 22.09.2019
1518 Clear 27 1008 15 10000 3.1 290 02:41 22.09.2019
1519 Clear 27 1008 15 10000 3.1 290 02:23 22.09.2019
1520 Clear 27 1008 18 10000 2.1 290 01:34 22.09.2019
1521 Clear 28 1009 26 10000 1.96 310.353 00:39 22.09.2019
1522 Clear 29 1009 21 10000 1.5 290 00:20 22.09.2019
1523 Clear 29 1009 21 10000 1.5 290 23:41 21.09.2019
1524 Clear 29 1009 21 10000 1.5 290 23:22 21.09.2019
1525 Clear 31 1009 16 10000 2.1 300 22:40 21.09.2019
1526 Clear 31 1009 16 10000 2.1 300 22:21 21.09.2019
1527 Clear 33 1010 16 10000 2.1 310 21:55 21.09.2019
1528 Clear 33 1010 16 10000 2.1 310 21:37 21.09.2019
1529 Clear 33 1010 16 10000 2.1 310 21:18 21.09.2019
1530 Clear 33 1010 16 10000 2.1 310 21:18 21.09.2019
1531 Clear 33 1009 19 10000 1.5 290 20:40 21.09.2019
1532 Clear 33 1009 19 10000 1.5 290 20:40 21.09.2019
1533 Clear 33 1009 19 10000 1.5 290 20:22 21.09.2019
1534 Clear 33 1009 19 10000 1.5 290 20:22 21.09.2019
1535 Clear 34 1009 18 10000 1 340 19:55 21.09.2019
1536 Clear 34 1009 18 10000 1 340 19:36 21.09.2019
1537 Clear 37 1008 13 10000 2.6 20 19:18 21.09.2019
1538 Clear 37 1008 13 10000 2.6 20 18:38 21.09.2019
1539 Clear 37 1008 13 10000 2.6 20 18:20 21.09.2019
1540 Clear 39 1008 10 10000 4.1 20 17:42 21.09.2019
1541 Clear 39 1008 10 10000 4.1 20 17:23 21.09.2019
1542 Clear 40 1007 11 10000 3.1 30 16:44 21.09.2019
1543 -273 0 0 0 0 0 16:25 21.09.2019
1544 Clear 42 1007 9 10000 3.6 340 15:59 21.09.2019
1545 Clear 42 1007 9 10000 3.6 340 15:40 21.09.2019
1546 Clear 42 1007 9 10000 3.6 340 15:20 21.09.2019
1547 -273 0 0 0 0 0 14:44 21.09.2019
1548 Clear 41 1008 9 10000 4.1 10 14:44 21.09.2019
1549 Clear 41 1008 9 10000 4.1 10 14:26 21.09.2019
1550 Clear 41 1008 11 10000 2.6 30 13:43 21.09.2019
1551 Clear 41 1008 11 10000 2.6 30 13:25 21.09.2019
1552 Clear 41 1008 11 10000 2.6 30 13:25 21.09.2019
1553 Clear 40 1009 15 10000 1.5 80 12:58 21.09.2019
1554 Clear 40 1009 15 10000 1.5 80 12:39 21.09.2019
1555 Clear 40 1009 15 10000 1.5 80 12:39 21.09.2019
1556 Clear 40 1009 15 10000 1.5 80 12:20 21.09.2019
1557 Clear 39 1010 17 10000 1.5 270 11:51 21.09.2019
1558 Clear 39 1010 17 10000 1.5 270 11:26 21.09.2019
1559 Clear 38 1011 14 10000 2.6 290 10:57 21.09.2019
1560 Clear 38 1011 14 10000 2.6 290 10:38 21.09.2019
1561 Clear 38 1011 14 10000 2.6 290 10:20 21.09.2019
1562 Clear 37 1012 20 10000 1.5 330 09:55 21.09.2019
1563 Clear 37 1012 20 10000 1.5 330 09:37 21.09.2019
1564 Clear 35 1012 17 10000 2.1 310 09:18 21.09.2019
1565 Clear 35 1012 17 10000 2.1 310 08:43 21.09.2019
1566 Clear 35 1012 17 10000 2.1 310 08:43 21.09.2019
1567 Clear 32 1012 19 10000 2.6 300 07:58 21.09.2019
1568 Clear 32 1012 19 10000 2.6 300 07:39 21.09.2019
1569 Clear 28 1012 21 10000 3.1 280 07:19 21.09.2019
1570 Clear 28 1012 21 10000 3.1 280 06:36 21.09.2019
1571 Clear 26 1011 22 10000 3.1 280 05:51 21.09.2019
1572 Clear 26 1011 27 10000 1.5 310 04:39 21.09.2019
1573 Clear 26 1011 27 10000 1.5 310 03:34 21.09.2019
1574 Clear 27 1011 28 10000 2.1 310 02:25 21.09.2019
1575 Clear 28 1011 24 10000 1 330 01:48 21.09.2019
1576 Clear 28 1011 24 10000 1 330 01:25 21.09.2019
1577 Clear 28 1011 24 10000 1.5 310 00:23 21.09.2019
1578 Clear 29 1012 23 10000 1.5 310 23:49 20.09.2019
1579 Clear 29 1012 23 10000 1.5 310 23:30 20.09.2019
1580 Clear 30 1012 19 10000 2.1 290 22:55 20.09.2019
1581 Clear 30 1012 19 10000 2.1 290 22:55 20.09.2019
1582 Clear 30 1012 19 10000 2.1 290 22:36 20.09.2019
1583 Clear 30 1012 19 10000 2.1 290 22:18 20.09.2019
1584 Clear 32 1012 24 10000 1 300 21:40 20.09.2019
1585 Clear 32 1012 24 10000 1 300 21:22 20.09.2019
1586 Clear 33 1013 16 10000 2.1 10 20:59 20.09.2019
1587 Clear 33 1013 16 10000 2.1 10 20:41 20.09.2019
1588 Clear 33 1013 16 10000 2.1 10 20:20 20.09.2019
1589 Clear 35 1012 12 10000 3.1 10 19:56 20.09.2019
1590 Clear 35 1012 12 10000 3.1 10 19:56 20.09.2019
1591 Clear 35 1012 12 10000 3.1 10 19:37 20.09.2019
1592 Clear 37 1012 13 10000 3.6 10 19:18 20.09.2019
1593 Clear 37 1012 13 10000 3.6 10 18:39 20.09.2019
1594 Clear 38 1011 12 10000 3.6 20 18:20 20.09.2019
1595 Clear 38 1011 12 10000 3.6 20 17:56 20.09.2019
1596 Clear 38 1011 12 10000 3.6 20 17:56 20.09.2019
1597 Clear 38 1011 12 10000 3.6 20 17:38 20.09.2019
1598 Clear 40 1011 11 10000 4.1 10 17:18 20.09.2019
1599 Clear 40 1011 11 10000 4.1 10 16:38 20.09.2019
1600 Clear 40 1011 11 10000 4.1 10 16:19 20.09.2019
1601 Clear 34 1008 10 0 4.93 15.974 15:42 20.09.2019
1602 Clear 40 1011 11 10000 4.1 60 15:23 20.09.2019
1603 Clear 40 1011 11 10000 4.1 60 15:23 20.09.2019
1604 Clear 40 1011 11 10000 4.1 60 14:56 20.09.2019
1605 Clear 40 1011 11 10000 4.1 60 14:38 20.09.2019
1606 Clear 40 1011 11 10000 4.1 60 14:18 20.09.2019
1607 Clear 40 1006 7 0 5.68 17.137 13:44 20.09.2019
1608 Clear 39 1012 11 10000 4.6 50 13:25 20.09.2019
1609 Clear 39 1012 11 10000 4.6 50 12:42 20.09.2019
1610 Clear 39 1012 11 10000 4.6 50 12:23 20.09.2019
1611 Clear 38 1013 12 10000 4.1 70 11:57 20.09.2019
1612 Clear 38 1013 12 10000 4.1 70 11:39 20.09.2019
1613 Clear 38 1013 12 10000 4.1 70 11:19 20.09.2019
1614 Clear 37 1014 13 10000 5.1 30 10:42 20.09.2019
1615 Clear 37 1014 13 10000 5.1 30 10:22 20.09.2019
1616 Clear 35 1015 15 10000 4.1 50 09:38 20.09.2019
1617 Clear 35 1015 15 10000 4.1 50 09:19 20.09.2019
1618 Clear 34 1015 15 10000 4.6 40 08:59 20.09.2019
1619 Clear 34 1015 15 10000 4.6 40 08:59 20.09.2019
1620 Clear 34 1015 15 10000 4.6 40 08:39 20.09.2019
1621 Clear 34 1015 15 10000 4.6 40 08:39 20.09.2019
1622 Clear 34 1015 15 10000 4.6 40 08:20 20.09.2019
1623 Clear 32 1015 18 8000 3.1 360 07:41 20.09.2019
1624 Clear 32 1015 18 8000 3.1 360 07:23 20.09.2019
1625 Clear 27 1015 22 8000 3.1 310 06:43 20.09.2019
1626 Clear 27 1015 22 8000 3.1 310 06:43 20.09.2019
1627 Clear 24 1014 27 8000 2.1 290 06:19 20.09.2019
1628 Clear 24 1014 27 8000 2.1 290 05:22 20.09.2019
1629 Clear 27 1013 22 10000 2.6 300 03:30 20.09.2019
1630 Clear 27 1013 22 10000 1.5 300 02:39 20.09.2019
1631 Clear 28 1013 24 10000 1.5 350 01:43 20.09.2019
1632 Clear 28 1013 24 10000 1.5 350 01:43 20.09.2019
1633 Clear 30 1013 19 10000 2.1 30 00:44 20.09.2019
1634 Clear 30 1013 22 10000 2.1 30 23:59 19.09.2019
1635 Clear 30 1013 22 10000 2.1 30 23:41 19.09.2019
1636 Clear 30 1013 22 10000 2.1 30 23:18 19.09.2019
1637 Clouds 31 1013 23 8000 1.5 60 22:41 19.09.2019
1638 Clouds 31 1013 23 8000 1.5 60 22:23 19.09.2019
1639 Clouds 33 1013 16 8000 2.1 60 21:58 19.09.2019
1640 Clouds 33 1013 16 8000 2.1 60 21:39 19.09.2019
1641 Clouds 33 1013 16 8000 2.1 60 21:20 19.09.2019
1642 Clouds 34 1013 15 8000 2.6 40 20:59 19.09.2019
1643 Clouds 34 1013 15 8000 2.6 40 20:40 19.09.2019
1644 Clouds 34 1013 15 8000 2.6 40 20:19 19.09.2019
1645 Clouds 35 1013 15 8000 3.1 40 19:54 19.09.2019
1646 Clouds 35 1013 15 8000 3.1 40 19:54 19.09.2019
1647 Clouds 35 1013 15 8000 3.1 40 19:36 19.09.2019
1648 Clouds 35 1013 15 8000 3.1 40 19:36 19.09.2019
1649 Clouds 37 1012 13 8000 2.6 40 19:18 19.09.2019
1650 Clouds 37 1012 13 8000 2.6 40 18:41 19.09.2019
1651 Clear 39 1012 10 8000 4.6 50 18:22 19.09.2019
1652 Clear 39 1012 10 8000 4.6 50 17:44 19.09.2019
1653 Clear 39 1012 10 8000 4.6 50 17:25 19.09.2019
1654 Clear 40 1011 9 8000 6.2 40 16:59 19.09.2019
1655 Clear 40 1011 9 8000 6.2 40 16:59 19.09.2019
1656 Clear 40 1011 9 8000 6.2 40 16:40 19.09.2019
1657 Clear 40 1011 9 8000 6.2 40 16:20 19.09.2019
1658 Clear 41 1011 9 8000 7.2 40 15:41 19.09.2019
1659 Clouds 41 1011 9 8000 7.2 40 15:22 19.09.2019
1660 Clouds 41 1011 9 8000 6.7 50 14:58 19.09.2019
1661 Clouds 41 1011 9 8000 6.7 50 14:39 19.09.2019
1662 Clouds 41 1011 9 8000 6.7 50 14:20 19.09.2019
1663 Clouds 41 1012 10 8000 7.2 50 13:55 19.09.2019
1664 Clouds 41 1012 10 8000 7.2 50 13:36 19.09.2019
1665 Clear 41 1012 10 8000 7.2 40 13:18 19.09.2019
1666 Clear 41 1012 10 8000 7.2 40 12:36 19.09.2019
1667 Clouds 40 1013 11 8000 7.7 40 12:18 19.09.2019
1668 Clouds 40 1013 11 8000 7.7 40 11:41 19.09.2019
1669 Clouds 40 1013 11 8000 7.7 40 11:22 19.09.2019
1670 Clouds 39 1014 13 8000 6.2 50 10:58 19.09.2019
1671 Clouds 39 1014 13 8000 6.2 50 10:39 19.09.2019
1672 Clouds 39 1014 13 8000 6.2 50 10:21 19.09.2019
1673 Clear 37 1015 14 10000 5.7 20 09:56 19.09.2019
1674 Clear 37 1015 14 10000 5.7 20 09:38 19.09.2019
1675 Clear 37 1015 14 10000 5.7 20 09:19 19.09.2019
1676 Clear 35 1015 15 10000 5.1 30 08:49 19.09.2019
1677 Clear 33 1015 18 10000 3.1 350 08:23 19.09.2019
1678 Clear 33 1015 18 10000 3.1 350 07:44 19.09.2019
1679 Clear 33 1015 18 10000 3.1 350 07:22 19.09.2019
1680 Clear 30 1015 20 10000 2.1 300 06:51 19.09.2019
1681 Clear 30 1015 20 10000 2.1 300 06:32 19.09.2019
1682 Clear 28 1014 20 10000 2.6 310 05:53 19.09.2019
1683 Clear 28 1014 20 10000 2.6 310 05:34 19.09.2019
1684 Clear 28 1014 20 10000 2.6 310 05:34 19.09.2019
1685 Clear 26 1012 27 10000 1.5 350 03:55 19.09.2019
1686 Clear 26 1012 27 10000 1.5 350 03:19 19.09.2019
1687 Clear 28 1012 26 10000 1.5 290 01:36 19.09.2019
1688 Clear 29 1012 20 10000 2.6 290 00:53 19.09.2019
1689 Clear 29 1012 20 10000 2.6 290 00:26 19.09.2019
1690 Clear 29 1012 20 10000 2.6 290 00:26 19.09.2019
1691 Clear 30 1013 27 10000 0.95 36.689 23:57 18.09.2019
1692 Clear 30 1013 27 10000 0.95 36.689 23:36 18.09.2019
1693 Clear 30 1013 27 10000 0.95 36.689 23:18 18.09.2019
1694 Clear 30 1013 27 10000 0.95 36.689 22:37 18.09.2019
1695 Clear 30 1013 27 10000 0.95 36.689 22:19 18.09.2019
1696 Clear 33 1013 21 10000 1.5 50 21:57 18.09.2019
1697 Clear 33 1013 21 10000 1.5 50 21:38 18.09.2019
1698 Clear 33 1013 21 10000 1.5 50 21:18 18.09.2019
1699 Clear 35 1013 15 10000 2.1 100 20:56 18.09.2019
1700 Clear 35 1013 15 10000 2.1 100 20:56 18.09.2019
1701 Clear 35 1013 15 10000 2.1 100 20:38 18.09.2019
1702 Clear 36 1012 14 10000 2.6 60 20:20 18.09.2019
1703 Clear 36 1012 14 10000 2.6 60 19:55 18.09.2019
1704 Clear 36 1012 14 10000 2.6 60 19:37 18.09.2019
1705 Clear 37 1011 18 10000 2.1 10 19:18 18.09.2019
1706 Clear 37 1011 18 10000 2.1 10 18:54 18.09.2019
1707 Clear 37 1011 18 10000 2.1 10 18:54 18.09.2019
1708 Clear 37 1011 18 10000 2.1 10 18:54 18.09.2019
1709 Clear 37 1011 18 10000 2.1 10 18:36 18.09.2019
1710 Clear 37 1011 18 10000 2.1 10 18:18 18.09.2019
1711 Clear 39 1010 10 10000 3.6 350 17:41 18.09.2019
1712 Clear 39 1010 10 10000 3.6 350 17:19 18.09.2019
1713 Clear 41 1010 12 10000 2.6 330 16:59 18.09.2019
1714 Clear 41 1010 12 10000 2.6 330 16:41 18.09.2019
1715 Clear 41 1010 12 10000 2.6 330 16:22 18.09.2019
1716 Clear 41 1010 15 10000 2.1 350 15:56 18.09.2019
1717 Clear 41 1010 15 10000 2.1 350 15:56 18.09.2019
1718 Clear 41 1010 15 10000 2.1 350 15:38 18.09.2019
1719 Clear 41 1010 15 10000 2.1 350 15:20 18.09.2019
1720 Clear 41 1010 15 10000 2.1 270 14:58 18.09.2019
1721 Clear 41 1010 15 10000 2.1 270 14:39 18.09.2019
1722 Clear 41 1010 15 10000 2.1 270 14:21 18.09.2019
1723 Clear 41 1010 15 10000 2.1 100 13:57 18.09.2019
1724 Clear 41 1010 15 10000 2.1 100 13:37 18.09.2019
1725 Clear 42 1011 12 10000 2.6 310 13:18 18.09.2019
1726 Clear 42 1011 12 10000 2.6 310 12:41 18.09.2019
1727 Clear 41 1011 12 10000 2.6 320 12:22 18.09.2019
1728 Clear 41 1011 12 10000 2.6 320 11:40 18.09.2019
1729 Clear 41 1011 12 10000 2.6 320 11:20 18.09.2019
1730 Clear 38 1012 18 10000 1.5 260 10:57 18.09.2019
1731 Clear 38 1012 18 10000 1.5 260 10:39 18.09.2019
1732 Clear 38 1012 18 10000 1.5 260 10:19 18.09.2019
1733 Clear 37 1013 14 10000 2.6 320 09:54 18.09.2019
1734 Clear 37 1013 14 10000 2.6 320 09:36 18.09.2019
1735 Clear 37 1013 14 10000 2.6 320 09:18 18.09.2019
1736 Clear 34 1013 15 10000 2.1 330 08:41 18.09.2019
1737 Clear 34 1013 15 10000 2.1 330 08:21 18.09.2019
1738 Clear 32 1012 25 7000 3.08 319.629 07:44 18.09.2019
1739 Clear 32 1012 25 7000 3.08 319.629 07:23 18.09.2019
1740 Clear 28 1012 26 10000 1 190 06:49 18.09.2019
1741 Clear 28 1012 26 10000 1 190 06:24 18.09.2019
1742 Clear 25 1011 29 10000 1 240 05:33 18.09.2019
1743 Clear 27 1010 22 10000 1.5 300 03:42 18.09.2019
1744 Clear 27 1010 22 10000 1.5 340 02:40 18.09.2019
1745 Clear 28 1011 17 10000 2.1 300 01:50 18.09.2019
1746 Clear 29 1010 17 10000 2.1 290 00:56 18.09.2019
1747 Clear 29 1010 17 10000 2.1 290 00:33 18.09.2019
1748 Clear 30 1010 20 10000 1.5 300 23:48 17.09.2019
1749 Clear 30 1010 20 10000 1.5 300 23:25 17.09.2019
1750 Clear 31 1011 19 10000 1.5 350 22:59 17.09.2019
1751 Clear 31 1011 19 10000 1.5 350 22:41 17.09.2019
1752 Clear 31 1011 19 10000 1.5 350 22:22 17.09.2019
1753 Clear 32 1011 19 10000 2.1 360 21:54 17.09.2019
1754 Clear 32 1011 19 10000 2.1 360 21:36 17.09.2019
1755 Clear 32 1010 21 10000 1 20 21:18 17.09.2019
1756 Clear 32 1010 21 10000 1 20 20:56 17.09.2019
1757 Clear 32 1010 21 10000 1 20 20:38 17.09.2019
1758 Clear 32 1010 21 10000 1 20 20:19 17.09.2019
1759 Clear 35 1010 17 10000 1.5 280 19:54 17.09.2019
1760 Clear 35 1010 17 10000 1.5 280 19:36 17.09.2019
1761 Clear 35 1009 21 10000 4.94 9.872 19:18 17.09.2019
1762 Clear 35 1009 21 10000 4.94 9.872 18:42 17.09.2019
1763 Clear 35 1009 21 10000 3.33 356.179 18:22 17.09.2019
1764 Clear 39 1009 18 10000 1 10 17:55 17.09.2019
1765 Clear 39 1009 18 10000 1 10 17:37 17.09.2019
1766 Clear 41 1009 10 10000 3.6 340 17:18 17.09.2019
1767 Clear 41 1009 10 10000 3.6 340 16:41 17.09.2019
1768 Clear 41 1009 10 10000 3.6 340 16:41 17.09.2019
1769 Clear 41 1009 10 10000 3.6 340 16:41 17.09.2019
1770 Clear 41 1009 10 10000 3.6 340 16:22 17.09.2019
1771 Clear 43 1009 14 10000 1 340 15:56 17.09.2019
1772 Clear 43 1009 14 10000 1 340 15:37 17.09.2019
1773 Clear 43 1009 14 10000 1 340 15:19 17.09.2019
1774 Clear 41 1009 15 10000 1 130 14:55 17.09.2019
1775 Clear 41 1009 15 10000 1 130 14:37 17.09.2019
1776 Clear 41 1009 15 10000 1.5 250 14:18 17.09.2019
1777 Clear 41 1009 15 10000 1.5 250 13:42 17.09.2019
1778 Clear 41 1009 15 10000 1.5 250 13:23 17.09.2019
1779 Clear 41 1010 11 10000 3.6 280 12:56 17.09.2019
1780 Clear 41 1010 11 10000 3.6 280 12:37 17.09.2019
1781 Clear 42 1011 11 10000 3.6 330 12:18 17.09.2019
1782 Clear 42 1011 11 10000 3.6 330 12:18 17.09.2019
1783 Clear 42 1011 11 10000 3.6 330 11:42 17.09.2019
1784 Clear 42 1011 11 10000 3.6 330 11:24 17.09.2019
1785 Clear 42 1011 11 10000 3.6 330 11:24 17.09.2019
1786 Clear 40 1012 17 10000 1.5 270 10:43 17.09.2019
1787 Clear 40 1012 17 10000 1.5 270 10:24 17.09.2019
1788 Clear 38 1012 21 10000 2.1 170 09:59 17.09.2019
1789 Clear 38 1012 21 10000 2.1 170 09:41 17.09.2019
1790 Clear 38 1012 21 10000 2.1 170 09:21 17.09.2019
1791 Clear 35 1013 23 10000 1 30 08:49 17.09.2019
1792 Clear 35 1013 23 10000 1 30 08:30 17.09.2019
1793 Clear 31 1013 29 10000 3.26 196.39 07:58 17.09.2019
1794 Clear 31 1013 29 10000 3.26 196.39 07:39 17.09.2019
1795 Clear 31 1013 29 10000 3.26 196.39 07:39 17.09.2019
1796 Clear 28 1012 32 10000 3.26 196.39 07:19 17.09.2019
1797 Clear 28 1012 32 10000 3.26 196.39 06:45 17.09.2019
1798 Clear 26 1012 31 10000 1.5 10 06:19 17.09.2019
1799 Clouds 29 1009 19 0 3.99 201.65 05:44 17.09.2019
1800 Clear 29 1011 30 10000 1 220 04:28 17.09.2019
1801 Clear 31 1011 23 10000 2.1 200 02:57 17.09.2019
1802 Clear 31 1011 23 10000 2.1 200 02:38 17.09.2019
1803 Clear 30 1011 23 10000 2.1 210 01:24 17.09.2019
1804 Clear 30 1011 22 10000 1 220 00:33 17.09.2019
1805 Clear 30 1012 25 10000 2.25 97.447 23:38 16.09.2019
1806 Clear 30 1012 25 10000 2.25 97.447 23:19 16.09.2019
1807 Clear 31 1012 23 10000 2.25 97.447 22:43 16.09.2019
1808 Clear 31 1012 23 10000 2.25 97.447 22:25 16.09.2019
1809 Clear 33 1012 18 10000 2.1 90 21:59 16.09.2019
1810 Clear 33 1012 18 10000 2.1 90 21:40 16.09.2019
1811 Clear 33 1012 18 10000 2.1 90 21:21 16.09.2019
1812 Clear 35 1012 12 10000 2.6 60 20:59 16.09.2019
1813 Clear 35 1012 12 10000 2.6 60 20:39 16.09.2019
1814 Clear 35 1012 12 10000 2.6 60 20:19 16.09.2019
1815 Clear 36 1012 11 10000 3.1 50 19:57 16.09.2019
1816 Clear 36 1012 11 10000 3.1 50 19:38 16.09.2019
1817 Clear 36 1011 18 10000 1.5 160 19:18 16.09.2019
1818 Clear 36 1011 18 10000 1.5 160 18:45 16.09.2019
1819 Clear 36 1011 18 10000 1.5 160 18:27 16.09.2019
1820 Clear 38 1010 17 10000 1.5 150 17:56 16.09.2019
1821 Clear 38 1010 17 10000 1.5 150 17:38 16.09.2019
1822 Clear 38 1010 17 10000 1.5 150 17:19 16.09.2019
1823 Clear 40 1010 12 10000 2.1 150 16:44 16.09.2019
1824 Clear 40 1010 12 10000 2.1 150 16:22 16.09.2019
1825 Clear 42 1010 11 10000 1 200 15:57 16.09.2019
1826 Clear 42 1010 11 10000 1 200 15:39 16.09.2019
1827 Clear 42 1010 11 10000 1 200 15:20 16.09.2019
1828 Clear 41 1010 11 10000 2.6 130 14:58 16.09.2019
1829 Clear 41 1010 11 10000 2.6 130 14:40 16.09.2019
1830 Clear 41 1010 11 10000 2.6 130 14:21 16.09.2019
1831 Clear 41 1011 10 10000 3.6 180 13:43 16.09.2019
1832 Clear 41 1011 9 10000 4.1 190 13:22 16.09.2019
1833 Clear 41 1011 9 10000 4.1 190 12:59 16.09.2019
1834 Clear 41 1011 9 10000 4.1 190 12:59 16.09.2019
1835 Clear 41 1011 9 10000 4.1 190 12:39 16.09.2019
1836 Clear 41 1011 9 10000 4.1 190 12:21 16.09.2019
1837 Clear 41 1012 9 10000 4.1 180 11:46 16.09.2019
1838 Clear 41 1012 9 10000 4.1 180 11:23 16.09.2019
1839 Clear 40 1013 11 10000 3.6 170 10:56 16.09.2019
1840 Clear 40 1013 11 10000 3.6 170 10:38 16.09.2019
1841 Clear 38 1013 13 10000 3.6 170 10:18 16.09.2019
1842 -273 0 0 0 0 0 09:55 16.09.2019
1843 Clear 38 1013 13 10000 3.6 170 09:36 16.09.2019
1844 Clear 38 1013 13 10000 3.6 170 09:18 16.09.2019
1845 Clear 36 1013 16 10000 3.1 170 08:41 16.09.2019
1846 Clear 36 1013 16 10000 3.1 170 08:22 16.09.2019
1847 Clear 33 1013 24 10000 1 150 07:42 16.09.2019
1848 Clear 33 1013 24 10000 1 150 07:24 16.09.2019
1849 Clear 29 1013 28 10000 1 200 06:58 16.09.2019
1850 Clear 29 1013 28 10000 1 200 06:39 16.09.2019
1851 Clear 26 1013 36 10000 4.1 161.808 06:20 16.09.2019
1852 Clear 26 1013 36 10000 4.1 161.808 05:42 16.09.2019
1853 Clear 26 1013 36 10000 4.1 161.808 05:21 16.09.2019
1854 Clear 28 1012 32 10000 1.5 190 03:37 16.09.2019
1855 Clear 29 1012 26 10000 1 160 01:20 16.09.2019
1856 Clear 30 1012 27 10000 2.35 158.815 00:38 16.09.2019
1857 Clear 30 1012 27 10000 1.86 155.569 00:20 16.09.2019
1858 Clear 32 1012 17 10000 2.6 100 23:39 15.09.2019
1859 Clear 32 1012 17 10000 2.6 100 23:20 15.09.2019
1860 Clear 33 1012 15 10000 5.1 110 22:40 15.09.2019
1861 Clear 33 1012 15 10000 5.1 110 22:21 15.09.2019
1862 Clear 33 1012 15 10000 5.1 110 22:21 15.09.2019
1863 Clear 34 1012 13 10000 5.1 100 21:58 15.09.2019
1864 Clear 34 1012 13 10000 5.1 100 21:39 15.09.2019
1865 Clear 34 1012 13 10000 5.1 100 21:39 15.09.2019
1866 Clear 34 1012 13 10000 5.1 100 21:21 15.09.2019
1867 Clear 34 1012 16 10000 3.1 100 20:57 15.09.2019
1868 Clear 34 1012 16 10000 3.1 100 20:38 15.09.2019
1869 Clear 34 1012 16 10000 3.1 100 20:20 15.09.2019
1870 Clear 35 1012 16 10000 3.1 90 19:42 15.09.2019
1871 Clear 35 1012 16 10000 3.1 90 19:22 15.09.2019
1872 Clear 37 1011 13 10000 3.1 90 18:42 15.09.2019
1873 Clear 37 1011 13 10000 3.1 90 18:24 15.09.2019
1874 Clear 38 1010 12 10000 4.1 70 17:56 15.09.2019
1875 Clear 38 1010 12 10000 4.1 70 17:37 15.09.2019
1876 Clear 38 1010 12 10000 4.1 70 17:19 15.09.2019
1877 Clear 40 1010 11 10000 4.1 40 16:43 15.09.2019
1878 Clear 40 1010 11 10000 4.1 40 16:25 15.09.2019
1879 Clear 41 1010 9 10000 5.1 60 15:58 15.09.2019
1880 Clear 41 1010 9 10000 5.1 60 15:40 15.09.2019
1881 Clear 41 1010 9 10000 5.1 60 15:20 15.09.2019
1882 Clear 40 1010 13 10000 2.1 70 14:57 15.09.2019
1883 Clear 40 1010 13 10000 2.1 70 14:38 15.09.2019
1884 Clear 40 1010 13 10000 2.1 70 14:20 15.09.2019
1885 Clear 42 1010 16 10000 1.5 340 13:46 15.09.2019
1886 Clear 42 1010 16 10000 1.5 340 13:24 15.09.2019
1887 Clear 41 1011 18 10000 1.5 90 12:55 15.09.2019
1888 Clear 41 1011 18 10000 1.5 90 12:36 15.09.2019
1889 Clear 40 1012 14 10000 2.6 210 12:18 15.09.2019
1890 Clear 40 1012 14 10000 2.6 210 11:42 15.09.2019
1891 Clear 40 1012 14 10000 2.6 210 11:22 15.09.2019
1892 Clear 39 1013 15 10000 2.6 190 10:56 15.09.2019
1893 Clear 39 1013 15 10000 2.6 190 10:38 15.09.2019
1894 Clear 39 1013 15 10000 2.6 190 10:19 15.09.2019
1895 Clear 37 1013 16 10000 3.1 170 09:40 15.09.2019
1896 Clear 36 1013 15 10000 3.1 170 09:20 15.09.2019
1897 Clear 36 1013 15 10000 3.1 170 08:47 15.09.2019
1898 Clear 36 1013 15 10000 3.1 170 08:47 15.09.2019
1899 Clear 36 1013 15 10000 3.1 170 08:28 15.09.2019
1900 Clear 34 1013 17 10000 3.1 170 07:49 15.09.2019
1901 Clear 34 1013 17 10000 3.1 170 07:30 15.09.2019
1902 Clear 31 1012 25 10000 1.5 140 06:43 15.09.2019
1903 Clear 28 1011 30 10000 1 130 03:32 15.09.2019
1904 Clear 29 1011 28 10000 1 120 02:42 15.09.2019
1905 Clear 30 1011 27 10000 1.5 160 01:41 15.09.2019
1906 Clear 30 1011 27 10000 1.5 160 01:21 15.09.2019
1907 Clear 31 1012 25 10000 1.5 160 00:46 15.09.2019
1908 Clear 31 1012 25 10000 1.5 160 00:24 15.09.2019
1909 Clear 31 1012 25 10000 1.5 150 23:59 14.09.2019
1910 Clear 31 1012 25 10000 1.5 150 23:41 14.09.2019
1911 Clear 31 1012 25 10000 1.5 150 23:21 14.09.2019
1912 Clear 32 1012 24 10000 1.5 150 22:59 14.09.2019
1913 Clear 32 1012 24 10000 1.5 150 22:40 14.09.2019
1914 Clear 32 1012 24 10000 1.5 150 22:21 14.09.2019
1915 Clear 34 1012 17 10000 3.1 110 21:57 14.09.2019
1916 Clear 34 1012 17 10000 3.1 110 21:39 14.09.2019
1917 Clear 34 1012 17 10000 3.1 110 21:19 14.09.2019
1918 Clear 35 1011 17 10000 2.6 90 20:55 14.09.2019
1919 Clear 35 1011 17 10000 2.6 90 20:36 14.09.2019
1920 Clear 35 1011 17 10000 2.6 90 20:18 14.09.2019
1921 Clear 36 1010 16 10000 2.6 90 19:44 14.09.2019
1922 Clear 36 1010 16 10000 2.6 90 19:20 14.09.2019
1923 Clear 37 1010 19 10000 2.1 80 18:54 14.09.2019
1924 Clear 37 1010 19 10000 2.1 80 18:36 14.09.2019
1925 Clear 39 1010 14 10000 2.6 80 18:18 14.09.2019
1926 Clear 39 1010 14 10000 2.6 80 17:41 14.09.2019
1927 Clear 39 1010 14 10000 2.6 80 17:22 14.09.2019
1928 Clear 40 1010 11 10000 3.6 50 16:46 14.09.2019
1929 Clear 40 1010 11 10000 3.6 50 16:26 14.09.2019
1930 Clear 41 1010 12 10000 2.6 130 15:56 14.09.2019
1931 Clear 41 1010 12 10000 2.6 130 15:56 14.09.2019
1932 Clear 41 1010 12 10000 2.6 130 15:38 14.09.2019
1933 Clear 41 1010 12 10000 2.6 50 15:18 14.09.2019
1934 Clear 41 1010 12 10000 2.6 50 14:43 14.09.2019
1935 Clear 41 1010 12 10000 2.6 50 14:19 14.09.2019
1936 Clear 40 1010 11 10000 3.1 100 13:48 14.09.2019
1937 Clear 40 1010 11 10000 3.1 100 13:23 14.09.2019
1938 Clear 40 1010 12 10000 2.6 190 12:48 14.09.2019
1939 Clear 40 1010 12 10000 2.6 190 12:28 14.09.2019
1940 Clear 40 1011 16 10000 3.1 150 11:56 14.09.2019
1941 Clear 40 1011 16 10000 3.1 150 11:37 14.09.2019
1942 Clear 40 1011 16 10000 3.1 150 11:19 14.09.2019
1943 Clear 39 1012 18 10000 2.6 200 10:38 14.09.2019
1944 Clear 39 1012 18 10000 2.6 200 10:20 14.09.2019
1945 Clear 37 1012 17 10000 2.1 180 09:57 14.09.2019
1946 Clear 37 1012 17 10000 2.1 180 09:38 14.09.2019
1947 Clear 37 1012 17 10000 2.1 180 09:19 14.09.2019
1948 Clear 36 1013 15 10000 3.1 180 08:46 14.09.2019
1949 Clear 36 1013 15 10000 3.1 180 08:23 14.09.2019
1950 Clouds 33 1013 26 8000 1 180 07:46 14.09.2019
1951 Clouds 33 1013 26 8000 1 180 07:28 14.09.2019
1952 Clear 28 1012 34 10000 4.66 177.53 06:44 14.09.2019
1953 Clear 28 1012 34 10000 4.64 187.604 06:25 14.09.2019
1954 Clear 26 1012 31 10000 4.64 187.604 05:25 14.09.2019
1955 Clear 28 1011 30 10000 2.1 160 03:45 14.09.2019
1956 Clear 29 1011 28 10000 3.67 150.214 02:52 14.09.2019
1957 Clear 31 1011 16 10000 2.1 170 01:50 14.09.2019
1958 Clear 31 1011 16 10000 2.1 170 01:22 14.09.2019
1959 Clear 31 1011 25 10000 2.1 180 00:57 14.09.2019
1960 Clear 31 1011 25 10000 2.1 180 00:38 14.09.2019
1961 Clear 31 1011 25 10000 2.1 180 00:20 14.09.2019
1962 Clear 31 1011 19 10000 2.6 200 23:38 13.09.2019
1963 Clear 31 1011 19 10000 2.6 200 23:19 13.09.2019
1964 Clear 31 1011 19 10000 2.6 200 23:19 13.09.2019
1965 Clear 31 1012 25 10000 1 240 22:58 13.09.2019
1966 Clear 31 1012 25 10000 1 240 22:38 13.09.2019
1967 Clear 31 1012 25 10000 1 240 22:20 13.09.2019
1968 Clear 32 1011 25 10000 3.1 155.528 21:42 13.09.2019
1969 Clear 32 1011 25 10000 3.4 127.39 21:20 13.09.2019
1970 Clear 34 1011 20 10000 2.1 110 20:59 13.09.2019
1971 Clear 34 1011 20 10000 2.1 110 20:40 13.09.2019
1972 Clear 34 1011 20 10000 2.1 110 20:21 13.09.2019
1973 Clear 35 1011 15 10000 2.6 90 19:56 13.09.2019
1974 Clear 35 1011 15 10000 2.6 90 19:38 13.09.2019
1975 Clear 36 1010 13 10000 3.1 80 19:19 13.09.2019
1976 Clear 36 1010 13 10000 3.1 80 18:55 13.09.2019
1977 Clear 36 1010 13 10000 3.1 80 18:36 13.09.2019
1978 Clear 38 1010 14 10000 3.1 60 18:18 13.09.2019
1979 Clear 38 1010 14 10000 3.1 60 17:38 13.09.2019
1980 Clear 38 1010 14 10000 3.1 60 17:19 13.09.2019
1981 Clear 39 1010 14 10000 3.1 60 16:41 13.09.2019
1982 Clear 39 1010 14 10000 3.1 60 16:21 13.09.2019
1983 Clear 40 1010 14 10000 3.6 40 15:47 13.09.2019
1984 Clear 40 1010 14 10000 3.6 40 15:28 13.09.2019
1985 Clear 40 1010 14 10000 3.1 100 14:59 13.09.2019
1986 Clear 40 1010 14 10000 3.1 100 14:41 13.09.2019
1987 Clear 40 1010 14 10000 3.1 100 14:41 13.09.2019
1988 Clear 40 1010 14 10000 3.1 100 14:22 13.09.2019
1989 Clear 40 1010 14 10000 3.1 100 14:22 13.09.2019
1990 Clear 40 1010 17 10000 1.5 230 13:46 13.09.2019
1991 Clear 40 1010 17 10000 1.5 230 13:24 13.09.2019
1992 Clear 39 1011 18 10000 1.5 80 12:58 13.09.2019
1993 Clear 39 1011 18 10000 1.5 80 12:39 13.09.2019
1994 Clear 39 1011 18 10000 1.5 80 12:39 13.09.2019
1995 Clear 39 1012 15 10000 2.6 50 12:21 13.09.2019
1996 Clear 39 1012 15 10000 2.6 50 11:55 13.09.2019
1997 Clear 39 1012 15 10000 2.6 50 11:19 13.09.2019
1998 Clear 38 1013 18 10000 2.1 90 11:19 13.09.2019
1999 Clear 38 1013 18 10000 2.1 90 10:39 13.09.2019
2000 Clear 38 1013 18 10000 2.1 90 10:39 13.09.2019
2001 Clear 38 1013 18 10000 2.1 90 10:19 13.09.2019
2002 Clear 37 1013 16 10000 2.6 190 09:45 13.09.2019
2003 Clear 37 1013 16 10000 2.6 190 09:24 13.09.2019
2004 Clear 35 1013 17 10000 3.1 160 08:58 13.09.2019
2005 Clear 35 1013 17 10000 3.1 160 08:40 13.09.2019
2006 Clear 35 1013 17 10000 3.1 160 08:20 13.09.2019
2007 Clear 32 1013 19 8000 2.1 190 07:45 13.09.2019
2008 Clear 32 1013 19 8000 2.1 190 07:27 13.09.2019
2009 Clear 28 1012 28 8000 1.5 180 06:47 13.09.2019
2010 Clear 24 1012 36 8000 1 140 05:49 13.09.2019
2011 Clear 26 1011 29 10000 1 190 04:57 13.09.2019
2012 Clear 25 1011 31 10000 1 60 03:40 13.09.2019
2013 Clear 26 1011 31 10000 3.75 142.416 02:20 13.09.2019
2014 Clear 27 1011 32 10000 1 290 01:52 13.09.2019
2015 Clear 27 1011 32 10000 1 290 01:33 13.09.2019
2016 Clear 27 1011 32 10000 1 290 01:33 13.09.2019
2017 Clear 28 1011 32 10000 3.08 141.372 00:39 13.09.2019
2018 Clear 30 1012 22 10000 2.6 90 23:59 12.09.2019
2019 Clear 30 1012 22 10000 2.6 90 23:36 12.09.2019
2020 Clear 31 1012 20 10000 2.1 50 22:59 12.09.2019
2021 Clear 31 1012 20 10000 2.1 50 22:41 12.09.2019
2022 Clear 31 1012 20 10000 2.1 50 22:41 12.09.2019
2023 Clear 31 1012 20 10000 2.1 50 22:23 12.09.2019
2024 Clear 31 1012 23 10000 2.6 30 21:57 12.09.2019
2025 Clear 31 1012 23 10000 2.6 30 21:38 12.09.2019
2026 Clear 31 1012 23 10000 2.6 30 21:38 12.09.2019
2027 Clear 31 1012 23 10000 2.6 30 21:19 12.09.2019
2028 Clear 32 1012 19 10000 2.1 30 20:55 12.09.2019
2029 Clear 32 1012 19 10000 2.1 30 20:37 12.09.2019
2030 Clear 32 1012 19 10000 2.1 30 20:19 12.09.2019
2031 Clear 32 1012 19 10000 2.1 30 20:19 12.09.2019
2032 Clear 34 1012 18 10000 2.6 40 19:41 12.09.2019
2033 Clear 35 1011 15 10000 3.6 40 19:20 12.09.2019
2034 Clear 35 1011 15 10000 3.6 40 18:58 12.09.2019
2035 Clear 35 1011 15 10000 3.6 40 18:37 12.09.2019
2036 Clear 37 1010 13 10000 5.7 30 18:18 12.09.2019
2037 Clear 37 1010 13 10000 5.7 30 17:54 12.09.2019
2038 Clear 37 1010 13 10000 5.7 30 17:36 12.09.2019
2039 Clear 37 1010 13 10000 5.7 30 17:18 12.09.2019
2040 Clear 38 1010 13 10000 5.1 30 16:41 12.09.2019
2041 Clear 38 1010 13 10000 5.1 30 16:21 12.09.2019
2042 Clear 39 1010 11 10000 7.2 30 15:43 12.09.2019
2043 Clear 39 1010 11 10000 7.2 30 15:24 12.09.2019
2044 Clear 39 1010 12 10000 5.7 10 14:56 12.09.2019
2045 Clear 39 1010 12 10000 5.7 10 14:38 12.09.2019
2046 Clear 39 1010 12 10000 5.7 10 14:20 12.09.2019
2047 Clear 39 1011 12 10000 5.7 50 13:39 12.09.2019
2048 Clear 39 1011 12 10000 5.7 50 13:21 12.09.2019
2049 Clear 39 1011 11 10000 6.7 20 12:49 12.09.2019
2050 Clear 38 1012 13 10000 5.7 30 12:20 12.09.2019
2051 Clear 38 1012 13 10000 5.7 30 11:58 12.09.2019
2052 Clear 38 1012 13 10000 5.7 30 11:58 12.09.2019
2053 Clear 38 1012 13 10000 5.7 30 11:40 12.09.2019
2054 Clear 38 1012 13 10000 5.7 30 11:21 12.09.2019
2055 Clear 37 1013 14 10000 4.6 70 10:50 12.09.2019
2056 Clear 37 1013 14 10000 4.6 70 10:28 12.09.2019
2057 Clear 36 1013 16 10000 3.1 60 09:57 12.09.2019
2058 Clear 36 1013 16 10000 3.1 60 09:39 12.09.2019
2059 Clear 36 1013 16 10000 3.1 60 09:20 12.09.2019
2060 Clear 34 1013 24 10000 1.5 70 08:44 12.09.2019
2061 Clear 34 1013 24 10000 1.5 70 08:23 12.09.2019
2062 Clear 33 1013 27 10000 4.96 67.965 07:54 12.09.2019
2063 Clear 33 1013 27 10000 4.96 67.965 07:36 12.09.2019
2064 Clear 27 1013 32 10000 1 280 07:18 12.09.2019
2065 Clear 27 1013 32 10000 1 280 06:44 12.09.2019
2066 Clear 24 1012 41 10000 1.71 80.521 05:59 12.09.2019
2067 Clear 24 1012 41 10000 1.71 80.521 05:39 12.09.2019
2068 Clear 25 1012 38 10000 1.71 80.521 04:47 12.09.2019
2069 Clear 27 1011 30 10000 1 10 03:46 12.09.2019
2070 Clear 27 1011 34 10000 3.2 85.175 01:43 12.09.2019
2071 Clear 27 1011 34 10000 3.2 85.175 01:24 12.09.2019
2072 Clear 29 1012 25 10000 2.1 300 00:48 12.09.2019
2073 Clear 29 1012 25 10000 2.1 300 00:29 12.09.2019
2074 Clear 30 1012 27 10000 2.1 290 23:44 11.09.2019
2075 Clear 30 1012 27 10000 2.1 290 23:25 11.09.2019
2076 Clear 29 1012 28 10000 3.37 56.032 22:58 11.09.2019
2077 Clear 29 1012 28 10000 3.37 56.032 22:38 11.09.2019
2078 Clear 29 1012 28 10000 3.37 56.032 22:20 11.09.2019
2079 Clear 32 1012 21 10000 2.1 30 21:58 11.09.2019
2080 Clear 32 1012 21 10000 2.1 30 21:40 11.09.2019
2081 Clear 32 1012 21 10000 2.1 30 21:22 11.09.2019
2082 Clear 33 1012 19 10000 2.6 40 20:55 11.09.2019
2083 Clear 33 1012 19 10000 2.6 40 20:37 11.09.2019
2084 Clear 33 1012 19 10000 2.6 40 20:18 11.09.2019
2085 Clear 34 1012 18 10000 2.6 30 19:55 11.09.2019
2086 Clear 34 1012 18 10000 2.6 30 19:37 11.09.2019
2087 Clear 34 1012 18 10000 2.6 30 19:37 11.09.2019
2088 Clear 34 1012 18 10000 2.6 30 19:18 11.09.2019
2089 Clear 35 1011 15 10000 4.1 30 18:42 11.09.2019
2090 Clear 35 1011 15 10000 4.1 30 18:23 11.09.2019
2091 Clear 37 1010 13 10000 5.7 30 17:58 11.09.2019
2092 Clear 37 1010 13 10000 5.7 30 17:40 11.09.2019
2093 Clear 37 1010 13 10000 5.7 30 17:21 11.09.2019
2094 Clear 38 1010 12 10000 6.7 30 16:54 11.09.2019
2095 Clear 38 1010 12 10000 6.7 30 16:54 11.09.2019
2096 Clear 38 1010 12 10000 6.7 30 16:36 11.09.2019
2097 Clear 39 1010 12 10000 6.7 30 16:18 11.09.2019
2098 Clear 39 1010 12 10000 6.7 30 15:45 11.09.2019
2099 Clear 39 1010 12 10000 6.7 30 15:22 11.09.2019
2100 Clear 39 1010 12 10000 7.2 30 14:57 11.09.2019
2101 Clear 39 1010 12 10000 7.2 30 14:38 11.09.2019
2102 Clear 39 1010 12 10000 7.2 30 14:19 11.09.2019
2103 Clear 39 1010 12 10000 7.2 20 13:54 11.09.2019
2104 Clear 39 1010 12 10000 7.2 20 13:54 11.09.2019
2105 Clear 39 1010 12 10000 7.2 20 13:36 11.09.2019
2106 Clear 38 1011 15 10000 5.1 40 13:18 11.09.2019
2107 Clear 38 1011 15 10000 5.1 40 12:40 11.09.2019
2108 Clear 38 1011 15 10000 5.1 40 12:20 11.09.2019
2109 Clear 37 1011 16 10000 3.1 50 11:41 11.09.2019
2110 Clear 37 1011 16 10000 3.1 50 11:22 11.09.2019
2111 Clear 36 1012 16 10000 3.6 90 10:59 11.09.2019
2112 Clear 36 1012 16 10000 3.6 90 10:40 11.09.2019
2113 Clear 36 1012 16 10000 3.6 90 10:21 11.09.2019
2114 Clear 34 1012 18 10000 3.1 50 09:40 11.09.2019
2115 Clear 34 1012 18 10000 3.1 50 09:20 11.09.2019
2116 Clear 33 1012 19 10000 2.6 30 08:59 11.09.2019
2117 Clear 33 1012 19 10000 2.6 30 08:39 11.09.2019
2118 Clear 33 1012 19 10000 2.6 30 08:20 11.09.2019
2119 Clear 33 1012 26 10000 2.8 34.838 07:43 11.09.2019
2120 Clear 33 1012 26 10000 2.8 34.838 07:23 11.09.2019
2121 Clear 29 1011 32 10000 2.8 34.838 06:52 11.09.2019
2122 Clear 29 1011 32 10000 2.8 34.838 06:33 11.09.2019
2123 Clear 26 1010 36 10000 0.44 215.737 05:46 11.09.2019
2124 Clear 26 1010 36 10000 0.44 215.737 05:28 11.09.2019
2125 Clear 25 1010 38 10000 0.44 215.737 04:42 11.09.2019
2126 Clear 27 1009 34 10000 0.44 215.737 03:33 11.09.2019
2127 Clear 28 1009 30 10000 1 200 02:46 11.09.2019
2128 Clear 28 1009 30 10000 1 200 02:20 11.09.2019
2129 Clear 29 1009 28 10000 1.5 60 00:52 11.09.2019
2130 Clear 29 1009 28 10000 1.5 60 00:23 11.09.2019
2131 Clear 30 1009 23 10000 2.6 360 23:55 10.09.2019
2132 Clear 30 1009 23 10000 2.6 360 23:37 10.09.2019
2133 Clear 30 1009 23 10000 2.6 360 23:19 10.09.2019
2134 Clear 30 1009 23 10000 2.6 360 23:19 10.09.2019
2135 Clear 31 1009 23 10000 2.6 10 22:41 10.09.2019
2136 Clear 31 1009 23 10000 2.6 10 22:19 10.09.2019
2137 Clear 32 1010 25 10000 1.5 30 21:55 10.09.2019
2138 Clear 32 1010 25 10000 1.5 30 21:37 10.09.2019
2139 Clear 32 1010 25 10000 1.5 30 21:19 10.09.2019
2140 Clear 33 1009 24 10000 2.1 30 20:57 10.09.2019
2141 Clear 33 1009 24 10000 2.1 30 20:38 10.09.2019
2142 Clear 33 1009 24 10000 2.1 30 20:20 10.09.2019
2143 Clear 34 1009 20 10000 3.1 30 19:56 10.09.2019
2144 Clear 34 1009 20 10000 3.1 30 19:37 10.09.2019
2145 Clear 36 1008 16 10000 3.6 40 19:19 10.09.2019
2146 Clear 36 1008 16 10000 3.6 40 18:55 10.09.2019
2147 Clear 36 1008 16 10000 3.6 40 18:37 10.09.2019
2148 Clear 37 1008 14 10000 4.6 40 18:18 10.09.2019
2149 Clear 37 1008 14 10000 4.6 40 17:42 10.09.2019
2150 Clear 37 1008 14 10000 4.6 40 17:22 10.09.2019
2151 Clear 39 1007 13 10000 5.1 20 16:58 10.09.2019
2152 Clear 39 1007 13 10000 5.1 20 16:39 10.09.2019
2153 Clear 39 1007 13 10000 5.1 20 16:20 10.09.2019
2154 Clear 39 1007 13 10000 4.1 20 15:57 10.09.2019
2155 Clear 39 1007 13 10000 4.1 20 15:39 10.09.2019
2156 Clear 39 1007 13 10000 4.1 20 15:20 10.09.2019
2157 Clear 39 1008 15 10000 4.1 50 14:41 10.09.2019
2158 Clear 39 1008 15 10000 4.1 50 14:22 10.09.2019
2159 Clear 39 1008 13 10000 4.6 40 13:54 10.09.2019
2160 Clear 39 1008 13 10000 4.6 40 13:36 10.09.2019
2161 Clear 39 1008 13 10000 4.6 40 13:18 10.09.2019
2162 Clear 39 1008 14 10000 4.1 10 12:42 10.09.2019
2163 Clear 39 1008 14 10000 4.1 10 12:24 10.09.2019
2164 Clear 38 1009 15 10000 4.1 30 11:54 10.09.2019
2165 Clear 38 1009 15 10000 4.1 30 11:36 10.09.2019
2166 Clear 37 1010 17 10000 2.6 50 11:18 10.09.2019
2167 Clear 37 1010 17 10000 2.6 50 10:39 10.09.2019
2168 Clear 35 1010 17 10000 3.6 50 10:19 10.09.2019
2169 Clear 35 1010 17 10000 3.6 50 09:50 10.09.2019
2170 Clear 35 1011 19 10000 2.6 10 09:20 10.09.2019
2171 Clear 35 1011 19 10000 2.6 10 08:59 10.09.2019
2172 Clear 35 1011 19 10000 2.6 10 08:41 10.09.2019
2173 Clear 35 1011 19 10000 2.6 10 08:22 10.09.2019
2174 Clear 33 1010 18 10000 2.6 350 07:44 10.09.2019
2175 Clear 33 1010 18 10000 2.6 350 07:26 10.09.2019
2176 Clear 30 1010 22 10000 2.1 320 06:51 10.09.2019
2177 Clear 30 1010 22 10000 2.1 320 06:31 10.09.2019
2178 Clear 27 1008 32 10000 1.49 48.338 04:57 10.09.2019
2179 Clear 27 1008 32 10000 1 310 03:48 10.09.2019
2180 Clear 29 1008 21 10000 2.6 280 02:23 10.09.2019
2181 Clear 29 1008 21 10000 2.1 290 01:55 10.09.2019
2182 Clear 29 1008 21 10000 2.1 290 01:37 10.09.2019
2183 Clear 30 1008 20 10000 2.1 280 00:44 10.09.2019
2184 Clear 30 1008 20 10000 2.1 280 00:24 10.09.2019
2185 Clear 31 1009 23 10000 2.1 360 23:46 09.09.2019
2186 Clear 32 1008 19 10000 2.1 10 23:20 09.09.2019
2187 Clear 32 1008 19 10000 2.1 10 22:56 09.09.2019
2188 Clear 32 1008 19 10000 2.1 10 22:38 09.09.2019
2189 Clear 32 1008 19 10000 2.6 30 22:20 09.09.2019
2190 Clear 32 1008 19 10000 2.6 30 21:56 09.09.2019
2191 Clear 32 1008 19 10000 2.6 30 21:37 09.09.2019
2192 Clear 34 1008 17 10000 3.1 30 21:19 09.09.2019
2193 Clear 34 1008 17 10000 3.1 30 20:55 09.09.2019
2194 Clear 34 1008 17 10000 3.1 30 20:37 09.09.2019
2195 Clear 35 1008 17 10000 3.1 40 20:19 09.09.2019
2196 Clear 35 1008 17 10000 3.1 40 19:56 09.09.2019
2197 Clear 35 1008 17 10000 3.1 40 19:38 09.09.2019
2198 Clear 35 1008 17 10000 3.1 40 19:19 09.09.2019
2199 Clear 37 1007 14 10000 3.1 30 18:57 09.09.2019
2200 Clear 37 1007 14 10000 3.1 30 18:38 09.09.2019
2201 Clear 39 1007 13 10000 4.1 10 18:20 09.09.2019
2202 Clear 39 1007 13 10000 4.1 10 17:57 09.09.2019
2203 Clear 39 1007 13 10000 4.1 10 17:39 09.09.2019
2204 Clear 39 1006 13 10000 3.6 20 17:20 09.09.2019
2205 -273 0 0 0 0 0 16:55 09.09.2019
2206 Clear 39 1006 13 10000 3.6 20 16:55 09.09.2019
2207 Clear 39 1006 13 10000 3.6 20 16:37 09.09.2019
2208 Clear 39 1006 13 10000 3.6 20 16:37 09.09.2019
2209 Clear 40 1006 13 10000 5.1 320 16:18 09.09.2019
2210 Clear 40 1006 13 10000 5.1 320 15:44 09.09.2019
2211 Clear 40 1007 12 10000 3.1 10 15:24 09.09.2019
2212 Clear 40 1007 12 10000 3.1 10 14:58 09.09.2019
2213 Clear 40 1007 12 10000 3.1 10 14:40 09.09.2019
2214 Clear 40 1007 12 10000 3.1 290 14:21 09.09.2019
2215 Clear 40 1007 12 10000 3.1 290 13:57 09.09.2019
2216 Clear 40 1007 12 10000 3.1 290 13:39 09.09.2019
2217 Clear 40 1008 12 10000 3.1 330 13:18 09.09.2019
2218 Clear 40 1008 12 10000 3.1 330 12:54 09.09.2019
2219 Clear 40 1008 12 10000 3.1 330 12:36 09.09.2019
2220 Clear 39 1009 18 10000 2.6 20 12:18 09.09.2019
2221 Clear 39 1009 18 10000 2.6 20 11:43 09.09.2019
2222 Clear 39 1010 18 10000 1.5 340 11:20 09.09.2019
2223 Clear 39 1010 18 10000 1.5 340 10:42 09.09.2019
2224 Clear 39 1010 18 10000 1.5 340 10:24 09.09.2019
2225 Clear 36 1010 18 10000 2.6 40 09:59 09.09.2019
2226 Clear 36 1010 18 10000 2.6 40 09:59 09.09.2019
2227 Clear 36 1010 18 10000 2.6 40 09:40 09.09.2019
2228 Clear 36 1010 16 10000 2.1 340 09:22 09.09.2019
2229 Clear 36 1010 16 10000 2.1 340 08:55 09.09.2019
2230 Clear 36 1010 16 10000 2.1 340 08:37 09.09.2019
2231 Clear 33 1010 16 10000 2.6 320 08:18 09.09.2019
2232 Clear 33 1010 16 10000 2.6 320 07:40 09.09.2019
2233 Clear 28 1010 20 10000 2.1 280 07:20 09.09.2019
2234 Clear 28 1010 20 10000 2.1 280 06:50 09.09.2019
2235 Clear 28 1009 18 10000 3.1 280 05:56 09.09.2019
2236 Clear 29 1008 25 10000 1.5 270 02:59 09.09.2019
2237 Clear 29 1008 25 10000 1.5 270 02:41 09.09.2019
2238 Clear 30 1008 20 10000 2.6 300 01:22 09.09.2019
2239 Clear 32 1008 18 10000 2.6 350 00:24 09.09.2019
2240 Clear 32 1008 18 10000 2.6 350 23:47 08.09.2019
2241 Clear 32 1008 18 10000 2.6 350 23:29 08.09.2019
2242 Clear 33 1008 17 10000 2.6 10 22:59 08.09.2019
2243 Clear 33 1008 17 10000 2.6 10 22:39 08.09.2019
2244 Clear 33 1008 18 10000 2.6 360 22:21 08.09.2019
2245 Clear 33 1008 18 10000 2.6 360 21:57 08.09.2019
2246 Clear 33 1008 18 10000 2.6 360 21:39 08.09.2019
2247 Clear 33 1008 18 10000 2.6 360 21:21 08.09.2019
2248 Clear 35 1008 16 10000 3.1 20 20:41 08.09.2019
2249 Clear 35 1008 16 10000 3.1 20 20:22 08.09.2019
2250 Clear 36 1008 14 10000 3.6 20 19:59 08.09.2019
2251 Clear 36 1008 14 10000 3.6 20 19:39 08.09.2019
2252 Clear 38 1007 13 10000 5.1 350 19:21 08.09.2019
2253 Clear 38 1007 13 10000 5.1 350 18:58 08.09.2019
2254 Clear 38 1007 13 10000 5.1 350 18:39 08.09.2019
2255 Clear 39 1006 11 8000 5.7 350 18:19 08.09.2019
2256 Clear 39 1006 11 8000 5.7 350 17:57 08.09.2019
2257 Clear 39 1006 11 8000 5.7 350 17:37 08.09.2019
2258 Clear 39 1006 11 8000 5.7 350 17:37 08.09.2019
2259 Clear 41 1006 12 10000 4.6 320 17:18 08.09.2019
2260 Clear 41 1006 12 10000 4.6 320 16:45 08.09.2019
2261 Clear 41 1006 12 10000 4.6 320 16:23 08.09.2019
2262 Clear 42 1006 14 10000 3.1 310 15:59 08.09.2019
2263 Clear 42 1006 14 10000 3.1 310 15:41 08.09.2019
2264 Clear 42 1006 14 10000 3.1 310 15:41 08.09.2019
2265 Clear 42 1006 14 10000 3.6 350 15:22 08.09.2019
2266 Clear 42 1006 14 10000 3.6 350 15:22 08.09.2019
2267 Clear 42 1006 14 10000 3.6 350 14:58 08.09.2019
2268 Clear 42 1006 14 10000 3.6 350 14:39 08.09.2019
2269 Clear 41 1007 12 10000 3.1 270 14:20 08.09.2019
2270 Clear 41 1007 12 10000 3.1 270 13:57 08.09.2019
2271 Clear 41 1007 12 10000 3.1 270 13:38 08.09.2019
2272 Clear 41 1007 12 10000 3.6 330 13:19 08.09.2019
2273 Clear 41 1007 12 10000 3.6 330 12:43 08.09.2019
2274 Clear 41 1007 12 10000 3.6 330 12:24 08.09.2019
2275 Clear 40 1008 15 10000 2.6 360 11:59 08.09.2019
2276 Clear 40 1008 15 10000 2.6 360 11:40 08.09.2019
2277 Clear 40 1009 13 10000 3.6 330 11:20 08.09.2019
2278 Clear 40 1009 13 10000 3.6 330 10:58 08.09.2019
2279 Clear 40 1009 13 10000 3.6 330 10:40 08.09.2019
2280 Clear 40 1009 13 10000 3.6 330 10:22 08.09.2019
2281 Clear 38 1009 14 10000 4.1 350 09:39 08.09.2019
2282 Clear 37 1009 16 10000 3.6 330 09:21 08.09.2019
2283 Clear 37 1009 16 10000 3.6 330 08:57 08.09.2019
2284 Clear 37 1009 16 10000 3.6 330 08:39 08.09.2019
2285 Clouds 32 1009 17 8000 3.1 310 08:18 08.09.2019
2286 Clouds 32 1009 17 8000 3.1 310 07:40 08.09.2019
2287 Clouds 29 1009 25 6000 2.6 300 07:21 08.09.2019
2288 Clouds 29 1009 25 6000 2.6 300 06:53 08.09.2019
2289 Clouds 29 1009 25 6000 2.6 300 06:53 08.09.2019
2290 Clouds 29 1009 25 6000 2.6 300 06:33 08.09.2019
2291 Clouds 27 1008 26 6000 2.1 300 05:38 08.09.2019
2292 Clear 28 1007 32 10000 2.69 334.31 04:18 08.09.2019
2293 Clear 29 1007 30 10000 1.73 122.667 02:59 08.09.2019
2294 Clear 29 1007 30 10000 1.73 122.667 02:29 08.09.2019
2295 Clear 30 1007 28 10000 1.73 122.667 01:52 08.09.2019
2296 Clear 30 1007 28 10000 0.87 18.788 01:22 08.09.2019
2297 Clear 32 1007 27 10000 0.87 18.788 00:45 08.09.2019
2298 Clear 32 1007 27 10000 0.87 18.788 00:27 08.09.2019
2299 Clear 31 1008 29 10000 1 360 23:39 07.09.2019
2300 Clear 33 1008 27 10000 1 60 23:21 07.09.2019
2301 Clear 33 1008 27 10000 1 60 22:58 07.09.2019
2302 Clear 33 1008 27 10000 1 60 22:39 07.09.2019
2303 Clear 35 1008 21 10000 2.1 80 22:20 07.09.2019
2304 Clear 35 1008 21 10000 2.1 80 21:43 07.09.2019
2305 Clear 35 1008 21 10000 2.1 80 21:25 07.09.2019
2306 Clear 35 1008 23 10000 1.5 80 20:58 07.09.2019
2307 Clear 35 1008 23 10000 1.5 80 20:39 07.09.2019
2308 Clear 37 1007 20 10000 1.5 60 20:20 07.09.2019
2309 Clear 37 1007 20 10000 1.5 60 19:55 07.09.2019
2310 Clear 37 1007 20 10000 1.5 60 19:37 07.09.2019
2311 Clear 39 1007 14 10000 2.1 40 19:19 07.09.2019
2312 Clear 39 1007 14 10000 2.1 40 18:56 07.09.2019
2313 Clear 39 1007 14 10000 2.1 40 18:36 07.09.2019
2314 Clear 40 1006 13 10000 3.1 30 18:18 07.09.2019
2315 Clear 40 1006 13 10000 3.1 30 18:18 07.09.2019
2316 Clear 40 1006 13 10000 3.1 30 17:56 07.09.2019
2317 Clear 40 1006 13 10000 3.1 30 17:56 07.09.2019
2318 -273 0 0 0 0 0 17:56 07.09.2019
2319 Clear 40 1006 13 10000 3.1 30 17:37 07.09.2019
2320 Clear 42 1006 12 10000 3.6 30 17:18 07.09.2019
2321 Clear 42 1006 12 10000 3.6 30 17:18 07.09.2019
2322 Clear 42 1006 12 10000 3.6 30 16:43 07.09.2019
2323 Clear 42 1006 10 10000 5.1 10 16:21 07.09.2019
2324 Clear 42 1006 10 10000 5.1 10 15:55 07.09.2019
2325 Clear 42 1006 10 10000 5.1 10 15:55 07.09.2019
2326 Clear 42 1006 10 10000 5.1 10 15:36 07.09.2019
2327 Clear 44 1006 11 10000 4.1 330 15:18 07.09.2019
2328 Clear 44 1006 11 10000 4.1 330 14:54 07.09.2019
2329 Clear 44 1006 11 10000 4.1 330 14:54 07.09.2019
2330 Clear 44 1006 11 10000 4.1 330 14:36 07.09.2019
2331 Clear 43 1006 12 10000 3.6 30 14:18 07.09.2019
2332 Clear 43 1006 12 10000 3.6 30 13:43 07.09.2019
2333 Clear 43 1006 12 10000 3.6 30 13:25 07.09.2019
2334 Clear 42 1006 14 10000 2.6 90 12:46 07.09.2019
2335 Clear 42 1006 14 10000 2.6 90 12:26 07.09.2019
2336 Clear 42 1007 14 10000 3.1 60 11:59 07.09.2019
2337 Clear 42 1007 14 10000 3.1 60 11:40 07.09.2019
2338 Clear 42 1007 14 10000 3.1 60 11:21 07.09.2019
2339 Clear 41 1008 12 10000 3.6 30 10:41 07.09.2019
2340 Clear 39 1008 13 10000 3.6 20 10:22 07.09.2019
2341 Clear 39 1008 13 10000 3.6 20 09:58 07.09.2019
2342 Clear 39 1008 13 10000 3.6 20 09:39 07.09.2019
2343 Clear 39 1008 13 10000 3.6 20 09:39 07.09.2019
2344 Clear 39 1008 12 10000 3.6 350 09:20 07.09.2019
2345 Clear 39 1008 12 10000 3.6 350 09:20 07.09.2019
2346 Clear 39 1008 12 10000 3.6 350 08:45 07.09.2019
2347 Clear 39 1008 12 10000 3.6 350 08:26 07.09.2019
2348 Clouds 34 1008 21 8000 2.1 310 07:48 07.09.2019
2349 Clouds 34 1008 21 8000 2.1 310 07:28 07.09.2019
2350 Clouds 30 1008 23 8000 1.5 290 06:55 07.09.2019
2351 Clouds 30 1008 23 8000 1.5 290 06:35 07.09.2019
2352 Clouds 29 1007 18 8000 1.5 290 05:32 07.09.2019
2353 Clear 29 1007 23 10000 1 290 04:25 07.09.2019
2354 Clear 29 1006 25 10000 1.5 300 03:27 07.09.2019
2355 Clear 31 1006 25 10000 0.73 357.8 02:21 07.09.2019
2356 Clear 31 1006 25 10000 0.52 342.913 01:27 07.09.2019
2357 Clear 33 1007 21 10000 2.1 60 00:48 07.09.2019
2358 Clear 33 1007 24 10000 1.04 28.413 00:21 07.09.2019
2359 Clear 33 1007 24 10000 1.04 28.413 23:55 06.09.2019
2360 Clear 33 1007 24 10000 1.04 28.413 23:37 06.09.2019
2361 Clear 35 1007 20 10000 1.04 28.413 23:18 06.09.2019
2362 Clear 35 1007 20 10000 1.04 28.413 22:42 06.09.2019
2363 Clear 35 1008 20 10000 2.1 40 22:20 06.09.2019
2364 Clear 35 1008 20 10000 2.1 40 21:59 06.09.2019
2365 Clear 35 1008 20 10000 2.1 40 21:59 06.09.2019
2366 Clear 35 1008 20 10000 2.1 40 21:40 06.09.2019
2367 Clear 37 1007 19 10000 2.1 50 21:22 06.09.2019
2368 Clear 37 1007 19 10000 2.1 50 20:59 06.09.2019
2369 Clear 37 1007 19 10000 2.1 50 20:40 06.09.2019
2370 Clear 38 1007 18 10000 2.1 50 20:21 06.09.2019
2371 Clear 38 1007 18 10000 2.1 50 19:58 06.09.2019
2372 Clear 38 1007 18 10000 2.1 50 19:39 06.09.2019
2373 Clear 40 1006 12 10000 3.1 60 19:20 06.09.2019
2374 Clear 40 1006 12 10000 3.1 60 19:20 06.09.2019
2375 Clear 40 1006 12 10000 3.1 60 18:47 06.09.2019
2376 Clear 40 1006 12 10000 3.1 60 18:28 06.09.2019
2377 Clear 41 1006 12 10000 3.6 40 17:59 06.09.2019
2378 Clear 41 1006 12 10000 3.6 40 17:59 06.09.2019
2379 Clear 41 1006 12 10000 3.6 40 17:38 06.09.2019
2380 Clear 43 1006 10 10000 3.1 40 17:19 06.09.2019
2381 Clear 43 1006 10 10000 3.1 40 16:42 06.09.2019
2382 Clear 44 1006 11 10000 2.6 10 16:19 06.09.2019
2383 Clear 44 1006 11 10000 2.6 10 15:56 06.09.2019
2384 Clear 44 1006 11 10000 2.6 10 15:38 06.09.2019
2385 Clear 43 1006 10 10000 4.1 50 15:20 06.09.2019
2386 Clear 43 1006 10 10000 4.1 50 14:39 06.09.2019
2387 Clouds 44 1006 11 8000 3.1 20 14:18 06.09.2019
2388 Clouds 44 1006 11 8000 3.1 20 13:43 06.09.2019
2389 Clouds 44 1007 14 8000 2.1 30 13:22 06.09.2019
2390 Clouds 44 1007 14 8000 2.1 30 12:39 06.09.2019
2391 Clouds 43 1008 12 8000 2.1 80 12:21 06.09.2019
2392 Clouds 43 1008 12 8000 2.1 80 11:57 06.09.2019
2393 Clouds 43 1008 12 8000 2.1 80 11:39 06.09.2019
2394 Clouds 43 1008 12 8000 2.1 80 11:39 06.09.2019
2395 Clouds 42 1008 16 8000 1.5 80 11:20 06.09.2019
2396 Clouds 42 1008 16 8000 1.5 80 10:42 06.09.2019
2397 Clouds 42 1008 16 8000 1.5 80 10:22 06.09.2019
2398 Clouds 40 1009 16 8000 1.5 120 09:58 06.09.2019
2399 Clouds 40 1009 16 8000 1.5 120 09:37 06.09.2019
2400 Clouds 39 1009 20 8000 1 130 09:18 06.09.2019
2401 Clouds 39 1009 20 8000 1 130 08:44 06.09.2019
2402 Clouds 39 1009 20 8000 1 130 08:26 06.09.2019
2403 Clouds 37 1009 22 7000 2.14 139.114 07:50 06.09.2019
2404 Clouds 37 1009 22 7000 2.14 139.114 07:28 06.09.2019
2405 Clear 32 1008 21 10000 1.5 290 06:58 06.09.2019
2406 Clear 32 1008 21 10000 1.5 290 06:31 06.09.2019
2407 Clouds 31 1008 19 7000 1 290 05:44 06.09.2019
2408 Clear 31 1007 23 10000 1.69 195.987 04:54 06.09.2019
2409 Clear 31 1007 27 10000 1.69 195.987 04:23 06.09.2019
2410 Clear 32 1007 24 10000 2.99 172.763 02:40 06.09.2019
2411 Clear 34 1007 17 10000 1 150 00:51 06.09.2019
2412 Clear 35 1007 23 10000 1.5 160 23:58 05.09.2019
2413 Clear 35 1007 23 10000 1.5 160 23:40 05.09.2019
2414 Clear 35 1007 23 10000 3.06 130.175 23:21 05.09.2019
2415 Clear 35 1007 23 10000 3.06 130.175 22:45 05.09.2019
2416 Clear 35 1007 23 10000 3.06 130.175 22:25 05.09.2019
2417 Clear 36 1008 16 10000 2.1 110 21:57 05.09.2019
2418 Clear 36 1008 16 10000 2.1 110 21:38 05.09.2019
2419 Clear 37 1007 16 10000 2.6 90 21:20 05.09.2019
2420 Clear 37 1007 16 10000 2.6 90 20:58 05.09.2019
2421 Clear 37 1007 16 10000 2.6 90 20:38 05.09.2019
2422 Clear 38 1007 14 10000 3.1 90 20:20 05.09.2019
2423 Clear 38 1007 14 10000 3.1 90 19:57 05.09.2019
2424 Clear 38 1007 14 10000 3.1 90 19:38 05.09.2019
2425 Clear 39 1006 14 10000 4.1 60 19:19 05.09.2019
2426 Clear 39 1006 14 10000 4.1 60 18:41 05.09.2019
2427 Clouds 41 1006 12 8000 4.1 60 18:22 05.09.2019
2428 Clouds 41 1006 12 8000 4.1 60 17:58 05.09.2019
2429 Clouds 41 1006 12 8000 4.1 60 17:39 05.09.2019
2430 Clouds 41 1006 12 8000 4.1 60 17:39 05.09.2019
2431 Clouds 43 1006 16 8000 2.1 20 17:20 05.09.2019
2432 Clouds 43 1006 16 8000 2.1 20 16:42 05.09.2019
2433 Clouds 43 1006 16 8000 2.1 20 16:22 05.09.2019
2434 Clouds 43 1006 9 8000 3.6 10 15:59 05.09.2019
2435 Clouds 43 1006 9 8000 3.6 10 15:39 05.09.2019
2436 Clouds 44 1006 8 8000 3.6 20 15:19 05.09.2019
2437 Clouds 44 1006 8 8000 3.6 20 14:56 05.09.2019
2438 Clouds 44 1006 8 8000 3.6 20 14:38 05.09.2019
2439 Clouds 44 1006 8 8000 3.6 20 14:38 05.09.2019
2440 Clouds 44 1006 8 8000 3.6 20 14:18 05.09.2019
2441 Clouds 44 1006 8 8000 3.6 20 13:42 05.09.2019
2442 Clouds 45 1007 7 8000 1 320 13:19 05.09.2019
2443 Clouds 45 1007 7 8000 1 320 12:43 05.09.2019
2444 Clear 43 1008 9 8000 2.1 310 12:25 05.09.2019
2445 Clear 43 1008 9 8000 2.1 310 11:56 05.09.2019
2446 Clear 43 1008 9 8000 2.1 310 11:37 05.09.2019
2447 Clear 41 1008 9 8000 2.1 60 11:18 05.09.2019
2448 Clear 41 1008 9 8000 2.1 60 10:40 05.09.2019
2449 Clear 40 1009 11 8000 1.5 100 10:20 05.09.2019
2450 Clear 40 1009 11 8000 1.5 100 09:57 05.09.2019
2451 Clear 40 1009 11 8000 1.5 100 09:38 05.09.2019
2452 Clouds 38 1009 15 8000 3.2 192.665 09:18 05.09.2019
2453 Clouds 38 1009 15 8000 3.2 192.665 09:18 05.09.2019
2454 Clouds 38 1009 15 8000 3.2 192.665 08:43 05.09.2019
2455 Clouds 38 1009 15 8000 3.2 192.665 08:25 05.09.2019
2456 Clear 33 1008 22 10000 1 30 07:44 05.09.2019
2457 Clear 33 1008 22 10000 1 30 07:26 05.09.2019
2458 Clear 30 1008 35 10000 3.2 192.665 06:52 05.09.2019
2459 Clear 30 1008 35 10000 3.2 192.665 06:29 05.09.2019
2460 Clear 28 1007 32 10000 1.48 158.529 05:49 05.09.2019
2461 Clear 28 1007 32 10000 1.48 158.529 05:30 05.09.2019
2462 Clear 29 1007 30 10000 1.48 158.529 04:47 05.09.2019
2463 Clear 31 1006 29 10000 1.48 158.529 04:19 05.09.2019
2464 Clear 31 1006 29 10000 1.48 158.529 03:27 05.09.2019
2465 Clear 31 1006 29 10000 1 200 02:42 05.09.2019
2466 Clear 32 1006 24 10000 1.5 190 02:18 05.09.2019
2467 Clear 33 1007 24 10000 1 190 01:19 05.09.2019
2468 Clear 33 1007 24 10000 1 190 00:40 05.09.2019
2469 Clear 33 1007 24 10000 1.5 110 00:20 05.09.2019
2470 Clear 33 1007 24 10000 1.5 110 23:45 04.09.2019
2471 Clear 33 1007 24 10000 1.5 110 23:23 04.09.2019
2472 Clear 34 1008 21 10000 1.5 150 22:49 04.09.2019
2473 Clear 34 1008 21 10000 1.5 150 22:22 04.09.2019
2474 Clear 35 1008 21 10000 1 120 21:58 04.09.2019
2475 Clear 35 1008 21 10000 1 120 21:39 04.09.2019
2476 Clear 35 1008 21 10000 1 120 21:20 04.09.2019
2477 Clear 36 1008 20 10000 1.5 100 20:56 04.09.2019
2478 Clear 36 1008 20 10000 1.5 100 20:37 04.09.2019
2479 Clear 37 1007 17 10000 2.6 80 20:18 04.09.2019
2480 Clear 37 1007 17 10000 2.6 80 19:44 04.09.2019
2481 Clear 39 1006 15 10000 2.6 70 19:24 04.09.2019
2482 Clear 39 1006 15 10000 2.6 70 18:55 04.09.2019
2483 Clear 39 1006 15 10000 2.6 70 18:37 04.09.2019
2484 Clear 41 1006 11 10000 4.1 60 18:19 04.09.2019
2485 Clear 41 1006 11 10000 4.1 60 17:41 04.09.2019
2486 Clear 41 1006 11 10000 4.1 60 17:23 04.09.2019
2487 Clear 42 1005 11 10000 3.1 70 16:57 04.09.2019
2488 Clear 42 1005 11 10000 3.1 70 16:38 04.09.2019
2489 Clear 43 1005 9 10000 2.6 90 16:19 04.09.2019
2490 Clear 43 1005 9 10000 2.6 90 15:41 04.09.2019
2491 Clear 43 1005 8 10000 3.6 90 15:22 04.09.2019
2492 Clear 43 1005 8 10000 3.6 90 14:58 04.09.2019
2493 Clear 43 1005 8 10000 3.6 90 14:39 04.09.2019
2494 Clear 43 1005 8 10000 3.6 90 14:39 04.09.2019
2495 Clear 43 1005 8 10000 3.6 90 14:21 04.09.2019
2496 Clear 43 1006 10 10000 2.1 70 13:58 04.09.2019
2497 Clear 43 1006 10 10000 2.1 70 13:58 04.09.2019
2498 Clear 43 1006 10 10000 2.1 70 13:39 04.09.2019
2499 Clear 43 1006 9 10000 3.1 60 13:21 04.09.2019
2500 Clear 43 1006 9 10000 3.1 60 12:44 04.09.2019
2501 Clear 43 1006 9 10000 3.1 60 12:26 04.09.2019
2502 Clear 42 1007 9 10000 3.1 90 11:58 04.09.2019
2503 Clear 42 1007 9 10000 3.1 90 11:38 04.09.2019
2504 Clear 41 1008 11 10000 4.1 110 11:20 04.09.2019
2505 Clear 41 1008 11 10000 4.1 110 10:56 04.09.2019
2506 Clear 41 1008 11 10000 4.1 110 10:38 04.09.2019
2507 Clear 40 1008 11 10000 1.5 120 10:19 04.09.2019
2508 Clear 40 1008 11 10000 1.5 120 09:44 04.09.2019
2509 Clear 38 1008 11 10000 1.5 110 09:21 04.09.2019
2510 Clear 38 1008 11 10000 1.5 110 08:42 04.09.2019
2511 Clear 38 1008 11 10000 1.5 110 08:24 04.09.2019
2512 Clear 34 1008 21 10000 2.1 310 07:59 04.09.2019
2513 Clear 34 1008 21 10000 2.1 310 07:36 04.09.2019
2514 Clear 32 1008 24 10000 1 360 06:58 04.09.2019
2515 Clear 32 1008 24 10000 1 360 06:38 04.09.2019
2516 Clear 29 1006 30 10000 1.38 141.431 04:55 04.09.2019
2517 Clear 29 1006 30 10000 1.38 141.431 04:22 04.09.2019
2518 Clear 32 1006 24 10000 1 160 02:50 04.09.2019
2519 Clear 34 1006 21 10000 1 170 01:18 04.09.2019
2520 Clear 34 1006 21 10000 1 170 00:41 04.09.2019
2521 Clear 34 1006 21 10000 1.5 120 00:22 04.09.2019
2522 Clear 34 1006 21 10000 1.5 120 23:48 03.09.2019
2523 Clear 34 1006 21 10000 1.5 120 23:26 03.09.2019
2524 Clear 36 1006 16 10000 2.6 110 22:41 03.09.2019
2525 Clear 36 1007 19 10000 2.1 90 22:23 03.09.2019
2526 Clear 36 1007 19 10000 2.1 90 21:57 03.09.2019
2527 Clear 36 1007 19 10000 2.1 90 21:38 03.09.2019
2528 Clear 36 1007 20 10000 2.1 90 21:20 03.09.2019
2529 Clear 36 1007 20 10000 2.1 90 20:56 03.09.2019
2530 Clear 36 1007 20 10000 2.1 90 20:37 03.09.2019
2531 Clear 38 1007 14 10000 2.1 80 20:19 03.09.2019
2532 Clear 38 1007 14 10000 2.1 80 19:43 03.09.2019
2533 Clear 38 1007 14 10000 2.1 80 19:20 03.09.2019
2534 Clear 40 1006 14 10000 2.6 50 18:59 03.09.2019
2535 Clear 40 1006 14 10000 2.6 50 18:59 03.09.2019
2536 Clear 40 1006 14 10000 2.6 50 18:40 03.09.2019
2537 Clouds 42 1006 9 10000 4.1 20 18:20 03.09.2019
2538 Clouds 42 1006 9 10000 4.1 20 17:56 03.09.2019
2539 Clouds 42 1006 9 10000 4.1 20 17:38 03.09.2019
2540 Clouds 43 1005 9 10000 5.7 30 17:18 03.09.2019
2541 Clouds 43 1005 9 10000 5.7 30 16:43 03.09.2019
2542 Clouds 43 1005 9 10000 5.7 30 16:22 03.09.2019
2543 Clouds 43 1005 9 10000 5.7 30 16:22 03.09.2019
2544 Clouds 44 1005 8 10000 6.7 10 15:56 03.09.2019
2545 Clouds 44 1005 8 10000 6.7 10 15:37 03.09.2019
2546 Clouds 44 1006 8 10000 5.1 10 15:19 03.09.2019
2547 Clouds 44 1006 8 10000 5.1 10 14:55 03.09.2019
2548 Clouds 44 1006 8 10000 5.1 10 14:36 03.09.2019
2549 Clouds 44 1006 11 10000 2.6 350 14:18 03.09.2019
2550 Clouds 44 1006 11 10000 2.6 350 13:55 03.09.2019
2551 Clouds 44 1006 11 10000 2.6 350 13:37 03.09.2019
2552 Clouds 43 1007 15 9000 3.1 90 13:18 03.09.2019
2553 Clouds 43 1007 15 9000 3.1 90 12:46 03.09.2019
2554 Clouds 43 1007 15 9000 3.1 90 12:28 03.09.2019
2555 Clouds 42 1008 15 9000 2.1 90 11:43 03.09.2019
2556 Clouds 42 1008 15 9000 1.5 120 11:24 03.09.2019
2557 Clouds 42 1008 15 9000 1.5 120 10:58 03.09.2019
2558 Clouds 42 1008 15 9000 1.5 120 10:40 03.09.2019
2559 Clouds 42 1008 15 9000 1.5 120 10:21 03.09.2019
2560 Clouds 41 1009 18 8000 6.67 24.512 09:50 03.09.2019
2561 Clouds 41 1009 18 8000 6.48 22.682 09:32 03.09.2019
2562 Clouds 38 1008 19 8000 4.13 283.295 08:57 03.09.2019
2563 Clouds 38 1008 19 8000 4.13 283.295 08:37 03.09.2019
2564 Clouds 34 1008 21 8000 4.13 283.295 08:19 03.09.2019
2565 Clouds 34 1008 21 8000 4.13 283.295 07:43 03.09.2019
2566 Clouds 34 1008 21 8000 4.13 283.295 07:24 03.09.2019
2567 Clouds 30 1008 19 8000 2.6 60 06:47 03.09.2019
2568 Clouds 30 1008 19 8000 2.6 60 06:28 03.09.2019
2569 Clear 30 1007 22 10000 1 300 03:44 03.09.2019
2570 Clear 30 1007 25 10000 1.78 158.509 02:48 03.09.2019
2571 Clear 30 1007 25 10000 1.78 158.509 02:27 03.09.2019
2572 Clear 31 1007 23 10000 1.78 158.509 01:53 03.09.2019
2573 Clear 31 1007 23 10000 1.39 145.623 01:34 03.09.2019
2574 Clear 31 1008 25 10000 1 300 00:57 03.09.2019
2575 Clear 31 1008 25 10000 1 300 00:27 03.09.2019
2576 Clear 32 1008 24 10000 0.39 166.918 23:41 02.09.2019
2577 Clear 33 1008 22 10000 1 360 23:20 02.09.2019
2578 Clear 33 1008 22 10000 1 360 22:57 02.09.2019
2579 Clear 33 1008 22 10000 1 360 22:39 02.09.2019
2580 Clear 35 1008 19 10000 1.5 50 22:21 02.09.2019
2581 Clear 35 1008 19 10000 1.5 50 21:58 02.09.2019
2582 Clear 35 1008 19 10000 1.5 50 21:40 02.09.2019
2583 Clear 35 1008 20 10000 1 50 21:20 02.09.2019
2584 Clear 35 1008 20 10000 1 50 20:59 02.09.2019
2585 Clear 35 1008 20 10000 1 50 20:40 02.09.2019
2586 Clear 35 1008 20 10000 1 50 20:40 02.09.2019
2587 Clear 38 1008 17 10000 1.5 40 20:19 02.09.2019
2588 Clear 38 1008 17 10000 1.5 40 19:57 02.09.2019
2589 Clear 38 1008 17 10000 1.5 40 19:38 02.09.2019
2590 Clear 38 1008 17 10000 1.5 40 19:19 02.09.2019
2591 Clear 39 1007 16 10000 2.1 50 18:40 02.09.2019
2592 Clear 41 1007 15 10000 2.1 60 18:22 02.09.2019
2593 Clear 41 1007 15 10000 2.1 60 17:58 02.09.2019
2594 Clear 41 1007 15 10000 2.1 60 17:39 02.09.2019
2595 Clear 42 1006 9 10000 4.1 30 17:20 02.09.2019
2596 Clear 42 1006 9 10000 4.1 30 16:54 02.09.2019
2597 Clear 42 1006 9 10000 4.1 30 16:36 02.09.2019
2598 Clear 43 1006 8 10000 5.7 30 16:18 02.09.2019
2599 Clear 43 1006 8 10000 5.7 30 15:44 02.09.2019
2600 Clear 44 1006 7 10000 4.6 70 15:22 02.09.2019
2601 Clear 43 1006 8 10000 5.7 30 15:22 02.09.2019
2602 Clear 44 1006 7 10000 4.6 70 14:56 02.09.2019
2603 Clear 44 1006 7 10000 4.6 70 14:56 02.09.2019
2604 Clear 44 1006 7 10000 4.6 70 14:37 02.09.2019
2605 Clear 44 1007 8 10000 4.1 70 14:19 02.09.2019
2606 Clear 44 1007 8 10000 4.1 70 13:45 02.09.2019
2607 Clear 44 1007 8 10000 4.1 70 13:25 02.09.2019
2608 Clear 43 1007 12 10000 3.1 120 12:59 02.09.2019
2609 Clear 43 1007 12 10000 3.1 120 12:40 02.09.2019
2610 Clear 43 1008 16 10000 1.5 290 12:22 02.09.2019
2611 Clear 43 1008 16 10000 1.5 290 11:55 02.09.2019
2612 Clear 43 1008 16 10000 1.5 290 11:37 02.09.2019
2613 Clear 41 1009 13 10000 2.1 90 11:19 02.09.2019
2614 Clear 41 1009 13 10000 2.1 90 10:42 02.09.2019
2615 Clear 41 1009 13 10000 2.1 90 10:22 02.09.2019
2616 Clear 39 1010 16 10000 2.1 110 09:58 02.09.2019
2617 Clear 39 1010 16 10000 2.1 110 09:58 02.09.2019
2618 Clear 39 1010 16 10000 2.1 110 09:38 02.09.2019
2619 Clear 39 1010 16 10000 2.1 110 09:20 02.09.2019
2620 Clouds 39 1010 16 9000 1.49 66.508 08:43 02.09.2019
2621 Clouds 35 1010 19 7000 1 280 08:22 02.09.2019
2622 Clouds 35 1010 19 7000 1 280 07:56 02.09.2019
2623 Clouds 35 1010 19 7000 1 280 07:37 02.09.2019
2624 Clear 32 1009 25 10000 1 290 07:18 02.09.2019
2625 Clear 32 1009 25 10000 1 290 06:41 02.09.2019
2626 Clear 32 1008 25 10000 1 345.076 05:53 02.09.2019
2627 Clear 32 1008 25 10000 1 345.076 05:53 02.09.2019
2628 Clear 32 1008 25 10000 1 345.076 05:53 02.09.2019
2629 Clear 32 1008 25 10000 1 345.076 05:24 02.09.2019
2630 Clear 32 1008 25 10000 1 345.076 04:48 02.09.2019
2631 Clear 33 1007 21 10000 1 90 01:59 02.09.2019
2632 Clear 33 1007 21 10000 1 90 01:29 02.09.2019
2633 Clear 34 1007 16 10000 2.6 60 00:36 02.09.2019
2634 Clear 35 1007 15 10000 2.1 40 00:18 02.09.2019
2635 Clear 35 1007 15 10000 2.1 40 23:39 01.09.2019
2636 Clear 35 1007 15 10000 2.6 50 23:19 01.09.2019
2637 Clear 35 1007 15 10000 2.6 50 22:56 01.09.2019
2638 Clear 35 1007 15 10000 2.6 50 22:38 01.09.2019
2639 Clear 36 1007 14 10000 2.1 60 22:18 01.09.2019
2640 Clear 36 1007 14 10000 2.1 60 21:42 01.09.2019
2641 Clear 36 1007 14 10000 2.1 60 21:23 01.09.2019
2642 Clear 37 1007 14 10000 3.1 30 20:58 01.09.2019
2643 Clear 37 1007 14 10000 3.1 30 20:39 01.09.2019
2644 -273 0 0 0 0 0 20:19 01.09.2019
2645 Clear 39 1006 11 10000 3.1 50 19:58 01.09.2019
2646 Clear 39 1006 11 10000 3.1 50 19:39 01.09.2019
2647 Clear 39 1006 11 10000 3.1 50 19:21 01.09.2019
2648 Clear 40 1005 11 10000 3.6 40 18:44 01.09.2019
2649 Clear 40 1005 11 10000 3.6 40 18:44 01.09.2019
2650 Clear 40 1005 11 10000 3.6 40 18:26 01.09.2019
2651 Clear 42 1005 9 10000 4.1 50 17:58 01.09.2019
2652 Clear 42 1005 9 10000 4.1 50 17:39 01.09.2019
2653 Clear 42 1004 8 10000 5.7 60 17:19 01.09.2019
2654 Clear 42 1004 8 10000 5.7 60 16:41 01.09.2019
2655 Clear 43 1004 8 10000 4.1 70 16:21 01.09.2019
2656 Clear 43 1004 8 10000 4.1 70 15:58 01.09.2019
2657 Clear 43 1004 8 10000 4.1 70 15:39 01.09.2019
2658 Clear 44 1004 8 10000 4.1 80 15:20 01.09.2019
2659 Clear 44 1004 8 10000 4.1 80 14:42 01.09.2019
2660 Clear 44 1005 7 10000 5.7 70 14:22 01.09.2019
2661 Clear 44 1005 7 10000 5.7 70 13:59 01.09.2019
2662 Clear 44 1005 7 10000 5.7 70 13:40 01.09.2019
2663 Clear 44 1005 7 10000 6.7 60 13:21 01.09.2019
2664 Clear 44 1005 7 10000 6.7 60 12:43 01.09.2019
2665 Clear 44 1005 7 10000 6.7 60 12:25 01.09.2019
2666 Clear 43 1006 9 10000 4.6 50 11:55 01.09.2019
2667 Clear 43 1006 9 10000 4.6 50 11:37 01.09.2019
2668 Clear 43 1006 10 10000 3.1 70 11:18 01.09.2019
2669 Clear 43 1006 10 10000 3.1 70 10:43 01.09.2019
2670 Clear 43 1006 10 10000 3.1 70 10:23 01.09.2019
2671 Clear 41 1007 11 10000 2.6 350 09:47 01.09.2019
2672 Clear 41 1007 11 10000 2.6 350 09:26 01.09.2019
2673 Clear 38 1007 16 10000 2.1 350 08:46 01.09.2019
2674 Clear 38 1007 16 10000 2.1 350 08:25 01.09.2019
2675 Clear 34 1007 15 10000 2.1 320 07:59 01.09.2019
2676 Clear 34 1007 15 10000 2.1 320 07:41 01.09.2019
2677 Clear 31 1007 16 10000 2.1 320 07:18 01.09.2019
2678 Clear 31 1007 16 10000 2.1 320 06:37 01.09.2019
2679 Clear 28 1006 26 10000 1.4 307.904 05:57 01.09.2019
2680 Clear 28 1006 26 10000 1.4 307.904 05:57 01.09.2019
2681 Clear 30 1005 20 10000 1.5 320 04:34 01.09.2019
2682 Clear 29 1005 25 10000 1 300 03:43 01.09.2019
2683 Clear 33 1005 15 10000 2.1 170 02:59 01.09.2019
2684 Clear 33 1005 15 10000 2.1 170 02:29 01.09.2019
2685 Clear 32 1005 19 10000 1.37 335.729 01:52 01.09.2019
2686 Clear 32 1005 19 10000 1.21 314.597 01:25 01.09.2019
2687 Clear 31 1005 23 10000 1.21 314.597 00:47 01.09.2019
2688 Clear 32 1005 19 10000 1.5 320 00:23 01.09.2019
2689 Clear 32 1005 19 10000 1.5 320 23:55 31.08.2019
2690 Clear 32 1005 19 10000 1.5 320 23:36 31.08.2019
2691 Clear 36 1005 12 10000 3.1 10 23:18 31.08.2019
2692 Clear 36 1005 12 10000 3.1 10 22:44 31.08.2019
2693 Clear 36 1005 12 10000 3.1 10 22:25 31.08.2019
2694 Clear 35 1005 13 10000 1 290 21:58 31.08.2019
2695 Clear 35 1005 13 10000 1 290 21:39 31.08.2019
2696 Clear 35 1005 13 10000 1 60 21:20 31.08.2019
2697 Clear 35 1005 13 10000 1 60 20:47 31.08.2019
2698 Clear 35 1005 13 10000 1 60 20:29 31.08.2019
2699 Clear 35 1004 15 10000 2.54 46.594 19:57 31.08.2019
2700 Clear 35 1004 15 10000 2.54 46.594 19:39 31.08.2019
2701 Clear 37 1004 17 10000 2.54 46.594 19:20 31.08.2019
2702 Clear 37 1004 17 10000 2.54 46.594 18:40 31.08.2019
2703 Clear 42 1003 16 10000 1 130 18:21 31.08.2019
2704 Clear 42 1003 16 10000 1 130 17:58 31.08.2019
2705 Clear 42 1003 16 10000 1 130 17:37 31.08.2019
2706 Clear 42 1003 16 10000 1 130 17:37 31.08.2019
2707 Clear 43 1003 13 10000 1 110 17:19 31.08.2019
2708 Clear 43 1003 13 10000 1 110 16:57 31.08.2019
2709 Clear 43 1003 13 10000 1 110 16:39 31.08.2019
2710 Clear 43 1003 5 10000 2.6 100 16:20 31.08.2019
2711 Clear 43 1003 5 10000 2.6 100 15:57 31.08.2019
2712 Clear 43 1003 5 10000 2.6 100 15:36 31.08.2019
2713 Clear 44 1004 5 10000 2.1 100 15:18 31.08.2019
2714 Clear 44 1004 5 10000 2.1 100 14:41 31.08.2019
2715 Clear 44 1004 5 10000 2.1 100 14:41 31.08.2019
2716 Clear 44 1004 5 10000 2.1 100 14:22 31.08.2019
2717 Clear 45 1004 5 10000 4.94 30.86 13:41 31.08.2019
2718 Clear 45 1004 5 10000 3.97 39.689 13:23 31.08.2019
2719 Clear 44 1005 6 10000 4.1 340 12:59 31.08.2019
2720 Clear 44 1005 6 10000 4.1 340 12:39 31.08.2019
2721 Clear 43 1006 5 10000 2.1 100 12:20 31.08.2019
2722 Clear 43 1006 5 10000 2.1 100 12:20 31.08.2019
2723 Clear 43 1006 5 10000 2.1 100 12:20 31.08.2019
2724 Clear 43 1006 5 10000 2.1 100 11:55 31.08.2019
2725 Clear 43 1006 5 10000 2.1 100 11:36 31.08.2019
2726 Clear 43 1007 7 10000 3.1 350 11:18 31.08.2019
2727 Clear 43 1007 7 10000 3.1 350 11:18 31.08.2019
2728 Clear 43 1007 7 10000 3.1 350 10:41 31.08.2019
2729 Clear 42 1007 5 10000 2.6 320 10:19 31.08.2019
2730 Clear 42 1007 5 10000 2.6 320 09:57 31.08.2019
2731 Clear 42 1007 5 10000 2.6 320 09:38 31.08.2019
2732 Clear 38 1007 9 10000 2.1 340 09:19 31.08.2019
2733 Clear 38 1007 9 10000 2.1 340 08:43 31.08.2019
2734 Clear 35 1007 13 10000 2.6 320 08:23 31.08.2019
2735 Clear 35 1007 13 10000 2.6 320 07:41 31.08.2019
2736 Clear 35 1007 13 10000 2.6 320 07:22 31.08.2019
2737 Clear 29 1007 21 10000 1 320 06:41 31.08.2019
2738 Clear 29 1007 21 10000 1 320 06:41 31.08.2019
2739 Clear 26 1006 24 10000 1.5 350 06:18 31.08.2019
2740 Clear 26 1006 24 10000 1.5 350 06:18 31.08.2019
2741 Clear 26 1006 24 10000 1.5 350 05:33 31.08.2019
2742 Clear 28 1006 23 10000 1.5 270 04:36 31.08.2019
2743 Clear 28 1005 18 10000 1 300 03:45 31.08.2019
2744 Clear 28 1005 26 10000 4.54 210.002 02:37 31.08.2019
2745 Clear 31 1006 19 10000 1.5 260 01:53 31.08.2019
2746 Clear 31 1006 19 10000 1.5 260 01:33 31.08.2019
2747 Clear 31 1006 15 10000 3.1 300 00:50 31.08.2019
2748 Clear 31 1006 15 10000 3.1 300 00:50 31.08.2019
2749 Clear 31 1006 15 10000 3.1 300 00:30 31.08.2019
2750 Clear 32 1006 22 10000 1 300 23:57 30.08.2019
2751 Clear 32 1006 22 10000 1 300 23:57 30.08.2019
2752 Clear 32 1006 22 10000 1 300 23:38 30.08.2019
2753 Clear 32 1006 24 10000 1.54 138.36 23:18 30.08.2019
2754 Clear 32 1006 24 10000 1.54 138.36 22:42 30.08.2019
2755 Clear 33 1007 22 10000 1.54 138.36 22:22 30.08.2019
2756 Clear 33 1007 22 10000 1.54 138.36 21:58 30.08.2019
2757 Clear 33 1007 22 10000 1.42 158.8 21:38 30.08.2019
2758 Clear 37 1007 16 10000 1.5 160 21:19 30.08.2019
2759 Clear 37 1007 16 10000 1.5 160 21:19 30.08.2019
2760 Clear 37 1007 16 10000 1.5 160 20:58 30.08.2019
2761 Clear 37 1007 16 10000 1.5 160 20:39 30.08.2019
2762 Clear 37 1006 17 10000 1 140 20:20 30.08.2019
2763 Clear 37 1006 17 10000 1 140 19:57 30.08.2019
2764 Clear 37 1006 17 10000 1 140 19:39 30.08.2019
2765 Clear 37 1006 17 10000 1 140 19:19 30.08.2019
2766 Clear 37 1006 20 10000 1 160 18:49 30.08.2019
2767 Clear 41 1005 14 10000 1 110 18:25 30.08.2019
2768 Clear 41 1005 14 10000 1 110 17:58 30.08.2019
2769 Clear 41 1005 14 10000 1 110 17:58 30.08.2019
2770 Clear 41 1005 14 10000 1 110 17:40 30.08.2019
2771 Clear 42 1005 14 10000 1.5 140 17:19 30.08.2019
2772 Clear 42 1005 14 10000 1.5 140 16:59 30.08.2019
2773 Clear 42 1005 14 10000 1.5 140 16:40 30.08.2019
2774 Clear 42 1005 14 10000 1.5 140 16:40 30.08.2019
2775 Clear 42 1005 14 10000 1.5 140 16:21 30.08.2019
2776 Clear 43 1005 7 10000 1.5 180 15:43 30.08.2019
2777 Clear 43 1005 5 10000 1.5 180 15:23 30.08.2019
2778 Clear 43 1006 7 10000 3.6 90 14:46 30.08.2019
2779 Clear 43 1006 7 10000 3.6 90 14:28 30.08.2019
2780 Clear 44 1006 5 10000 2.6 60 13:58 30.08.2019
2781 Clear 44 1006 5 10000 2.6 60 13:40 30.08.2019
2782 Clear 44 1007 6 10000 3.1 340 13:21 30.08.2019
2783 Clear 44 1007 6 10000 3.1 340 12:45 30.08.2019
2784 Clear 44 1007 6 10000 3.1 340 12:26 30.08.2019
2785 Clear 43 1008 6 10000 2.1 240 11:58 30.08.2019
2786 Clear 43 1008 6 10000 2.1 240 11:39 30.08.2019
2787 Clear 41 1009 6 10000 2.6 240 11:21 30.08.2019
2788 Clear 41 1009 6 10000 2.6 240 11:21 30.08.2019
2789 Clear 41 1009 6 10000 2.6 240 10:39 30.08.2019
2790 Clear 40 1009 9 10000 2.1 300 10:20 30.08.2019
2791 Clear 40 1009 9 10000 2.1 300 09:56 30.08.2019
2792 Clear 40 1009 9 10000 2.1 300 09:36 30.08.2019
2793 Clear 40 1009 9 10000 2.1 300 09:36 30.08.2019
2794 Clear 38 1009 12 10000 3.6 320 09:18 30.08.2019
2795 Clear 38 1009 12 10000 3.6 320 09:18 30.08.2019
2796 Clear 38 1009 12 10000 3.6 320 08:44 30.08.2019
2797 Clear 38 1009 12 10000 3.6 320 08:24 30.08.2019
2798 Clear 34 1009 20 10000 1.5 310 07:56 30.08.2019
2799 Clear 34 1009 20 10000 1.5 310 07:37 30.08.2019
2800 Clear 34 1009 20 10000 1.5 310 07:37 30.08.2019
2801 Clear 28 1009 18 10000 2.1 290 07:18 30.08.2019
2802 Clear 28 1009 18 10000 2.1 290 06:40 30.08.2019
2803 Clear 27 1009 24 10000 1.5 320 06:21 30.08.2019
2804 Clear 27 1009 24 10000 1.5 320 05:32 30.08.2019
2805 Clear 27 1007 24 10000 1 10 03:57 30.08.2019
2806 Clear 27 1007 24 10000 1 10 03:37 30.08.2019
2807 Clear 27 1007 24 10000 1 10 03:37 30.08.2019
2808 Clear 27 1007 24 10000 1 10 03:37 30.08.2019
2809 Clear 30 1007 25 10000 2.21 238.17 02:44 30.08.2019
2810 Clear 32 1007 21 10000 1 300 02:19 30.08.2019
2811 Clear 32 1008 21 10000 2.1 170 00:57 30.08.2019
2812 Clear 32 1008 21 10000 2.1 160 00:23 30.08.2019
2813 Clear 32 1008 21 10000 2.1 160 23:49 29.08.2019
2814 Clear 33 1008 19 10000 1.5 150 23:23 29.08.2019
2815 Clear 33 1008 19 10000 1.5 150 22:58 29.08.2019
2816 Clear 33 1008 19 10000 1.5 150 22:38 29.08.2019
2817 Clear 34 1008 21 10000 1.5 130 22:20 29.08.2019
2818 Clear 34 1008 21 10000 1.5 130 21:42 29.08.2019
2819 Clear 34 1008 21 10000 1.5 130 21:42 29.08.2019
2820 Clear 34 1008 21 10000 1.5 130 21:22 29.08.2019
2821 Clear 36 1008 18 10000 1.5 150 20:59 29.08.2019
2822 Clear 36 1008 18 10000 1.5 150 20:59 29.08.2019
2823 Clear 36 1008 18 10000 1.5 150 20:41 29.08.2019
2824 Clear 36 1008 18 10000 1.5 150 20:20 29.08.2019
2825 Clear 37 1008 18 10000 1.5 140 19:57 29.08.2019
2826 Clear 37 1008 18 10000 1.5 140 19:38 29.08.2019
2827 Clear 37 1008 18 10000 1.5 140 19:20 29.08.2019
2828 Clear 37 1007 20 10000 1.5 140 18:41 29.08.2019
2829 Clear 37 1007 20 10000 1.5 140 18:20 29.08.2019
2830 Clear 41 1007 12 10000 3.1 100 17:56 29.08.2019
2831 Clear 41 1007 12 10000 3.1 100 17:56 29.08.2019
2832 Clear 41 1007 12 10000 3.1 100 17:37 29.08.2019
2833 Clear 41 1007 12 10000 3.1 100 17:19 29.08.2019
2834 Clear 42 1007 10 10000 2.6 110 16:43 29.08.2019
2835 Clear 42 1007 7 10000 2.1 160 16:24 29.08.2019
2836 Clear 42 1007 7 10000 2.1 160 15:58 29.08.2019
2837 Clear 42 1007 7 10000 2.1 160 15:37 29.08.2019
2838 Clear 43 1007 8 10000 4.6 110 15:19 29.08.2019
2839 Clear 43 1007 8 10000 4.6 110 15:19 29.08.2019
2840 Clear 43 1007 8 10000 4.6 110 14:45 29.08.2019
2841 Clear 43 1007 8 10000 4.6 110 14:22 29.08.2019
2842 Clear 42 1007 10 10000 4.1 130 13:58 29.08.2019
2843 Clear 42 1007 10 10000 4.1 130 13:39 29.08.2019
2844 Clear 41 1008 12 10000 3.6 120 13:20 29.08.2019
2845 Clear 41 1008 12 10000 3.6 120 12:58 29.08.2019
2846 Clear 41 1008 12 10000 3.6 120 12:39 29.08.2019
2847 Clear 41 1009 16 10000 2.1 100 12:20 29.08.2019
2848 Clear 41 1009 16 10000 2.1 100 11:58 29.08.2019
2849 Clear 41 1009 16 10000 2.1 100 11:37 29.08.2019
2850 Clear 41 1010 13 10000 2.6 170 11:18 29.08.2019
2851 Clear 41 1010 13 10000 2.6 170 10:42 29.08.2019
2852 Clear 41 1010 13 10000 2.6 170 10:24 29.08.2019
2853 Clear 39 1010 17 10000 2.1 180 09:42 29.08.2019
2854 Clear 38 1010 18 10000 1.5 20 09:21 29.08.2019
2855 Clear 38 1010 18 10000 1.5 20 08:59 29.08.2019
2856 Clear 38 1010 18 10000 1.5 20 08:40 29.08.2019
2857 Clear 38 1010 18 10000 1.5 20 08:21 29.08.2019
2858 Clear 36 1010 22 10000 4.21 334.981 07:48 29.08.2019
2859 Clear 36 1010 22 10000 4.21 334.981 07:26 29.08.2019
2860 Clear 30 1009 27 10000 4.21 334.981 06:47 29.08.2019
2861 Clear 30 1009 27 10000 2.28 241.058 06:28 29.08.2019
2862 Clear 30 1009 19 10000 2.6 350 05:41 29.08.2019
2863 Clear 30 1008 23 10000 1.5 290 04:50 29.08.2019
2864 Clear 30 1008 23 10000 1.5 290 04:29 29.08.2019
2865 Clear 30 1007 27 10000 1 60 03:20 29.08.2019
2866 Clear 32 1007 22 10000 1 290 01:49 29.08.2019
2867 Clear 32 1007 22 10000 1 290 01:30 29.08.2019
2868 Clear 31 1008 23 10000 1.5 40 00:40 29.08.2019
2869 Clear 32 1008 21 10000 3.77 179.316 00:20 29.08.2019
2870 Clear 32 1008 21 10000 3.77 179.316 23:43 28.08.2019
2871 Clear 32 1008 21 10000 3.77 179.316 23:24 28.08.2019
2872 Clear 35 1008 20 10000 1.5 190 22:58 28.08.2019
2873 Clear 35 1008 20 10000 1.5 190 22:39 28.08.2019
2874 Clear 33 1009 24 10000 3.77 179.316 22:18 28.08.2019
2875 Clear 33 1009 24 10000 2.83 167.528 21:57 28.08.2019
2876 Clear 33 1009 24 10000 2.83 167.528 21:38 28.08.2019
2877 Clear 34 1008 24 10000 1 120 21:20 28.08.2019
2878 Clear 34 1008 24 10000 1 120 20:41 28.08.2019
2879 Clear 37 1008 14 10000 2.6 110 20:22 28.08.2019
2880 Clear 37 1008 14 10000 2.6 110 19:55 28.08.2019
2881 Clear 37 1008 14 10000 2.6 110 19:37 28.08.2019
2882 Clear 37 1008 14 10000 2.6 110 19:18 28.08.2019
2883 Clear 39 1007 16 10000 2.1 90 18:42 28.08.2019
2884 Clear 41 1006 11 10000 3.1 60 18:21 28.08.2019
2885 Clear 41 1006 11 10000 3.1 60 17:55 28.08.2019
2886 Clear 41 1006 11 10000 3.1 60 17:37 28.08.2019
2887 Clear 41 1006 11 10000 3.1 60 17:37 28.08.2019
2888 Clear 42 1006 9 10000 3.6 70 17:19 28.08.2019
2889 Clear 42 1006 9 10000 3.6 70 16:42 28.08.2019
2890 Clear 43 1006 8 10000 4.6 90 16:18 28.08.2019
2891 Clear 43 1006 8 10000 4.6 90 15:54 28.08.2019
2892 Clear 43 1006 8 10000 4.6 90 15:36 28.08.2019
2893 Clear 43 1006 8 10000 5.1 60 15:18 28.08.2019
2894 Clear 43 1006 8 10000 5.1 60 14:55 28.08.2019
2895 Clear 43 1006 8 10000 5.1 60 14:36 28.08.2019
2896 Clear 43 1006 10 10000 3.6 80 14:18 28.08.2019
2897 Clear 43 1006 10 10000 3.6 80 13:39 28.08.2019
2898 Clear 43 1007 10 10000 3.6 110 13:20 28.08.2019
2899 Clear 43 1007 10 10000 3.6 110 12:58 28.08.2019
2900 Clear 43 1007 10 10000 3.6 110 12:40 28.08.2019
2901 Clear 43 1007 10 10000 3.6 110 12:40 28.08.2019
2902 Clear 42 1008 14 10000 2.6 130 12:21 28.08.2019
2903 Clear 42 1008 14 10000 2.6 130 11:40 28.08.2019
2904 Clear 42 1008 14 10000 2.6 130 11:22 28.08.2019
2905 Clear 42 1008 14 10000 2.1 130 10:57 28.08.2019
2906 Clear 42 1008 14 10000 2.1 130 10:38 28.08.2019
2907 Clear 41 1009 18 10000 5.24 78.739 10:20 28.08.2019
2908 Clear 41 1009 18 10000 5.24 78.739 10:20 28.08.2019
2909 Clear 41 1009 18 10000 5.13 76.625 09:42 28.08.2019
2910 Clear 37 1009 20 10000 1.5 260 09:21 28.08.2019
2911 Clear 37 1009 20 10000 1.5 260 08:57 28.08.2019
2912 Clear 37 1009 20 10000 1.5 260 08:38 28.08.2019
2913 Clear 35 1009 21 10000 1 350 08:19 28.08.2019
2914 Clear 35 1009 21 10000 1 350 07:38 28.08.2019
2915 Clear 30 1008 25 10000 3.1 16.471 07:20 28.08.2019
2916 Clear 30 1008 25 10000 3.1 16.471 07:20 28.08.2019
2917 Clear 30 1008 25 10000 3.1 16.471 06:49 28.08.2019
2918 Clear 28 1007 23 10000 2.1 340 05:59 28.08.2019
2919 Clear 28 1007 24 10000 1.5 290 04:49 28.08.2019
2920 Clear 33 1006 16 10000 2.6 220 01:58 28.08.2019
2921 Clear 33 1006 16 10000 2.6 220 01:30 28.08.2019
2922 Clear 33 1007 16 10000 2.1 270 00:50 28.08.2019
2923 Clear 33 1007 16 10000 2.1 270 00:32 28.08.2019
2924 Clear 33 1007 19 10000 3.27 145.09 23:46 27.08.2019
2925 Clear 33 1007 19 10000 3.27 145.09 23:22 27.08.2019
2926 Clear 33 1008 22 10000 1 10 22:59 27.08.2019
2927 Clear 33 1008 22 10000 1 10 22:41 27.08.2019
2928 Clear 35 1007 21 10000 1 190 22:22 27.08.2019
2929 Clear 35 1007 21 10000 1 190 21:57 27.08.2019
2930 Clear 35 1007 21 10000 1 190 21:38 27.08.2019
2931 Clear 36 1007 19 10000 1.5 50 21:19 27.08.2019
2932 Clear 36 1007 19 10000 1.5 50 20:57 27.08.2019
2933 Clear 36 1007 19 10000 1.5 50 20:38 27.08.2019
2934 Clear 36 1007 19 10000 1.5 70 20:19 27.08.2019
2935 Clear 36 1007 19 10000 1.5 70 19:43 27.08.2019
2936 -273 0 0 0 0 0 19:25 27.08.2019
2937 Clear 39 1006 17 10000 1.5 60 18:56 27.08.2019
2938 Clear 39 1006 17 10000 1.5 60 18:38 27.08.2019
2939 Clear 41 1006 11 10000 2.6 40 18:18 27.08.2019
2940 Clear 41 1006 11 10000 2.6 40 17:43 27.08.2019
2941 Clear 41 1006 11 10000 2.6 40 17:24 27.08.2019
2942 Clear 43 1006 8 10000 4.1 10 16:57 27.08.2019
2943 Clear 43 1006 8 10000 4.1 10 16:38 27.08.2019
2944 Clear 44 1006 8 10000 4.6 330 16:19 27.08.2019
2945 Clear 44 1006 8 10000 4.6 330 15:42 27.08.2019
2946 Clear 44 1006 8 10000 4.6 330 15:23 27.08.2019
2947 Clear 43 1006 10 10000 3.6 10 14:59 27.08.2019
2948 Clear 43 1006 10 10000 3.6 10 14:59 27.08.2019
2949 Clear 43 1006 10 10000 3.6 10 14:41 27.08.2019
2950 Clear 43 1006 10 10000 3.6 10 14:23 27.08.2019
2951 Clear 44 1007 11 10000 4.69 39.129 13:43 27.08.2019
2952 Clear 43 1008 14 10000 3.1 80 13:24 27.08.2019
2953 Clear 43 1008 14 10000 3.1 80 12:56 27.08.2019
2954 Clear 43 1008 14 10000 3.1 80 12:37 27.08.2019
2955 Clear 43 1008 14 10000 4.84 44.657 12:19 27.08.2019
2956 Clear 43 1008 14 10000 4.84 44.657 11:44 27.08.2019
2957 Clear 43 1008 14 10000 4.84 44.657 11:25 27.08.2019
2958 Clear 42 1009 12 10000 2.6 290 10:46 27.08.2019
2959 Clear 42 1009 12 10000 2.6 290 10:22 27.08.2019
2960 Clear 40 1010 19 9000 1 270 09:59 27.08.2019
2961 Clear 40 1010 19 9000 1 270 09:39 27.08.2019
2962 Clear 40 1010 19 9000 1 270 09:20 27.08.2019
2963 Clear 38 1010 17 9000 1.5 340 08:55 27.08.2019
2964 Clear 38 1010 17 9000 1.5 340 08:37 27.08.2019
2965 Clear 34 1010 15 10000 2.1 320 08:18 27.08.2019
2966 Clear 34 1010 15 10000 2.1 320 07:40 27.08.2019
2967 Clear 30 1009 25 10000 1.8 276.853 07:19 27.08.2019
2968 Clear 30 1009 25 10000 1.8 276.853 06:54 27.08.2019
2969 Clear 26 1009 27 10000 1.03 195.769 06:23 27.08.2019
2970 Clear 26 1009 27 10000 1.03 195.769 05:42 27.08.2019
2971 Clear 28 1008 26 10000 1.03 195.769 04:37 27.08.2019
2972 Clear 27 1008 24 10000 1 310 03:34 27.08.2019
2973 Clear 29 1008 25 10000 1.35 208.556 02:23 27.08.2019
2974 Clear 29 1008 25 10000 1.35 208.556 01:40 27.08.2019
2975 Clear 30 1008 23 10000 1.75 214.759 00:58 27.08.2019
2976 Clear 30 1008 23 10000 1.75 214.759 00:39 27.08.2019
2977 Clear 32 1008 22 10000 2.16 184.057 00:19 27.08.2019
2978 Clear 32 1008 22 10000 2.16 184.057 23:37 26.08.2019
2979 Clear 31 1009 25 10000 2.16 184.057 23:19 26.08.2019
2980 Clear 31 1009 25 10000 2.16 184.057 22:39 26.08.2019
2981 Clear 31 1009 25 10000 2.16 184.057 22:19 26.08.2019
2982 Clear 33 1009 22 10000 1 100 21:57 26.08.2019
2983 Clear 33 1009 22 10000 1 100 21:37 26.08.2019
2984 Clear 33 1009 22 10000 1 100 21:19 26.08.2019
2985 Clear 35 1009 17 10000 1.5 70 20:55 26.08.2019
2986 Clear 35 1009 17 10000 1.5 70 20:37 26.08.2019
2987 Clear 35 1009 17 10000 1.5 70 20:18 26.08.2019
2988 Clear 37 1008 13 10000 2.1 60 19:42 26.08.2019
2989 Clear 39 1008 10 10000 3.6 60 19:19 26.08.2019
2990 Clear 37 1008 13 10000 2.1 60 19:19 26.08.2019
2991 Clear 39 1008 10 10000 3.6 60 18:58 26.08.2019
2992 Clear 39 1008 10 10000 3.6 60 18:37 26.08.2019
2993 Clear 39 1008 10 10000 3.6 60 18:19 26.08.2019
2994 Clear 40 1007 10 10000 4.6 50 17:44 26.08.2019
2995 Clear 40 1007 10 10000 4.6 50 17:20 26.08.2019
2996 Clear 41 1007 9 10000 4.6 60 16:57 26.08.2019
2997 Clear 41 1007 9 10000 4.6 60 16:39 26.08.2019
2998 Clear 41 1007 9 10000 4.6 60 16:18 26.08.2019
2999 Clear 41 1007 9 10000 4.6 60 16:18 26.08.2019
3000 Clear 41 1007 9 10000 4.6 60 16:18 26.08.2019
3001 Clear 42 1007 8 10000 4.6 60 15:54 26.08.2019
3002 Clear 42 1007 8 10000 4.6 60 15:36 26.08.2019
3003 Clear 42 1007 8 10000 4.6 60 15:18 26.08.2019
3004 Clear 42 1007 9 10000 5.1 50 14:42 26.08.2019
3005 Clear 42 1007 9 10000 5.1 50 14:22 26.08.2019
3006 Clear 43 1007 9 10000 5.1 10 13:43 26.08.2019
3007 Clear 43 1007 9 10000 5.1 10 13:23 26.08.2019
3008 Clear 42 1008 9 10000 3.6 50 12:57 26.08.2019
3009 Clear 42 1008 9 10000 3.6 50 12:39 26.08.2019
3010 Clear 42 1008 9 10000 3.6 50 12:20 26.08.2019
3011 Clear 42 1009 8 10000 4.6 360 11:38 26.08.2019
3012 Clear 42 1009 8 10000 4.6 360 11:20 26.08.2019
3013 Clear 41 1009 9 10000 2.6 50 10:57 26.08.2019
3014 Clear 41 1009 9 10000 2.6 50 10:39 26.08.2019
3015 Clear 41 1009 9 10000 2.6 50 10:19 26.08.2019
3016 Clear 41 1009 9 10000 2.1 160 09:42 26.08.2019
3017 Clear 41 1009 9 10000 2.1 160 09:24 26.08.2019
3018 Clear 38 1009 12 10000 2.1 190 08:56 26.08.2019
3019 Clear 38 1009 12 10000 2.1 190 08:38 26.08.2019
3020 Clear 38 1009 12 10000 2.1 190 08:38 26.08.2019
3021 Clear 38 1009 12 10000 2.1 190 08:19 26.08.2019
3022 Clear 33 1009 22 10000 1 200 07:44 26.08.2019
3023 Clear 33 1009 22 10000 1 200 07:25 26.08.2019
3024 Clear 28 1009 30 10000 3.96 87.148 06:57 26.08.2019
3025 Clear 28 1009 30 10000 3.96 87.148 06:38 26.08.2019
3026 Clear 28 1009 30 10000 4.18 201.113 06:18 26.08.2019
3027 Clear 29 1008 23 10000 1 280 04:54 26.08.2019
3028 Clear 28 1008 21 10000 2.1 280 03:49 26.08.2019
3029 Clear 29 1008 25 10000 1.5 300 02:38 26.08.2019
3030 Clear 29 1008 26 10000 2.02 172.456 01:23 26.08.2019
3031 Clear 31 1008 22 10000 1.5 300 00:44 26.08.2019
3032 Clear 31 1008 22 10000 1.5 300 00:44 26.08.2019
3033 Clear 31 1008 22 10000 1.5 300 00:25 26.08.2019
3034 Clear 33 1008 21 10000 1 70 23:44 25.08.2019
3035 Clear 33 1008 21 10000 1 70 23:20 25.08.2019
3036 Clear 34 1009 20 10000 1 70 22:58 25.08.2019
3037 Clear 34 1009 20 10000 1 70 22:40 25.08.2019
3038 Clear 34 1009 20 10000 1 70 22:20 25.08.2019
3039 Clear 36 1009 12 10000 3.1 60 21:58 25.08.2019
3040 Clear 36 1009 12 10000 3.1 60 21:39 25.08.2019
3041 Clear 36 1009 12 10000 3.1 60 21:19 25.08.2019
3042 Clear 37 1008 11 10000 4.1 40 20:42 25.08.2019
3043 Clear 37 1008 11 10000 4.1 40 20:20 25.08.2019
3044 Clear 37 1007 13 10000 2.1 40 19:59 25.08.2019
3045 Clear 37 1007 13 10000 2.1 40 19:39 25.08.2019
3046 Clear 37 1007 13 10000 2.1 40 19:20 25.08.2019
3047 Clear 39 1007 12 10000 2.1 60 18:58 25.08.2019
3048 Clear 39 1007 12 10000 2.1 60 18:58 25.08.2019
3049 Clear 39 1007 12 10000 2.1 60 18:40 25.08.2019
3050 Clear 39 1007 12 10000 2.1 60 18:21 25.08.2019
3051 Clear 40 1006 12 10000 2.1 70 17:55 25.08.2019
3052 Clear 40 1006 12 10000 2.1 70 17:36 25.08.2019
3053 Clear 40 1006 12 10000 2.1 70 17:18 25.08.2019
3054 Clear 42 1006 15 10000 1.5 10 16:39 25.08.2019
3055 Clear 42 1006 15 10000 1.5 10 16:21 25.08.2019
3056 Clear 42 1006 6 10000 2.1 40 15:44 25.08.2019
3057 Clear 42 1006 6 10000 2.1 40 15:26 25.08.2019
3058 Clear 42 1006 6 10000 4.1 80 14:55 25.08.2019
3059 Clear 42 1006 6 10000 4.1 80 14:55 25.08.2019
3060 Clear 42 1006 6 10000 4.1 80 14:37 25.08.2019
3061 Clear 42 1006 6 10000 4.1 80 14:19 25.08.2019
3062 Clear 42 1006 6 10000 2.6 30 13:43 25.08.2019
3063 Clear 42 1006 6 10000 2.6 30 13:21 25.08.2019
3064 Clear 43 1007 6 10000 3.1 70 12:54 25.08.2019
3065 Clear 43 1007 6 10000 3.1 70 12:36 25.08.2019
3066 Clear 43 1007 6 10000 3.1 70 12:18 25.08.2019
3067 Clear 42 1008 8 10000 1.5 70 11:41 25.08.2019
3068 Clear 42 1008 8 10000 1.5 70 11:22 25.08.2019
3069 Clear 41 1008 9 10000 2.6 50 10:59 25.08.2019
3070 Clear 41 1008 9 10000 2.6 50 10:40 25.08.2019
3071 Clear 41 1008 9 10000 2.6 50 10:20 25.08.2019
3072 Clear 41 1008 9 10000 2.6 50 10:20 25.08.2019
3073 -273 0 0 0 0 0 09:55 25.08.2019
3074 Clear 40 1009 5 10000 1.5 350 09:37 25.08.2019
3075 Clear 40 1009 8 10000 1.5 350 09:18 25.08.2019
3076 Clear 36 1009 11 10000 2.6 350 08:42 25.08.2019
3077 Clear 36 1009 11 10000 2.6 350 08:21 25.08.2019
3078 Clear 33 1009 14 10000 3.1 320 07:35 25.08.2019
3079 Clear 30 1009 19 10000 2.6 310 06:46 25.08.2019
3080 Clear 30 1009 19 10000 2.6 310 06:46 25.08.2019
3081 Clear 28 1008 20 10000 2.6 290 05:47 25.08.2019
3082 Clear 28 1008 17 10000 3.1 280 04:35 25.08.2019
3083 Clear 30 1007 16 10000 3.1 280 03:31 25.08.2019
3084 Clear 29 1007 26 10000 1.5 310 02:39 25.08.2019
3085 Clear 30 1008 19 10000 2.1 90 01:24 25.08.2019
3086 Clear 32 1008 18 10000 2.6 290 00:39 25.08.2019
3087 Clear 32 1008 18 10000 2.6 290 00:20 25.08.2019
3088 Clear 33 1008 16 10000 3.1 280 23:50 24.08.2019
3089 Clear 33 1008 16 10000 3.1 280 23:22 24.08.2019
3090 Clear 34 1008 17 10000 2.6 280 22:55 24.08.2019
3091 Clear 34 1008 17 10000 2.6 280 22:37 24.08.2019
3092 Clear 34 1008 17 10000 2.6 280 22:19 24.08.2019
3093 Clear 35 1008 16 10000 2.6 280 21:55 24.08.2019
3094 Clear 35 1008 16 10000 2.6 280 21:36 24.08.2019
3095 Clear 35 1008 16 10000 2.6 280 21:18 24.08.2019
3096 Clear 37 1009 14 10000 2.1 280 20:42 24.08.2019
3097 Clear 37 1009 14 10000 2.1 280 20:21 24.08.2019
3098 Clouds 37 1008 14 10000 2.1 290 19:59 24.08.2019
3099 Clouds 37 1008 14 10000 2.1 290 19:41 24.08.2019
3100 Clouds 37 1008 14 10000 2.1 290 19:22 24.08.2019
3101 Clouds 39 1008 17 10000 1.5 300 18:59 24.08.2019
3102 Clouds 39 1008 17 10000 1.5 300 18:38 24.08.2019
3103 Clouds 39 1008 17 10000 1.5 300 18:19 24.08.2019
3104 Clouds 40 1007 16 10000 1.5 320 17:43 24.08.2019
3105 Clouds 40 1007 16 10000 1.5 320 17:24 24.08.2019
3106 Clouds 41 1007 15 10000 1 130 16:48 24.08.2019
3107 Clouds 41 1007 15 10000 1 130 16:20 24.08.2019
3108 Clouds 42 1007 9 10000 1.5 130 15:58 24.08.2019
3109 Clouds 42 1007 9 10000 1.5 130 15:40 24.08.2019
3110 Clouds 42 1007 9 10000 1.5 130 15:21 24.08.2019
3111 Clouds 42 1007 10 10000 3.6 150 14:42 24.08.2019
3112 Clouds 42 1007 10 10000 3.6 150 14:22 24.08.2019
3113 Clouds 42 1008 11 10000 2.1 60 13:56 24.08.2019
3114 Clouds 42 1008 11 10000 2.1 60 13:37 24.08.2019
3115 Clouds 42 1008 11 10000 2.1 60 13:18 24.08.2019
3116 Clear 41 1008 12 10000 3.1 150 12:42 24.08.2019
3117 Clear 41 1008 12 10000 3.1 150 12:24 24.08.2019
3118 Clear 41 1009 12 10000 1.5 120 11:57 24.08.2019
3119 Clear 41 1009 12 10000 1.5 120 11:38 24.08.2019
3120 Clear 41 1009 12 10000 1.5 120 11:19 24.08.2019
3121 Clear 39 1010 15 10000 2.6 70 10:43 24.08.2019
3122 Clear 39 1010 15 10000 2.6 70 10:23 24.08.2019
3123 Clear 38 1010 14 10000 2.1 80 09:44 24.08.2019
3124 Clear 38 1010 14 10000 2.1 80 09:20 24.08.2019
3125 Clear 36 1010 16 10000 3.6 20 08:56 24.08.2019
3126 Clear 36 1010 16 10000 3.6 20 08:37 24.08.2019
3127 Clear 36 1010 16 10000 3.6 20 08:18 24.08.2019
3128 Clear 34 1010 23 10000 2.1 320 07:44 24.08.2019
3129 Clear 34 1010 23 10000 2.1 320 07:24 24.08.2019
3130 Clear 29 1010 20 10000 2.1 300 06:24 24.08.2019
3131 Clear 28 1009 20 10000 2.6 300 05:40 24.08.2019
3132 Clear 29 1008 21 10000 1.5 320 03:56 24.08.2019
3133 Clear 29 1008 21 10000 1.5 320 03:35 24.08.2019
3134 Clear 29 1008 17 10000 2.6 320 02:25 24.08.2019
3135 Clear 29 1008 17 10000 2.6 320 02:25 24.08.2019
3136 Clear 30 1008 17 10000 2.6 310 01:30 24.08.2019
3137 Clear 30 1008 20 10000 2.1 310 00:52 24.08.2019
3138 Clear 30 1008 20 10000 2.1 310 00:25 24.08.2019
3139 Clear 32 1009 15 10000 2.1 300 23:57 23.08.2019
3140 Clear 32 1009 15 10000 2.1 300 23:37 23.08.2019
3141 Clear 32 1009 15 10000 2.1 300 23:18 23.08.2019
3142 Clear 33 1009 15 10000 2.1 310 22:41 23.08.2019
3143 Clear 33 1009 15 10000 2.1 310 22:23 23.08.2019
3144 Clear 34 1009 13 10000 3.1 350 21:38 23.08.2019
3145 Clear 34 1009 13 10000 3.1 350 21:20 23.08.2019
3146 Clear 35 1008 12 10000 3.6 350 20:55 23.08.2019
3147 Clear 35 1008 12 10000 3.6 350 20:37 23.08.2019
3148 Clear 35 1008 12 10000 3.6 350 20:18 23.08.2019
3149 Clouds 35 1008 13 10000 3.6 350 19:42 23.08.2019
3150 Clouds 35 1008 13 10000 3.6 350 19:18 23.08.2019
3151 Clouds 39 1007 9 10000 3.6 320 18:44 23.08.2019
3152 Clouds 39 1007 9 10000 3.6 320 18:26 23.08.2019
3153 Clouds 41 1006 7 10000 4.6 330 17:47 23.08.2019
3154 Clouds 41 1006 7 10000 4.6 330 17:28 23.08.2019
3155 Clouds 42 1006 9 10000 3.6 330 16:59 23.08.2019
3156 Clouds 42 1006 9 10000 3.6 330 16:40 23.08.2019
3157 Clouds 42 1006 9 10000 3.6 330 16:22 23.08.2019
3158 Clouds 42 1006 9 10000 3.1 260 15:41 23.08.2019
3159 Clouds 42 1006 9 10000 3.1 260 15:22 23.08.2019
3160 Clouds 42 1007 9 10000 2.1 270 14:59 23.08.2019
3161 Clouds 42 1007 9 10000 2.1 270 14:40 23.08.2019
3162 Clouds 42 1007 9 10000 2.1 270 14:20 23.08.2019
3163 Clouds 42 1007 9 10000 1.5 30 13:56 23.08.2019
3164 Clouds 42 1007 9 10000 1.5 30 13:38 23.08.2019
3165 Clouds 42 1007 9 10000 1.5 30 13:19 23.08.2019
3166 Clouds 42 1008 9 10000 2.1 300 12:54 23.08.2019
3167 Clouds 42 1008 9 10000 2.1 300 12:36 23.08.2019
3168 Clouds 42 1008 9 10000 2.1 300 12:18 23.08.2019
3169 Clouds 41 1008 9 10000 3.6 70 11:41 23.08.2019
3170 Clouds 41 1008 9 10000 3.6 70 11:20 23.08.2019
3171 Clear 40 1009 10 10000 2.6 40 10:59 23.08.2019
3172 Clear 40 1009 10 10000 2.6 40 10:59 23.08.2019
3173 Clear 40 1009 10 10000 2.6 40 10:41 23.08.2019
3174 Clear 40 1009 10 10000 2.6 40 10:21 23.08.2019
3175 Clouds 38 1009 11 10000 3.6 60 09:48 23.08.2019
3176 Clouds 38 1009 11 10000 3.6 60 09:30 23.08.2019
3177 Clouds 37 1010 12 10000 4.6 10 08:58 23.08.2019
3178 Clouds 37 1010 12 10000 4.6 10 08:39 23.08.2019
3179 Clouds 37 1010 12 10000 4.6 10 08:19 23.08.2019
3180 Clouds 35 1009 15 10000 2.1 330 07:42 23.08.2019
3181 Clouds 35 1009 15 10000 2.1 330 07:24 23.08.2019
3182 Clouds 32 1009 21 10000 1 310 06:56 23.08.2019
3183 Clouds 32 1009 21 10000 1 310 06:37 23.08.2019
3184 Clouds 32 1009 21 10000 1 310 06:19 23.08.2019
3185 Clouds 31 1008 22 10000 1.5 330 05:32 23.08.2019
3186 Clouds 32 1008 21 10000 1 240 04:20 23.08.2019
3187 Clouds 32 1008 21 10000 2.1 70 02:49 23.08.2019
3188 Clouds 32 1008 21 10000 2.1 70 02:22 23.08.2019
3189 Clouds 32 1008 15 10000 3.6 20 01:38 23.08.2019
3190 Clouds 32 1008 21 10000 2.1 350 00:44 23.08.2019
3191 Clouds 32 1008 21 10000 2.1 350 00:19 23.08.2019
3192 Clouds 33 1008 19 10000 1.5 310 23:45 22.08.2019
3193 Clouds 33 1008 19 10000 1.5 310 23:23 22.08.2019
3194 Clouds 34 1008 23 10000 5.47 20.766 22:56 22.08.2019
3195 Clouds 34 1008 23 10000 5.47 20.766 22:38 22.08.2019
3196 Clouds 34 1008 23 10000 5.47 20.766 22:19 22.08.2019
3197 Clouds 35 1008 19 10000 1.5 30 21:55 22.08.2019
3198 Clouds 35 1008 19 10000 1.5 30 21:36 22.08.2019
3199 Clouds 35 1008 19 10000 1.5 30 21:18 22.08.2019
3200 Clouds 36 1008 18 10000 2.1 30 20:54 22.08.2019
3201 Clouds 36 1008 18 10000 2.1 30 20:54 22.08.2019
3202 Clouds 36 1008 18 10000 2.1 30 20:36 22.08.2019
3203 Clouds 36 1008 18 10000 2.1 30 20:18 22.08.2019
3204 Clouds 38 1008 13 10000 2.6 30 19:40 22.08.2019
3205 Clouds 38 1008 13 10000 2.6 30 19:21 22.08.2019
3206 Clouds 39 1007 16 10000 2.1 40 18:59 22.08.2019
3207 Clouds 39 1007 16 10000 2.1 40 18:40 22.08.2019
3208 Clouds 39 1007 16 10000 2.1 40 18:20 22.08.2019
3209 Clouds 40 1006 16 10000 2.1 60 17:58 22.08.2019
3210 Clouds 40 1006 16 10000 2.1 60 17:39 22.08.2019
3211 Clouds 42 1006 10 10000 3.1 40 17:19 22.08.2019
3212 Clouds 42 1006 10 10000 3.1 40 16:56 22.08.2019
3213 Clouds 42 1006 10 10000 3.1 40 16:37 22.08.2019
3214 Clouds 42 1006 10 10000 3.1 40 16:19 22.08.2019
3215 Clouds 42 1006 10 10000 3.1 40 16:19 22.08.2019
3216 Clouds 42 1006 10 10000 3.1 40 16:19 22.08.2019
3217 Clouds 42 1006 12 10000 3.1 30 15:42 22.08.2019
3218 Clouds 42 1006 12 10000 3.1 30 15:24 22.08.2019
3219 Clouds 42 1006 12 10000 3.1 30 15:24 22.08.2019
3220 Clouds 42 1006 12 10000 3.1 30 15:24 22.08.2019
3221 Clouds 42 1006 12 10000 3.1 30 15:24 22.08.2019
3222 Clear 43 1007 10 10000 3.6 70 14:59 22.08.2019
3223 Clear 43 1007 10 10000 3.6 70 14:59 22.08.2019
3224 Clear 43 1007 10 10000 3.6 70 14:59 22.08.2019
3225 Clear 43 1007 10 10000 3.6 70 14:41 22.08.2019
3226 Clear 43 1007 10 10000 3.6 70 14:21 22.08.2019
3227 Clear 43 1007 10 10000 4.1 310 13:58 22.08.2019
3228 Clear 43 1007 10 10000 4.1 310 13:39 22.08.2019
3229 Clear 43 1007 10 10000 4.1 310 13:19 22.08.2019
3230 Clouds 42 1002 6 0 1.3 26.033 12:56 22.08.2019
3231 Clear 42 1008 12 10000 2.6 80 12:37 22.08.2019
3232 Clear 42 1008 12 10000 2.6 80 12:19 22.08.2019
3233 Clear 42 1008 12 10000 2.6 80 11:42 22.08.2019
3234 Clear 42 1008 12 10000 2.6 80 11:20 22.08.2019
3235 Clear 42 1008 16 10000 2.1 320 10:58 22.08.2019
3236 Clear 42 1008 16 10000 2.1 320 10:38 22.08.2019
3237 Clear 42 1008 16 10000 2.1 320 10:20 22.08.2019
3238 Clear 42 1009 17 10000 1.5 330 09:56 22.08.2019
3239 Clear 42 1009 17 10000 1.5 330 09:38 22.08.2019
3240 Clear 42 1009 17 10000 1.5 330 09:19 22.08.2019
3241 Clear 39 1009 13 10000 2.6 330 08:41 22.08.2019
3242 Clear 39 1009 13 10000 2.6 330 08:22 22.08.2019
3243 Clear 33 1009 16 10000 3.1 300 07:58 22.08.2019
3244 Clear 33 1009 16 10000 3.1 300 07:38 22.08.2019
3245 Clear 33 1009 16 10000 3.1 300 07:19 22.08.2019
3246 Clear 29 1009 26 10000 0.31 96.667 06:46 22.08.2019
3247 Clear 29 1009 26 10000 1.52 317.716 06:21 22.08.2019
3248 Clear 27 1008 24 10000 1 350 05:29 22.08.2019
3249 Clear 29 1008 23 10000 1 270 03:26 22.08.2019
3250 Clear 29 1008 18 10000 2.6 280 02:36 22.08.2019
3251 Clear 30 1008 22 10000 1.5 320 01:36 22.08.2019
3252 Clear 31 1008 23 10000 1 280 00:57 22.08.2019
3253 Clear 31 1008 23 10000 1 280 00:38 22.08.2019
3254 Clear 31 1008 23 10000 1 280 00:20 22.08.2019
3255 Clear 32 1009 24 10000 1 340 23:41 21.08.2019
3256 Clear 32 1009 24 10000 1 340 23:23 21.08.2019
3257 Clear 32 1009 21 10000 2.1 330 22:58 21.08.2019
3258 Clear 32 1009 21 10000 2.1 330 22:39 21.08.2019
3259 Clear 32 1009 21 10000 2.1 330 22:20 21.08.2019
3260 Clear 34 1009 21 10000 1 60 21:56 21.08.2019
3261 Clear 34 1009 21 10000 1 60 21:37 21.08.2019
3262 Clear 34 1009 21 10000 1 60 21:19 21.08.2019
3263 Clear 36 1008 18 10000 2.1 50 20:55 21.08.2019
3264 Clear 36 1008 18 10000 2.1 50 20:55 21.08.2019
3265 Clear 36 1008 18 10000 2.1 50 20:37 21.08.2019
3266 Clear 36 1008 18 10000 2.1 50 20:19 21.08.2019
3267 Clear 37 1008 13 10000 2.6 40 19:42 21.08.2019
3268 Clear 37 1008 13 10000 2.6 40 19:23 21.08.2019
3269 Clear 39 1007 12 10000 2.6 40 18:56 21.08.2019
3270 Clear 39 1007 12 10000 2.6 40 18:56 21.08.2019
3271 Clear 39 1007 12 10000 2.6 40 18:38 21.08.2019
3272 Clear 39 1007 12 10000 2.6 40 18:20 21.08.2019
3273 Clear 41 1007 9 10000 3.1 50 17:44 21.08.2019
3274 Clear 41 1007 9 10000 3.1 50 17:22 21.08.2019
3275 Clear 42 1007 11 10000 3.6 30 16:57 21.08.2019
3276 Clear 42 1007 11 10000 3.6 30 16:39 21.08.2019
3277 Clear 42 1007 11 10000 3.6 30 16:18 21.08.2019
3278 Clear 42 1007 8 10000 3.6 10 15:56 21.08.2019
3279 Clear 42 1007 8 10000 3.6 10 15:38 21.08.2019
3280 Clear 42 1007 8 10000 3.6 10 15:18 21.08.2019
3281 Clear 42 1007 8 10000 3.1 70 14:54 21.08.2019
3282 Clear 42 1007 8 10000 3.1 70 14:36 21.08.2019
3283 Clear 42 1007 8 10000 3.1 70 14:18 21.08.2019
3284 Clear 42 1008 9 10000 2.1 360 13:43 21.08.2019
3285 Clear 42 1008 9 10000 2.1 360 13:20 21.08.2019
3286 Clear 42 1008 10 10000 5.1 110 12:57 21.08.2019
3287 Clear 42 1008 10 10000 5.1 110 12:39 21.08.2019
3288 Clear 42 1008 10 10000 5.1 110 12:19 21.08.2019
3289 Clear 41 1009 12 10000 3.6 40 11:44 21.08.2019
3290 Clear 41 1009 12 10000 3.6 40 11:24 21.08.2019
3291 Clear 40 1010 16 10000 1.5 260 10:59 21.08.2019
3292 Clear 40 1010 16 10000 1.5 260 10:40 21.08.2019
3293 Clear 40 1010 16 10000 1.5 260 10:22 21.08.2019
3294 Clear 38 1011 19 10000 1.5 150 09:58 21.08.2019
3295 Clear 38 1011 19 10000 1.5 150 09:40 21.08.2019
3296 -273 0 0 0 0 0 09:21 21.08.2019
3297 Clear 36 1011 22 10000 1.6 293.081 08:50 21.08.2019
3298 Clear 36 1011 22 10000 1.6 293.081 08:26 21.08.2019
3299 Clear 34 1011 23 10000 1.6 293.081 07:56 21.08.2019
3300 Clear 34 1011 23 10000 1.6 293.081 07:37 21.08.2019
3301 Clear 34 1011 23 10000 1.6 293.081 07:18 21.08.2019
3302 Clear 30 1010 27 10000 1.6 293.081 06:44 21.08.2019
3303 Clear 30 1010 27 10000 0.55 267.61 06:19 21.08.2019
3304 Clear 26 1010 26 10000 1 320 05:29 21.08.2019
3305 Clear 26 1010 24 10000 0.55 267.61 04:51 21.08.2019
3306 Clear 28 1009 18 10000 1 300 02:44 21.08.2019
3307 Clear 29 1009 23 10000 2.1 290 01:38 21.08.2019
3308 Clear 30 1010 17 10000 2.1 290 00:43 21.08.2019
3309 Clear 30 1010 17 10000 2.1 290 00:22 21.08.2019
3310 Clear 31 1010 20 10000 1.5 300 23:46 20.08.2019
3311 Clear 31 1010 20 10000 1.5 300 23:21 20.08.2019
3312 Clear 32 1010 24 10000 3.23 88.049 22:59 20.08.2019
3313 Clear 32 1010 24 10000 3.23 88.049 22:41 20.08.2019
3314 Clear 32 1010 24 10000 3.23 88.049 22:22 20.08.2019
3315 Clear 32 1010 24 10000 1 80 21:59 20.08.2019
3316 Clear 32 1010 24 10000 1 80 21:39 20.08.2019
3317 Clear 32 1010 24 10000 1 80 21:20 20.08.2019
3318 Clear 35 1010 19 10000 1.5 70 20:59 20.08.2019
3319 Clear 35 1010 19 10000 1.5 70 20:59 20.08.2019
3320 Clear 35 1010 19 10000 1.5 70 20:41 20.08.2019
3321 Clear 35 1010 19 10000 1.5 70 20:23 20.08.2019
3322 Clear 37 1009 13 10000 2.6 70 19:41 20.08.2019
3323 Clear 37 1009 13 10000 2.6 70 19:22 20.08.2019
3324 Clear 38 1009 12 10000 3.1 60 18:59 20.08.2019
3325 Clear 32 1006 9 0 3.9 16.058 18:40 20.08.2019
3326 Clear 32 1006 9 0 3.9 16.058 18:40 20.08.2019
3327 Clear 40 1009 11 10000 4.6 50 18:19 20.08.2019
3328 Clear 40 1009 11 10000 4.6 50 17:58 20.08.2019
3329 Clear 40 1009 11 10000 4.6 50 17:39 20.08.2019
3330 Clear 41 1008 9 10000 6.7 30 17:20 20.08.2019
3331 Clear 41 1008 9 10000 6.7 30 16:46 20.08.2019
3332 Clear 41 1008 9 10000 6.7 30 16:27 20.08.2019
3333 Clear 42 1008 10 10000 5.7 40 15:58 20.08.2019
3334 Clear 42 1008 10 10000 5.7 40 15:40 20.08.2019
3335 Clear 42 1008 9 10000 4.1 70 15:18 20.08.2019
3336 Clear 42 1008 9 10000 4.1 70 14:44 20.08.2019
3337 Clear 42 1009 10 10000 4.6 50 14:22 20.08.2019
3338 Clear 42 1008 9 10000 4.1 70 14:22 20.08.2019
3339 Clear 42 1009 10 10000 4.6 50 13:58 20.08.2019
3340 Clear 42 1009 10 10000 4.6 50 13:39 20.08.2019
3341 Clear 41 1009 12 10000 4.1 60 13:20 20.08.2019
3342 Clear 41 1009 12 10000 4.1 60 12:51 20.08.2019
3343 Clear 41 1009 12 10000 4.1 60 12:31 20.08.2019
3344 Clear 41 1010 12 10000 4.6 30 11:59 20.08.2019
3345 Clear 41 1010 12 10000 4.6 30 11:40 20.08.2019
3346 Clear 39 1011 15 10000 2.6 70 11:21 20.08.2019
3347 Clear 39 1011 15 10000 2.6 70 10:57 20.08.2019
3348 Clear 39 1011 15 10000 2.6 70 10:38 20.08.2019
3349 Clear 38 1011 16 10000 3.1 90 10:20 20.08.2019
3350 Clear 38 1011 16 10000 3.1 90 09:54 20.08.2019
3351 Clear 38 1011 16 10000 3.1 90 09:36 20.08.2019
3352 Clear 38 1011 22 9000 4.26 84.077 09:18 20.08.2019
3353 Clear 38 1011 22 9000 4.26 84.077 08:41 20.08.2019
3354 Clear 38 1011 22 9000 4.26 84.077 08:21 20.08.2019
3355 Clear 35 1011 21 10000 4.26 84.077 07:57 20.08.2019
3356 Clear 35 1011 21 10000 4.26 84.077 07:38 20.08.2019
3357 Clear 29 1010 28 10000 1.5 30 07:18 20.08.2019
3358 Clear 29 1010 28 10000 1.5 30 06:41 20.08.2019
3359 Clear 28 1010 28 10000 1 300 06:19 20.08.2019
3360 Clear 28 1010 28 10000 1 300 05:40 20.08.2019
3361 Clear 27 1009 30 10000 2.26 154.137 04:23 20.08.2019
3362 Clear 30 1009 28 10000 3.05 183.122 02:48 20.08.2019
3363 Clear 30 1009 30 10000 3.05 183.122 01:50 20.08.2019
3364 Clear 31 1009 27 10000 3.49 173.392 01:20 20.08.2019
3365 Clear 31 1009 27 10000 3.49 173.392 00:43 20.08.2019
3366 Clear 33 1010 22 10000 1 70 00:21 20.08.2019
3367 Clear 33 1010 22 10000 1 70 23:42 19.08.2019
3368 Clear 34 1010 24 10000 4.44 72.851 23:19 19.08.2019
3369 Clear 34 1010 24 10000 4.44 72.851 22:58 19.08.2019
3370 Clear 34 1010 24 10000 4.44 72.851 22:39 19.08.2019
3371 Clear 35 1010 16 10000 3.1 60 22:19 19.08.2019
3372 Clear 35 1010 16 10000 3.1 60 22:19 19.08.2019
3373 Clear 35 1010 16 10000 3.1 60 21:56 19.08.2019
3374 Clear 35 1010 16 10000 3.1 60 21:38 19.08.2019
3375 Clear 36 1010 16 10000 2.6 60 21:19 19.08.2019
3376 Clear 36 1010 16 10000 2.6 60 20:40 19.08.2019
3377 Clear 37 1009 16 10000 2.1 50 20:21 19.08.2019
3378 Clear 37 1009 16 10000 2.1 50 19:59 19.08.2019
3379 Clear 37 1009 16 10000 2.1 50 19:40 19.08.2019
3380 Clear 37 1009 16 10000 2.1 50 19:19 19.08.2019
3381 Clear 39 1009 14 10000 2.1 40 18:58 19.08.2019
3382 Clear 39 1009 14 10000 2.1 40 18:39 19.08.2019
3383 Clear 41 1008 12 10000 2.6 340 18:21 19.08.2019
3384 Clear 41 1008 12 10000 2.6 340 17:55 19.08.2019
3385 Clear 41 1008 12 10000 2.6 340 17:36 19.08.2019
3386 Clear 41 1008 12 10000 3.1 310 17:18 19.08.2019
3387 Clear 41 1008 12 10000 3.1 310 16:38 19.08.2019
3388 Clear 41 1008 12 10000 3.1 310 16:20 19.08.2019
3389 Clear 42 1008 12 10000 3.6 290 15:56 19.08.2019
3390 Clear 42 1008 12 10000 3.6 290 15:38 19.08.2019
3391 Clear 42 1008 12 10000 3.6 290 15:19 19.08.2019
3392 Clear 42 1008 10 10000 5.7 10 14:43 19.08.2019
3393 Clear 42 1008 10 10000 5.7 10 14:23 19.08.2019
3394 Clear 41 1009 11 10000 2.1 110 13:58 19.08.2019
3395 Clear 41 1009 11 10000 2.1 110 13:38 19.08.2019
3396 Clear 41 1009 11 10000 2.1 110 13:20 19.08.2019
3397 Clear 41 1009 9 10000 1.5 90 12:58 19.08.2019
3398 Clear 41 1009 9 10000 1.5 90 12:39 19.08.2019
3399 Clear 41 1009 9 10000 1.5 90 12:19 19.08.2019
3400 Clear 41 1010 10 10000 3.1 80 11:40 19.08.2019
3401 Clear 41 1010 10 10000 3.1 80 11:21 19.08.2019
3402 Clear 40 1010 9 10000 1.5 90 10:58 19.08.2019
3403 Clear 40 1010 9 10000 1.5 90 10:37 19.08.2019
3404 Clear 40 1010 9 10000 1.5 90 10:18 19.08.2019
3405 Clear 39 1011 11 10000 2.6 220 09:45 19.08.2019
3406 Clear 39 1011 11 10000 2.6 220 09:24 19.08.2019
3407 Clear 39 1011 11 10000 2.6 220 09:24 19.08.2019
3408 Clear 37 1011 13 10000 2.1 190 08:59 19.08.2019
3409 Clear 37 1011 13 10000 2.1 190 08:41 19.08.2019
3410 Clear 37 1011 13 10000 2.1 190 08:41 19.08.2019
3411 Clear 37 1011 13 10000 2.1 190 08:20 19.08.2019
3412 Clear 34 1010 24 8000 3.12 146.213 07:49 19.08.2019
3413 Clear 34 1010 24 8000 3.12 146.213 07:31 19.08.2019
3414 Clear 30 1010 30 10000 3.12 146.213 06:48 19.08.2019
3415 Clear 30 1010 30 10000 2.55 177.706 06:27 19.08.2019
3416 Clear 30 1008 23 10000 2.1 160 04:57 19.08.2019
3417 Clear 30 1008 23 10000 2.1 160 04:27 19.08.2019
3418 Clear 30 1008 23 10000 2.1 160 04:27 19.08.2019
3419 Clear 28 1008 28 10000 3.81 128.094 03:23 19.08.2019
3420 Clear 30 1007 23 10000 1 230 02:24 19.08.2019
3421 Clear 30 1007 27 10000 3.81 128.094 01:34 19.08.2019
3422 Clear 30 1008 27 10000 3.39 122.906 00:44 19.08.2019
3423 Clear 30 1008 27 10000 3.35 74.097 00:23 19.08.2019
3424 Clear 30 1008 27 10000 3.35 74.097 23:42 18.08.2019
3425 Clear 30 1008 27 10000 3.35 74.097 23:21 18.08.2019
3426 Clear 33 1009 21 10000 1 30 22:56 18.08.2019
3427 Clear 33 1009 21 10000 1 30 22:56 18.08.2019
3428 Clear 33 1009 21 10000 1 30 22:38 18.08.2019
3429 Clear 33 1009 21 10000 1 30 22:20 18.08.2019
3430 Clear 34 1009 14 10000 3.1 30 21:55 18.08.2019
3431 Clear 34 1009 14 10000 3.1 30 21:37 18.08.2019
3432 Clear 34 1009 14 10000 3.1 30 21:19 18.08.2019
3433 Clear 36 1008 13 10000 3.1 30 20:43 18.08.2019
3434 Clear 36 1008 13 10000 3.1 30 20:25 18.08.2019
3435 Clear 38 1008 13 10000 3.6 30 19:55 18.08.2019
3436 Clear 38 1008 13 10000 3.6 30 19:37 18.08.2019
3437 Clear 38 1008 13 10000 3.6 30 19:19 18.08.2019
3438 Clear 38 1007 12 10000 3.1 350 18:41 18.08.2019
3439 Clear 38 1007 12 10000 3.1 350 18:23 18.08.2019
3440 Clear 40 1007 11 10000 4.6 350 17:58 18.08.2019
3441 Clear 40 1007 11 10000 4.6 350 17:40 18.08.2019
3442 Clear 40 1007 11 10000 4.6 350 17:19 18.08.2019
3443 Clear 41 1007 9 10000 5.7 350 16:57 18.08.2019
3444 Clear 41 1007 9 10000 5.7 350 16:38 18.08.2019
3445 Clear 41 1007 9 10000 5.7 350 16:20 18.08.2019
3446 Clear 42 1007 9 10000 6.2 350 15:56 18.08.2019
3447 Clear 42 1007 9 10000 6.2 350 15:56 18.08.2019
3448 Clear 42 1007 9 10000 6.2 350 15:38 18.08.2019
3449 Clear 42 1007 9 10000 6.2 350 15:20 18.08.2019
3450 Clear 42 1007 9 10000 4.1 330 14:40 18.08.2019
3451 Clear 42 1007 9 10000 4.1 330 14:21 18.08.2019
3452 Clear 41 1007 11 10000 3.6 360 13:59 18.08.2019
3453 Clear 41 1007 11 10000 3.6 360 13:41 18.08.2019
3454 Clear 41 1007 11 10000 3.6 360 13:22 18.08.2019
3455 Clear 41 1008 12 10000 2.6 10 12:57 18.08.2019
3456 Clear 41 1008 12 10000 2.6 10 12:38 18.08.2019
3457 Clear 41 1008 12 10000 2.6 10 12:38 18.08.2019
3458 Clear 41 1008 12 10000 2.6 10 12:20 18.08.2019
3459 Clear 41 1008 12 10000 2.6 10 12:20 18.08.2019
3460 Clear 40 1008 11 10000 2.1 20 11:43 18.08.2019
3461 Clear 40 1008 11 10000 2.1 20 11:43 18.08.2019
3462 Clear 40 1008 11 10000 2.1 20 11:23 18.08.2019
3463 Clear 41 1009 9 10000 2.6 40 10:57 18.08.2019
3464 Clear 41 1009 9 10000 2.6 40 10:39 18.08.2019
3465 Clear 37 1009 7 10000 3.1 70 10:19 18.08.2019
3466 Clear 37 1009 7 10000 3.1 70 09:43 18.08.2019
3467 Clear 37 1009 10 10000 3.1 70 09:20 18.08.2019
3468 Clear 35 1008 12 10000 2.6 70 08:44 18.08.2019
3469 Clear 35 1008 12 10000 2.6 70 08:44 18.08.2019
3470 Clear 35 1008 12 10000 2.6 70 08:25 18.08.2019
3471 Clear 35 1008 12 10000 2.6 70 08:25 18.08.2019
3472 Clear 33 1009 17 8000 2.6 300 07:57 18.08.2019
3473 Clear 33 1009 17 8000 2.6 300 07:30 18.08.2019
3474 Clear 29 1008 17 8000 3.1 290 06:33 18.08.2019
3475 Clear 27 1008 18 10000 3.1 290 05:42 18.08.2019
3476 Clear 26 1006 31 10000 0.47 61.699 03:51 18.08.2019
3477 Clear 27 1007 24 10000 1 300 02:59 18.08.2019
3478 Clear 27 1007 24 10000 1 300 02:41 18.08.2019
3479 Clear 29 1007 23 10000 2.1 300 01:57 18.08.2019
3480 Clear 29 1007 23 10000 2.1 300 01:26 18.08.2019
3481 Clear 30 1007 16 10000 2.1 290 00:42 18.08.2019
3482 Clear 30 1007 16 10000 2.1 290 00:22 18.08.2019
3483 Clear 31 1007 18 10000 2.1 290 23:58 17.08.2019
3484 Clear 31 1007 18 10000 2.1 290 23:38 17.08.2019
3485 Clear 31 1007 18 10000 2.1 290 23:38 17.08.2019
3486 Clear 31 1007 18 10000 2.1 290 23:19 17.08.2019
3487 Clear 33 1008 19 10000 1 320 22:57 17.08.2019
3488 Clear 33 1008 19 10000 1 320 22:39 17.08.2019
3489 Clear 33 1008 19 10000 1 320 22:20 17.08.2019
3490 Clear 33 1008 19 10000 1 360 21:44 17.08.2019
3491 Clear 33 1008 19 10000 1 360 21:26 17.08.2019
3492 Clear 35 1007 13 10000 3.1 10 20:59 17.08.2019
3493 Clear 35 1007 13 10000 3.1 10 20:38 17.08.2019
3494 Clear 35 1007 13 10000 3.1 10 20:19 17.08.2019
3495 Clear 36 1007 11 10000 4.1 10 19:43 17.08.2019
3496 Clear 36 1007 11 10000 4.1 10 19:24 17.08.2019
3497 Clear 37 1006 12 10000 4.6 360 18:59 17.08.2019
3498 Clear 37 1006 12 10000 4.6 360 18:39 17.08.2019
3499 Clear 37 1006 12 10000 4.6 360 18:18 17.08.2019
3500 Clear 37 1006 12 10000 4.6 360 18:18 17.08.2019
3501 Clear 37 1006 12 10000 4.6 360 18:18 17.08.2019
3502 Clear 39 1006 9 10000 6.2 350 17:43 17.08.2019
3503 Clear 39 1006 9 10000 6.2 350 17:22 17.08.2019
3504 Clear 40 1005 8 7000 7.2 340 16:59 17.08.2019
3505 Clear 40 1005 8 7000 7.2 340 16:40 17.08.2019
3506 Clear 40 1005 8 7000 7.2 340 16:22 17.08.2019
3507 Clear 41 1005 8 7000 6.7 340 15:54 17.08.2019
3508 Clear 41 1005 8 7000 6.7 340 15:36 17.08.2019
3509 Clear 41 1005 7 7000 6.7 340 15:18 17.08.2019
3510 Clear 42 1006 7 8000 7.7 330 14:40 17.08.2019
3511 Clear 42 1006 7 8000 7.7 330 14:22 17.08.2019
3512 Clear 41 1006 7 8000 8.2 360 13:46 17.08.2019
3513 Clear 41 1006 7 8000 8.2 360 13:21 17.08.2019
3514 Clear 41 1007 7 10000 8.2 340 12:46 17.08.2019
3515 Clear 41 1007 7 10000 8.2 340 12:46 17.08.2019
3516 Clear 41 1007 8 10000 8.2 340 12:21 17.08.2019
3517 Clear 41 1007 8 10000 7.7 350 11:59 17.08.2019
3518 Clear 41 1007 8 10000 7.7 350 11:39 17.08.2019
3519 Clear 41 1007 8 10000 7.7 350 11:20 17.08.2019
3520 Clear 40 1008 8 10000 7.2 360 10:42 17.08.2019
3521 Clear 40 1008 8 10000 7.2 360 10:42 17.08.2019
3522 Clear 40 1008 8 10000 7.2 360 10:22 17.08.2019
3523 Clear 38 1008 9 10000 9.3 360 09:59 17.08.2019
3524 Clear 38 1008 9 10000 9.3 360 09:40 17.08.2019
3525 Clear 38 1008 9 10000 9.3 360 09:21 17.08.2019
3526 Clear 36 1008 11 10000 8.2 360 08:51 17.08.2019
3527 Clear 36 1008 11 10000 8.2 360 08:22 17.08.2019
3528 Clear 33 1008 9 10000 6.2 350 07:44 17.08.2019
3529 Clear 33 1008 9 10000 6.2 350 07:20 17.08.2019
3530 Clear 31 1007 9 10000 5.7 330 06:34 17.08.2019
3531 Clear 29 1007 14 10000 4.6 320 04:48 17.08.2019
3532 Clear 29 1007 14 10000 4.6 320 04:21 17.08.2019
3533 Clear 29 1007 17 10000 4.6 320 02:45 17.08.2019
3534 Clear 30 1008 16 10000 4.1 310 01:40 17.08.2019
3535 Clear 30 1008 16 10000 4.1 310 01:20 17.08.2019
3536 Clear 31 1008 16 10000 4.1 310 00:47 17.08.2019
3537 Clear 31 1008 16 10000 4.1 310 00:24 17.08.2019
3538 Clear 33 1008 15 10000 4.6 310 23:46 16.08.2019
3539 Clear 33 1008 15 10000 4.6 310 23:25 16.08.2019
3540 Clear 34 1008 14 10000 4.1 350 22:44 16.08.2019
3541 Clear 34 1008 14 10000 4.1 350 22:20 16.08.2019
3542 Clear 34 1008 16 10000 2.6 360 21:59 16.08.2019
3543 Clear 34 1008 16 10000 2.6 360 21:39 16.08.2019
3544 Clear 34 1008 16 10000 2.6 360 21:19 16.08.2019
3545 Clear 36 1008 14 10000 3.1 360 20:43 16.08.2019
3546 Clear 36 1008 14 10000 3.1 360 20:21 16.08.2019
3547 Clear 37 1007 14 10000 3.1 10 19:59 16.08.2019
3548 Clear 37 1007 14 10000 3.1 10 19:39 16.08.2019
3549 Clear 37 1007 14 10000 3.1 10 19:20 16.08.2019
3550 Clear 39 1006 10 10000 5.7 360 18:42 16.08.2019
3551 Clear 39 1006 10 10000 5.7 360 18:42 16.08.2019
3552 Clear 39 1006 10 10000 5.7 360 18:23 16.08.2019
3553 Clear 41 1006 9 10000 5.7 350 17:48 16.08.2019
3554 Clear 41 1006 9 10000 5.7 350 17:30 16.08.2019
3555 Clear 41 1006 9 10000 5.7 350 17:30 16.08.2019
3556 Clear 42 1006 9 10000 6.2 340 16:59 16.08.2019
3557 Clear 42 1006 9 10000 6.2 340 16:41 16.08.2019
3558 Clear 42 1006 9 10000 6.2 340 16:20 16.08.2019
3559 Clear 43 1006 8 10000 6.7 340 15:56 16.08.2019
3560 Clear 43 1006 8 10000 6.7 340 15:38 16.08.2019
3561 Clear 43 1006 8 10000 6.7 340 15:19 16.08.2019
3562 Clear 43 1007 9 10000 6.2 10 14:56 16.08.2019
3563 Clear 43 1007 9 10000 6.2 10 14:38 16.08.2019
3564 Clear 43 1007 9 10000 6.2 10 14:18 16.08.2019
3565 Clear 43 1007 9 10000 5.7 10 13:40 16.08.2019
3566 Clear 43 1007 9 10000 5.7 10 13:22 16.08.2019
3567 Clear 42 1008 9 9000 6.7 10 12:42 16.08.2019
3568 Clear 42 1008 9 9000 6.7 10 12:23 16.08.2019
3569 Clear 41 1008 9 9000 7.2 30 11:59 16.08.2019
3570 Clear 41 1008 9 9000 7.2 30 11:40 16.08.2019
3571 Clear 41 1008 9 9000 7.2 30 11:22 16.08.2019
3572 Clear 41 1009 8 9000 8.7 20 10:43 16.08.2019
3573 Clear 41 1009 8 9000 8.7 20 10:22 16.08.2019
3574 Clear 40 1010 9 10000 8.2 20 09:55 16.08.2019
3575 Clear 40 1010 9 10000 8.2 20 09:36 16.08.2019
3576 Clear 40 1010 9 10000 8.2 20 09:18 16.08.2019
3577 Clouds 38 1010 9 10000 8.2 10 08:39 16.08.2019
3578 Clouds 38 1010 9 10000 8.2 10 08:20 16.08.2019
3579 Clear 36 1010 12 10000 5.1 360 07:52 16.08.2019
3580 Clear 36 1010 12 10000 5.1 360 07:29 16.08.2019
3581 Clear 31 1009 16 10000 3.6 310 06:56 16.08.2019
3582 Clear 31 1009 16 10000 3.6 310 06:19 16.08.2019
3583 Clear 30 1009 19 10000 2.6 310 05:36 16.08.2019
3584 Clear 31 1009 18 10000 2.6 310 03:22 16.08.2019
3585 Clear 31 1009 19 10000 2.6 310 01:59 16.08.2019
3586 Clear 31 1009 19 10000 2.6 310 01:29 16.08.2019
3587 Clear 32 1009 18 10000 2.6 360 00:57 16.08.2019
3588 Clear 32 1009 18 10000 2.6 360 00:38 16.08.2019
3589 Clear 32 1009 18 10000 2.6 360 00:18 16.08.2019
3590 Clear 35 1009 14 10000 4.1 350 23:42 15.08.2019
3591 Clear 35 1009 14 10000 4.1 350 23:20 15.08.2019
3592 Clear 36 1009 13 10000 4.6 340 22:57 15.08.2019
3593 Clear 36 1009 13 10000 4.6 340 22:38 15.08.2019
3594 Clear 36 1009 13 10000 4.6 340 22:20 15.08.2019
3595 Clear 36 1008 13 10000 4.6 350 21:40 15.08.2019
3596 Clear 36 1008 13 10000 4.6 350 21:40 15.08.2019
3597 Clear 36 1008 13 10000 4.6 350 21:20 15.08.2019
3598 Clear 37 1008 13 10000 4.1 350 20:59 15.08.2019
3599 Clear 37 1008 13 10000 4.1 350 20:41 15.08.2019
3600 Clear 37 1008 13 10000 4.1 350 20:21 15.08.2019
3601 Clear 39 1007 11 10000 4.6 10 19:56 15.08.2019
3602 Clear 39 1007 11 10000 4.6 10 19:38 15.08.2019
3603 Clear 39 1007 11 10000 4.6 10 19:19 15.08.2019
3604 Clear 40 1007 11 7000 4.6 20 18:45 15.08.2019
3605 Clear 40 1007 11 7000 4.6 20 18:22 15.08.2019
3606 Dust 41 1006 10 5000 7.7 10 17:56 15.08.2019
3607 Dust 41 1006 10 5000 7.7 10 17:37 15.08.2019
3608 Dust 41 1006 10 5000 7.7 10 17:19 15.08.2019
3609 Dust 42 1006 9 5000 7.2 20 16:48 15.08.2019
3610 Dust 42 1006 9 5000 7.2 20 16:27 15.08.2019
3611 Clear 43 1006 10 6000 6.7 20 15:56 15.08.2019
3612 Clear 43 1006 10 6000 6.7 20 15:38 15.08.2019
3613 Clear 43 1006 10 6000 6.7 20 15:19 15.08.2019
3614 Clear 43 1006 10 8000 7.2 10 14:42 15.08.2019
3615 Clear 43 1006 10 8000 7.2 10 14:23 15.08.2019
3616 Clear 43 1007 10 8000 6.7 350 13:57 15.08.2019
3617 Clear 43 1007 10 8000 6.7 350 13:39 15.08.2019
3618 Clear 43 1007 10 8000 6.7 350 13:20 15.08.2019
3619 Clear 43 1007 10 8000 6.7 10 12:57 15.08.2019
3620 Clear 43 1007 10 8000 6.7 10 12:38 15.08.2019
3621 Clear 43 1007 10 8000 6.7 10 12:18 15.08.2019
3622 Clear 42 1008 9 7000 8.2 10 11:57 15.08.2019
3623 Clear 42 1008 9 7000 8.2 10 11:36 15.08.2019
3624 Clear 42 1008 9 7000 8.2 10 11:18 15.08.2019
3625 Clear 41 1009 8 7000 9.8 10 10:39 15.08.2019
3626 Clear 41 1009 8 7000 9.8 10 10:20 15.08.2019
3627 Clear 40 1009 8 8000 9.3 10 09:55 15.08.2019
3628 Clear 40 1009 8 8000 9.3 10 09:37 15.08.2019
3629 Clear 40 1009 8 8000 9.3 10 09:18 15.08.2019
3630 Clear 37 1009 12 10000 5.7 340 08:37 15.08.2019
3631 Clear 37 1009 12 10000 5.7 340 08:19 15.08.2019
3632 Clear 34 1008 13 10000 4.6 320 07:45 15.08.2019
3633 Clear 34 1008 13 10000 4.6 320 07:27 15.08.2019
3634 Clear 31 1008 15 10000 3.6 310 06:55 15.08.2019
3635 Clear 31 1008 15 10000 3.6 310 06:33 15.08.2019
3636 Clear 30 1008 16 10000 3.6 300 05:51 15.08.2019
3637 Clear 30 1008 16 10000 3.6 300 05:29 15.08.2019
3638 Clear 30 1007 16 10000 3.1 310 04:35 15.08.2019
3639 Clear 31 1007 15 10000 4.6 310 03:45 15.08.2019
3640 Clear 32 1007 14 10000 4.6 310 02:46 15.08.2019
3641 Clear 32 1007 17 10000 3.6 320 01:54 15.08.2019
3642 Clear 32 1007 17 10000 3.6 320 01:36 15.08.2019
3643 Clear 33 1007 17 10000 3.1 330 00:42 15.08.2019
3644 Clear 33 1007 17 10000 3.1 330 00:22 15.08.2019
3645 Clear 33 1007 17 10000 2.6 350 23:58 14.08.2019
3646 Clear 33 1007 17 10000 2.6 350 23:38 14.08.2019
3647 Clear 33 1007 17 10000 2.6 350 23:38 14.08.2019
3648 Clear 33 1007 17 10000 2.6 350 23:19 14.08.2019
3649 Clear 34 1008 17 10000 3.1 20 22:57 14.08.2019
3650 Clear 34 1008 17 10000 3.1 20 22:39 14.08.2019
3651 Clear 34 1008 17 10000 3.1 20 22:20 14.08.2019
3652 Clear 36 1007 12 10000 5.1 320 21:55 14.08.2019
3653 Clear 36 1007 12 10000 5.1 320 21:55 14.08.2019
3654 Clear 36 1007 12 10000 5.1 320 21:37 14.08.2019
3655 Clear 36 1007 12 10000 5.1 320 21:18 14.08.2019
3656 Clear 37 1007 13 10000 4.1 320 20:42 14.08.2019
3657 Clear 37 1007 13 10000 4.1 320 20:21 14.08.2019
3658 Clear 37 1007 13 10000 4.1 320 20:21 14.08.2019
3659 Clear 37 1007 13 10000 4.1 320 20:21 14.08.2019
3660 Clear 38 1006 13 8000 4.6 340 19:56 14.08.2019
3661 Clear 38 1006 13 8000 4.6 340 19:38 14.08.2019
3662 Dust 39 1006 11 5000 5.7 350 19:19 14.08.2019
3663 Dust 39 1006 11 5000 5.7 350 18:57 14.08.2019
3664 Dust 39 1006 11 5000 5.7 350 18:38 14.08.2019
3665 Dust 39 1006 11 5000 5.7 350 18:19 14.08.2019
3666 Dust 41 1005 10 3000 7.7 10 17:56 14.08.2019
3667 Dust 41 1005 10 3000 7.7 10 17:37 14.08.2019
3668 Dust 41 1005 10 3000 7.7 10 17:18 14.08.2019
3669 Dust 42 1005 9 3000 7.2 360 16:42 14.08.2019
3670 Dust 42 1005 9 3000 7.2 360 16:20 14.08.2019
3671 Dust 43 1005 10 3000 6.7 350 15:55 14.08.2019
3672 Dust 43 1005 10 3000 6.7 350 15:55 14.08.2019
3673 Dust 43 1005 10 3000 6.7 350 15:36 14.08.2019
3674 Dust 43 1005 10 3000 6.7 350 15:18 14.08.2019
3675 Dust 42 1005 9 3000 8.2 10 14:40 14.08.2019
3676 Dust 42 1005 9 3000 8.2 10 14:19 14.08.2019
3677 Dust 42 1006 9 3000 8.7 10 13:56 14.08.2019
3678 Dust 42 1006 9 3000 8.7 10 13:56 14.08.2019
3679 Dust 42 1006 9 3000 8.7 10 13:38 14.08.2019
3680 Dust 42 1006 9 3000 8.7 10 13:20 14.08.2019
3681 Dust 42 1006 9 3000 9.8 10 12:56 14.08.2019
3682 Dust 42 1006 9 3000 9.8 10 12:37 14.08.2019
3683 Dust 42 1006 9 3000 9.8 10 12:37 14.08.2019
3684 Dust 42 1006 9 3000 9.8 10 12:19 14.08.2019
3685 Clear 41 1007 9 6000 9.3 10 11:45 14.08.2019
3686 Clear 41 1007 9 6000 9.3 10 11:23 14.08.2019
3687 Clear 41 1007 9 8000 8.7 340 10:58 14.08.2019
3688 Clear 41 1007 9 8000 8.7 340 10:38 14.08.2019
3689 Clear 41 1007 9 8000 8.7 340 10:20 14.08.2019
3690 Clear 40 1008 9 10000 7.7 340 09:42 14.08.2019
3691 Clear 40 1008 9 10000 7.7 340 09:21 14.08.2019
3692 Clear 40 1008 9 10000 7.7 340 09:21 14.08.2019
3693 Clear 37 1008 10 10000 7.2 340 08:45 14.08.2019
3694 Clear 37 1008 10 10000 7.2 340 08:27 14.08.2019
3695 Clear 34 1008 9 10000 8.2 320 07:57 14.08.2019
3696 Clear 34 1008 9 10000 8.2 320 07:37 14.08.2019
3697 Clear 32 1007 13 10000 5.1 310 06:53 14.08.2019
3698 Clear 32 1007 13 10000 5.1 310 06:35 14.08.2019
3699 Clear 30 1006 16 10000 4.6 310 05:33 14.08.2019
3700 Clear 30 1006 16 10000 4.6 310 05:33 14.08.2019
3701 Clear 30 1006 17 10000 3.1 310 03:58 14.08.2019
3702 Clear 30 1005 19 10000 3.1 310 02:39 14.08.2019
3703 Clear 30 1005 19 10000 3.1 310 02:18 14.08.2019
3704 Clear 31 1005 19 10000 2.6 330 01:30 14.08.2019
3705 Clear 32 1005 16 10000 2.6 10 00:31 14.08.2019
3706 Clear 33 1005 16 10000 3.6 310 23:43 13.08.2019
3707 Clear 33 1005 16 10000 3.6 310 23:20 13.08.2019
3708 Clear 34 1006 15 10000 3.6 300 22:56 13.08.2019
3709 Clear 34 1006 15 10000 3.6 300 22:38 13.08.2019
3710 Clear 34 1006 15 10000 3.6 300 22:19 13.08.2019
3711 Clear 34 1006 15 10000 3.1 300 21:55 13.08.2019
3712 Clear 34 1006 15 10000 3.1 300 21:36 13.08.2019
3713 Clear 34 1006 15 10000 3.1 300 21:18 13.08.2019
3714 Clear 36 1005 13 10000 3.6 320 20:42 13.08.2019
3715 Clear 36 1005 13 10000 3.6 320 20:20 13.08.2019
3716 Clear 38 1005 12 10000 4.1 340 19:56 13.08.2019
3717 Clear 38 1005 12 10000 4.1 340 19:38 13.08.2019
3718 Clear 38 1005 12 10000 4.1 340 19:19 13.08.2019
3719 Clear 39 1004 11 7000 4.6 350 18:41 13.08.2019
3720 Clear 39 1004 11 7000 4.6 350 18:41 13.08.2019
3721 Clear 39 1004 11 7000 4.6 350 18:22 13.08.2019
3722 Dust 40 1004 10 5000 6.7 340 17:54 13.08.2019
3723 Dust 40 1004 10 5000 6.7 340 17:36 13.08.2019
3724 Dust 40 1004 10 5000 6.7 340 17:18 13.08.2019
3725 Dust 41 1003 9 5000 7.7 340 16:54 13.08.2019
3726 Dust 41 1003 9 5000 7.7 340 16:54 13.08.2019
3727 Dust 41 1003 9 5000 7.7 340 16:36 13.08.2019
3728 Dust 41 1003 9 5000 7.7 340 16:18 13.08.2019
3729 Dust 42 1003 8 4000 9.8 330 15:38 13.08.2019
3730 Dust 42 1003 8 4000 9.8 330 15:20 13.08.2019
3731 Dust 43 1003 8 3500 9.8 330 14:48 13.08.2019
3732 Dust 43 1003 8 3500 9.8 330 14:21 13.08.2019
3733 Dust 43 1004 8 3000 8.2 330 13:59 13.08.2019
3734 Dust 43 1004 8 3000 8.2 330 13:41 13.08.2019
3735 Dust 43 1004 8 3000 8.2 330 13:21 13.08.2019
3736 Dust 43 1004 8 2500 8.7 350 12:57 13.08.2019
3737 Dust 43 1004 8 2500 8.7 350 12:39 13.08.2019
3738 Dust 43 1004 8 2500 8.7 350 12:21 13.08.2019
3739 Dust 42 1005 8 2000 8.7 350 11:42 13.08.2019
3740 Dust 42 1005 8 2000 8.7 350 11:23 13.08.2019
3741 Dust 41 1005 8 3500 11.8 320 10:58 13.08.2019
3742 Dust 41 1005 8 3500 11.8 320 10:38 13.08.2019
3743 Dust 41 1005 8 3500 11.8 320 10:38 13.08.2019
3744 Dust 41 1005 8 3500 11.8 320 10:20 13.08.2019
3745 Dust 41 1005 8 3500 11.8 320 10:20 13.08.2019
3746 Dust 39 1006 8 4000 12.3 330 09:56 13.08.2019
3747 Dust 39 1006 8 4000 12.3 330 09:38 13.08.2019
3748 Dust 39 1006 9 4000 12.3 330 09:19 13.08.2019
3749 Dust 37 1006 9 5000 11.8 340 08:41 13.08.2019
3750 Dust 37 1006 9 5000 11.8 340 08:21 13.08.2019
3751 Clear 34 1005 9 10000 9.8 320 07:47 13.08.2019
3752 Clear 34 1005 9 10000 9.8 320 07:28 13.08.2019
3753 Clear 33 1005 9 10000 7.7 320 06:44 13.08.2019
3754 Clear 33 1005 9 10000 7.7 320 06:44 13.08.2019
3755 Clear 32 1004 13 10000 7.2 310 05:59 13.08.2019
3756 Clear 32 1004 13 10000 7.2 310 05:32 13.08.2019
3757 Clear 31 1003 15 10000 4.6 290 02:22 13.08.2019
3758 Clear 31 1003 15 10000 4.6 290 01:41 13.08.2019
3759 Clear 33 1003 14 10000 4.1 280 00:52 13.08.2019
3760 Clear 33 1003 14 10000 4.1 280 00:22 13.08.2019
3761 Clear 35 1003 12 10000 4.1 270 23:44 12.08.2019
3762 Clear 35 1003 12 10000 4.1 270 23:21 12.08.2019
3763 Clear 35 1004 11 10000 4.6 260 22:55 12.08.2019
3764 Clear 35 1004 11 10000 4.6 260 22:37 12.08.2019
3765 Clear 35 1004 11 10000 4.6 260 22:18 12.08.2019
3766 Clear 36 1004 11 10000 3.6 260 21:54 12.08.2019
3767 Clear 36 1004 11 10000 3.6 260 21:36 12.08.2019
3768 Clear 36 1004 11 10000 3.6 260 21:18 12.08.2019
3769 Clear 36 1004 12 10000 2.6 270 20:41 12.08.2019
3770 Clear 36 1004 12 10000 2.6 270 20:21 12.08.2019
3771 Clear 36 1004 11 10000 3.6 300 19:58 12.08.2019
3772 Clear 36 1004 11 10000 3.6 300 19:39 12.08.2019
3773 Clear 36 1004 11 10000 3.6 300 19:21 12.08.2019
3774 Clear 37 1003 11 10000 3.6 310 18:59 12.08.2019
3775 Clear 37 1003 11 10000 3.6 310 18:39 12.08.2019
3776 Clear 37 1003 11 10000 3.6 310 18:20 12.08.2019
3777 Clear 39 1003 8 10000 6.2 310 17:56 12.08.2019
3778 Clear 39 1003 8 10000 6.2 310 17:38 12.08.2019
3779 Clear 39 1003 8 10000 6.2 310 17:20 12.08.2019
3780 Clear 40 1003 7 10000 7.2 290 16:42 12.08.2019
3781 Clear 40 1003 7 10000 7.2 290 16:21 12.08.2019
3782 Clear 41 1003 6 8000 8.2 290 15:59 12.08.2019
3783 Clear 41 1003 6 8000 8.2 290 15:41 12.08.2019
3784 Clear 41 1003 6 8000 8.2 290 15:41 12.08.2019
3785 -273 0 0 0 0 0 15:22 12.08.2019
3786 Clear 40 1003 7 10000 7.7 200 14:58 12.08.2019
3787 Clear 40 1003 7 10000 7.7 200 14:39 12.08.2019
3788 Clear 40 1003 7 10000 7.7 200 14:39 12.08.2019
3789 Clear 40 1003 7 10000 7.7 200 14:21 12.08.2019
3790 Clear 40 1003 7 10000 7.2 300 13:55 12.08.2019
3791 Clear 40 1003 7 10000 7.2 300 13:55 12.08.2019
3792 Clear 40 1003 7 10000 7.2 300 13:55 12.08.2019
3793 Clear 40 1003 7 10000 7.2 300 13:37 12.08.2019
3794 Clear 40 1003 7 10000 7.2 300 13:19 12.08.2019
3795 Clear 41 1004 8 10000 6.7 280 12:43 12.08.2019
3796 Clear 41 1004 8 10000 6.7 280 12:19 12.08.2019
3797 Clear 41 1004 8 10000 6.7 280 12:19 12.08.2019
3798 Clear 41 1005 8 10000 6.2 330 11:44 12.08.2019
3799 Clear 41 1005 8 10000 6.2 330 11:26 12.08.2019
3800 Clear 41 1005 8 10000 6.2 330 11:26 12.08.2019
3801 Clear 40 1006 8 10000 6.7 300 10:57 12.08.2019
3802 Clear 40 1006 8 10000 6.7 300 10:38 12.08.2019
3803 Clear 40 1006 8 10000 6.7 300 10:20 12.08.2019
3804 Clear 38 1006 8 10000 7.2 310 09:54 12.08.2019
3805 Clear 38 1006 8 10000 7.2 310 09:36 12.08.2019
3806 Clear 38 1006 8 10000 7.2 310 09:36 12.08.2019
3807 Clear 38 1006 9 10000 7.2 310 09:18 12.08.2019
3808 Clear 36 1006 9 10000 7.2 320 08:39 12.08.2019
3809 Clear 36 1006 9 10000 7.2 320 08:21 12.08.2019
3810 Clear 34 1006 13 10000 5.7 310 07:56 12.08.2019
3811 Clear 34 1006 13 10000 5.7 310 07:34 12.08.2019
3812 Clear 30 1006 16 10000 3.6 290 06:53 12.08.2019
3813 Clear 26 1005 29 10000 1 360 05:46 12.08.2019
3814 Clear 28 1004 18 10000 3.6 280 03:30 12.08.2019
3815 Clear 29 1004 23 10000 2.1 310 02:42 12.08.2019
3816 Clear 30 1004 17 10000 3.1 290 01:23 12.08.2019
3817 Clear 30 1004 19 10000 2.6 300 00:58 12.08.2019
3818 Clear 30 1004 19 10000 2.6 300 00:40 12.08.2019
3819 Clear 30 1004 19 10000 2.6 300 00:20 12.08.2019
3820 Clear 32 1005 18 10000 2.6 300 23:57 11.08.2019
3821 Clear 32 1005 18 10000 2.6 300 23:38 11.08.2019
3822 Clear 32 1005 18 10000 2.6 300 23:19 11.08.2019
3823 Clear 32 1005 17 10000 2.1 300 22:55 11.08.2019
3824 Clear 32 1005 17 10000 2.1 300 22:36 11.08.2019
3825 Clear 32 1005 17 10000 2.1 300 22:18 11.08.2019
3826 Clear 34 1006 15 10000 2.1 310 21:54 11.08.2019
3827 Clear 34 1006 15 10000 2.1 310 21:36 11.08.2019
3828 Clear 34 1006 15 10000 2.1 310 21:18 11.08.2019
3829 Clear 36 1005 12 10000 4.6 340 20:41 11.08.2019
3830 Clear 36 1005 12 10000 4.6 340 20:22 11.08.2019
3831 Clear 36 1005 12 10000 4.6 340 20:22 11.08.2019
3832 Clear 37 1005 13 10000 4.6 340 19:45 11.08.2019
3833 Clear 37 1005 13 10000 4.6 340 19:22 11.08.2019
3834 Clear 38 1004 11 10000 6.2 340 18:58 11.08.2019
3835 Clear 38 1004 11 10000 6.2 340 18:38 11.08.2019
3836 Clear 38 1004 11 10000 6.2 340 18:19 11.08.2019
3837 Clear 40 1003 10 10000 6.2 320 17:42 11.08.2019
3838 Clear 40 1003 10 10000 6.2 320 17:20 11.08.2019
3839 Clear 41 1003 10 10000 5.7 330 16:59 11.08.2019
3840 Clear 41 1003 10 10000 5.7 330 16:59 11.08.2019
3841 Clear 41 1003 10 10000 5.7 330 16:40 11.08.2019
3842 Clear 41 1003 10 10000 5.7 330 16:20 11.08.2019
3843 Clear 41 1003 11 10000 4.1 290 15:56 11.08.2019
3844 Clear 41 1003 11 10000 4.1 290 15:38 11.08.2019
3845 Clear 41 1003 11 10000 4.1 290 15:19 11.08.2019
3846 Clear 41 1004 9 10000 6.7 330 14:40 11.08.2019
3847 Clear 41 1004 9 10000 6.7 330 14:22 11.08.2019
3848 Clear 42 1004 8 10000 4.6 350 13:46 11.08.2019
3849 Clear 42 1004 8 10000 4.6 350 13:26 11.08.2019
3850 Clear 41 1004 9 10000 5.7 320 12:58 11.08.2019
3851 Clear 41 1004 9 10000 5.7 320 12:38 11.08.2019
3852 Clear 41 1004 9 10000 5.7 320 12:20 11.08.2019
3853 Clear 40 1005 8 10000 7.2 360 11:40 11.08.2019
3854 Clear 40 1005 8 10000 7.2 360 11:22 11.08.2019
3855 Clear 39 1006 9 10000 5.7 340 10:56 11.08.2019
3856 Clear 39 1006 9 10000 5.7 340 10:38 11.08.2019
3857 Clear 39 1006 9 10000 5.7 340 10:19 11.08.2019
3858 Clear 38 1006 9 10000 5.7 350 09:44 11.08.2019
3859 Clear 38 1006 9 10000 5.7 350 09:26 11.08.2019
3860 Clear 36 1006 11 10000 6.2 340 08:58 11.08.2019
3861 Clear 36 1006 11 10000 6.2 340 08:39 11.08.2019
3862 Clear 36 1006 11 10000 6.2 340 08:21 11.08.2019
3863 Clear 33 1006 15 10000 4.1 290 07:43 11.08.2019
3864 Clear 33 1006 15 10000 4.1 290 07:18 11.08.2019
3865 Clear 30 1006 20 10000 2.6 280 06:37 11.08.2019
3866 Clear 28 1005 21 10000 2.6 290 05:19 11.08.2019
3867 Clear 30 1004 19 10000 2.1 290 02:53 11.08.2019
3868 Clear 30 1004 19 10000 2.6 310 01:58 11.08.2019
3869 Clear 30 1004 19 10000 2.6 310 01:32 11.08.2019
3870 Clear 32 1005 15 10000 3.1 300 00:56 11.08.2019
3871 Clear 32 1005 15 10000 3.1 300 00:36 11.08.2019
3872 Clear 32 1005 17 10000 3.1 310 23:56 10.08.2019
3873 Clear 32 1005 17 10000 3.1 310 23:37 10.08.2019
3874 Clear 32 1005 17 10000 3.1 310 23:18 10.08.2019
3875 Clear 33 1005 17 10000 3.1 310 22:38 10.08.2019
3876 Clear 33 1005 17 10000 3.1 310 22:20 10.08.2019
3877 Clear 35 1006 14 10000 3.6 350 21:41 10.08.2019
3878 Clear 35 1006 14 10000 3.6 350 21:22 10.08.2019
3879 Clear 35 1006 14 10000 3.6 350 21:22 10.08.2019
3880 Clear 36 1005 15 10000 2.6 350 20:59 10.08.2019
3881 Clear 36 1005 15 10000 2.6 350 20:41 10.08.2019
3882 Clear 36 1005 15 10000 2.6 350 20:20 10.08.2019
3883 Clear 38 1005 13 10000 3.6 340 19:56 10.08.2019
3884 Clear 38 1005 13 10000 3.6 340 19:37 10.08.2019
3885 Clear 38 1005 13 10000 3.6 340 19:18 10.08.2019
3886 Clear 39 1004 11 10000 4.1 350 18:39 10.08.2019
3887 Clear 39 1004 11 10000 4.1 350 18:20 10.08.2019
3888 Clear 40 1004 10 10000 6.2 350 17:41 10.08.2019
3889 Clear 40 1004 10 10000 6.2 350 17:23 10.08.2019
3890 Clear 41 1003 9 10000 7.2 350 16:45 10.08.2019
3891 Clear 41 1003 9 10000 7.2 350 16:26 10.08.2019
3892 Clear 42 1003 9 10000 6.7 320 15:53 10.08.2019
3893 Clear 42 1003 9 10000 6.7 320 15:23 10.08.2019
3894 Clear 42 1003 9 10000 6.7 330 14:45 10.08.2019
3895 Clear 42 1003 9 10000 6.7 330 14:21 10.08.2019
3896 Clear 42 1004 9 10000 6.7 360 13:42 10.08.2019
3897 Clear 42 1004 9 10000 6.7 360 13:21 10.08.2019
3898 Clear 42 1004 9 10000 6.2 340 12:58 10.08.2019
3899 Clear 42 1004 9 10000 6.2 340 12:39 10.08.2019
3900 Clear 42 1004 9 10000 6.2 340 12:21 10.08.2019
3901 Clear 41 1005 9 10000 6.7 340 11:42 10.08.2019
3902 Clear 41 1005 9 10000 6.7 340 11:23 10.08.2019
3903 Clear 41 1005 9 10000 6.7 340 11:23 10.08.2019
3904 Clear 40 1006 11 10000 5.7 350 10:58 10.08.2019
3905 Clear 40 1006 11 10000 5.7 350 10:38 10.08.2019
3906 Clear 40 1006 11 10000 5.7 350 10:19 10.08.2019
3907 Clear 39 1006 10 10000 6.2 330 09:43 10.08.2019
3908 Clear 39 1006 10 10000 6.2 330 09:24 10.08.2019
3909 Clear 36 1006 12 10000 6.2 350 08:56 10.08.2019
3910 Clear 36 1006 12 10000 6.2 350 08:37 10.08.2019
3911 Clear 36 1006 12 10000 6.2 350 08:18 10.08.2019
3912 Clear 34 1006 13 10000 4.6 320 07:46 10.08.2019
3913 Clear 34 1006 13 10000 4.6 320 07:22 10.08.2019
3914 Clear 30 1005 17 10000 2.6 290 06:46 10.08.2019
3915 Clear 27 1005 19 10000 3.1 300 05:52 10.08.2019
3916 Clear 27 1005 19 10000 3.1 300 05:20 10.08.2019
3917 Clear 29 1004 23 10000 2.1 300 03:54 10.08.2019
3918 Clear 29 1004 23 10000 1.5 290 02:48 10.08.2019
3919 Clear 30 1004 17 10000 2.6 290 01:56 10.08.2019
3920 Clear 30 1004 17 10000 2.6 290 01:36 10.08.2019
3921 Clear 30 1004 17 10000 2.6 290 01:18 10.08.2019
3922 Clear 31 1004 16 10000 3.1 300 00:41 10.08.2019
3923 Clear 31 1004 16 10000 3.1 300 00:19 10.08.2019
3924 Clear 32 1004 17 10000 3.6 310 23:39 09.08.2019
3925 Clear 32 1004 17 10000 3.6 310 23:20 09.08.2019
3926 Clear 34 1004 14 10000 3.6 330 22:55 09.08.2019
3927 Clear 34 1004 14 10000 3.6 330 22:55 09.08.2019
3928 Clear 34 1004 14 10000 3.6 330 22:37 09.08.2019
3929 Clear 34 1004 14 10000 3.6 330 22:18 09.08.2019
3930 Clear 36 1005 11 10000 4.6 340 21:40 09.08.2019
3931 Clear 36 1005 11 10000 4.6 340 21:21 09.08.2019
3932 Clear 36 1004 11 10000 4.1 330 20:57 09.08.2019
3933 Clear 36 1004 11 10000 4.1 330 20:39 09.08.2019
3934 Clear 36 1004 11 10000 4.1 330 20:18 09.08.2019
3935 Clear 38 1004 10 10000 5.7 330 19:43 09.08.2019
3936 Clear 38 1004 10 10000 5.7 330 19:22 09.08.2019
3937 Clouds 39 1003 10 8000 6.2 330 18:56 09.08.2019
3938 Clouds 39 1003 10 8000 6.2 330 18:38 09.08.2019
3939 Clouds 39 1003 10 8000 6.2 330 18:38 09.08.2019
3940 Clouds 39 1003 10 8000 6.2 330 18:19 09.08.2019
3941 Clouds 39 1003 10 8000 6.2 330 18:19 09.08.2019
3942 Dust 40 1002 8 5000 8.2 340 17:42 09.08.2019
3943 Dust 40 1002 8 5000 8.2 340 17:24 09.08.2019
3944 Dust 41 1002 6 5000 8.2 340 16:54 09.08.2019
3945 Dust 41 1002 6 5000 8.2 340 16:36 09.08.2019
3946 Dust 41 1002 6 5000 8.2 340 16:18 09.08.2019
3947 Dust 42 1002 6 5000 8.2 340 15:41 09.08.2019
3948 Dust 42 1002 5 5000 8.2 340 15:21 09.08.2019
3949 Dust 42 1003 8 5000 8.7 340 14:57 09.08.2019
3950 Dust 42 1003 8 5000 8.7 340 14:38 09.08.2019
3951 Dust 42 1003 8 5000 8.7 340 14:19 09.08.2019
3952 Clouds 42 1003 5 7000 8.7 330 13:44 09.08.2019
3953 Clear 42 1003 5 7000 8.7 330 13:21 09.08.2019
3954 Clear 42 1004 5 7000 9.3 340 12:48 09.08.2019
3955 Clear 42 1004 6 7000 9.3 340 12:26 09.08.2019
3956 Clear 41 1005 6 9000 7.7 330 11:59 09.08.2019
3957 Clear 41 1005 6 9000 7.7 330 11:41 09.08.2019
3958 Clear 41 1005 6 9000 7.7 330 11:20 09.08.2019
3959 Clear 40 1006 8 10000 6.7 340 10:41 09.08.2019
3960 Clear 40 1006 8 10000 6.7 340 10:22 09.08.2019
3961 -273 0 0 0 0 0 09:59 09.08.2019
3962 Clear 39 1006 6 10000 7.2 330 09:37 09.08.2019
3963 Clear 39 1006 8 10000 7.2 330 09:18 09.08.2019
3964 Clear 37 1006 8 10000 7.7 330 08:44 09.08.2019
3965 Clear 37 1006 8 10000 7.7 330 08:25 09.08.2019
3966 -273 0 0 0 0 0 07:56 09.08.2019
3967 Clear 34 1005 12 10000 5.1 310 07:37 09.08.2019
3968 Clear 34 1005 12 10000 5.1 310 07:19 09.08.2019
3969 Clear 29 1005 17 10000 3.1 290 06:40 09.08.2019
3970 Clear 29 1005 17 10000 3.1 290 06:20 09.08.2019
3971 Clear 28 1005 17 10000 3.6 300 05:30 09.08.2019
3972 Clear 30 1004 16 10000 3.6 320 02:27 09.08.2019
3973 Clear 31 1004 14 10000 4.1 320 01:23 09.08.2019
3974 Clear 31 1004 18 10000 3.1 310 00:41 09.08.2019
3975 Clear 31 1004 18 10000 3.1 310 00:22 09.08.2019
3976 Clear 33 1004 14 10000 3.6 310 23:56 08.08.2019
3977 Clear 33 1004 14 10000 3.6 310 23:37 08.08.2019
3978 Clear 33 1004 14 10000 3.6 310 23:18 08.08.2019
3979 Clear 33 1004 14 10000 4.1 310 22:39 08.08.2019
3980 Clear 33 1004 14 10000 4.1 310 22:21 08.08.2019
3981 Clear 35 1004 12 10000 4.1 320 21:59 08.08.2019
3982 Clear 35 1004 12 10000 4.1 320 21:41 08.08.2019
3983 Clear 35 1004 12 10000 4.1 320 21:22 08.08.2019
3984 Clear 36 1004 12 10000 4.1 320 20:57 08.08.2019
3985 Clear 36 1004 12 10000 4.1 320 20:39 08.08.2019
3986 Clear 36 1004 12 10000 4.1 320 20:19 08.08.2019
3987 Clear 37 1004 11 8000 5.1 330 19:47 08.08.2019
3988 Clear 37 1004 11 8000 5.1 330 19:28 08.08.2019
3989 Clear 38 1003 10 7000 6.7 330 18:54 08.08.2019
3990 Clear 38 1003 10 7000 6.7 330 18:36 08.08.2019
3991 Clouds 38 1003 10 7000 6.7 330 18:18 08.08.2019
3992 Clouds 40 1003 9 7000 7.2 340 17:41 08.08.2019
3993 Clouds 40 1003 9 7000 7.2 340 17:23 08.08.2019
3994 Clouds 41 1003 8 7000 9.3 330 16:56 08.08.2019
3995 Clouds 41 1003 8 7000 9.3 330 16:37 08.08.2019
3996 Clouds 41 1003 8 7000 9.3 330 16:19 08.08.2019
3997 Clouds 41 1003 8 7000 8.7 340 15:56 08.08.2019
3998 Clouds 41 1003 8 7000 8.7 340 15:36 08.08.2019
3999 Clouds 41 1003 8 7000 8.7 340 15:18 08.08.2019
4000 Clouds 42 1003 8 7000 8.2 330 14:37 08.08.2019
4001 Clouds 42 1003 8 7000 8.2 330 14:18 08.08.2019
4002 Clouds 42 1003 9 7000 8.7 330 13:41 08.08.2019
4003 Clouds 42 1003 9 7000 8.7 330 13:23 08.08.2019
4004 Clouds 41 1004 9 7000 7.7 310 12:57 08.08.2019
4005 Clouds 41 1004 9 7000 7.7 310 12:37 08.08.2019
4006 Clouds 41 1004 9 7000 7.7 310 12:37 08.08.2019
4007 Clouds 41 1004 9 7000 7.7 310 12:18 08.08.2019
4008 Clouds 41 1005 9 7000 8.2 330 11:41 08.08.2019
4009 Clouds 41 1005 9 7000 8.2 330 11:23 08.08.2019
4010 Clouds 41 1006 9 8000 6.7 340 10:41 08.08.2019
4011 Clouds 41 1006 9 8000 6.7 340 10:22 08.08.2019
4012 Clouds 39 1006 10 8000 7.2 340 09:54 08.08.2019
4013 Clouds 39 1006 10 8000 7.2 340 09:33 08.08.2019
4014 Clear 37 1006 12 10000 6.7 340 09:00 08.08.2019
4015 Clear 37 1006 12 10000 6.7 340 08:40 08.08.2019
4016 Clear 37 1006 12 10000 6.7 340 08:20 08.08.2019
4017 Clear 35 1006 13 10000 5.1 320 07:42 08.08.2019
4018 Clear 35 1006 13 10000 5.1 320 07:20 08.08.2019
4019 Clear 31 1006 16 10000 3.6 300 06:56 08.08.2019
4020 Clear 31 1006 16 10000 3.6 300 06:38 08.08.2019
4021 Clear 28 1005 21 10000 3.1 300 05:54 08.08.2019
4022 Clear 28 1005 21 10000 3.1 300 05:20 08.08.2019
4023 Clear 30 1004 16 10000 3.6 310 03:54 08.08.2019
4024 Clear 31 1004 15 10000 4.1 310 02:58 08.08.2019
4025 Clear 31 1004 16 10000 4.1 300 01:38 08.08.2019
4026 Clear 32 1004 15 10000 3.1 290 00:27 08.08.2019
4027 Clear 32 1005 17 10000 3.6 300 23:59 07.08.2019
4028 Clear 32 1005 17 10000 3.6 300 23:22 07.08.2019
4029 Clear 33 1005 16 10000 3.1 300 22:59 07.08.2019
4030 Clear 33 1005 16 10000 3.1 300 22:59 07.08.2019
4031 Clear 33 1005 16 10000 3.1 300 22:40 07.08.2019
4032 Clear 33 1005 16 10000 3.1 300 22:20 07.08.2019
4033 Clear 35 1005 16 10000 2.6 310 21:56 07.08.2019
4034 Clear 35 1005 16 10000 2.6 310 21:38 07.08.2019
4035 Clear 35 1005 16 10000 2.6 310 21:19 07.08.2019
4036 Clear 36 1005 14 10000 3.1 320 20:55 07.08.2019
4037 Clear 36 1005 14 10000 3.1 320 20:36 07.08.2019
4038 Clear 36 1005 14 10000 3.1 320 20:18 07.08.2019
4039 Clear 38 1005 13 10000 4.1 320 19:40 07.08.2019
4040 Clear 38 1005 13 10000 4.1 320 19:22 07.08.2019
4041 Clear 39 1004 12 10000 4.6 330 18:55 07.08.2019
4042 Clear 39 1004 12 10000 4.6 330 18:37 07.08.2019
4043 Clear 39 1004 12 10000 4.6 330 18:19 07.08.2019
4044 Clear 40 1004 11 10000 6.2 330 17:54 07.08.2019
4045 Clear 40 1004 11 10000 6.2 330 17:36 07.08.2019
4046 Clear 40 1004 11 10000 6.2 330 17:18 07.08.2019
4047 Clear 42 1003 9 10000 6.7 340 16:54 07.08.2019
4048 Clear 42 1003 9 10000 6.7 340 16:36 07.08.2019
4049 -273 0 0 0 0 0 16:18 07.08.2019
4050 Clear 42 1004 9 10000 8.2 310 15:41 07.08.2019
4051 Clear 42 1004 9 10000 8.2 310 15:19 07.08.2019
4052 Clear 43 1004 8 10000 8.2 330 14:49 07.08.2019
4053 Clear 43 1004 8 10000 8.2 330 14:30 07.08.2019
4054 Clear 41 1004 9 10000 8.7 290 13:57 07.08.2019
4055 Clear 41 1004 9 10000 8.7 290 13:38 07.08.2019
4056 Clear 41 1004 9 10000 8.7 290 13:18 07.08.2019
4057 Clear 42 1005 8 10000 6.7 330 12:56 07.08.2019
4058 Clear 42 1005 8 10000 6.7 330 12:36 07.08.2019
4059 Clear 42 1005 8 10000 6.7 330 12:18 07.08.2019
4060 Clear 42 1005 8 10000 7.2 320 11:43 07.08.2019
4061 Clear 42 1005 8 10000 7.2 320 11:21 07.08.2019
4062 Clear 41 1006 9 10000 6.7 330 10:58 07.08.2019
4063 Clear 41 1006 9 10000 6.7 330 10:39 07.08.2019
4064 Clear 41 1006 9 10000 6.7 330 10:19 07.08.2019
4065 Clear 39 1006 10 10000 5.7 10 09:46 07.08.2019
4066 Clear 39 1006 10 10000 5.7 10 09:22 07.08.2019
4067 Clear 38 1006 12 10000 3.6 350 08:57 07.08.2019
4068 Clear 38 1006 12 10000 3.6 350 08:39 07.08.2019
4069 Clear 38 1006 12 10000 3.6 350 08:21 07.08.2019
4070 Clear 34 1006 17 10000 3.6 310 07:43 07.08.2019
4071 Clear 34 1006 17 10000 3.6 310 07:21 07.08.2019
4072 Clear 31 1005 20 10000 3.6 300 06:31 07.08.2019
4073 Clear 29 1005 21 10000 3.6 300 05:56 07.08.2019
4074 Clear 29 1004 28 10000 1.5 310 04:57 07.08.2019
4075 Clear 29 1004 30 10000 1 340 03:21 07.08.2019
4076 Clear 31 1004 20 10000 3.1 290 02:50 07.08.2019
4077 Clear 31 1004 20 10000 3.1 290 02:20 07.08.2019
4078 Clear 31 1003 20 10000 2.6 290 01:39 07.08.2019
4079 Clear 32 1004 19 10000 3.1 280 00:51 07.08.2019
4080 Clear 32 1004 19 10000 3.1 280 00:22 07.08.2019
4081 Clear 33 1004 19 10000 2.6 280 23:42 06.08.2019
4082 Clear 33 1004 19 10000 2.6 280 23:21 06.08.2019
4083 Clear 34 1004 18 10000 2.1 290 22:57 06.08.2019
4084 Clear 34 1004 18 10000 2.1 290 22:38 06.08.2019
4085 Clear 34 1004 18 10000 2.1 290 22:19 06.08.2019
4086 Clear 35 1004 17 10000 2.1 350 21:43 06.08.2019
4087 Clear 35 1004 17 10000 2.1 350 21:25 06.08.2019
4088 Clear 36 1004 15 10000 3.1 320 20:58 06.08.2019
4089 Clear 36 1004 15 10000 3.1 320 20:40 06.08.2019
4090 Clear 36 1004 15 10000 3.1 320 20:21 06.08.2019
4091 Clear 38 1004 15 10000 2.6 320 19:43 06.08.2019
4092 Clear 38 1004 15 10000 2.6 320 19:25 06.08.2019
4093 Clear 39 1003 12 10000 4.6 330 18:48 06.08.2019
4094 Clear 39 1003 12 10000 4.6 330 18:29 06.08.2019
4095 Clear 41 1003 9 10000 5.7 340 17:59 06.08.2019
4096 Clear 41 1003 9 10000 5.7 340 17:40 06.08.2019
4097 Clear 41 1003 9 10000 5.7 340 17:21 06.08.2019
4098 Clear 42 1003 9 10000 6.7 340 16:59 06.08.2019
4099 Clear 42 1003 9 10000 6.7 340 16:39 06.08.2019
4100 Clear 42 1003 9 10000 6.7 340 16:20 06.08.2019
4101 Clear 42 1003 8 10000 6.7 310 15:57 06.08.2019
4102 Clear 42 1003 8 10000 6.7 310 15:38 06.08.2019
4103 Clear 42 1003 8 10000 6.7 310 15:19 06.08.2019
4104 Clear 43 1003 8 10000 7.7 330 14:44 06.08.2019
4105 Clear 43 1003 8 10000 7.7 330 14:25 06.08.2019
4106 Clear 43 1004 8 10000 7.2 330 13:58 06.08.2019
4107 Clear 43 1004 8 10000 7.2 330 13:39 06.08.2019
4108 Clear 43 1004 8 10000 7.2 330 13:20 06.08.2019
4109 Clear 43 1005 8 10000 8.2 320 12:57 06.08.2019
4110 Clear 43 1005 8 10000 8.2 320 12:38 06.08.2019
4111 Clear 43 1005 8 10000 8.2 320 12:20 06.08.2019
4112 Clear 42 1005 8 10000 6.2 340 11:41 06.08.2019
4113 Clear 42 1005 8 10000 6.2 340 11:19 06.08.2019
4114 Clear 41 1006 9 10000 4.6 10 10:42 06.08.2019
4115 Clear 41 1006 9 10000 4.6 10 10:23 06.08.2019
4116 Clear 40 1006 10 10000 2.6 350 09:57 06.08.2019
4117 Clear 40 1006 10 10000 2.6 350 09:37 06.08.2019
4118 Clear 40 1006 10 10000 2.6 350 09:19 06.08.2019
4119 Clear 38 1006 10 10000 2.6 330 08:41 06.08.2019
4120 Clear 38 1006 10 10000 2.6 330 08:23 06.08.2019
4121 Clear 35 1005 14 10000 3.6 320 07:36 06.08.2019
4122 Clear 31 1005 22 10000 1 350 06:51 06.08.2019
4123 Clear 31 1005 22 10000 1 350 06:32 06.08.2019
4124 Clear 29 1004 18 10000 3.1 280 05:48 06.08.2019
4125 Clear 29 1003 18 10000 2.6 290 03:44 06.08.2019
4126 Clear 31 1003 19 10000 2.6 300 01:51 06.08.2019
4127 Clear 31 1003 19 10000 2.6 300 01:22 06.08.2019
4128 Clear 32 1003 17 10000 3.6 310 00:29 06.08.2019
4129 Clear 33 1004 16 10000 3.1 290 23:46 05.08.2019
4130 Clear 33 1004 16 10000 3.1 290 23:18 05.08.2019
4131 Clear 34 1004 16 10000 2.6 290 22:40 05.08.2019
4132 Clear 34 1004 16 10000 2.6 290 22:22 05.08.2019
4133 Clear 36 1004 15 10000 2.6 320 21:54 05.08.2019
4134 Clear 36 1004 15 10000 2.6 320 21:36 05.08.2019
4135 Clear 36 1004 15 10000 2.6 320 21:18 05.08.2019
4136 Clear 37 1003 13 10000 3.1 350 20:54 05.08.2019
4137 Clear 37 1003 13 10000 3.1 350 20:54 05.08.2019
4138 Clear 37 1003 13 10000 3.1 350 20:36 05.08.2019
4139 Clear 37 1003 13 10000 3.1 350 20:18 05.08.2019
4140 Clear 38 1003 13 10000 3.6 360 19:40 05.08.2019
4141 Clear 38 1003 13 10000 3.6 360 19:21 05.08.2019
4142 Clear 40 1002 11 10000 5.1 350 18:45 05.08.2019
4143 Clear 40 1002 11 10000 5.1 350 18:22 05.08.2019
4144 Clear 40 1002 11 10000 5.1 350 18:22 05.08.2019
4145 Clear 41 1002 10 10000 4.6 340 17:58 05.08.2019
4146 Clear 41 1002 10 10000 4.6 340 17:40 05.08.2019
4147 Clear 41 1002 10 10000 4.6 340 17:22 05.08.2019
4148 Clear 43 1002 10 10000 4.1 330 16:45 05.08.2019
4149 Clear 43 1002 10 10000 4.1 330 16:24 05.08.2019
4150 Clear 43 1002 8 10000 6.2 330 15:44 05.08.2019
4151 Clear 43 1002 8 10000 6.2 330 15:21 05.08.2019
4152 Clear 44 1002 7 10000 6.2 320 14:54 05.08.2019
4153 Clear 44 1002 7 10000 6.2 320 14:54 05.08.2019
4154 Clear 44 1002 7 10000 6.2 320 14:36 05.08.2019
4155 Clear 44 1002 7 10000 6.2 320 14:18 05.08.2019
4156 Clear 43 1003 8 10000 3.1 310 13:40 05.08.2019
4157 Clear 43 1003 8 10000 3.1 310 13:20 05.08.2019
4158 Clear 43 1004 7 10000 4.1 10 12:43 05.08.2019
4159 Clear 43 1004 7 10000 4.1 10 12:19 05.08.2019
4160 Clear 42 1004 6 10000 5.1 300 11:45 05.08.2019
4161 Clear 42 1004 6 10000 5.1 300 11:45 05.08.2019
4162 Clear 42 1004 6 10000 5.1 300 11:26 05.08.2019
4163 Clear 40 1005 6 10000 4.1 20 10:49 05.08.2019
4164 Clear 40 1005 6 10000 4.1 20 10:31 05.08.2019
4165 Clear 39 1005 6 10000 4.1 10 09:57 05.08.2019
4166 Clear 39 1005 6 10000 4.1 10 09:38 05.08.2019
4167 Clear 39 1005 7 10000 4.1 10 09:20 05.08.2019
4168 Clear 38 1005 9 10000 3.1 340 08:44 05.08.2019
4169 Clear 38 1005 9 10000 3.1 340 08:25 05.08.2019
4170 Clear 34 1005 17 10000 2.6 290 07:49 05.08.2019
4171 Clear 34 1005 17 10000 2.6 290 07:30 05.08.2019
4172 Clear 31 1005 19 10000 2.6 280 06:58 05.08.2019
4173 Clear 31 1005 19 10000 2.6 280 06:24 05.08.2019
4174 Clear 28 1005 20 10000 3.1 280 05:31 05.08.2019
4175 Clear 28 1004 21 10000 2.6 290 04:51 05.08.2019
4176 Clear 29 1004 18 10000 2.6 290 03:50 05.08.2019
4177 Clear 30 1004 19 10000 2.6 300 02:46 05.08.2019
4178 Clear 31 1004 18 10000 3.1 280 01:58 05.08.2019
4179 Clear 31 1004 18 10000 3.1 280 01:22 05.08.2019
4180 Clear 32 1004 17 10000 2.6 290 00:40 05.08.2019
4181 Clear 32 1004 17 10000 2.6 290 00:20 05.08.2019
4182 Clear 33 1004 21 10000 1.5 280 23:43 04.08.2019
4183 Clear 33 1004 21 10000 1.5 280 23:23 04.08.2019
4184 Clear 33 1004 21 10000 1.5 280 23:23 04.08.2019
4185 Clear 34 1004 20 10000 1 350 22:57 04.08.2019
4186 Clear 34 1004 20 10000 1 350 22:38 04.08.2019
4187 Clear 34 1004 20 10000 1 350 22:20 04.08.2019
4188 Clear 36 1004 15 10000 3.1 10 21:46 04.08.2019
4189 Clear 36 1004 15 10000 3.1 10 21:24 04.08.2019
4190 Clear 37 1004 13 10000 2.6 360 20:59 04.08.2019
4191 Clear 37 1004 13 10000 2.6 360 20:41 04.08.2019
4192 Clear 37 1004 13 10000 2.6 360 20:18 04.08.2019
4193 Clear 38 1003 15 10000 3.1 360 19:48 04.08.2019
4194 Clear 38 1003 15 10000 3.1 360 19:28 04.08.2019
4195 Clear 40 1003 11 10000 4.1 360 18:58 04.08.2019
4196 Clear 40 1003 11 10000 4.1 360 18:40 04.08.2019
4197 Clear 40 1003 11 10000 4.1 360 18:20 04.08.2019
4198 Clear 41 1003 12 10000 2.6 360 17:43 04.08.2019
4199 Clear 41 1003 12 10000 2.6 360 17:22 04.08.2019
4200 Clear 43 1003 10 10000 4.1 340 16:45 04.08.2019
4201 Clear 43 1003 10 10000 4.1 340 16:26 04.08.2019
4202 Clear 42 1003 12 10000 5.1 290 15:55 04.08.2019
4203 Clear 42 1003 12 10000 5.1 290 15:37 04.08.2019
4204 Clear 42 1003 12 10000 5.1 290 15:37 04.08.2019
4205 Clear 42 1003 12 10000 5.1 290 15:18 04.08.2019
4206 Clear 43 1003 15 10000 2.1 280 14:42 04.08.2019
4207 Clear 43 1003 15 10000 2.1 280 14:21 04.08.2019
4208 Clear 43 1004 10 10000 3.6 330 13:43 04.08.2019
4209 Clear 43 1004 10 10000 3.6 330 13:24 04.08.2019
4210 Clear 42 1004 13 10000 2.1 350 12:55 04.08.2019
4211 Clear 42 1004 13 10000 2.1 350 12:37 04.08.2019
4212 Clear 42 1004 13 10000 2.1 350 12:18 04.08.2019
4213 Clear 42 1005 13 10000 2.6 340 11:41 04.08.2019
4214 Clear 42 1005 13 10000 2.6 340 11:22 04.08.2019
4215 Clear 39 1006 12 10000 3.1 30 10:43 04.08.2019
4216 Clear 39 1006 12 10000 3.1 30 10:43 04.08.2019
4217 Clear 39 1006 12 10000 3.1 30 10:21 04.08.2019
4218 Clear 38 1006 12 10000 4.6 20 09:46 04.08.2019
4219 Clear 38 1006 12 10000 4.6 20 09:25 04.08.2019
4220 Clear 36 1006 13 10000 4.1 350 08:57 04.08.2019
4221 Clear 36 1006 13 10000 4.1 350 08:32 04.08.2019
4222 Clear 34 1006 16 10000 3.6 320 07:54 04.08.2019
4223 Clear 34 1006 16 10000 3.6 320 07:22 04.08.2019
4224 Clear 30 1006 27 10000 1.5 310 06:28 04.08.2019
4225 Clear 29 1005 26 10000 1.5 290 05:43 04.08.2019
4226 Clear 30 1004 22 10000 2.1 300 03:34 04.08.2019
4227 Clear 31 1004 18 10000 3.6 310 01:51 04.08.2019
4228 Clear 31 1004 18 10000 3.6 310 01:28 04.08.2019
4229 Clear 32 1004 17 10000 3.6 300 00:41 04.08.2019
4230 Clear 32 1004 17 10000 3.6 300 00:22 04.08.2019
4231 Clear 32 1004 17 10000 3.1 290 23:42 03.08.2019
4232 Clear 32 1004 17 10000 3.1 290 23:19 03.08.2019
4233 Clear 33 1005 16 10000 3.1 300 22:55 03.08.2019
4234 Clear 33 1005 16 10000 3.1 300 22:37 03.08.2019
4235 Clear 33 1005 16 10000 3.1 300 22:18 03.08.2019
4236 Clear 36 1004 13 10000 3.1 320 21:38 03.08.2019
4237 Clear 36 1004 13 10000 3.1 320 21:19 03.08.2019
4238 Clear 36 1004 13 7000 3.6 320 20:43 03.08.2019
4239 Clear 36 1004 13 7000 3.6 320 20:23 03.08.2019
4240 Dust 38 1003 10 5000 5.1 330 19:43 03.08.2019
4241 Dust 38 1003 10 5000 5.1 330 19:24 03.08.2019
4242 Dust 39 1003 10 5000 6.2 330 18:56 03.08.2019
4243 Dust 39 1003 10 5000 6.2 330 18:28 03.08.2019
4244 Dust 41 1002 5 5000 7.7 330 17:50 03.08.2019
4245 Dust 41 1002 5 5000 7.7 330 17:22 03.08.2019
4246 Dust 42 1002 6 5000 9.3 320 16:58 03.08.2019
4247 Dust 42 1002 6 5000 9.3 320 16:38 03.08.2019
4248 Dust 42 1002 6 5000 9.3 320 16:19 03.08.2019
4249 Dust 43 1002 7 5000 8.2 310 15:45 03.08.2019
4250 Dust 43 1002 7 5000 8.2 310 15:23 03.08.2019
4251 Dust 43 1002 7 5000 8.2 320 14:43 03.08.2019
4252 Dust 43 1002 7 5000 8.2 320 14:22 03.08.2019
4253 Dust 43 1003 7 4000 8.7 310 13:53 03.08.2019
4254 Dust 43 1003 7 4000 8.7 310 13:26 03.08.2019
4255 Dust 43 1004 5 4000 10.3 320 12:59 03.08.2019
4256 Dust 43 1004 5 4000 10.3 320 12:40 03.08.2019
4257 Dust 43 1004 5 4000 10.3 320 12:22 03.08.2019
4258 Clear 42 1004 5 7000 8.7 320 11:49 03.08.2019
4259 Clear 42 1004 5 7000 8.7 320 11:28 03.08.2019
4260 Clear 42 1005 8 8000 6.2 340 10:42 03.08.2019
4261 Clear 42 1005 8 8000 6.2 340 10:24 03.08.2019
4262 Clear 42 1005 8 8000 6.2 340 10:24 03.08.2019
4263 Clear 40 1005 5 8000 6.7 330 09:44 03.08.2019
4264 Clear 40 1005 7 8000 6.7 330 09:23 03.08.2019
4265 Clear 37 1005 8 8000 7.2 330 08:55 03.08.2019
4266 Clear 37 1005 8 8000 7.2 330 08:18 03.08.2019
4267 Clear 35 1005 10 8000 5.7 340 07:36 03.08.2019
4268 Clear 33 1004 13 8000 4.1 320 06:39 03.08.2019
4269 Clear 32 1004 15 10000 4.1 310 04:56 03.08.2019
4270 Clear 34 1003 14 10000 5.1 320 02:42 03.08.2019
4271 Clear 34 1003 15 10000 4.1 310 01:50 03.08.2019
4272 Clear 35 1003 16 10000 2.6 300 00:51 03.08.2019
4273 Clear 35 1003 16 10000 2.6 300 00:29 03.08.2019
4274 Clear 35 1003 15 10000 2.6 300 23:41 02.08.2019
4275 Clear 35 1003 15 10000 2.6 300 23:19 02.08.2019
4276 Clear 36 1003 13 10000 3.1 300 22:57 02.08.2019
4277 Clear 36 1003 13 10000 3.1 300 22:39 02.08.2019
4278 Clear 36 1003 13 10000 3.1 300 22:20 02.08.2019
4279 Clear 36 1003 14 10000 2.6 290 21:44 02.08.2019
4280 Clear 36 1003 14 10000 2.6 290 21:25 02.08.2019
4281 Clear 37 1003 18 10000 1.5 300 20:59 02.08.2019
4282 Clear 37 1003 18 10000 1.5 300 20:41 02.08.2019
4283 Clear 37 1003 18 10000 1.5 300 20:20 02.08.2019
4284 Clear 40 1003 13 10000 2.1 320 19:48 02.08.2019
4285 Clear 40 1003 13 10000 2.1 320 19:28 02.08.2019
4286 Clear 42 1003 9 10000 4.1 330 18:45 02.08.2019
4287 Clear 42 1003 9 10000 4.1 330 18:26 02.08.2019
4288 Clear 43 1002 9 10000 5.7 330 17:48 02.08.2019
4289 Clear 43 1002 9 10000 5.7 330 17:25 02.08.2019
4290 Clear 45 1002 8 10000 5.1 340 16:59 02.08.2019
4291 Clear 45 1002 8 10000 5.1 340 16:39 02.08.2019
4292 Clear 45 1002 8 10000 5.1 340 16:19 02.08.2019
4293 Clear 45 1003 8 10000 5.7 350 15:44 02.08.2019
4294 Clear 45 1003 8 10000 5.7 350 15:20 02.08.2019
4295 Clear 45 1003 7 10000 6.2 350 14:47 02.08.2019
4296 Clear 45 1003 7 10000 6.2 350 14:19 02.08.2019
4297 Clear 45 1003 7 10000 6.2 10 13:50 02.08.2019
4298 Clear 45 1003 7 10000 6.2 10 13:29 02.08.2019
4299 Clear 44 1004 11 10000 3.1 340 12:47 02.08.2019
4300 Clear 44 1004 11 10000 3.1 340 12:24 02.08.2019
4301 Clear 43 1004 11 10000 3.1 20 11:58 02.08.2019
4302 Clear 43 1004 11 10000 3.1 20 11:39 02.08.2019
4303 Clear 43 1004 11 10000 3.1 20 11:21 02.08.2019
4304 Clear 42 1005 14 10000 1.5 70 10:43 02.08.2019
4305 Clear 42 1005 14 10000 1.5 70 10:23 02.08.2019
4306 Clear 41 1005 14 10000 1.5 90 09:52 02.08.2019
4307 Clear 41 1005 14 10000 1.5 90 09:29 02.08.2019
4308 Clear 40 1006 14 10000 1.5 110 08:53 02.08.2019
4309 Clear 40 1006 14 10000 1.5 110 08:25 02.08.2019
4310 Clear 37 1005 18 10000 1 240 07:52 02.08.2019
4311 Clear 37 1005 18 10000 1 240 07:34 02.08.2019
4312 Clear 34 1005 21 10000 1 260 06:55 02.08.2019
4313 Clear 34 1005 21 10000 1 260 06:27 02.08.2019
4314 Clear 31 1005 22 10000 1 260 05:38 02.08.2019
4315 Clear 31 1004 22 10000 1 280 03:31 02.08.2019
4316 Clear 31 1004 22 10000 1.5 290 02:37 02.08.2019
4317 Clear 34 1004 15 10000 2.1 290 01:30 02.08.2019
4318 Clear 34 1004 20 10000 1 330 00:22 02.08.2019
4319 Clear 35 1005 21 10000 1.92 69.846 23:44 01.08.2019
4320 Clear 35 1005 21 10000 1.92 69.846 23:23 01.08.2019
4321 Clear 36 1005 18 10000 1.5 10 22:42 01.08.2019
4322 Clear 36 1005 18 10000 1.5 10 22:22 01.08.2019
4323 Clear 37 1005 13 10000 3.1 20 21:55 01.08.2019
4324 Clear 37 1005 13 10000 3.1 20 21:37 01.08.2019
4325 Clear 37 1005 13 10000 3.1 20 21:18 01.08.2019
4326 Clear 39 1005 11 10000 3.6 30 20:43 01.08.2019
4327 Clear 39 1005 11 10000 3.6 30 20:22 01.08.2019
4328 Clear 40 1004 11 10000 3.1 30 19:45 01.08.2019
4329 Clear 40 1004 11 10000 3.1 30 19:23 01.08.2019
4330 Clear 40 1004 11 10000 3.1 30 19:23 01.08.2019
4331 Clear 42 1004 10 10000 4.1 30 18:55 01.08.2019
4332 Clear 42 1004 10 10000 4.1 30 18:36 01.08.2019
4333 Clear 42 1004 10 10000 4.1 30 18:18 01.08.2019
4334 Clear 44 1003 9 10000 5.7 360 17:44 01.08.2019
4335 Clear 44 1003 9 10000 5.7 360 17:26 01.08.2019
4336 Clear 44 1003 10 10000 6.7 340 16:44 01.08.2019
4337 Clear 44 1003 10 10000 6.7 340 16:22 01.08.2019
4338 Clear 46 1003 7 10000 3.6 300 15:45 01.08.2019
4339 Clear 46 1003 7 10000 3.6 300 15:20 01.08.2019
4340 Clear 45 1004 7 10000 2.1 130 14:44 01.08.2019
4341 Clear 45 1004 7 10000 2.1 130 14:22 01.08.2019
4342 Clear 45 1004 7 10000 3.1 270 13:59 01.08.2019
4343 Clear 45 1004 7 10000 3.1 270 13:41 01.08.2019
4344 Clear 45 1004 7 10000 3.1 270 13:21 01.08.2019
4345 Clear 44 1005 8 10000 1 150 12:52 01.08.2019
4346 Clear 44 1005 8 10000 1 150 12:33 01.08.2019
4347 Clear 44 1006 8 10000 2.1 320 11:58 01.08.2019
4348 Clear 44 1006 8 10000 2.1 320 11:40 01.08.2019
4349 Clear 44 1006 8 10000 2.1 320 11:22 01.08.2019
4350 Clear 43 1006 9 8000 2.1 260 10:43 01.08.2019
4351 Clear 43 1006 9 8000 2.1 260 10:25 01.08.2019
4352 Clear 42 1007 9 8000 1 120 09:50 01.08.2019
4353 Clear 42 1007 9 8000 1 120 09:24 01.08.2019
4354 Clear 40 1007 11 9000 1 80 08:57 01.08.2019
4355 Clear 40 1007 11 9000 1 80 08:39 01.08.2019
4356 Clear 40 1007 11 9000 1 80 08:18 01.08.2019
4357 Clear 38 1006 21 6000 3.94 153.24 07:45 01.08.2019
4358 Clear 38 1006 21 6000 3.94 153.24 07:20 01.08.2019
4359 Clear 33 1006 26 10000 3.94 153.24 06:39 01.08.2019
4360 Clear 30 1006 27 10000 0.83 147.914 05:32 01.08.2019
4361 Clear 32 1005 24 10000 1 270 02:41 01.08.2019
4362 Clear 33 1005 21 10000 1.5 30 01:45 01.08.2019
4363 Clear 33 1005 21 10000 1 290 00:37 01.08.2019
4364 Clear 33 1005 21 10000 1 290 00:18 01.08.2019
4365 Clear 34 1005 24 10000 3.95 54.424 23:42 31.07.2019
4366 Clear 34 1005 24 10000 3.95 54.424 23:20 31.07.2019
4367 Clear 36 1005 19 10000 1 50 22:45 31.07.2019
4368 Clear 36 1005 19 10000 1 50 22:27 31.07.2019
4369 Clear 36 1005 19 10000 1 50 22:27 31.07.2019
4370 Clear 37 1005 16 10000 2.6 30 21:45 31.07.2019
4371 Clear 37 1005 16 10000 2.6 30 21:24 31.07.2019
4372 Clear 39 1005 14 10000 3.1 20 20:51 31.07.2019
4373 Clear 39 1005 14 10000 3.1 20 20:25 31.07.2019
4374 Clear 41 1004 12 10000 3.6 10 19:58 31.07.2019
4375 Clear 41 1004 12 10000 3.6 10 19:39 31.07.2019
4376 Clear 41 1004 12 10000 3.6 10 19:20 31.07.2019
4377 Clouds 42 1004 12 10000 4.1 340 18:40 31.07.2019
4378 Clouds 42 1004 12 10000 4.1 340 18:40 31.07.2019
4379 Clouds 42 1004 12 10000 4.1 340 18:22 31.07.2019
4380 Clouds 44 1003 9 10000 4.1 10 17:45 31.07.2019
4381 Clouds 44 1003 9 10000 4.1 10 17:20 31.07.2019
4382 Clouds 44 1003 9 10000 3.6 310 16:56 31.07.2019
4383 Clouds 44 1003 9 10000 3.6 310 16:37 31.07.2019
4384 Clouds 44 1003 9 10000 3.6 310 16:18 31.07.2019
4385 Clouds 45 1003 6 10000 3.6 350 15:42 31.07.2019
4386 Clouds 45 1003 6 10000 3.6 350 15:23 31.07.2019
4387 Clear 46 1003 7 10000 3.6 270 14:42 31.07.2019
4388 Clear 46 1003 7 10000 3.6 270 14:20 31.07.2019
4389 Clear 45 1004 7 10000 5.7 350 13:56 31.07.2019
4390 Clear 45 1004 7 10000 5.7 350 13:56 31.07.2019
4391 Clear 45 1004 7 10000 5.7 350 13:37 31.07.2019
4392 Clear 45 1004 7 10000 5.7 350 13:19 31.07.2019
4393 Clear 45 1004 7 10000 3.1 60 12:42 31.07.2019
4394 Clear 45 1004 7 10000 3.1 60 12:23 31.07.2019
4395 Clear 45 1005 7 10000 2.6 360 11:40 31.07.2019
4396 Clear 45 1005 7 10000 2.6 360 11:21 31.07.2019
4397 Clear 45 1006 8 10000 3.1 330 10:56 31.07.2019
4398 Clear 45 1006 8 10000 3.1 330 10:38 31.07.2019
4399 Clear 45 1006 8 10000 3.1 330 10:19 31.07.2019
4400 Clear 42 1006 9 10000 3.1 260 09:43 31.07.2019
4401 Clear 42 1006 9 10000 3.1 260 09:23 31.07.2019
4402 Clear 39 1006 10 10000 3.1 290 08:44 31.07.2019
4403 Clear 39 1006 10 10000 3.1 290 08:24 31.07.2019
4404 Clear 37 1006 19 10000 1 340 07:50 31.07.2019
4405 Clear 37 1006 19 10000 1 340 07:31 31.07.2019
4406 Clear 31 1005 23 10000 4.4 222.799 05:24 31.07.2019
4407 Clear 33 1004 18 10000 2.1 230 04:19 31.07.2019
4408 Clear 32 1005 25 10000 3.04 162.185 00:38 31.07.2019
4409 Clear 34 1005 24 10000 0.5 240 23:51 30.07.2019
4410 Clear 34 1005 24 10000 0.5 240 23:29 30.07.2019
4411 Clear 34 1005 24 10000 0.5 150 22:50 30.07.2019
4412 Clear 34 1005 24 10000 0.5 150 22:26 30.07.2019
4413 Clear 36 1005 20 10000 1.5 120 21:59 30.07.2019
4414 Clear 36 1005 20 10000 1.5 120 21:37 30.07.2019
4415 Clear 36 1005 20 10000 1.5 120 21:19 30.07.2019
4416 Clear 37 1005 18 10000 2.1 120 20:56 30.07.2019
4417 Clear 37 1005 18 10000 2.1 120 20:37 30.07.2019
4418 Clear 37 1005 18 10000 2.1 120 20:18 30.07.2019
4419 Clear 39 1004 14 10000 2.6 80 19:44 30.07.2019
4420 Clear 39 1004 14 10000 2.6 80 19:26 30.07.2019
4421 Clear 41 1004 12 10000 2.6 60 18:48 30.07.2019
4422 Clear 41 1004 12 10000 2.6 60 18:23 30.07.2019
4423 Clear 42 1003 12 10000 2.6 80 17:58 30.07.2019
4424 Clear 42 1003 12 10000 2.6 80 17:39 30.07.2019
4425 Clear 42 1003 12 10000 2.6 80 17:18 30.07.2019
4426 Clear 43 1003 10 10000 3.1 70 16:41 30.07.2019
4427 Clear 43 1003 10 10000 3.1 70 16:19 30.07.2019
4428 Clear 44 1003 7 10000 3.6 110 15:39 30.07.2019
4429 Clear 44 1003 7 10000 3.6 110 15:39 30.07.2019
4430 Clear 44 1003 7 10000 3.6 110 15:19 30.07.2019
4431 Clear 45 1003 7 10000 3.1 60 14:43 30.07.2019
4432 Clear 45 1003 7 10000 3.1 60 14:43 30.07.2019
4433 Clear 45 1003 7 10000 3.1 60 14:22 30.07.2019
4434 Clear 44 1004 9 10000 5.1 110 13:55 30.07.2019
4435 Clear 44 1004 9 10000 5.1 110 13:36 30.07.2019
4436 Clear 44 1004 9 10000 5.1 110 13:18 30.07.2019
4437 Clear 44 1004 7 10000 3.1 110 12:43 30.07.2019
4438 Clear 44 1004 7 10000 3.1 110 12:24 30.07.2019
4439 Clear 43 1005 5 10000 4.6 100 11:44 30.07.2019
4440 Clear 43 1005 5 10000 4.6 100 11:23 30.07.2019
4441 Clear 42 1005 8 10000 3.6 150 10:55 30.07.2019
4442 Clear 42 1005 8 10000 3.6 150 10:37 30.07.2019
4443 Clear 42 1005 8 10000 3.6 150 10:37 30.07.2019
4444 Clear 42 1005 8 10000 3.6 150 10:19 30.07.2019
4445 Clear 40 1006 11 10000 3.1 120 09:46 30.07.2019
4446 Clear 40 1006 11 10000 3.1 120 09:27 30.07.2019
4447 Clear 39 1006 13 10000 1.5 80 08:35 30.07.2019
4448 Clear 35 1006 28 10000 1 40 07:53 30.07.2019
4449 Clear 35 1006 28 10000 1 40 07:34 30.07.2019
4450 Clear 32 1005 33 10000 4.74 129.14 06:52 30.07.2019
4451 Clear 32 1005 33 10000 4.74 129.14 06:33 30.07.2019
4452 Clear 29 1005 32 10000 1 290 05:35 30.07.2019
4453 Clear 29 1004 37 10000 1.54 163.329 03:32 30.07.2019
4454 Clear 31 1004 29 10000 3.45 112.941 01:22 30.07.2019
4455 Clear 32 1005 27 10000 1 340 00:27 30.07.2019
4456 Clear 32 1005 27 10000 1 70 23:57 29.07.2019
4457 Clear 32 1005 27 10000 1 70 23:38 29.07.2019
4458 Clear 32 1005 27 10000 1 70 23:20 29.07.2019
4459 Clear 34 1005 24 10000 2.42 77.281 22:54 29.07.2019
4460 Clear 34 1005 24 10000 2.42 77.281 22:36 29.07.2019
4461 Clear 34 1005 24 10000 2.42 77.281 22:18 29.07.2019
4462 Clear 35 1005 21 10000 1.5 90 21:41 29.07.2019
4463 Clear 35 1005 21 10000 1.5 90 21:23 29.07.2019
4464 Clear 37 1005 16 10000 2.6 70 20:57 29.07.2019
4465 Clear 37 1005 16 10000 2.6 70 20:38 29.07.2019
4466 Clear 37 1005 16 10000 2.6 70 20:19 29.07.2019
4467 Clear 38 1004 15 10000 2.6 70 19:43 29.07.2019
4468 Clear 38 1004 15 10000 2.6 70 19:22 29.07.2019
4469 Clear 40 1003 11 10000 4.6 80 18:55 29.07.2019
4470 Clear 40 1003 11 10000 4.6 80 18:36 29.07.2019
4471 Clear 40 1003 11 10000 4.6 80 18:18 29.07.2019
4472 Clear 41 1003 12 10000 4.6 60 17:46 29.07.2019
4473 Clear 41 1003 12 10000 4.6 60 17:26 29.07.2019
4474 Clear 42 1003 11 10000 5.7 60 16:46 29.07.2019
4475 Clear 42 1003 11 10000 5.7 60 16:26 29.07.2019
4476 Clear 43 1003 10 9000 5.1 60 15:54 29.07.2019
4477 Clear 43 1003 10 9000 5.1 60 15:35 29.07.2019
4478 Clouds 43 1003 11 9000 3.6 70 14:57 29.07.2019
4479 Clouds 43 1003 11 9000 3.6 70 14:39 29.07.2019
4480 Clouds 43 1003 11 9000 3.6 70 14:21 29.07.2019
4481 Clouds 42 1004 13 9000 3.6 80 13:44 29.07.2019
4482 Clouds 42 1004 13 9000 3.6 80 13:23 29.07.2019
4483 Clouds 41 1004 14 9000 2.6 70 12:45 29.07.2019
4484 Clouds 41 1004 14 9000 2.6 70 12:26 29.07.2019
4485 Clouds 41 1004 14 9000 2.6 70 12:26 29.07.2019
4486 Clouds 40 1005 14 9000 2.1 100 11:45 29.07.2019
4487 Clouds 40 1005 14 9000 2.1 100 11:24 29.07.2019
4488 Clouds 39 1005 15 9000 2.1 110 10:59 29.07.2019
4489 Clouds 39 1005 15 9000 2.1 110 10:40 29.07.2019
4490 Clouds 39 1005 15 9000 2.1 110 10:21 29.07.2019
4491 Clouds 39 1006 15 9000 2.6 120 09:41 29.07.2019
4492 Clouds 39 1006 15 9000 2.6 120 09:21 29.07.2019
4493 Clear 37 1006 19 10000 1.5 100 08:42 29.07.2019
4494 Clear 37 1006 19 10000 1.5 100 08:22 29.07.2019
4495 Clear 37 1005 18 10000 1 80 07:45 29.07.2019
4496 Clear 37 1005 18 10000 1 80 07:24 29.07.2019
4497 Clear 29 1004 26 10000 1.5 290 05:52 29.07.2019
4498 Clear 29 1004 26 10000 1 290 04:59 29.07.2019
4499 Clear 32 1003 27 10000 2.54 113.462 02:28 29.07.2019
4500 Clear 32 1003 27 10000 2.54 113.462 01:46 29.07.2019
4501 Clear 32 1003 27 10000 2.26 164.5 01:24 29.07.2019
4502 Clear 32 1003 22 10000 1.5 80 00:50 29.07.2019
4503 Clear 32 1003 22 10000 1.5 80 00:22 29.07.2019
4504 Clear 34 1004 17 10000 2.1 90 23:41 28.07.2019
4505 Clear 34 1004 17 10000 2.1 90 23:19 28.07.2019
4506 Clear 35 1004 20 10000 1.5 90 22:42 28.07.2019
4507 Clear 35 1004 20 10000 1.5 90 22:23 28.07.2019
4508 Clear 36 1004 16 10000 2.1 80 21:50 28.07.2019
4509 Clear 36 1004 16 10000 2.1 80 21:19 28.07.2019
4510 Clear 37 1004 14 10000 2.1 80 20:49 28.07.2019
4511 Clear 37 1004 14 10000 2.1 80 20:30 28.07.2019
4512 Clear 39 1003 12 10000 4.1 60 19:57 28.07.2019
4513 Clear 39 1003 12 10000 4.1 60 19:38 28.07.2019
4514 Clear 39 1003 12 10000 4.1 60 19:20 28.07.2019
4515 Clear 40 1002 11 10000 4.1 50 18:44 28.07.2019
4516 Clear 40 1002 11 10000 4.1 50 18:25 28.07.2019
4517 Clear 42 1002 9 10000 6.2 40 17:43 28.07.2019
4518 Clear 42 1002 9 10000 6.2 40 17:22 28.07.2019
4519 Clear 43 1001 8 10000 7.2 10 16:59 28.07.2019
4520 Clear 43 1001 8 10000 7.2 10 16:40 28.07.2019
4521 Clear 43 1001 8 10000 7.2 10 16:22 28.07.2019
4522 Clear 43 1002 10 10000 4.6 60 15:43 28.07.2019
4523 Clear 43 1002 10 10000 4.6 60 15:22 28.07.2019
4524 Clear 43 1002 10 10000 4.6 10 14:38 28.07.2019
4525 Clear 43 1002 10 10000 4.6 10 14:20 28.07.2019
4526 Clear 43 1003 10 10000 3.1 40 13:55 28.07.2019
4527 Clear 43 1003 10 10000 3.1 40 13:36 28.07.2019
4528 Clear 43 1003 10 10000 3.1 40 13:18 28.07.2019
4529 Clear 42 1003 11 10000 4.1 40 12:41 28.07.2019
4530 Clear 42 1003 11 10000 4.1 40 12:41 28.07.2019
4531 Clear 42 1003 11 10000 4.1 40 12:23 28.07.2019
4532 Clear 42 1004 11 10000 3.1 40 11:48 28.07.2019
4533 Clear 42 1004 11 10000 3.1 40 11:27 28.07.2019
4534 Clear 41 1004 12 10000 3.1 90 10:42 28.07.2019
4535 Clear 41 1004 12 10000 3.1 90 10:23 28.07.2019
4536 Clear 41 1004 12 10000 3.1 90 10:23 28.07.2019
4537 Clear 41 1004 12 10000 3.1 90 10:23 28.07.2019
4538 Clear 40 1004 11 10000 4.1 90 09:57 28.07.2019
4539 Clear 40 1004 11 10000 4.1 90 09:38 28.07.2019
4540 Clear 40 1004 11 10000 4.1 90 09:19 28.07.2019
4541 Clear 39 1004 13 10000 1 80 08:41 28.07.2019
4542 Clear 39 1004 13 10000 1 80 08:21 28.07.2019
4543 Clear 35 1004 16 10000 2.1 250 07:39 28.07.2019
4544 Clear 32 1003 17 10000 2.1 240 06:47 28.07.2019
4545 Clear 30 1002 17 10000 2.6 50 05:59 28.07.2019
4546 Clear 30 1002 17 10000 2.6 50 05:18 28.07.2019
4547 Clear 30 1002 23 10000 1 290 02:24 28.07.2019
4548 Clear 31 1002 22 10000 1.5 320 01:25 28.07.2019
4549 Clear 32 1002 22 10000 1 30 00:49 28.07.2019
4550 Clear 32 1002 22 10000 1 30 00:24 28.07.2019
4551 Clear 34 1003 20 10000 1.5 290 23:47 27.07.2019
4552 Clear 34 1003 20 10000 1.5 290 23:22 27.07.2019
4553 Clear 34 1003 20 10000 1.5 350 22:42 27.07.2019
4554 Clear 34 1003 20 10000 1.5 350 22:23 27.07.2019
4555 Clear 36 1003 13 10000 3.1 360 21:44 27.07.2019
4556 Clear 36 1003 13 10000 3.1 360 21:22 27.07.2019
4557 Clear 37 1003 12 10000 3.6 20 20:53 27.07.2019
4558 Clear 37 1003 12 10000 3.6 20 20:26 27.07.2019
4559 Clear 39 1002 11 10000 5.1 20 19:58 27.07.2019
4560 Clear 39 1002 11 10000 5.1 20 19:38 27.07.2019
4561 Clear 39 1002 11 10000 5.1 20 19:19 27.07.2019
4562 Clear 41 1001 9 10000 5.7 360 18:45 27.07.2019
4563 Clear 41 1001 9 10000 5.7 360 18:27 27.07.2019
4564 Clear 42 1001 8 10000 7.2 350 17:42 27.07.2019
4565 Clear 42 1001 8 10000 7.2 350 17:24 27.07.2019
4566 Clear 43 1001 9 10000 7.7 340 16:51 27.07.2019
4567 Clear 43 1001 9 10000 7.7 340 16:32 27.07.2019
4568 Clear 43 1001 8 10000 7.7 350 15:55 27.07.2019
4569 Clear 43 1001 8 10000 7.7 350 15:24 27.07.2019
4570 Clear 44 1001 7 10000 6.7 340 14:51 27.07.2019
4571 Clear 44 1001 7 10000 6.7 340 14:32 27.07.2019
4572 Clear 43 1002 9 10000 5.7 10 13:58 27.07.2019
4573 Clear 43 1002 9 10000 5.7 10 13:39 27.07.2019
4574 Clear 43 1002 9 10000 5.7 10 13:19 27.07.2019
4575 Clear 43 1002 10 10000 4.6 340 12:42 27.07.2019
4576 Clear 43 1002 10 10000 4.6 340 12:22 27.07.2019
4577 Clear 42 1003 10 10000 2.6 20 11:44 27.07.2019
4578 Clear 42 1003 10 10000 2.6 20 11:25 27.07.2019
4579 Clear 42 1003 10 10000 2.6 20 11:25 27.07.2019
4580 Clear 41 1004 10 10000 2.6 340 10:43 27.07.2019
4581 Clear 41 1004 10 10000 2.6 340 10:24 27.07.2019
4582 Clear 41 1004 10 10000 5.79 353.92 09:59 27.07.2019
4583 Clear 41 1004 10 10000 5.79 353.92 09:39 27.07.2019
4584 Clear 41 1004 10 10000 5.79 353.92 09:39 27.07.2019
4585 Clear 41 1004 10 10000 2.01 82.797 09:20 27.07.2019
4586 Clear 37 1004 12 10000 2.6 70 08:42 27.07.2019
4587 Clear 37 1004 12 10000 2.6 70 08:42 27.07.2019
4588 Clear 37 1004 12 10000 2.6 70 08:24 27.07.2019
4589 Clear 35 1004 11 10000 2.1 20 07:42 27.07.2019
4590 Clear 35 1004 11 10000 2.1 20 07:22 27.07.2019
4591 Clear 35 1004 11 10000 2.1 20 07:22 27.07.2019
4592 Clear 31 1004 9 10000 2.1 310 06:52 27.07.2019
4593 Clear 31 1004 17 10000 2.1 310 06:25 27.07.2019
4594 Clear 28 1003 15 10000 1 320 05:37 27.07.2019
4595 Clear 29 1003 17 10000 1 300 04:51 27.07.2019
4596 Clear 29 1002 14 10000 1.5 290 03:55 27.07.2019
4597 Clear 30 1002 13 10000 2.1 300 02:43 27.07.2019
4598 Clear 30 1002 13 10000 1.99 357.004 01:59 27.07.2019
4599 Clear 30 1002 13 10000 1.77 15.017 01:38 27.07.2019
4600 Clear 31 1002 12 10000 1 310 00:49 27.07.2019
4601 Clear 31 1002 12 10000 1 310 00:31 27.07.2019
4602 Clear 33 1003 19 10000 1.5 300 23:44 26.07.2019
4603 Clear 33 1003 19 10000 1.5 300 23:26 26.07.2019
4604 Clear 34 1003 20 10000 1 290 22:44 26.07.2019
4605 Clear 34 1003 20 10000 1 290 22:26 26.07.2019
4606 Clear 34 1003 20 10000 1 340 21:52 26.07.2019
4607 Clear 34 1003 20 10000 1 340 21:21 26.07.2019
4608 Clear 37 1003 13 10000 2.1 10 20:58 26.07.2019
4609 Clear 37 1003 13 10000 2.1 10 20:39 26.07.2019
4610 Clear 37 1003 13 10000 2.1 10 20:21 26.07.2019
4611 Clear 39 1003 10 10000 4.1 20 19:41 26.07.2019
4612 Clear 39 1003 10 10000 4.1 20 19:22 26.07.2019
4613 Clear 40 1003 9 10000 5.7 10 18:44 26.07.2019
4614 Clear 40 1003 9 10000 5.7 10 18:21 26.07.2019
4615 Clear 42 1003 8 10000 7.7 350 17:57 26.07.2019
4616 Clear 42 1003 8 10000 7.7 350 17:38 26.07.2019
4617 Clear 42 1003 8 10000 7.7 350 17:18 26.07.2019
4618 Clear 43 1002 7 10000 8.2 350 16:55 26.07.2019
4619 Clear 43 1002 7 10000 8.2 350 16:36 26.07.2019
4620 Clear 43 1002 7 10000 8.2 350 16:18 26.07.2019
4621 Clear 44 1002 6 10000 6.7 350 15:44 26.07.2019
4622 Clear 44 1002 6 10000 6.7 350 15:22 26.07.2019
4623 Clear 45 1003 5 10000 8.7 350 14:46 26.07.2019
4624 Clear 45 1003 5 10000 8.7 350 14:25 26.07.2019
4625 Clouds 45 1003 5 8000 9.8 330 13:56 26.07.2019
4626 Clouds 45 1003 5 8000 9.8 330 13:36 26.07.2019
4627 Clouds 45 1003 5 8000 9.8 330 13:18 26.07.2019
4628 Clear 44 1004 7 10000 5.1 20 12:42 26.07.2019
4629 Clear 44 1004 7 10000 5.1 20 12:18 26.07.2019
4630 Clear 43 1005 8 10000 3.1 80 11:38 26.07.2019
4631 Clear 43 1005 8 10000 3.1 80 11:19 26.07.2019
4632 Clear 42 1006 8 10000 3.6 70 10:47 26.07.2019
4633 Clear 42 1006 8 10000 3.6 70 10:28 26.07.2019
4634 Clear 41 1006 9 10000 4.1 50 09:53 26.07.2019
4635 Clear 41 1006 9 10000 4.1 50 09:34 26.07.2019
4636 Clear 39 1006 9 10000 2.6 360 08:42 26.07.2019
4637 Clear 39 1006 9 10000 2.6 360 08:21 26.07.2019
4638 Clear 34 1006 9 10000 1.5 300 07:54 26.07.2019
4639 Clear 34 1006 9 10000 1.5 300 07:27 26.07.2019
4640 Clear 31 1006 11 10000 1.5 10 06:41 26.07.2019
4641 Clear 29 1005 13 10000 1.5 340 04:50 26.07.2019
4642 Clear 29 1005 13 10000 1.5 340 04:21 26.07.2019
4643 Clear 31 1004 11 10000 2.1 270 02:39 26.07.2019
4644 Clear 31 1005 12 10000 2.6 330 01:35 26.07.2019
4645 Clear 32 1004 11 10000 2.6 290 00:39 26.07.2019
4646 Clear 33 1005 19 10000 1.5 290 23:56 25.07.2019
4647 Clear 33 1005 19 10000 1.5 290 23:23 25.07.2019
4648 Clear 34 1005 23 10000 3.43 1.086 22:55 25.07.2019
4649 Clear 34 1005 23 10000 3.43 1.086 22:36 25.07.2019
4650 Clear 34 1005 23 10000 3.43 1.086 22:18 25.07.2019
4651 Clear 35 1005 20 10000 1.5 60 21:42 25.07.2019
4652 Clear 35 1005 20 10000 1.5 60 21:21 25.07.2019
4653 Clear 37 1005 18 10000 1.5 50 20:47 25.07.2019
4654 Clear 37 1005 18 10000 1.5 50 20:22 25.07.2019
4655 Clear 39 1005 16 10000 2.1 40 19:44 25.07.2019
4656 Clear 39 1005 16 10000 2.1 40 19:25 25.07.2019
4657 Clear 41 1005 11 10000 3.6 40 18:56 25.07.2019
4658 Clear 41 1005 11 10000 3.6 40 18:38 25.07.2019
4659 Clear 41 1005 11 10000 3.6 40 18:19 25.07.2019
4660 Clear 43 1004 8 10000 6.2 40 17:40 25.07.2019
4661 Clear 43 1004 8 10000 6.2 40 17:22 25.07.2019
4662 Clear 44 1004 7 10000 6.2 50 16:43 25.07.2019
4663 Clear 44 1004 7 10000 6.2 50 16:25 25.07.2019
4664 Clear 44 1004 7 10000 5.7 40 15:51 25.07.2019
4665 Clear 44 1004 7 10000 5.7 40 15:21 25.07.2019
4666 Clear 45 1004 5 10000 7.2 20 14:56 25.07.2019
4667 Clear 45 1004 5 10000 7.2 20 14:38 25.07.2019
4668 Clear 45 1004 5 10000 7.2 20 14:18 25.07.2019
4669 Clear 45 1005 5 10000 7.7 40 13:40 25.07.2019
4670 Clear 45 1005 5 10000 7.7 40 13:22 25.07.2019
4671 Clear 44 1005 7 10000 6.7 50 12:35 25.07.2019
4672 Clear 44 1006 7 10000 5.1 40 11:59 25.07.2019
4673 Clear 44 1006 7 10000 5.1 40 11:40 25.07.2019
4674 Clear 44 1006 7 10000 5.1 40 11:22 25.07.2019
4675 Clear 43 1006 8 10000 5.1 30 10:45 25.07.2019
4676 Clear 43 1006 8 10000 5.1 30 10:24 25.07.2019
4677 Clear 41 1007 9 10000 4.6 40 09:46 25.07.2019
4678 Clear 41 1007 9 10000 4.6 40 09:27 25.07.2019
4679 Clear 41 1007 9 10000 4.6 40 09:27 25.07.2019
4680 Clear 39 1007 10 10000 2.1 350 08:53 25.07.2019
4681 Clear 39 1007 10 10000 2.1 350 08:32 25.07.2019
4682 Clear 37 1007 18 10000 1.5 320 07:40 25.07.2019
4683 Clear 31 1007 22 10000 1.5 290 06:46 25.07.2019
4684 Clear 31 1007 22 10000 1.5 290 06:20 25.07.2019
4685 Clear 28 1006 24 10000 1.5 300 05:36 25.07.2019
4686 Clear 28 1006 24 10000 1 290 04:45 25.07.2019
4687 Clear 30 1005 22 10000 1.5 290 02:26 25.07.2019
4688 Clear 31 1005 20 10000 1 280 01:21 25.07.2019
4689 Clear 32 1005 11 10000 1.5 290 00:31 25.07.2019
4690 Clear 34 1006 23 10000 0.46 133.409 23:56 24.07.2019
4691 Clear 34 1006 23 10000 0.46 133.409 23:38 24.07.2019
4692 Clear 34 1006 23 10000 0.46 133.409 23:19 24.07.2019
4693 Clear 34 1006 23 10000 0.46 133.409 22:44 24.07.2019
4694 Clear 34 1006 23 10000 0.46 133.409 22:22 24.07.2019
4695 Clouds 36 1006 18 8000 1 50 21:55 24.07.2019
4696 Clouds 36 1006 18 8000 1 50 21:37 24.07.2019
4697 Clear 36 1006 18 8000 1 50 21:18 24.07.2019
4698 Clear 38 1005 13 7000 2.6 60 20:40 24.07.2019
4699 Clear 38 1005 13 7000 2.6 60 20:22 24.07.2019
4700 Clear 39 1005 11 7000 3.1 40 19:57 24.07.2019
4701 Clear 39 1005 11 7000 3.1 40 19:39 24.07.2019
4702 Clear 39 1005 11 7000 3.1 40 19:19 24.07.2019
4703 Clear 41 1004 9 7000 5.1 40 18:42 24.07.2019
4704 Clear 41 1004 9 7000 5.1 40 18:23 24.07.2019
4705 Clear 43 1003 7 7000 6.7 40 17:46 24.07.2019
4706 Clear 43 1003 7 7000 6.7 40 17:20 24.07.2019
4707 Clear 43 1003 7 7000 6.7 30 16:44 24.07.2019
4708 Clear 43 1003 7 7000 6.7 30 16:23 24.07.2019
4709 Clear 44 1003 5 8000 8.7 40 15:59 24.07.2019
4710 Clear 44 1003 5 8000 8.7 40 15:36 24.07.2019
4711 Clear 44 1003 5 8000 8.7 40 15:18 24.07.2019
4712 Clear 45 1003 5 8000 8.2 40 14:43 24.07.2019
4713 Clear 45 1003 5 8000 8.2 40 14:19 24.07.2019
4714 Clear 44 1003 5 10000 8.2 20 13:39 24.07.2019
4715 Clear 44 1003 5 10000 8.2 20 13:19 24.07.2019
4716 Clear 43 1004 5 10000 6.2 50 12:51 24.07.2019
4717 Clear 43 1004 5 10000 6.2 50 12:51 24.07.2019
4718 Clear 43 1004 5 10000 6.2 50 12:33 24.07.2019
4719 Clear 42 1004 5 10000 6.7 50 11:40 24.07.2019
4720 Clear 42 1004 5 10000 6.7 50 11:21 24.07.2019
4721 Clear 41 1005 8 10000 5.7 50 10:47 24.07.2019
4722 Clear 41 1005 8 10000 5.7 50 10:26 24.07.2019
4723 Clear 40 1005 10 10000 5.1 30 09:52 24.07.2019
4724 Clear 40 1005 10 10000 5.1 30 09:26 24.07.2019
4725 Clear 38 1005 11 10000 3.6 50 08:58 24.07.2019
4726 Clear 38 1005 11 10000 3.6 50 08:35 24.07.2019
4727 Clear 37 1005 12 10000 3.1 360 07:52 24.07.2019
4728 Clear 37 1005 12 10000 3.1 360 07:31 24.07.2019
4729 Clear 37 1005 12 10000 3.1 360 07:31 24.07.2019
4730 Clear 32 1005 13 10000 2.1 300 06:49 24.07.2019
4731 Clear 32 1005 13 10000 2.1 300 06:23 24.07.2019
4732 Clear 32 1004 13 10000 2.6 290 02:56 24.07.2019
4733 Clear 33 1004 13 10000 2.1 290 01:44 24.07.2019
4734 Clear 33 1004 13 10000 2.6 351.745 00:57 24.07.2019
4735 Clear 33 1004 13 10000 3.96 5.483 00:24 24.07.2019
4736 Clear 34 1004 20 10000 1 10 23:46 23.07.2019
4737 Clear 34 1004 20 10000 1 10 23:25 23.07.2019
4738 Clear 34 1004 20 10000 1 10 23:25 23.07.2019
4739 Clear 36 1004 13 10000 4.1 20 22:56 23.07.2019
4740 Clear 36 1004 13 10000 4.1 20 22:36 23.07.2019
4741 Clear 36 1004 13 10000 4.1 20 22:18 23.07.2019
4742 Clear 36 1004 13 10000 4.1 20 22:18 23.07.2019
4743 Clear 37 1004 13 10000 3.6 360 21:43 23.07.2019
4744 Clear 37 1004 13 10000 3.6 360 21:25 23.07.2019
4745 Clear 38 1004 12 8000 3.6 360 20:48 23.07.2019
4746 Clear 38 1004 12 8000 3.6 360 20:29 23.07.2019
4747 Clear 39 1004 11 6000 4.6 10 19:43 23.07.2019
4748 Clear 39 1004 11 6000 4.6 10 19:24 23.07.2019
4749 Dust 41 1003 9 5000 6.2 20 18:55 23.07.2019
4750 Dust 41 1003 9 5000 6.2 20 18:37 23.07.2019
4751 Dust 41 1003 9 5000 6.2 20 18:19 23.07.2019
4752 Dust 42 1003 8 5000 7.7 20 17:41 23.07.2019
4753 Dust 42 1003 8 5000 7.7 20 17:20 23.07.2019
4754 Dust 43 1002 7 5000 10.3 10 16:42 23.07.2019
4755 Dust 43 1002 7 5000 10.3 10 16:24 23.07.2019
4756 Clear 43 1002 6 6000 8.7 20 15:48 23.07.2019
4757 Clear 43 1002 6 6000 8.7 20 15:29 23.07.2019
4758 Clouds 44 1003 7 6000 8.7 10 14:41 23.07.2019
4759 Clouds 44 1003 7 6000 8.7 10 14:23 23.07.2019
4760 Clouds 44 1003 7 7000 9.3 10 14:00 23.07.2019
4761 Clouds 44 1003 7 7000 9.3 10 13:41 23.07.2019
4762 Clouds 44 1003 7 7000 9.3 10 13:23 23.07.2019
4763 Clear 42 1003 8 10000 6.7 20 12:49 23.07.2019
4764 Clear 42 1003 8 10000 6.7 20 12:28 23.07.2019
4765 Clear 42 1004 9 10000 6.7 20 11:59 23.07.2019
4766 Clear 42 1004 9 10000 6.7 20 11:40 23.07.2019
4767 Clear 42 1004 9 10000 6.7 20 11:20 23.07.2019
4768 Clear 41 1004 9 10000 6.7 30 10:42 23.07.2019
4769 Clear 41 1004 9 10000 6.7 30 10:22 23.07.2019
4770 Clear 40 1005 11 10000 5.1 60 09:42 23.07.2019
4771 Clear 40 1005 11 10000 5.1 60 09:20 23.07.2019
4772 Clear 38 1005 12 10000 2.6 30 08:44 23.07.2019
4773 Clear 38 1005 12 10000 2.6 30 08:20 23.07.2019
4774 Clear 36 1005 11 10000 3.6 340 07:56 23.07.2019
4775 Clear 36 1005 11 10000 3.6 340 07:36 23.07.2019
4776 Clear 33 1005 13 10000 3.1 310 06:50 23.07.2019
4777 Clear 33 1005 13 10000 3.1 310 06:31 23.07.2019
4778 Clear 30 1004 16 10000 3.1 310 03:55 23.07.2019
4779 Clear 33 1003 16 10000 3.6 310 01:35 23.07.2019
4780 Clear 34 1003 15 10000 3.1 310 00:31 23.07.2019
4781 Clear 35 1004 14 10000 3.1 300 23:56 22.07.2019
4782 Clear 35 1004 14 10000 3.1 300 23:38 22.07.2019
4783 Clear 35 1004 14 10000 3.1 300 23:18 22.07.2019
4784 Clear 37 1004 13 10000 4.1 340 22:44 22.07.2019
4785 Clear 37 1004 13 10000 4.1 340 22:21 22.07.2019
4786 Clear 37 1004 13 10000 3.6 340 21:43 22.07.2019
4787 Clear 37 1004 13 10000 3.6 340 21:23 22.07.2019
4788 Clear 38 1004 12 10000 4.6 360 20:51 22.07.2019
4789 Clear 38 1004 12 10000 4.6 360 20:33 22.07.2019
4790 Clear 39 1004 11 10000 4.1 360 19:58 22.07.2019
4791 Clear 39 1004 11 10000 4.1 360 19:38 22.07.2019
4792 Clear 39 1004 11 10000 4.1 360 19:19 22.07.2019
4793 Clear 40 1004 11 10000 5.1 10 18:46 22.07.2019
4794 Clear 40 1004 11 10000 5.1 10 18:27 22.07.2019
4795 Clear 42 1003 8 10000 7.7 20 17:55 22.07.2019
4796 Clear 42 1003 8 10000 7.7 20 17:37 22.07.2019
4797 Clear 42 1003 8 10000 7.7 20 17:18 22.07.2019
4798 Clear 43 1003 8 10000 7.7 360 16:39 22.07.2019
4799 Clear 43 1003 8 10000 7.7 360 16:20 22.07.2019
4800 Clear 43 1003 8 10000 7.7 20 15:44 22.07.2019
4801 Clear 43 1003 8 10000 7.7 20 15:20 22.07.2019
4802 Clear 43 1004 8 10000 8.2 10 14:44 22.07.2019
4803 Clear 43 1004 8 10000 8.2 10 14:22 22.07.2019
4804 Clear 43 1004 9 10000 6.7 350 13:50 22.07.2019
4805 Clear 43 1004 9 10000 6.7 350 13:30 22.07.2019
4806 Clear 43 1005 9 10000 6.2 20 12:51 22.07.2019
4807 Clear 43 1005 9 10000 6.2 20 12:31 22.07.2019
4808 Clear 42 1006 10 10000 5.1 10 11:55 22.07.2019
4809 Clear 42 1006 10 10000 5.1 10 11:36 22.07.2019
4810 Clear 42 1006 10 10000 5.1 10 11:18 22.07.2019
4811 Clear 41 1006 11 10000 5.7 20 10:34 22.07.2019
4812 Clear 39 1006 11 10000 4.1 350 09:46 22.07.2019
4813 Clear 39 1006 11 10000 4.1 350 09:26 22.07.2019
4814 Clear 38 1006 12 10000 3.6 340 08:59 22.07.2019
4815 Clear 38 1006 12 10000 3.6 340 08:38 22.07.2019
4816 Clear 38 1006 12 10000 3.6 340 08:19 22.07.2019
4817 Clear 35 1006 10 10000 3.1 320 07:47 22.07.2019
4818 Clear 35 1006 10 10000 3.1 320 07:27 22.07.2019
4819 Clear 27 1006 13 10000 1.5 290 05:20 22.07.2019
4820 Clear 29 1005 13 10000 2.1 300 02:59 22.07.2019
4821 Clear 30 1006 12 10000 2.1 290 00:59 22.07.2019
4822 Clear 30 1006 12 10000 2.1 290 00:39 22.07.2019
4823 Clear 30 1006 12 10000 2.1 290 00:20 22.07.2019
4824 Clear 32 1006 17 10000 2.6 310 23:45 21.07.2019
4825 Clear 33 1006 16 10000 2.6 310 22:57 21.07.2019
4826 Clear 33 1006 16 10000 2.6 310 22:38 21.07.2019
4827 Clear 33 1006 16 10000 2.6 310 22:20 21.07.2019
4828 Clear 35 1006 13 10000 3.6 350 21:49 21.07.2019
4829 Clear 35 1006 13 10000 3.6 350 21:25 21.07.2019
4830 Clear 36 1006 11 10000 3.1 360 20:57 21.07.2019
4831 Clear 36 1006 11 10000 3.1 360 20:38 21.07.2019
4832 Clear 36 1006 11 10000 3.1 360 20:20 21.07.2019
4833 Clear 38 1006 10 10000 3.6 10 19:47 21.07.2019
4834 Clear 38 1006 10 10000 3.6 10 19:28 21.07.2019
4835 Clear 39 1006 10 10000 4.6 10 18:49 21.07.2019
4836 Clear 39 1006 10 10000 4.6 10 18:26 21.07.2019
4837 Clear 41 1005 6 10000 3.6 10 17:54 21.07.2019
4838 Clear 41 1005 6 10000 3.6 10 17:36 21.07.2019
4839 Clear 41 1005 6 10000 3.6 10 17:18 21.07.2019
4840 Clear 41 1004 7 10000 5.7 20 16:40 21.07.2019
4841 Clear 41 1004 7 10000 5.7 20 16:21 21.07.2019
4842 Clear 42 1004 8 10000 6.7 20 15:39 21.07.2019
4843 Clear 42 1004 8 10000 6.7 20 15:20 21.07.2019
4844 Clear 42 1004 8 10000 6.7 20 15:20 21.07.2019
4845 Clear 42 1005 5 10000 5.7 40 14:42 21.07.2019
4846 Clear 42 1005 5 10000 5.7 40 14:42 21.07.2019
4847 Clear 42 1005 5 10000 5.7 40 14:23 21.07.2019
4848 Clear 42 1005 8 10000 6.2 10 13:53 21.07.2019
4849 Clear 42 1005 8 10000 6.2 10 13:32 21.07.2019
4850 Clear 42 1006 8 10000 6.2 20 12:46 21.07.2019
4851 Clear 42 1006 8 10000 6.2 20 12:28 21.07.2019
4852 Clear 41 1007 10 10000 7.2 340 11:56 21.07.2019
4853 Clear 41 1007 10 10000 7.2 340 11:56 21.07.2019
4854 Clear 41 1007 10 10000 7.2 340 11:38 21.07.2019
4855 Clear 41 1007 10 10000 7.2 340 11:19 21.07.2019
4856 Clear 40 1007 11 10000 8.2 10 10:41 21.07.2019
4857 Clear 40 1007 11 10000 8.2 10 10:23 21.07.2019
4858 Clear 39 1008 11 10000 7.7 10 09:45 21.07.2019
4859 Clear 39 1008 11 10000 7.7 10 09:25 21.07.2019
4860 Clear 37 1008 13 10000 5.1 350 08:45 21.07.2019
4861 Clear 37 1008 13 10000 5.1 350 08:27 21.07.2019
4862 Clear 34 1008 13 10000 4.1 350 07:39 21.07.2019
4863 Clear 30 1008 16 10000 2.6 310 06:52 21.07.2019
4864 Clear 28 1008 20 10000 2.6 290 05:43 21.07.2019
4865 Clear 30 1006 15 10000 3.1 310 02:53 21.07.2019
4866 Clear 30 1006 15 10000 3.6 320 01:24 21.07.2019
4867 Clear 31 1006 20 10000 3.1 310 00:41 21.07.2019
4868 Clear 31 1006 18 10000 3.1 310 00:18 21.07.2019
4869 Clear 33 1007 15 10000 4.1 310 23:42 20.07.2019
4870 Clear 33 1007 15 10000 4.1 310 23:21 20.07.2019
4871 Clear 33 1007 17 10000 3.6 310 22:45 20.07.2019
4872 Clear 33 1007 17 10000 3.6 310 22:22 20.07.2019
4873 Clear 34 1007 15 10000 3.1 300 21:56 20.07.2019
4874 Clear 34 1007 15 10000 3.1 300 21:37 20.07.2019
4875 Clear 34 1007 15 10000 3.1 300 21:18 20.07.2019
4876 Clear 36 1007 13 10000 3.1 350 20:40 20.07.2019
4877 Clear 36 1007 13 10000 3.1 350 20:19 20.07.2019
4878 Clouds 37 1006 12 6000 5.1 10 19:45 20.07.2019
4879 Clouds 37 1006 12 6000 5.1 10 19:20 20.07.2019
4880 Dust 38 1006 10 5000 7.2 10 18:42 20.07.2019
4881 Dust 38 1006 10 5000 7.2 10 18:20 20.07.2019
4882 Dust 39 1005 10 5000 7.7 20 17:53 20.07.2019
4883 Dust 39 1005 10 5000 7.7 20 17:23 20.07.2019
4884 Dust 40 1005 8 5000 7.7 10 16:44 20.07.2019
4885 Dust 40 1005 8 5000 7.7 10 16:26 20.07.2019
4886 Dust 41 1005 9 5000 7.7 10 15:58 20.07.2019
4887 Dust 41 1005 9 5000 7.7 10 15:38 20.07.2019
4888 Dust 41 1005 9 5000 7.7 10 15:20 20.07.2019
4889 Clear 41 1006 10 6000 7.2 10 14:47 20.07.2019
4890 Clear 41 1006 10 6000 7.2 10 14:24 20.07.2019
4891 Clear 41 1006 10 8000 7.7 360 13:39 20.07.2019
4892 Clear 41 1006 10 8000 7.7 360 13:20 20.07.2019
4893 Clear 41 1006 10 8000 7.7 360 13:20 20.07.2019
4894 Clear 40 1006 11 10000 6.7 360 12:54 20.07.2019
4895 Clear 40 1006 11 10000 6.7 360 12:24 20.07.2019
4896 Clear 39 1007 12 10000 6.7 10 11:57 20.07.2019
4897 Clear 39 1007 12 10000 6.7 10 11:24 20.07.2019
4898 Clear 38 1008 13 10000 8.7 10 10:55 20.07.2019
4899 Clear 38 1008 13 10000 8.7 10 10:36 20.07.2019
4900 Clear 38 1008 13 10000 8.7 10 10:18 20.07.2019
4901 Clear 36 1008 14 10000 8.2 10 09:45 20.07.2019
4902 Clear 36 1008 14 10000 8.2 10 09:18 20.07.2019
4903 Clear 36 1008 14 10000 6.2 360 08:44 20.07.2019
4904 Clear 36 1008 14 10000 6.2 360 08:20 20.07.2019
4905 Clear 34 1007 12 10000 5.1 350 07:20 20.07.2019
4906 Clear 32 1008 12 10000 4.6 330 06:41 20.07.2019
4907 Clear 28 1007 17 10000 2.1 300 04:31 20.07.2019
4908 Clear 30 1006 15 10000 3.1 310 03:28 20.07.2019
4909 Dust 34 1006 13 4000 4.1 340 01:21 20.07.2019
4910 Dust 34 1006 13 4000 4.1 340 01:21 20.07.2019
4911 Dust 35 1006 12 4000 5.7 350 00:46 20.07.2019
4912 Dust 35 1006 12 4000 5.7 350 00:21 20.07.2019
4913 Dust 36 1006 14 4000 5.7 350 23:44 19.07.2019
4914 Dust 36 1006 14 4000 5.7 350 23:25 19.07.2019
4915 Dust 37 1007 13 3000 7.2 360 22:50 19.07.2019
4916 Dust 37 1007 13 3000 7.2 360 22:26 19.07.2019
4917 Dust 38 1006 13 4000 7.7 10 21:51 19.07.2019
4918 Dust 38 1006 13 4000 7.7 10 21:33 19.07.2019
4919 Dust 39 1006 11 3000 7.7 10 20:58 19.07.2019
4920 Dust 39 1006 11 3000 7.7 10 20:38 19.07.2019
4921 Dust 39 1006 11 3000 7.7 10 20:20 19.07.2019
4922 Dust 39 1006 11 2000 8.7 20 19:35 19.07.2019
4923 Sand 40 1005 9 1000 11.3 20 18:43 19.07.2019
4924 Sand 40 1005 9 1000 11.3 20 18:25 19.07.2019
4925 Sand 41 1004 9 1000 11.8 10 17:56 19.07.2019
4926 Sand 41 1004 9 1000 11.8 10 17:29 19.07.2019
4927 Sand 42 1004 8 1000 11.3 20 16:57 19.07.2019
4928 Sand 42 1004 8 1000 11.3 20 16:39 19.07.2019
4929 Sand 42 1004 8 1000 11.3 20 16:39 19.07.2019
4930 Sand 42 1004 8 1000 11.3 20 16:18 19.07.2019
4931 Sand 42 1004 9 1000 12.3 10 15:43 19.07.2019
4932 Sand 42 1004 9 1000 12.3 10 15:24 19.07.2019
4933 Sand 42 1004 8 1000 12.3 20 14:45 19.07.2019
4934 Sand 42 1004 8 1000 12.3 20 14:25 19.07.2019
4935 Sand 42 1005 8 1000 12.9 10 13:47 19.07.2019
4936 Sand 42 1005 8 1000 12.9 10 13:27 19.07.2019
4937 Sand 42 1005 9 1000 12.9 10 12:58 19.07.2019
4938 Sand 42 1005 9 1000 12.9 10 12:38 19.07.2019
4939 Sand 42 1005 9 1000 12.9 10 12:19 19.07.2019
4940 Dust 42 1006 9 2000 13.9 360 11:45 19.07.2019
4941 Dust 42 1006 9 2000 13.9 360 11:19 19.07.2019
4942 Dust 42 1006 9 2000 13.9 360 11:19 19.07.2019
4943 Dust 41 1006 11 4000 11.8 10 10:48 19.07.2019
4944 Dust 41 1006 11 4000 11.8 10 10:23 19.07.2019
4945 Clear 40 1006 11 10000 9.8 360 09:59 19.07.2019
4946 Clear 40 1006 11 10000 9.8 360 09:41 19.07.2019
4947 Clear 40 1006 11 10000 9.8 360 09:22 19.07.2019
4948 Clear 40 1006 11 10000 9.8 360 09:22 19.07.2019
4949 Clear 38 1007 14 10000 6.2 350 08:49 19.07.2019
4950 Clear 38 1007 14 10000 6.2 350 08:22 19.07.2019
4951 Clear 36 1006 13 10000 5.7 330 07:29 19.07.2019
4952 Clear 32 1006 15 10000 4.6 310 06:19 19.07.2019
4953 Clear 34 1005 13 9000 4.6 10 02:55 19.07.2019
4954 Dust 35 1005 12 5000 6.2 10 01:21 19.07.2019
4955 Dust 36 1005 11 3000 7.2 360 00:45 19.07.2019
4956 Dust 37 1005 11 3000 6.7 350 23:58 18.07.2019
4957 Dust 37 1005 11 3000 6.7 350 23:40 18.07.2019
4958 Dust 37 1005 11 3000 6.7 350 23:21 18.07.2019
4959 Dust 38 1006 10 3000 5.7 350 22:41 18.07.2019
4960 Dust 38 1006 10 3000 5.7 350 22:20 18.07.2019
4961 Dust 38 1006 11 3000 5.1 330 21:49 18.07.2019
4962 Dust 38 1006 11 3000 5.1 330 21:31 18.07.2019
4963 Dust 38 1005 13 3000 4.1 350 20:55 18.07.2019
4964 Dust 38 1005 13 3000 4.1 350 20:36 18.07.2019
4965 Dust 38 1005 13 3000 4.1 350 20:18 18.07.2019
4966 Dust 39 1005 11 3000 4.6 360 19:45 18.07.2019
4967 Dust 39 1005 11 3000 4.6 360 19:20 18.07.2019
4968 Dust 39 1005 11 3000 6.2 350 18:49 18.07.2019
4969 Dust 39 1005 11 3000 6.2 350 18:21 18.07.2019
4970 Dust 40 1005 9 4000 8.2 360 17:44 18.07.2019
4971 Dust 40 1005 9 4000 8.2 360 17:25 18.07.2019
4972 Dust 41 1004 9 4000 7.7 360 16:58 18.07.2019
4973 Dust 41 1004 9 4000 7.7 360 16:40 18.07.2019
4974 Dust 41 1004 8 5000 8.2 350 16:19 18.07.2019
4975 Dust 41 1004 8 5000 8.2 350 15:53 18.07.2019
4976 Dust 41 1004 8 5000 8.2 350 15:34 18.07.2019
4977 Clear 41 1005 7 8000 8.2 350 14:55 18.07.2019
4978 Clear 41 1005 7 8000 8.2 350 14:36 18.07.2019
4979 Clear 42 1006 8 10000 6.2 330 13:52 18.07.2019
4980 Clear 42 1006 8 10000 6.2 330 13:31 18.07.2019
4981 Clear 40 1006 10 10000 5.7 350 12:57 18.07.2019
4982 Clear 40 1006 10 10000 5.7 350 12:37 18.07.2019
4983 Clear 39 1007 13 10000 4.1 320 12:18 18.07.2019
4984 Clear 39 1007 13 10000 4.1 320 11:47 18.07.2019
4985 Clear 39 1007 13 10000 4.1 320 11:26 18.07.2019
4986 Clear 39 1008 13 10000 5.1 330 10:51 18.07.2019
4987 Clear 38 1008 12 10000 3.1 360 09:51 18.07.2019
4988 Clear 38 1008 12 10000 3.1 360 09:27 18.07.2019
4989 Clear 36 1008 12 10000 3.1 330 08:55 18.07.2019
4990 Clear 36 1008 12 10000 3.1 330 08:25 18.07.2019
4991 Clear 33 1008 14 10000 3.1 300 07:59 18.07.2019
4992 Clear 33 1008 14 10000 3.1 300 07:36 18.07.2019
4993 Clear 29 1008 16 10000 2.1 290 06:55 18.07.2019
4994 Clear 29 1008 16 10000 2.1 290 06:33 18.07.2019
4995 Clear 28 1006 15 10000 2.6 290 03:56 18.07.2019
4996 Clear 29 1006 13 10000 3.1 280 02:51 18.07.2019
4997 Clear 30 1006 12 10000 3.1 290 01:36 18.07.2019
4998 Clear 31 1006 10 10000 2.6 300 00:23 18.07.2019
4999 Clear 32 1007 13 10000 4.6 320 23:45 17.07.2019
5000 Clear 33 1007 14 10000 4.1 320 23:18 17.07.2019
5001 Clear 33 1007 14 10000 4.1 320 22:42 17.07.2019
5002 Clear 33 1007 14 10000 4.1 320 22:23 17.07.2019
5003 Clear 33 1007 14 10000 4.1 320 22:23 17.07.2019
5004 Clear 36 1007 11 10000 4.1 350 21:58 17.07.2019
5005 Clear 36 1007 11 10000 4.1 350 21:38 17.07.2019
5006 Clear 36 1007 11 10000 4.1 350 21:20 17.07.2019
5007 Clear 37 1006 11 10000 4.6 340 20:56 17.07.2019
5008 Clear 37 1006 11 10000 4.6 340 20:56 17.07.2019
5009 Clear 37 1006 11 10000 4.6 340 20:38 17.07.2019
5010 Clear 38 1006 11 10000 4.1 350 20:19 17.07.2019
5011 Clear 38 1006 11 10000 4.1 350 19:42 17.07.2019
5012 Clouds 39 1005 11 10000 5.1 340 19:20 17.07.2019
5013 Clouds 39 1005 11 10000 5.1 340 18:45 17.07.2019
5014 Clouds 41 1005 9 10000 5.1 340 18:21 17.07.2019
5015 Clouds 41 1005 9 10000 5.1 340 17:57 17.07.2019
5016 Clouds 41 1005 9 10000 5.1 340 17:39 17.07.2019
5017 Clouds 41 1005 9 10000 5.1 340 17:20 17.07.2019
5018 Clouds 42 1005 9 10000 5.1 330 16:40 17.07.2019
5019 Clouds 42 1005 11 10000 3.1 350 16:20 17.07.2019
5020 Clouds 42 1005 11 10000 3.1 350 15:51 17.07.2019
5021 Clouds 42 1005 11 10000 3.1 350 15:31 17.07.2019
5022 Clouds 41 1006 10 10000 5.1 310 14:57 17.07.2019
5023 Clouds 41 1006 10 10000 5.1 310 14:38 17.07.2019
5024 Clouds 42 1006 11 10000 5.1 10 14:20 17.07.2019
5025 Clouds 42 1006 11 10000 5.1 10 13:49 17.07.2019
5026 Clouds 42 1006 11 10000 5.1 10 13:31 17.07.2019
5027 Clouds 40 1007 12 10000 4.1 300 12:55 17.07.2019
5028 Clouds 40 1007 12 10000 4.1 300 12:36 17.07.2019
5029 Clouds 40 1007 11 10000 4.1 330 12:18 17.07.2019
5030 Clouds 40 1007 11 10000 4.1 330 11:40 17.07.2019
5031 Clouds 40 1007 11 10000 4.1 330 11:40 17.07.2019
5032 Clouds 40 1007 11 10000 5.1 350 11:19 17.07.2019
5033 Clouds 40 1007 11 10000 5.1 350 10:43 17.07.2019
5034 Clouds 40 1007 11 10000 5.1 350 10:20 17.07.2019
5035 Clouds 39 1008 13 10000 3.1 10 09:45 17.07.2019
5036 Clouds 39 1008 13 10000 3.1 10 09:27 17.07.2019
5037 Clouds 39 1008 13 10000 3.1 10 09:27 17.07.2019
5038 Clouds 35 1008 15 10000 2.1 350 08:44 17.07.2019
5039 Clouds 35 1008 15 10000 2.1 350 08:23 17.07.2019
5040 Clear 34 1008 12 10000 4.6 320 07:55 17.07.2019
5041 Clear 34 1008 12 10000 4.6 320 07:36 17.07.2019
5042 Clear 30 1007 11 10000 2.6 290 07:18 17.07.2019
5043 Clear 30 1007 11 10000 2.6 290 06:41 17.07.2019
5044 Clear 30 1007 15 10000 2.6 290 06:22 17.07.2019
5045 Clear 29 1006 14 10000 2.6 280 05:33 17.07.2019
5046 Clear 29 1006 14 10000 2.6 300 04:56 17.07.2019
5047 Clear 31 1005 12 10000 3.1 350 03:50 17.07.2019
5048 Clear 30 1005 12 10000 2.6 300 02:32 17.07.2019
5049 Clear 32 1004 11 10000 1 280 01:41 17.07.2019
5050 Clear 32 1005 11 10000 1 320 01:21 17.07.2019
5051 Clear 32 1005 11 10000 1 320 00:38 17.07.2019
5052 Clear 32 1005 11 10000 1 320 00:38 17.07.2019
5053 Clear 33 1005 21 10000 2.1 10 00:20 17.07.2019
5054 Clear 33 1005 21 10000 2.1 10 23:44 16.07.2019
5055 Clear 34 1005 20 10000 1 20 23:22 16.07.2019
5056 Clear 34 1005 20 10000 1 20 22:43 16.07.2019
5057 Clear 34 1005 20 10000 1 20 22:25 16.07.2019
5058 Clear 34 1005 20 10000 1 10 21:57 16.07.2019
5059 Clear 34 1005 20 10000 1 10 21:39 16.07.2019
5060 Clear 36 1005 12 10000 2.6 30 21:19 16.07.2019
5061 Clear 36 1005 12 10000 2.6 30 20:41 16.07.2019
5062 Clear 36 1005 12 10000 2.6 30 20:23 16.07.2019
5063 Clear 36 1005 12 10000 2.6 30 20:23 16.07.2019
5064 Clouds 38 1004 12 10000 3.6 30 19:54 16.07.2019
5065 Clouds 38 1004 12 10000 3.6 30 19:30 16.07.2019
5066 Clouds 40 1004 10 10000 4.6 20 18:59 16.07.2019
5067 Clouds 40 1004 10 10000 4.6 20 18:40 16.07.2019
5068 Clouds 41 1003 9 10000 5.7 340 18:20 16.07.2019
5069 Clouds 41 1003 9 10000 5.7 340 17:49 16.07.2019
5070 Clouds 41 1003 9 10000 5.7 340 17:49 16.07.2019
5071 Clouds 41 1003 9 10000 5.7 340 17:28 16.07.2019
5072 Clouds 42 1003 6 10000 5.1 350 16:50 16.07.2019
5073 Clouds 42 1003 6 10000 5.1 350 16:27 16.07.2019
5074 Clouds 43 1003 8 9000 6.2 350 15:57 16.07.2019
5075 Clouds 43 1003 8 9000 6.2 350 15:38 16.07.2019
5076 Clouds 43 1003 8 9000 6.2 350 15:38 16.07.2019
5077 Clouds 43 1004 8 9000 7.7 340 15:19 16.07.2019
5078 Clouds 43 1004 8 9000 7.7 340 14:47 16.07.2019
5079 Clouds 43 1004 8 9000 7.7 340 14:28 16.07.2019
5080 Clear 43 1004 9 10000 6.2 340 13:57 16.07.2019
5081 Clear 43 1004 9 10000 6.2 340 13:37 16.07.2019
5082 Clear 43 1005 9 10000 5.1 350 13:18 16.07.2019
5083 Clear 43 1005 9 10000 5.1 350 12:43 16.07.2019
5084 Clear 42 1005 9 10000 5.7 300 12:20 16.07.2019
5085 Clear 42 1005 9 10000 5.7 300 11:54 16.07.2019
5086 -273 0 0 0 0 0 11:36 16.07.2019
5087 Clear 42 1005 9 10000 5.7 300 11:36 16.07.2019
5088 Clear 41 1006 9 10000 3.6 330 11:18 16.07.2019
5089 Clear 41 1006 9 10000 3.6 330 10:43 16.07.2019
5090 Clear 40 1006 11 10000 4.1 30 10:20 16.07.2019
5091 -273 0 0 0 0 0 09:44 16.07.2019
5092 Clear 37 1006 12 10000 3.6 20 09:21 16.07.2019
5093 Clear 37 1006 12 10000 3.6 20 08:49 16.07.2019
5094 Clear 37 1006 12 10000 3.6 20 08:27 16.07.2019
5095 Clear 35 1006 10 10000 3.1 320 07:57 16.07.2019
5096 Clear 35 1006 10 10000 3.1 320 07:36 16.07.2019
5097 Clear 31 1006 11 10000 2.6 290 06:59 16.07.2019
5098 Clear 31 1006 11 10000 2.6 290 06:37 16.07.2019
5099 Clear 28 1005 13 10000 2.6 290 05:52 16.07.2019
5100 Clear 28 1005 13 10000 2.6 290 05:28 16.07.2019
5101 Clear 29 1004 12 10000 3.1 310 04:45 16.07.2019
5102 Clear 28 1004 12 10000 2.6 300 03:43 16.07.2019
5103 Clear 29 1004 12 10000 1 310 02:46 16.07.2019
5104 Clear 29 1004 12 10000 1 310 02:28 16.07.2019
5105 Clear 29 1004 12 10000 2.25 11.555 01:36 16.07.2019
5106 Clear 31 1005 10 10000 1.5 320 00:27 16.07.2019
5107 Clear 31 1005 10 10000 2.1 300 23:59 15.07.2019
5108 Clear 31 1005 10 10000 2.1 300 23:39 15.07.2019
5109 Clear 31 1005 10 10000 2.1 300 23:39 15.07.2019
5110 Clear 33 1006 9 10000 2.6 300 23:21 15.07.2019
5111 Clear 33 1006 9 10000 2.6 300 22:46 15.07.2019
5112 Clear 34 1006 9 10000 2.6 310 22:20 15.07.2019
5113 Clear 34 1006 9 10000 2.6 310 21:57 15.07.2019
5114 Clear 34 1006 9 10000 2.6 310 21:39 15.07.2019
5115 Clear 36 1006 8 10000 2.6 330 21:19 15.07.2019
5116 Clear 36 1006 8 10000 2.6 330 20:44 15.07.2019
5117 Clear 36 1006 8 10000 2.6 330 20:24 15.07.2019
5118 Clear 38 1005 8 10000 3.1 350 19:58 15.07.2019
5119 Clear 38 1005 8 10000 3.1 350 19:38 15.07.2019
5120 Clear 38 1005 8 10000 3.1 350 19:38 15.07.2019
5121 Clear 39 1005 11 10000 5.1 350 19:19 15.07.2019
5122 Clear 39 1005 11 10000 5.1 350 18:46 15.07.2019
5123 Clear 41 1004 7 10000 6.7 350 18:22 15.07.2019
5124 Clear 41 1004 7 10000 6.7 350 17:57 15.07.2019
5125 Clear 41 1004 7 10000 6.7 350 17:39 15.07.2019
5126 Clear 42 1004 7 10000 6.2 330 17:21 15.07.2019
5127 Clear 42 1004 7 10000 6.2 330 16:57 15.07.2019
5128 Clear 42 1004 7 10000 6.2 330 16:37 15.07.2019
5129 Clear 42 1004 7 9000 5.7 340 16:18 15.07.2019
5130 Clear 42 1004 7 9000 5.7 340 15:40 15.07.2019
5131 Clear 42 1004 6 9000 5.7 340 15:22 15.07.2019
5132 Clear 43 1005 7 9000 5.1 330 14:58 15.07.2019
5133 Clear 43 1005 7 9000 5.1 330 14:38 15.07.2019
5134 Clear 42 1006 6 9000 5.7 350 14:19 15.07.2019
5135 Clear 42 1006 6 9000 5.7 350 13:46 15.07.2019
5136 Clear 42 1006 8 10000 4.6 340 13:18 15.07.2019
5137 Clear 42 1006 8 10000 4.6 340 12:44 15.07.2019
5138 Clear 42 1006 8 10000 4.6 340 12:25 15.07.2019
5139 Clear 42 1007 6 10000 4.6 340 11:45 15.07.2019
5140 Clear 42 1007 6 10000 4.6 340 11:26 15.07.2019
5141 Clear 41 1007 6 10000 3.6 330 10:59 15.07.2019
5142 Clear 41 1007 6 10000 3.6 330 10:40 15.07.2019
5143 Clear 41 1007 6 10000 3.6 330 10:22 15.07.2019
5144 Clear 39 1007 7 10000 3.1 320 09:42 15.07.2019
5145 Clear 37 1007 7 10000 2.1 220 09:19 15.07.2019
5146 Clear 37 1007 7 10000 2.1 220 08:45 15.07.2019
5147 Clear 37 1007 7 10000 2.1 220 08:24 15.07.2019
5148 Clear 35 1007 8 10000 1.5 220 07:43 15.07.2019
5149 Clear 32 1007 9 10000 1 240 07:21 15.07.2019
5150 Clear 32 1007 9 10000 1 240 06:40 15.07.2019
5151 Clear 28 1006 12 10000 0.45 286.6 06:20 15.07.2019
5152 Clear 28 1006 12 10000 0.45 286.6 05:42 15.07.2019
5153 Clear 28 1006 11 10000 1 260 04:45 15.07.2019
5154 Clear 28 1006 11 10000 1 260 04:23 15.07.2019
5155 Clear 29 1006 11 10000 1 250 03:23 15.07.2019
5156 Clear 29 1006 11 10000 1.5 320 02:18 15.07.2019
5157 Clear 29 1006 11 10000 1.5 320 01:34 15.07.2019
5158 Clear 30 1006 10 10000 2.6 320 00:53 15.07.2019
5159 Clear 30 1006 10 10000 2.6 320 00:53 15.07.2019
5160 Clear 30 1006 10 10000 2.6 320 00:53 15.07.2019
5161 Clear 30 1006 10 10000 2.6 320 00:28 15.07.2019
5162 Clear 31 1007 10 10000 2.6 320 23:58 14.07.2019
5163 Clear 31 1007 10 10000 2.6 320 23:39 14.07.2019
5164 Clear 33 1007 9 10000 3.1 340 23:19 14.07.2019
5165 Clear 33 1007 9 10000 3.1 340 22:57 14.07.2019
5166 Clear 33 1007 9 10000 3.1 340 22:38 14.07.2019
5167 Clear 35 1007 8 10000 3.6 350 22:19 14.07.2019
5168 Clear 35 1007 8 10000 3.6 350 21:42 14.07.2019
5169 Clear 36 1007 7 10000 3.1 350 21:19 14.07.2019
5170 Clear 36 1007 7 10000 3.1 350 20:57 14.07.2019
5171 Clear 36 1007 7 10000 3.1 350 20:38 14.07.2019
5172 Clear 37 1006 8 10000 4.6 350 20:19 14.07.2019
5173 Clear 37 1006 8 10000 4.6 350 19:45 14.07.2019
5174 Clear 37 1006 8 10000 4.6 350 19:45 14.07.2019
5175 Clear 37 1006 8 10000 4.6 350 19:27 14.07.2019
5176 Clear 39 1006 7 10000 7.2 360 18:58 14.07.2019
5177 Clear 39 1006 7 10000 7.2 360 18:39 14.07.2019
5178 Clear 40 1005 7 10000 7.7 350 18:21 14.07.2019
5179 Clear 40 1005 7 10000 7.7 350 17:53 14.07.2019
5180 Clear 42 1005 6 10000 6.7 310 17:22 14.07.2019
5181 Clear 42 1005 6 10000 6.7 310 16:52 14.07.2019
5182 Clear 42 1005 6 10000 6.7 310 16:24 14.07.2019
5183 Clear 43 1005 6 10000 6.2 330 15:56 14.07.2019
5184 Clear 43 1005 6 10000 6.2 330 15:34 14.07.2019
5185 Clear 43 1005 6 10000 7.7 330 14:55 14.07.2019
5186 Clear 43 1005 6 10000 7.7 330 14:36 14.07.2019
5187 Clear 42 1006 6 10000 7.7 340 14:18 14.07.2019
5188 Clear 42 1006 6 10000 7.7 340 13:44 14.07.2019
5189 Clear 42 1006 6 10000 7.7 340 13:21 14.07.2019
5190 Clear 41 1006 7 10000 4.1 310 12:43 14.07.2019
5191 Clear 41 1006 7 10000 4.1 310 12:22 14.07.2019
5192 Clear 41 1007 7 10000 5.1 340 11:56 14.07.2019
5193 Clear 41 1007 7 10000 5.1 340 11:37 14.07.2019
5194 Clear 40 1007 7 10000 1.5 40 11:19 14.07.2019
5195 Clear 40 1007 7 10000 1.5 40 10:42 14.07.2019
5196 Clear 40 1008 7 10000 3.1 360 10:19 14.07.2019
5197 Clear 40 1008 7 10000 3.1 360 09:44 14.07.2019
5198 Clear 40 1008 7 10000 3.1 360 09:24 14.07.2019
5199 Clear 38 1008 8 10000 3.6 350 08:44 14.07.2019
5200 Clear 35 1008 10 10000 4.1 320 07:58 14.07.2019
5201 Clear 35 1008 10 10000 4.1 320 07:39 14.07.2019
5202 Clear 31 1008 9 10000 3.1 320 06:57 14.07.2019
5203 Clear 29 1007 14 10000 2.1 300 05:45 14.07.2019
5204 Clear 29 1006 13 10000 3.6 300 03:48 14.07.2019
5205 Clear 29 1006 13 10000 3.6 300 03:29 14.07.2019
5206 Clear 29 1006 13 10000 2.6 300 02:41 14.07.2019
5207 Clear 30 1006 12 10000 2.6 300 02:21 14.07.2019
5208 Clear 30 1006 12 10000 2.6 300 01:33 14.07.2019
5209 Clear 31 1006 11 10000 2.1 300 00:57 14.07.2019
5210 Clear 31 1006 11 10000 2.1 300 00:38 14.07.2019
5211 Clear 33 1007 10 10000 2.6 340 00:19 14.07.2019
5212 Clear 33 1007 10 10000 2.6 340 23:44 13.07.2019
5213 Clear 33 1007 10 10000 2.6 340 23:25 13.07.2019
5214 Clear 34 1007 9 10000 3.6 320 22:47 13.07.2019
5215 Clear 34 1007 9 10000 3.6 320 22:26 13.07.2019
5216 Clear 34 1007 9 10000 2.6 360 21:58 13.07.2019
5217 Clear 34 1007 9 10000 2.6 360 21:39 13.07.2019
5218 Clear 36 1006 8 10000 3.6 10 21:19 13.07.2019
5219 Clear 36 1006 8 10000 3.6 10 20:41 13.07.2019
5220 Clear 36 1006 8 10000 3.6 10 20:23 13.07.2019
5221 Clear 39 1006 6 10000 5.1 360 19:43 13.07.2019
5222 Clear 39 1006 6 10000 5.1 360 19:25 13.07.2019
5223 Clear 39 1005 6 10000 5.7 360 18:42 13.07.2019
5224 Clear 41 1005 5 10000 6.2 360 18:20 13.07.2019
5225 Clear 41 1005 5 10000 6.2 360 17:38 13.07.2019
5226 Clear 41 1005 5 10000 6.2 360 17:20 13.07.2019
5227 Clear 42 1005 6 10000 5.1 330 16:46 13.07.2019
5228 Clear 42 1005 6 10000 5.1 330 16:26 13.07.2019
5229 Clear 43 1005 6 10000 6.2 320 15:59 13.07.2019
5230 Clear 43 1005 6 10000 6.2 320 15:40 13.07.2019
5231 Clear 44 1005 5 10000 6.7 340 15:20 13.07.2019
5232 Clear 44 1005 5 10000 6.7 340 14:41 13.07.2019
5233 Clear 44 1005 5 10000 6.7 340 14:21 13.07.2019
5234 Clear 43 1006 6 10000 5.7 330 13:45 13.07.2019
5235 Clear 43 1006 6 10000 5.7 330 13:24 13.07.2019
5236 Clear 42 1006 6 10000 5.1 340 12:42 13.07.2019
5237 Clear 41 1007 7 10000 6.2 350 12:23 13.07.2019
5238 Clear 41 1007 7 10000 6.2 350 11:59 13.07.2019
5239 Clear 41 1007 7 10000 6.2 350 11:38 13.07.2019
5240 Clear 40 1007 8 10000 5.7 350 11:19 13.07.2019
5241 Clear 40 1007 8 10000 5.7 350 10:42 13.07.2019
5242 Clear 40 1007 8 10000 5.7 350 10:23 13.07.2019
5243 Clear 40 1008 8 10000 4.1 340 09:50 13.07.2019
5244 Clear 40 1008 8 10000 4.1 340 09:30 13.07.2019
5245 Clear 38 1008 9 10000 4.6 320 08:56 13.07.2019
5246 Clear 38 1008 9 10000 4.6 320 08:28 13.07.2019
5247 Clear 34 1007 10 10000 2.6 310 07:55 13.07.2019
5248 Clear 34 1007 10 10000 2.6 310 07:28 13.07.2019
5249 Clear 31 1007 11 10000 3.1 300 06:32 13.07.2019
5250 Clear 28 1007 13 10000 3.1 290 05:49 13.07.2019
5251 Clear 28 1006 12 10000 1.5 300 04:41 13.07.2019
5252 Clear 29 1006 12 10000 2.6 300 04:21 13.07.2019
5253 Clear 29 1006 12 10000 2.6 300 03:42 13.07.2019
5254 Clear 30 1006 10 10000 3.6 300 03:18 13.07.2019
5255 Clear 31 1006 10 10000 4.1 300 01:53 13.07.2019
5256 Clear 31 1006 10 10000 4.1 300 01:53 13.07.2019
5257 Clear 31 1006 9 10000 3.6 300 01:21 13.07.2019
5258 Clear 31 1006 9 10000 3.6 300 00:59 13.07.2019
5259 Clear 32 1006 8 10000 3.6 300 00:21 13.07.2019
5260 Clear 32 1006 8 10000 3.6 300 23:55 12.07.2019
5261 Clear 32 1006 8 10000 3.6 300 23:34 12.07.2019
5262 Clear 33 1006 7 10000 2.6 300 22:59 12.07.2019
5263 Clear 33 1006 7 10000 2.6 300 22:41 12.07.2019
5264 Clear 34 1006 7 10000 3.6 320 22:22 12.07.2019
5265 Clear 34 1006 7 10000 3.6 320 21:42 12.07.2019
5266 Clear 37 1006 7 10000 4.1 330 21:21 12.07.2019
5267 Clear 37 1006 7 10000 4.1 330 20:52 12.07.2019
5268 Clear 37 1006 7 10000 4.1 330 20:23 12.07.2019
5269 Clear 38 1005 5 10000 4.1 330 19:44 12.07.2019
5270 Clear 38 1005 5 10000 4.1 330 19:26 12.07.2019
5271 Clear 40 1005 5 10000 6.7 340 18:58 12.07.2019
5272 Clear 40 1005 5 10000 6.7 340 18:37 12.07.2019
5273 Clear 41 1004 5 10000 7.2 330 18:19 12.07.2019
5274 Clear 41 1004 5 10000 7.2 330 17:45 12.07.2019
5275 Clear 41 1004 5 10000 7.2 330 17:27 12.07.2019
5276 Clear 43 1004 4 10000 6.2 340 16:38 12.07.2019
5277 Clear 43 1004 5 10000 6.7 330 16:20 12.07.2019
5278 Clear 43 1004 5 10000 6.7 330 15:41 12.07.2019
5279 Clear 43 1005 6 10000 7.7 320 15:20 12.07.2019
5280 Clear 43 1005 6 10000 7.7 320 14:47 12.07.2019
5281 Clear 43 1005 6 10000 7.7 320 14:47 12.07.2019
5282 Clear 43 1005 6 10000 7.7 320 14:22 12.07.2019
5283 Clear 43 1005 6 10000 7.2 340 13:55 12.07.2019
5284 Clear 43 1005 6 10000 7.2 340 13:37 12.07.2019
5285 Clear 42 1006 6 10000 6.7 340 12:55 12.07.2019
5286 Clear 42 1006 6 10000 6.7 340 12:37 12.07.2019
5287 Clear 41 1006 7 10000 4.6 360 12:18 12.07.2019
5288 Clear 41 1006 7 10000 4.6 360 11:43 12.07.2019
5289 Clear 40 1007 7 10000 5.1 10 11:20 12.07.2019
5290 Clear 40 1007 7 10000 5.1 10 10:43 12.07.2019
5291 Clear 40 1007 7 10000 5.1 10 10:23 12.07.2019
5292 Clear 40 1007 7 10000 4.6 360 09:54 12.07.2019
5293 Clear 40 1007 7 10000 4.6 360 09:30 12.07.2019
5294 Clear 38 1007 8 10000 5.7 330 08:58 12.07.2019
5295 Clear 38 1007 8 10000 5.7 330 08:39 12.07.2019
5296 Clear 35 1007 9 10000 4.6 320 08:18 12.07.2019
5297 Clear 35 1007 9 10000 4.6 320 07:32 12.07.2019
5298 Clear 35 1007 9 10000 4.6 320 07:32 12.07.2019
5299 Clear 32 1006 9 10000 2.1 310 06:59 12.07.2019
5300 Clear 32 1006 9 10000 2.1 310 06:28 12.07.2019
5301 Clear 27 1006 10 10000 2.6 290 05:42 12.07.2019
5302 Clear 28 1004 10 10000 3.1 290 03:22 12.07.2019
5303 Clear 30 1004 10 10000 3.6 300 01:41 12.07.2019
5304 Clear 31 1004 10 10000 3.1 280 00:58 12.07.2019
5305 Clear 32 1005 10 10000 2.6 300 00:20 12.07.2019
5306 Clear 32 1005 10 10000 2.6 300 23:48 11.07.2019
5307 Clear 32 1005 10 10000 2.6 300 23:26 11.07.2019
5308 Clear 33 1005 10 10000 2.1 340 22:55 11.07.2019
5309 Clear 33 1005 10 10000 2.1 340 22:37 11.07.2019
5310 Clear 35 1005 8 10000 3.1 320 22:19 11.07.2019
5311 Clear 35 1005 8 10000 3.1 320 21:40 11.07.2019
5312 Clear 37 1005 7 10000 3.6 340 21:18 11.07.2019
5313 Clear 37 1005 7 10000 3.6 340 20:43 11.07.2019
5314 Clear 37 1005 7 10000 3.6 340 20:24 11.07.2019
5315 Clear 37 1005 7 10000 3.6 340 20:24 11.07.2019
5316 Clear 38 1004 6 10000 4.1 340 19:59 11.07.2019
5317 Clear 38 1004 6 10000 4.1 340 19:40 11.07.2019
5318 Clear 38 1004 6 10000 4.1 340 19:22 11.07.2019
5319 Clear 40 1004 6 10000 6.2 340 18:43 11.07.2019
5320 Clear 40 1004 6 10000 6.2 340 18:25 11.07.2019
5321 Clear 41 1003 5 10000 7.2 340 17:53 11.07.2019
5322 Clear 41 1003 5 10000 7.2 340 17:31 11.07.2019
5323 Clear 42 1003 6 10000 7.2 330 16:58 11.07.2019
5324 Clear 42 1003 6 10000 7.2 330 16:40 11.07.2019
5325 Clear 43 1003 6 10000 8.2 340 16:19 11.07.2019
5326 Clear 43 1003 6 10000 8.2 340 16:19 11.07.2019
5327 Clear 43 1003 6 10000 8.2 340 15:43 11.07.2019
5328 Clear 43 1003 6 10000 8.2 340 15:24 11.07.2019
5329 Clear 43 1003 6 10000 7.7 320 14:46 11.07.2019
5330 Clear 43 1003 6 10000 7.7 320 14:25 11.07.2019
5331 Clear 42 1003 6 10000 6.7 310 13:59 11.07.2019
5332 Clear 42 1003 6 10000 6.7 310 13:41 11.07.2019
5333 Clear 42 1004 6 10000 7.7 310 13:23 11.07.2019
5334 Clear 42 1004 6 10000 7.7 310 12:38 11.07.2019
5335 Clear 41 1005 6 10000 5.1 310 12:19 11.07.2019
5336 Clear 41 1005 6 10000 5.1 310 11:45 11.07.2019
5337 Clear 41 1005 6 10000 5.1 310 11:27 11.07.2019
5338 Clear 41 1005 6 10000 4.1 330 10:52 11.07.2019
5339 Clear 40 1005 8 10000 6.2 340 10:20 11.07.2019
5340 Clear 41 1005 6 10000 4.1 330 10:20 11.07.2019
5341 Clear 40 1005 8 10000 6.2 340 09:56 11.07.2019
5342 Clear 40 1005 8 10000 6.2 340 09:36 11.07.2019
5343 Clear 40 1005 8 10000 6.2 340 09:36 11.07.2019
5344 Clear 38 1005 9 10000 4.6 330 09:18 11.07.2019
5345 Clear 38 1005 9 10000 4.6 330 08:42 11.07.2019
5346 Clear 35 1005 9 10000 3.6 320 08:20 11.07.2019
5347 Clear 35 1005 9 10000 3.6 320 07:45 11.07.2019
5348 Clear 30 1005 15 10000 1.5 80 07:23 11.07.2019
5349 Clear 27 1004 15 10000 1.5 300 06:21 11.07.2019
5350 Clear 27 1004 15 10000 1.5 300 05:33 11.07.2019
5351 Clear 27 1003 15 10000 2.1 290 04:57 11.07.2019
5352 Clear 28 1003 14 10000 1.5 290 03:58 11.07.2019
5353 Clear 29 1003 13 10000 2.1 280 02:31 11.07.2019
5354 Clear 31 1003 11 10000 2.1 280 00:42 11.07.2019
5355 Clear 32 1003 11 10000 3.1 280 23:51 10.07.2019
5356 Clear 32 1003 11 10000 3.1 280 23:28 10.07.2019
5357 Clear 33 1003 11 10000 3.6 300 22:58 10.07.2019
5358 Clear 33 1003 11 10000 3.6 300 22:26 10.07.2019
5359 Clear 34 1003 9 10000 2.6 310 21:57 10.07.2019
5360 Clear 34 1003 9 10000 2.6 310 21:39 10.07.2019
5361 Clear 36 1003 8 10000 3.6 350 21:21 10.07.2019
5362 Clear 36 1003 8 10000 3.6 350 20:47 10.07.2019
5363 Clear 36 1003 8 10000 3.6 350 20:26 10.07.2019
5364 Clear 38 1002 8 10000 4.6 340 19:58 10.07.2019
5365 Clear 38 1002 8 10000 4.6 340 19:40 10.07.2019
5366 Clear 39 1002 8 10000 6.2 330 19:20 10.07.2019
5367 Clear 39 1002 8 10000 6.2 330 18:46 10.07.2019
5368 Clear 41 1001 6 10000 6.7 330 18:24 10.07.2019
5369 Clear 41 1001 6 10000 6.7 330 17:49 10.07.2019
5370 Clear 41 1001 6 10000 6.7 330 17:30 10.07.2019
5371 Clear 42 1001 6 10000 7.7 330 16:48 10.07.2019
5372 Clear 43 1001 6 10000 5.7 330 16:21 10.07.2019
5373 Clear 43 1001 6 10000 5.7 330 16:21 10.07.2019
5374 Clear 43 1001 6 10000 5.7 330 15:47 10.07.2019
5375 Clear 43 1001 6 10000 5.7 330 15:47 10.07.2019
5376 Clear 43 1001 6 10000 5.7 330 15:26 10.07.2019
5377 Clear 42 1001 6 10000 5.1 290 14:59 10.07.2019
5378 Clear 42 1001 6 10000 5.1 290 14:37 10.07.2019
5379 Clear 42 1002 6 10000 7.2 310 14:19 10.07.2019
5380 Clear 42 1002 6 10000 7.2 310 13:38 10.07.2019
5381 Clear 42 1003 6 10000 6.7 320 13:18 10.07.2019
5382 Clear 42 1003 6 10000 6.7 320 12:41 10.07.2019
5383 Clear 41 1003 7 10000 5.7 320 12:21 10.07.2019
5384 Clear 41 1003 7 10000 5.7 320 11:50 10.07.2019
5385 Clear 41 1003 7 10000 5.7 320 11:22 10.07.2019
5386 Clear 40 1004 7 10000 5.7 330 10:58 10.07.2019
5387 Clear 39 1004 7 10000 6.2 340 10:24 10.07.2019
5388 Clear 39 1004 7 10000 6.2 340 09:59 10.07.2019
5389 Clear 39 1004 7 10000 6.2 340 09:41 10.07.2019
5390 Clear 39 1004 7 10000 6.2 340 09:20 10.07.2019
5391 Clear 37 1004 7 10000 6.2 330 08:49 10.07.2019
5392 Clear 37 1004 7 10000 6.2 330 08:26 10.07.2019
5393 Clear 34 1005 7 10000 5.7 330 07:51 10.07.2019
5394 Clear 34 1005 7 10000 5.7 330 07:24 10.07.2019
5395 Clear 32 1005 9 10000 4.1 320 06:40 10.07.2019
5396 Clear 29 1004 12 10000 3.6 300 05:42 10.07.2019
5397 Clear 29 1003 12 10000 3.1 310 04:33 10.07.2019
5398 Clear 29 1003 12 10000 3.1 310 04:33 10.07.2019
5399 Clear 32 1003 11 10000 5.1 330 02:38 10.07.2019
5400 Clear 32 1004 11 10000 3.6 320 00:44 10.07.2019
5401 Clear 33 1004 11 10000 4.1 330 23:44 09.07.2019
5402 Clear 33 1004 11 10000 4.1 330 23:25 09.07.2019
5403 Clear 34 1005 9 10000 2.1 310 22:58 09.07.2019
5404 Clear 34 1005 9 10000 2.1 310 22:40 09.07.2019
5405 Clear 34 1005 9 10000 2.1 310 22:20 09.07.2019
5406 Clear 36 1005 8 10000 2.6 330 21:47 09.07.2019
5407 Clear 36 1005 8 10000 2.6 330 21:26 09.07.2019
5408 Clear 37 1005 8 10000 3.1 340 20:55 09.07.2019
5409 Clear 37 1005 8 10000 3.1 340 20:36 09.07.2019
5410 Clear 38 1005 8 10000 4.6 350 20:18 09.07.2019
5411 Clear 38 1005 8 10000 4.6 350 19:37 09.07.2019
5412 Clear 39 1004 7 10000 5.7 330 19:19 09.07.2019
5413 Clear 39 1004 7 10000 5.7 330 18:39 09.07.2019
5414 Clouds 41 1003 6 10000 6.2 340 18:19 09.07.2019
5415 Clouds 41 1003 6 10000 6.2 340 17:44 09.07.2019
5416 Clouds 42 1003 6 9000 6.7 330 17:21 09.07.2019
5417 Clouds 42 1003 6 9000 6.7 330 16:58 09.07.2019
5418 Clouds 42 1003 6 9000 6.7 330 16:39 09.07.2019
5419 Clouds 43 1003 6 9000 6.2 350 16:21 09.07.2019
5420 Clouds 43 1003 6 9000 6.2 350 15:41 09.07.2019
5421 Clouds 43 1003 6 9000 6.2 350 15:22 09.07.2019
5422 Clouds 44 1004 5 9000 6.7 320 14:43 09.07.2019
5423 Clouds 44 1004 5 9000 6.7 320 14:23 09.07.2019
5424 Clouds 43 1004 6 9000 5.1 340 13:50 09.07.2019
5425 Clear 43 1004 6 9000 5.1 340 13:29 09.07.2019
5426 Clear 43 1005 6 9000 4.6 340 12:59 09.07.2019
5427 Clear 43 1005 6 9000 4.6 340 12:38 09.07.2019
5428 Clouds 41 1005 6 9000 6.2 10 12:19 09.07.2019
5429 Clouds 41 1005 6 9000 6.2 10 11:42 09.07.2019
5430 Clouds 41 1005 6 9000 6.2 10 11:22 09.07.2019
5431 Clouds 41 1006 6 9000 6.7 350 10:59 09.07.2019
5432 Clouds 41 1006 6 9000 6.7 350 10:40 09.07.2019
5433 Clouds 40 1007 7 9000 7.2 340 10:21 09.07.2019
5434 Clouds 40 1007 7 9000 7.2 340 09:38 09.07.2019
5435 Clouds 40 1007 7 9000 7.2 340 09:20 09.07.2019
5436 Clear 37 1007 8 9000 7.7 340 08:44 09.07.2019
5437 Clear 36 1007 8 10000 7.2 320 08:18 09.07.2019
5438 Clear 32 1006 11 10000 4.1 350 03:45 05.07.2019
5439 Clear 32 1006 11 10000 4.1 350 03:21 05.07.2019
5440 Clear 33 1005 9 10000 4.6 350 02:52 05.07.2019
5441 Clear 31 1006 10 10000 3.1 300 02:20 05.07.2019
5442 Clear 31 1006 10 10000 3.1 300 01:34 05.07.2019
5443 Clear 32 1006 11 10000 2.6 290 00:52 05.07.2019
5444 Clear 32 1006 11 10000 2.6 290 00:31 05.07.2019
5445 Clear 35 1006 8 10000 3.6 350 23:40 04.07.2019
5446 Clear 35 1007 8 10000 3.1 10 23:19 04.07.2019
5447 Clear 35 1007 8 10000 3.1 10 22:42 04.07.2019
5448 Clear 35 1007 8 10000 3.1 10 22:23 04.07.2019
5449 Clear 36 1007 8 10000 3.1 10 21:45 04.07.2019
5450 Clear 36 1007 8 10000 3.1 10 21:26 04.07.2019
5451 Clear 37 1006 8 10000 4.1 10 20:59 04.07.2019
5452 Clear 37 1006 8 10000 4.1 10 20:38 04.07.2019
5453 Clear 39 1006 7 8000 5.1 10 20:19 04.07.2019
5454 Clear 39 1006 7 8000 5.1 10 20:19 04.07.2019
5455 Clear 39 1006 7 8000 5.1 10 19:42 04.07.2019
5456 Clear 41 1005 6 8000 4.6 20 19:22 04.07.2019
5457 Clear 41 1005 6 8000 4.6 20 18:55 04.07.2019
5458 Clear 41 1005 6 8000 4.6 20 18:36 04.07.2019
5459 Clear 42 1005 6 8000 6.7 20 18:18 04.07.2019
5460 Clear 42 1005 6 8000 6.7 20 17:41 04.07.2019
5461 Clear 43 1005 6 8000 6.7 30 17:18 04.07.2019
5462 Clear 43 1005 6 8000 6.7 30 17:18 04.07.2019
5463 Clear 44 1005 5 8000 7.2 10 15:55 04.07.2019
5464 Clear 44 1005 5 8000 7.2 10 15:36 04.07.2019
5465 Clear 44 1005 6 8000 6.7 30 15:18 04.07.2019
5466 Clear 44 1005 6 8000 6.7 30 14:40 04.07.2019
5467 Clear 43 1006 6 8000 7.7 40 14:20 04.07.2019
5468 Clear 43 1006 6 8000 7.7 40 13:57 04.07.2019
5469 Clear 43 1006 6 8000 7.7 40 13:39 04.07.2019
5470 Clear 42 1007 6 9000 6.7 30 13:19 04.07.2019
5471 Clear 42 1007 6 9000 6.7 30 12:39 04.07.2019
5472 Clear 42 1007 6 9000 6.7 30 12:39 04.07.2019
5473 Clear 41 1007 8 10000 7.7 30 12:20 04.07.2019
5474 Clear 41 1007 8 10000 7.7 30 11:55 04.07.2019
5475 Clear 41 1007 8 10000 7.7 30 11:36 04.07.2019
5476 Clear 40 1008 8 10000 7.7 30 11:18 04.07.2019
5477 Clear 40 1008 8 10000 7.7 30 10:39 04.07.2019
5478 Clear 40 1008 8 10000 7.2 40 10:18 04.07.2019
5479 Clear 40 1008 8 10000 7.2 40 09:39 04.07.2019
5480 Clear 38 1008 10 10000 5.7 40 09:19 04.07.2019
5481 Clear 38 1008 10 10000 5.7 40 08:53 04.07.2019
5482 Clear 35 1008 11 10000 4.1 360 08:19 04.07.2019
5483 Clear 35 1008 11 10000 4.1 360 07:42 04.07.2019
5484 Clear 32 1007 8 10000 3.6 310 07:19 04.07.2019
5485 Clear 32 1007 8 10000 3.6 310 06:33 04.07.2019
5486 Clear 29 1007 14 10000 2.1 300 05:43 04.07.2019
5487 Clear 29 1007 14 10000 3.1 310 04:59 04.07.2019
5488 Clear 29 1006 13 10000 2.1 300 02:36 04.07.2019
5489 Clear 31 1007 11 10000 2.6 310 01:27 04.07.2019
5490 Clear 32 1007 11 10000 2.6 310 00:52 04.07.2019
5491 Clear 34 1007 9 10000 3.6 10 23:53 03.07.2019
5492 Clear 35 1007 9 10000 3.1 10 23:21 03.07.2019
5493 Clear 35 1007 9 10000 3.1 10 23:21 03.07.2019
5494 Clear 35 1007 9 10000 3.1 10 22:57 03.07.2019
5495 Clear 35 1007 9 10000 3.1 10 22:39 03.07.2019
5496 Clear 37 1007 8 8000 4.6 340 22:21 03.07.2019
5497 Clear 37 1007 8 8000 4.6 340 21:56 03.07.2019
5498 Clear 37 1007 8 8000 4.6 340 21:37 03.07.2019
5499 Clear 38 1006 8 7000 4.6 350 20:57 03.07.2019
5500 Clear 38 1006 8 7000 4.6 350 20:37 03.07.2019
5501 Dust 39 1006 8 5000 6.2 10 20:19 03.07.2019
5502 Dust 39 1006 8 5000 6.2 10 19:45 03.07.2019
5503 Dust 39 1006 8 5000 6.2 10 19:25 03.07.2019
5504 Dust 40 1005 7 4000 8.2 10 18:45 03.07.2019
5505 Dust 41 1005 6 4000 9.3 10 18:23 03.07.2019
5506 Dust 41 1005 6 4000 9.3 10 17:51 03.07.2019
5507 Dust 42 1005 6 4000 9.8 20 17:20 03.07.2019
5508 Dust 42 1005 6 4000 9.8 20 16:58 03.07.2019
5509 Dust 42 1005 6 4000 9.8 20 16:40 03.07.2019
5510 Dust 42 1005 6 4000 10.8 10 16:18 03.07.2019
5511 Dust 42 1005 6 4000 10.8 10 15:46 03.07.2019
5512 Dust 42 1005 6 4000 10.8 10 15:27 03.07.2019
5513 Dust 43 1005 5 4000 10.3 10 14:49 03.07.2019
5514 Dust 43 1005 5 4000 10.3 10 14:22 03.07.2019
5515 Clear 42 1005 6 7000 9.8 20 13:50 03.07.2019
5516 Clear 42 1005 6 7000 9.8 20 13:31 03.07.2019
5517 Clear 41 1006 6 9000 9.3 20 12:52 03.07.2019
5518 Clear 41 1007 7 9000 6.2 30 12:20 03.07.2019
5519 Clear 41 1007 7 9000 6.2 30 11:55 03.07.2019
5520 Clear 41 1007 7 9000 6.2 30 11:36 03.07.2019
5521 Clear 40 1007 7 9000 7.7 20 11:18 03.07.2019
5522 Clear 40 1007 7 9000 7.7 20 10:40 03.07.2019
5523 Clear 39 1007 7 10000 6.7 20 10:21 03.07.2019
5524 Clear 39 1007 7 10000 6.7 20 09:42 03.07.2019
5525 Clear 38 1008 9 10000 4.6 20 09:20 03.07.2019
5526 Clear 38 1008 9 10000 4.6 20 08:53 03.07.2019
5527 Clear 38 1008 9 10000 4.6 20 08:31 03.07.2019
5528 Clear 36 1007 11 10000 1.5 340 07:51 03.07.2019
5529 Clear 36 1007 11 10000 1.5 340 07:33 03.07.2019
5530 Clear 33 1007 14 10000 1.5 310 06:42 03.07.2019
5531 Clear 31 1006 14 10000 2.1 340 05:42 03.07.2019
5532 Clear 30 1006 15 10000 3.1 350 04:52 03.07.2019
5533 Clear 32 1005 13 10000 4.6 20 03:30 03.07.2019
5534 Clear 32 1005 16 10000 3.6 10 02:37 03.07.2019
5535 Clear 33 1005 16 10000 4.6 20 01:22 03.07.2019
5536 Clear 34 1005 16 10000 4.1 20 00:55 03.07.2019
5537 Clear 34 1005 16 10000 4.1 20 00:36 03.07.2019
5538 Clear 34 1006 12 10000 4.1 20 23:46 02.07.2019
5539 Clear 35 1006 13 10000 4.1 20 23:21 02.07.2019
5540 Clear 35 1006 13 10000 4.1 20 22:59 02.07.2019
5541 Clear 35 1006 13 10000 4.1 20 22:40 02.07.2019
5542 Clear 35 1006 13 10000 4.1 20 22:40 02.07.2019
5543 Clear 36 1006 11 10000 3.6 10 22:22 02.07.2019
5544 Clear 36 1006 11 10000 3.6 10 21:47 02.07.2019
5545 Clear 36 1006 11 10000 3.6 10 21:26 02.07.2019
5546 Clear 36 1006 11 10000 3.6 10 20:59 02.07.2019
5547 Clear 37 1006 12 10000 3.6 10 20:41 02.07.2019
5548 Clear 37 1006 12 10000 3.6 10 20:22 02.07.2019
5549 Clear 38 1006 12 10000 4.1 350 19:44 02.07.2019
5550 Clear 38 1006 12 10000 4.1 350 19:25 02.07.2019
5551 Clear 40 1005 12 10000 5.7 10 18:59 02.07.2019
5552 Clear 40 1005 12 10000 5.7 10 18:41 02.07.2019
5553 Clear 40 1005 12 10000 5.7 10 18:41 02.07.2019
5554 Clear 40 1005 8 10000 5.7 10 18:18 02.07.2019
5555 Clear 41 1004 8 10000 6.2 350 17:37 02.07.2019
5556 Clear 42 1004 8 10000 4.6 10 17:19 02.07.2019
5557 Clear 42 1004 8 10000 4.6 10 16:46 02.07.2019
5558 Clear 42 1004 8 10000 4.6 10 16:27 02.07.2019
5559 Clear 43 1004 8 10000 4.1 310 15:42 02.07.2019
5560 Clear 43 1004 8 10000 4.1 310 15:24 02.07.2019
5561 Clear 42 1005 8 10000 3.6 310 14:49 02.07.2019
5562 Clear 42 1005 8 10000 3.6 310 14:30 02.07.2019
5563 Clear 41 1005 9 10000 4.1 10 13:45 02.07.2019
5564 Clear 41 1005 9 10000 4.1 10 13:21 02.07.2019
5565 Clear 41 1006 9 10000 2.1 70 12:59 02.07.2019
5566 Clear 41 1006 9 10000 2.1 70 12:40 02.07.2019
5567 Clear 41 1006 9 10000 2.1 70 12:18 02.07.2019
5568 Clear 40 1006 11 10000 2.1 50 11:42 02.07.2019
5569 Clear 39 1007 10 10000 2.1 60 11:21 02.07.2019
5570 Clear 39 1007 10 10000 2.1 60 10:45 02.07.2019
5571 Clear 38 1007 12 10000 2.1 90 10:24 02.07.2019
5572 Clear 38 1007 12 10000 2.1 90 09:45 02.07.2019
5573 Clear 36 1007 13 10000 2.6 60 09:22 02.07.2019
5574 Clear 36 1007 13 10000 2.6 60 08:42 02.07.2019
5575 Clear 36 1007 13 10000 2.6 60 08:42 02.07.2019
5576 Clear 36 1007 13 10000 2.6 60 08:42 02.07.2019
5577 Clear 34 1007 14 10000 1.5 50 08:21 02.07.2019
5578 Clear 34 1007 14 10000 1.5 50 07:53 02.07.2019
5579 Clear 34 1007 14 10000 1.5 50 07:21 02.07.2019
5580 Clear 33 1007 14 10000 1.5 350 06:50 02.07.2019
5581 Clear 33 1007 14 10000 1.5 350 06:26 02.07.2019
5582 Clear 33 1007 14 10000 1.5 350 06:26 02.07.2019
5583 Clear 29 1006 17 10000 2.1 350 04:57 02.07.2019
5584 Clear 32 1005 13 10000 1.5 350 02:19 02.07.2019
5585 Clear 34 1005 13 10000 2.1 360 23:50 01.07.2019
5586 Clear 34 1005 13 10000 2.1 360 23:22 01.07.2019
5587 Clear 34 1005 13 10000 1.5 20 22:46 01.07.2019
5588 Clear 34 1005 13 10000 1.5 20 22:27 01.07.2019
5589 Clear 36 1005 9 10000 2.1 40 21:48 01.07.2019
5590 Clear 36 1005 9 10000 2.1 40 21:48 01.07.2019
5591 Clear 36 1005 9 10000 2.1 40 21:26 01.07.2019
5592 Clear 37 1005 9 10000 2.6 30 20:52 01.07.2019
5593 Clear 39 1004 8 10000 2.6 30 20:22 01.07.2019
5594 Clear 39 1004 8 10000 2.6 30 19:59 01.07.2019
5595 Clear 39 1004 8 10000 2.6 30 19:40 01.07.2019
5596 Clear 41 1004 6 10000 2.6 340 19:22 01.07.2019
5597 Clear 41 1004 6 10000 2.6 340 18:53 01.07.2019
5598 Clear 41 1004 6 10000 2.6 340 18:31 01.07.2019
5599 Clear 43 1003 5 10000 2.6 360 17:59 01.07.2019
5600 Clear 43 1003 5 10000 2.6 360 17:41 01.07.2019
5601 Clear 43 1003 5 10000 2.6 360 17:21 01.07.2019
5602 Clear 43 1003 5 10000 3.6 360 16:47 01.07.2019
5603 Clear 43 1003 5 10000 3.6 360 16:25 01.07.2019
5604 Clear 44 1004 5 10000 3.1 300 15:54 01.07.2019
5605 Clear 44 1004 5 10000 3.1 300 15:36 01.07.2019
5606 Clear 44 1004 5 10000 2.6 320 15:18 01.07.2019
5607 Clear 44 1004 5 10000 2.6 320 14:42 01.07.2019
5608 Clear 44 1004 5 10000 2.6 320 14:19 01.07.2019
5609 Clear 44 1005 6 10000 3.1 310 13:40 01.07.2019
5610 Clear 44 1005 6 10000 3.1 310 13:22 01.07.2019
5611 Clear 43 1005 6 10000 1.5 320 12:46 01.07.2019
5612 Clear 43 1005 6 10000 1.5 320 12:27 01.07.2019
5613 Clear 42 1006 6 10000 2.6 40 11:58 01.07.2019
5614 Clear 42 1006 6 10000 2.6 40 11:38 01.07.2019
5615 Clear 42 1006 6 10000 2.6 40 11:18 01.07.2019
5616 Clear 41 1006 7 10000 2.6 40 10:46 01.07.2019
5617 Clear 41 1006 7 10000 2.6 40 10:22 01.07.2019
5618 Clear 40 1006 7 10000 3.1 20 09:45 01.07.2019
5619 Clear 40 1006 7 10000 3.1 20 09:27 01.07.2019
5620 Clear 39 1006 7 10000 3.1 30 08:59 01.07.2019
5621 Clear 39 1006 7 10000 3.1 30 08:35 01.07.2019
5622 Clear 36 1006 8 10000 1.5 300 07:37 01.07.2019
5623 Clear 34 1006 10 10000 1.61 3.202 06:51 01.07.2019
5624 Clear 30 1005 13 10000 1 270 05:23 01.07.2019
5625 Clear 32 1004 11 10000 2.1 320 01:22 01.07.2019
5626 Clear 34 1004 9 10000 2.6 330 00:43 01.07.2019
5627 Clear 34 1004 9 10000 2.6 330 00:43 01.07.2019
5628 Clear 34 1004 9 10000 2.6 330 00:21 01.07.2019
5629 Clear 34 1005 9 10000 1.5 330 23:27 30.06.2019
5630 Clear 35 1005 9 10000 3.1 360 22:58 30.06.2019
5631 Clear 35 1005 9 10000 3.1 360 22:38 30.06.2019
5632 Clear 35 1005 9 10000 3.1 360 22:18 30.06.2019
5633 Clear 36 1005 7 10000 2.6 10 21:41 30.06.2019
5634 Clear 36 1005 7 10000 2.6 10 21:19 30.06.2019
5635 Clear 37 1005 7 10000 3.1 20 20:43 30.06.2019
5636 Clear 37 1005 7 10000 3.1 20 20:24 30.06.2019
5637 -273 0 0 0 0 0 20:24 30.06.2019
5638 Clear 39 1004 7 10000 4.1 30 19:55 30.06.2019
5639 Clear 39 1004 7 10000 4.1 30 19:37 30.06.2019
5640 Clear 39 1004 7 10000 4.1 30 19:18 30.06.2019
5641 Clear 41 1004 6 10000 4.1 20 18:26 30.06.2019
5642 Clear 43 1003 5 10000 4.6 20 17:56 30.06.2019
5643 Clear 43 1003 5 10000 4.6 20 17:37 30.06.2019
5644 Clear 43 1003 5 10000 4.6 20 17:18 30.06.2019
5645 Clear 44 1003 5 10000 4.1 30 16:44 30.06.2019
5646 Clear 44 1003 5 10000 4.1 30 16:25 30.06.2019
5647 Clear 44 1003 5 10000 3.6 50 15:37 30.06.2019
5648 Clear 44 1003 5 10000 3.6 50 15:18 30.06.2019
5649 Clear 44 1003 5 10000 3.6 40 14:50 30.06.2019
5650 Clear 44 1003 5 10000 3.6 40 14:50 30.06.2019
5651 Clear 44 1003 5 10000 3.6 40 14:29 30.06.2019
5652 Clear 44 1003 5 10000 3.6 50 13:47 30.06.2019
5653 Clear 44 1003 5 10000 3.6 50 13:25 30.06.2019
5654 Clear 42 1004 6 10000 4.1 50 12:52 30.06.2019
5655 Clear 42 1004 6 10000 4.1 50 12:27 30.06.2019
5656 Clear 42 1004 6 10000 4.6 40 11:56 30.06.2019
5657 Clear 42 1004 6 10000 4.6 40 11:38 30.06.2019
5658 Clear 42 1004 6 10000 4.6 40 11:18 30.06.2019
5659 Clear 41 1005 7 10000 5.1 60 10:44 30.06.2019
5660 Clear 41 1005 7 10000 5.1 60 10:19 30.06.2019
5661 Clear 40 1005 7 10000 4.6 40 09:57 30.06.2019
5662 Clear 40 1005 7 10000 4.6 40 09:36 30.06.2019
5663 Clear 38 1005 7 10000 5.7 40 09:18 30.06.2019
5664 Clear 38 1005 7 10000 5.7 40 08:38 30.06.2019
5665 Clear 38 1005 7 10000 5.7 40 08:19 30.06.2019
5666 Clear 36 1004 8 10000 3.6 30 07:38 30.06.2019
5667 Clear 36 1004 8 10000 3.6 30 07:19 30.06.2019
5668 Clear 33 1004 11 10000 3.6 10 06:18 30.06.2019
5669 Clear 31 1003 10 10000 1.5 360 03:26 30.06.2019
5670 Clear 32 1002 10 10000 3.78 20.92 01:31 30.06.2019
5671 Clear 34 1003 9 10000 3.78 20.92 00:38 30.06.2019
5672 Clear 34 1003 9 10000 3.78 20.92 00:38 30.06.2019
5673 Clear 34 1003 9 10000 3.78 20.92 00:38 30.06.2019
5674 Clear 34 1003 9 10000 2.01 12.621 00:18 30.06.2019
5675 Clear 35 1003 9 10000 1.5 150 23:36 29.06.2019
5676 Clear 35 1003 9 10000 1.5 150 23:18 29.06.2019
5677 Clear 36 1003 8 10000 1.5 130 22:42 29.06.2019
5678 Clear 36 1003 8 10000 1.5 130 22:21 29.06.2019
5679 Clear 37 1003 8 10000 2.6 50 21:52 29.06.2019
5680 Clear 37 1003 8 10000 2.6 50 21:23 29.06.2019
5681 Clear 36 1003 11 10000 2.28 134.626 20:45 29.06.2019
5682 Clear 36 1003 11 10000 2.28 134.626 20:27 29.06.2019
5683 Clear 38 1003 8 10000 2.28 134.626 19:48 29.06.2019
5684 Clear 38 1003 8 10000 2.28 134.626 19:25 29.06.2019
5685 Clear 42 1002 6 10000 1.5 330 18:55 29.06.2019
5686 Clear 42 1002 6 10000 1.5 330 18:27 29.06.2019
5687 Clear 44 1002 5 10000 2.6 300 17:57 29.06.2019
5688 Clear 44 1002 5 10000 2.6 300 17:37 29.06.2019
5689 Clear 44 1002 5 10000 2.6 300 17:19 29.06.2019
5690 Clear 45 1002 5 10000 3.1 270 16:42 29.06.2019
5691 Clear 45 1002 5 10000 4.6 250 15:56 29.06.2019
5692 Clear 45 1002 5 10000 4.6 250 15:31 29.06.2019
5693 Clear 46 1002 4 10000 2.6 350 14:45 29.06.2019
5694 Clear 46 1002 4 10000 2.6 350 14:26 29.06.2019
5695 Clear 45 1003 5 10000 3.6 210 13:51 29.06.2019
5696 Clear 45 1003 5 10000 3.6 210 13:27 29.06.2019
5697 Clear 45 1003 4 10000 3.1 170 12:57 29.06.2019
5698 Clear 45 1003 4 10000 3.1 170 12:38 29.06.2019
5699 Clear 45 1003 4 10000 3.1 170 12:20 29.06.2019
5700 Clear 45 1004 5 10000 1.5 220 11:42 29.06.2019
5701 Clear 45 1004 5 10000 1.5 220 11:21 29.06.2019
5702 Clear 43 1005 5 10000 2.1 90 10:49 29.06.2019
5703 Clear 43 1005 5 10000 2.1 90 10:21 29.06.2019
5704 Clear 43 1005 5 10000 2.6 340 09:55 29.06.2019
5705 Clear 41 1005 5 10000 4.6 320 08:55 29.06.2019
5706 Clear 41 1005 5 10000 4.6 320 08:30 29.06.2019
5707 Clear 39 1005 7 10000 1 350 07:45 29.06.2019
5708 Clear 32 1004 10 10000 3.6 30 06:49 29.06.2019
5709 Clear 32 1004 10 10000 3.6 30 06:25 29.06.2019
5710 Clear 32 1003 9 10000 2.1 220 03:55 29.06.2019
5711 Clear 31 1003 10 10000 2.03 155.32 01:42 29.06.2019
5712 Clear 33 1004 9 10000 1.5 280 00:41 29.06.2019
5713 Clear 35 1004 8 10000 3.72 330.543 23:39 28.06.2019
5714 Clear 35 1004 8 10000 3.72 330.543 23:20 28.06.2019
5715 Clear 35 1002 9 10000 1 180 22:47 28.06.2019
5716 Clear 36 1004 8 10000 2.1 20 21:59 28.06.2019
5717 Clear 36 1004 8 10000 2.1 20 21:37 28.06.2019
5718 Clear 36 1004 8 10000 2.1 20 21:18 28.06.2019
5719 Clear 39 1004 7 10000 3.1 10 20:40 28.06.2019
5720 Clear 39 1004 7 10000 3.1 10 20:19 28.06.2019
5721 Clear 41 1003 5 10000 3.6 10 19:38 28.06.2019
5722 Clear 41 1003 5 10000 3.6 10 19:20 28.06.2019
5723 Clear 42 1003 6 10000 3.6 10 18:41 28.06.2019
5724 Clear 42 1003 6 10000 3.6 10 18:21 28.06.2019
5725 Clear 44 1003 5 10000 4.6 340 17:41 28.06.2019
5726 Clear 44 1003 5 10000 4.6 340 17:23 28.06.2019
5727 Clear 45 1002 4 10000 3.6 20 16:46 28.06.2019
5728 Clear 45 1002 4 10000 3.6 20 16:18 28.06.2019
5729 Clear 46 1002 4 10000 5.7 330 15:40 28.06.2019
5730 Clear 46 1002 4 10000 5.7 330 15:18 28.06.2019
5731 Clear 45 1003 5 10000 5.1 10 14:39 28.06.2019
5732 Clear 45 1003 5 10000 5.1 10 14:21 28.06.2019
5733 Clear 45 1003 4 10000 2.1 290 13:46 28.06.2019
5734 Clear 45 1003 4 10000 2.1 290 13:27 28.06.2019
5735 Clear 46 1003 4 10000 2.6 350 12:51 28.06.2019
5736 Clear 46 1003 4 10000 2.6 350 12:32 28.06.2019
5737 Clear 45 1004 4 10000 2.6 180 11:29 28.06.2019
5738 Clear 43 1005 6 10000 2.1 260 10:58 28.06.2019
5739 Clear 43 1005 6 10000 2.1 260 10:38 28.06.2019
5740 Clear 43 1005 6 10000 2.1 260 10:18 28.06.2019
5741 Clear 42 1006 6 10000 2.6 310 09:43 28.06.2019
5742 Clear 42 1006 6 10000 2.6 310 09:24 28.06.2019
5743 Clear 39 1006 8 10000 3.6 320 08:42 28.06.2019
5744 Clear 39 1006 8 10000 3.6 320 08:23 28.06.2019
5745 Clear 37 1006 7 10000 1.5 320 07:42 28.06.2019
5746 Clear 32 1005 11 10000 1 150 06:52 28.06.2019
5747 Clear 30 1004 11 10000 1.5 340 03:57 28.06.2019
5748 Clear 32 1004 9 10000 1.08 348.68 00:46 28.06.2019
5749 Clear 32 1004 9 10000 1 205.899 00:19 28.06.2019
5750 Clear 33 1004 9 10000 1 205.899 23:43 27.06.2019
5751 Clear 33 1004 9 10000 1 205.899 23:22 27.06.2019
5752 Clear 35 1005 8 10000 1 220 22:43 27.06.2019
5753 Clear 35 1005 8 10000 1 220 22:25 27.06.2019
5754 Clear 34 1005 9 10000 1.5 30 21:57 27.06.2019
5755 Clear 34 1005 9 10000 1.5 30 21:38 27.06.2019
5756 Clear 34 1005 9 10000 1.5 30 21:19 27.06.2019
5757 Clear 38 1005 8 10000 1.5 50 20:46 27.06.2019
5758 Clear 38 1005 8 10000 1.5 50 20:27 27.06.2019
5759 Clear 39 1005 7 10000 2.1 50 19:48 27.06.2019
5760 Clear 39 1005 7 10000 2.1 50 19:29 27.06.2019
5761 Clear 42 1004 6 10000 4.1 10 18:52 27.06.2019
5762 Clear 42 1004 6 10000 4.1 10 18:30 27.06.2019
5763 Clear 44 1004 5 10000 5.1 350 17:47 27.06.2019
5764 Clear 44 1004 5 10000 5.1 350 17:24 27.06.2019
5765 Clear 44 1004 5 10000 7.7 10 16:59 27.06.2019
5766 Clear 44 1004 5 10000 7.7 10 16:37 27.06.2019
5767 Clear 44 1004 5 10000 7.7 10 16:18 27.06.2019
5768 Clear 44 1004 5 10000 7.7 10 16:18 27.06.2019
5769 Clear 45 1004 5 10000 6.7 350 15:45 27.06.2019
5770 Clear 45 1004 5 10000 6.7 350 15:22 27.06.2019
5771 Clear 45 1005 5 10000 6.7 10 14:46 27.06.2019
5772 Clear 45 1005 5 10000 6.7 10 14:28 27.06.2019
5773 Clear 44 1005 5 10000 5.1 30 13:49 27.06.2019
5774 Clear 44 1005 5 10000 5.1 30 13:30 27.06.2019
5775 Clear 45 1006 5 10000 4.6 360 12:55 27.06.2019
5776 Clear 45 1006 5 10000 4.6 360 12:35 27.06.2019
5777 Clear 44 1007 5 10000 2.1 20 11:59 27.06.2019
5778 Clear 44 1007 5 10000 2.1 20 11:39 27.06.2019
5779 Clear 44 1007 5 10000 2.1 20 11:20 27.06.2019
5780 Clear 44 1007 5 10000 1.5 270 10:44 27.06.2019
5781 Clear 44 1007 5 10000 1.5 270 10:21 27.06.2019
5782 Clear 41 1008 6 10000 1.5 260 09:54 27.06.2019
5783 Clear 41 1008 6 10000 1.5 260 09:22 27.06.2019
5784 Clear 39 1008 7 10000 1.5 270 08:52 27.06.2019
5785 Clear 39 1008 7 10000 1.5 270 08:31 27.06.2019
5786 Clear 38 1008 8 10000 1 340 07:53 27.06.2019
5787 Clear 38 1008 8 10000 1 340 07:30 27.06.2019
5788 Clear 33 1008 9 10000 1 340 06:51 27.06.2019
5789 Clear 28 1008 12 10000 1.5 310 04:27 27.06.2019
5790 Clear 30 1007 9 10000 1 240 02:44 27.06.2019
5791 Clear 32 1007 9 10000 3.1 280 01:48 27.06.2019
5792 Clear 32 1008 8 10000 2.6 280 00:57 27.06.2019
5793 Clear 32 1008 8 10000 2.6 280 00:38 27.06.2019
5794 Clear 32 1008 8 10000 2.6 280 00:18 27.06.2019
5795 Clear 33 1008 9 10000 2.1 290 23:38 26.06.2019
5796 Clear 33 1008 9 10000 2.1 290 23:19 26.06.2019
5797 Clear 35 1009 8 10000 1 330 22:41 26.06.2019
5798 Clear 35 1009 8 10000 1 330 22:23 26.06.2019
5799 Clear 35 1009 8 10000 2.1 360 21:55 26.06.2019
5800 Clear 35 1009 8 10000 2.1 360 21:37 26.06.2019
5801 Clear 35 1009 8 10000 2.1 360 21:19 26.06.2019
5802 Clear 38 1009 6 10000 3.1 10 20:43 26.06.2019
5803 Clear 38 1009 6 10000 3.1 10 20:25 26.06.2019
5804 Clear 39 1008 6 10000 4.1 10 19:48 26.06.2019
5805 Clear 39 1008 6 10000 4.1 10 19:30 26.06.2019
5806 Clear 41 1008 5 10000 6.2 10 18:54 26.06.2019
5807 Clear 41 1008 5 10000 6.2 10 18:36 26.06.2019
5808 Clear 41 1008 5 10000 6.2 10 18:18 26.06.2019
5809 Clear 43 1007 4 10000 6.2 20 17:38 26.06.2019
5810 Clear 43 1007 4 10000 6.2 20 17:19 26.06.2019
5811 Clear 44 1007 5 10000 7.2 350 16:50 26.06.2019
5812 Clear 44 1007 5 10000 7.2 350 16:26 26.06.2019
5813 Clear 45 1008 5 10000 8.2 360 15:48 26.06.2019
5814 Clear 45 1008 5 10000 8.2 360 15:27 26.06.2019
5815 Clear 46 1008 4 10000 8.2 340 14:39 26.06.2019
5816 Clear 46 1008 4 10000 8.2 340 14:20 26.06.2019
5817 Clear 46 1008 4 10000 6.7 330 13:45 26.06.2019
5818 Clear 46 1008 4 10000 6.7 330 13:21 26.06.2019
5819 Clear 46 1009 4 10000 6.7 340 12:43 26.06.2019
5820 Clear 45 1009 5 10000 5.7 360 12:25 26.06.2019
5821 Clear 45 1009 5 10000 5.7 360 11:54 26.06.2019
5822 Clear 45 1009 5 10000 5.7 360 11:23 26.06.2019
5823 Clear 45 1010 5 10000 5.1 350 10:48 26.06.2019
5824 Clear 45 1010 5 10000 5.1 350 10:29 26.06.2019
5825 Clear 41 1011 7 10000 5.1 10 09:51 26.06.2019
5826 Clear 41 1011 7 10000 5.1 10 09:27 26.06.2019
5827 Clear 39 1011 8 10000 5.1 20 08:52 26.06.2019
5828 Clear 39 1011 8 10000 5.1 20 08:21 26.06.2019
5829 Clear 37 1011 9 10000 2.1 330 07:55 26.06.2019
5830 Clear 37 1011 9 10000 2.1 330 07:35 26.06.2019
5831 Clear 33 1011 11 10000 2.6 310 06:32 26.06.2019
5832 Clear 32 1009 11 10000 3.1 310 01:36 26.06.2019
5833 Clear 32 1009 11 10000 1.5 320 00:27 26.06.2019
5834 Clear 34 1009 9 10000 1.5 310 23:49 25.06.2019
5835 Clear 34 1009 9 10000 1.5 310 23:29 25.06.2019
5836 Clear 34 1010 9 10000 1.5 340 22:59 25.06.2019
5837 Clear 34 1010 9 10000 1.5 340 22:40 25.06.2019
5838 Clear 34 1010 9 10000 1.5 340 22:21 25.06.2019
5839 Clear 36 1010 8 10000 1.5 30 21:46 25.06.2019
5840 Clear 36 1010 8 10000 1.5 30 21:24 25.06.2019
5841 Clear 37 1010 9 10000 2.1 40 20:48 25.06.2019
5842 Clear 37 1010 9 10000 2.1 40 20:48 25.06.2019
5843 Clear 37 1010 9 10000 2.1 40 20:48 25.06.2019
5844 Clear 37 1010 9 10000 2.1 40 20:48 25.06.2019
5845 Clear 37 1010 9 10000 2.1 40 20:24 25.06.2019
5846 Clear 39 1009 8 10000 2.6 40 19:56 25.06.2019
5847 Clear 39 1009 8 10000 2.6 40 19:56 25.06.2019
5848 Clear 39 1009 8 10000 2.6 40 19:37 25.06.2019
5849 Clear 39 1009 8 10000 2.6 40 19:19 25.06.2019
5850 Clear 41 1009 6 10000 3.1 30 18:41 25.06.2019
5851 Clear 41 1009 6 10000 3.1 30 18:22 25.06.2019
5852 -273 0 0 0 0 0 17:43 25.06.2019
5853 -273 0 0 0 0 0 17:43 25.06.2019
5854 -273 0 0 0 0 0 17:22 25.06.2019
5855 -273 0 0 0 0 0 17:22 25.06.2019
5856 Clear 42 1008 6 10000 4.6 60 17:22 25.06.2019
5857 Clear 42 1008 6 10000 4.6 60 17:22 25.06.2019
5858 Clear 43 1008 7 10000 4.6 60 16:43 25.06.2019
5859 Clear 43 1008 7 10000 4.6 60 16:25 25.06.2019
5860 Clear 44 1008 5 10000 2.6 50 15:43 25.06.2019
5861 Clear 44 1008 5 10000 2.6 50 15:25 25.06.2019
5862 Clear 44 1008 7 10000 2.6 80 14:57 25.06.2019
5863 Clear 44 1008 7 10000 2.6 80 14:37 25.06.2019
5864 Clear 44 1009 7 10000 2.1 250 13:59 25.06.2019
5865 Clear 44 1009 7 10000 2.1 250 13:39 25.06.2019
5866 Clear 44 1009 7 10000 2.1 250 13:19 25.06.2019
5867 Clear 44 1009 7 10000 3.1 320 12:39 25.06.2019
5868 Clear 44 1009 7 10000 3.1 320 12:21 25.06.2019
5869 Clear 42 1010 8 10000 4.1 280 11:44 25.06.2019
5870 Clear 42 1010 8 10000 4.1 280 11:21 25.06.2019
5871 Clear 42 1010 8 10000 3.6 360 10:46 25.06.2019
5872 Clear 42 1010 8 10000 3.6 360 10:24 25.06.2019
5873 Clear 42 1010 8 10000 3.6 360 10:24 25.06.2019
5874 Clear 42 1010 8 10000 5.1 330 09:56 25.06.2019
5875 Clear 42 1010 8 10000 5.1 330 09:38 25.06.2019
5876 Clear 42 1010 8 10000 5.1 330 09:19 25.06.2019
5877 Clear 40 1010 8 10000 5.1 320 08:48 25.06.2019
5878 Clear 40 1010 8 10000 5.1 320 08:28 25.06.2019
5879 Clear 36 1010 9 10000 3.1 310 07:43 25.06.2019
5880 Clear 36 1010 9 10000 3.1 310 07:23 25.06.2019
5881 Clear 31 1010 9 10000 2.6 310 06:42 25.06.2019
5882 Clear 29 1009 14 10000 2.6 280 04:30 25.06.2019
5883 Clear 31 1008 12 10000 1 320 02:25 25.06.2019
5884 Clear 33 1008 16 10000 0.6 273.058 00:38 25.06.2019
5885 Clear 33 1008 14 10000 1 351.975 00:18 25.06.2019
5886 Clear 33 1009 14 10000 2.1 40 23:43 24.06.2019
5887 Clear 33 1009 14 10000 2.1 40 23:25 24.06.2019
5888 Clear 33 1009 14 10000 2.6 10 22:45 24.06.2019
5889 Clear 33 1009 14 10000 2.6 10 22:45 24.06.2019
5890 Clear 33 1009 14 10000 2.6 10 22:19 24.06.2019
5891 Clear 33 1009 14 10000 1 351.975 21:42 24.06.2019
5892 Clear 33 1009 13 10000 0.9 48.568 21:20 24.06.2019
5893 Clear 36 1008 13 10000 2.1 100 20:59 24.06.2019
5894 Clear 36 1008 13 10000 2.1 100 20:40 24.06.2019
5895 Clear 36 1008 13 10000 2.1 100 20:21 24.06.2019
5896 Clear 37 1008 9 10000 2.1 50 19:46 24.06.2019
5897 Clear 37 1008 9 10000 2.1 50 19:24 24.06.2019
5898 Clear 37 1008 9 10000 2.1 50 19:24 24.06.2019
5899 Clear 39 1007 13 10000 1.5 60 18:48 24.06.2019
5900 Clear 39 1007 13 10000 1.5 60 18:30 24.06.2019
5901 Clear 40 1007 9 10000 2.1 80 17:57 24.06.2019
5902 Clear 40 1007 9 10000 2.1 80 17:36 24.06.2019
5903 Clear 40 1007 9 10000 2.1 80 17:36 24.06.2019
5904 Clear 42 1007 6 10000 1.5 110 16:55 24.06.2019
5905 Clear 42 1007 6 10000 1.5 110 16:36 24.06.2019
5906 Clear 42 1007 6 10000 1.5 110 16:18 24.06.2019
5907 Clear 41 1006 7 10000 3.1 130 15:38 24.06.2019
5908 Clear 41 1006 7 10000 3.1 130 15:19 24.06.2019
5909 Clear 42 1007 6 10000 1.5 230 14:34 24.06.2019
5910 Clear 41 1007 6 10000 3.1 120 13:54 24.06.2019
5911 Clear 41 1007 6 10000 3.1 120 13:54 24.06.2019
5912 Clear 41 1007 6 10000 3.1 120 13:31 24.06.2019
5913 Clear 41 1007 6 10000 3.1 120 13:31 24.06.2019
5914 Clear 41 1008 7 10000 2.1 150 12:45 24.06.2019
5915 Clear 41 1008 7 10000 2.1 150 12:22 24.06.2019
5916 Clear 41 1008 6 10000 1.5 160 11:58 24.06.2019
5917 Clear 41 1008 6 10000 1.5 160 11:58 24.06.2019
5918 Clear 41 1008 6 10000 1.5 160 11:40 24.06.2019
5919 Clear 41 1008 6 10000 1.5 160 11:20 24.06.2019
5920 Clear 41 1009 8 10000 3.6 340 10:46 24.06.2019
5921 Clear 41 1009 8 10000 3.6 340 10:25 24.06.2019
5922 Clear 38 1009 8 10000 1.5 10 09:49 24.06.2019
5923 Clear 38 1009 9 10000 1.5 10 09:22 24.06.2019
5924 Clear 38 1009 8 10000 1.5 350 08:52 24.06.2019
5925 Clear 38 1009 8 10000 1.5 350 08:25 24.06.2019
5926 Clear 35 1009 10 10000 1.5 340 07:45 24.06.2019
5927 Clear 35 1009 10 10000 1.5 340 07:26 24.06.2019
5928 Clear 30 1009 12 10000 2.1 310 06:39 24.06.2019
5929 Clear 30 1009 12 10000 2.1 310 06:19 24.06.2019
5930 Clear 26 1008 14 10000 1 360 04:59 24.06.2019
5931 Clear 26 1008 14 10000 1 360 04:24 24.06.2019
5932 Clear 29 1007 13 10000 3.1 280 02:56 24.06.2019
5933 Clear 29 1007 13 10000 3.1 280 02:20 24.06.2019
5934 Clear 29 1008 13 10000 2.6 290 01:49 24.06.2019
5935 Clear 29 1008 13 10000 2.6 290 01:21 24.06.2019
5936 Clear 31 1008 12 10000 2.6 280 00:39 24.06.2019
5937 Clear 31 1008 12 10000 2.6 280 00:19 24.06.2019
5938 Clear 31 1008 12 10000 2.1 300 23:44 23.06.2019
5939 Clear 31 1008 12 10000 2.1 300 23:22 23.06.2019
5940 Clear 31 1008 10 10000 4.34 324.548 22:43 23.06.2019
5941 Clear 31 1008 10 10000 4.34 324.548 22:20 23.06.2019
5942 Clear 33 1008 13 10000 4.34 324.548 21:44 23.06.2019
5943 Clear 33 1008 13 10000 3.51 355.877 21:25 23.06.2019
5944 Clear 35 1008 12 10000 2.1 20 20:58 23.06.2019
5945 Clear 35 1008 12 10000 2.1 20 20:40 23.06.2019
5946 Clear 35 1008 12 10000 2.1 20 20:21 23.06.2019
5947 Clear 36 1007 11 10000 3.1 30 19:43 23.06.2019
5948 Clear 36 1007 11 10000 3.1 30 19:20 23.06.2019
5949 Clear 38 1007 8 10000 4.6 20 18:52 23.06.2019
5950 Clear 38 1007 5 10000 4.6 20 18:22 23.06.2019
5951 Clear 39 1006 7 10000 6.2 350 17:50 23.06.2019
5952 Clear 39 1006 7 10000 6.2 350 17:25 23.06.2019
5953 Clear 40 1006 7 10000 7.2 20 16:55 23.06.2019
5954 Clear 40 1006 7 10000 7.2 20 16:36 23.06.2019
5955 Clear 40 1006 7 10000 7.2 20 16:18 23.06.2019
5956 Clear 41 1006 5 10000 7.2 20 15:40 23.06.2019
5957 Clear 41 1006 5 10000 7.2 20 15:19 23.06.2019
5958 Clear 41 1007 5 10000 6.7 30 14:40 23.06.2019
5959 Clear 41 1007 5 10000 6.7 30 14:22 23.06.2019
5960 Clear 41 1007 5 10000 8.2 20 13:56 23.06.2019
5961 Clear 41 1007 5 10000 8.2 20 13:36 23.06.2019
5962 Clear 41 1007 5 10000 8.2 20 13:18 23.06.2019
5963 Clear 40 1007 6 10000 5.7 40 12:42 23.06.2019
5964 Clear 40 1007 6 10000 5.7 40 12:21 23.06.2019
5965 Clear 39 1008 8 10000 5.7 20 11:50 23.06.2019
5966 Clear 39 1008 8 10000 5.7 20 11:29 23.06.2019
5967 Clear 39 1008 10 10000 3.6 10 10:53 23.06.2019
5968 Clear 39 1008 10 10000 3.6 10 10:22 23.06.2019
5969 Clear 37 1009 11 10000 4.1 10 09:59 23.06.2019
5970 Clear 37 1009 11 10000 4.1 10 09:25 23.06.2019
5971 Clear 35 1009 12 10000 5.1 10 08:55 23.06.2019
5972 Clear 35 1009 12 10000 5.1 10 08:36 23.06.2019
5973 Clear 35 1009 12 10000 5.1 10 08:18 23.06.2019
5974 Clear 33 1009 11 8000 4.6 320 07:48 23.06.2019
5975 Clear 33 1009 11 8000 4.6 320 07:19 23.06.2019
5976 Clear 29 1009 14 7000 3.1 300 06:53 23.06.2019
5977 Clear 26 1008 15 10000 2.6 280 05:53 23.06.2019
5978 Clear 27 1008 13 8000 1 300 02:52 23.06.2019
5979 Clear 28 1008 14 7000 2.1 300 01:43 23.06.2019
5980 Clear 28 1008 14 7000 2.1 300 01:24 23.06.2019
5981 Clear 29 1008 13 7000 2.6 300 00:34 23.06.2019
5982 Clear 31 1008 10 7000 2.1 310 23:52 22.06.2019
5983 Clear 31 1008 10 7000 2.1 310 23:26 22.06.2019
5984 Clear 32 1008 9 6000 2.6 360 22:47 22.06.2019
5985 Clear 32 1008 9 6000 2.6 360 22:29 22.06.2019
5986 Dust 33 1008 9 5000 3.1 10 21:59 22.06.2019
5987 Dust 33 1008 9 5000 3.1 10 21:36 22.06.2019
5988 Dust 33 1008 9 5000 3.1 10 21:18 22.06.2019
5989 Dust 34 1008 9 5000 3.1 10 20:46 22.06.2019
5990 Dust 34 1008 9 5000 3.1 10 20:24 22.06.2019
5991 Dust 36 1008 8 5000 6.7 20 19:42 22.06.2019
5992 Dust 36 1008 8 5000 6.7 20 19:22 22.06.2019
5993 Dust 37 1008 7 5000 7.7 20 18:44 22.06.2019
5994 Dust 37 1008 7 5000 7.7 20 18:25 22.06.2019
5995 Dust 38 1007 8 5000 8.7 20 17:46 22.06.2019
5996 Dust 38 1007 8 5000 8.7 20 17:28 22.06.2019
5997 Dust 39 1007 7 5000 9.3 20 16:46 22.06.2019
5998 Dust 39 1007 7 5000 9.3 20 16:24 22.06.2019
5999 Clouds 39 1007 7 7000 10.8 20 15:49 22.06.2019
6000 Clouds 39 1007 7 7000 10.8 20 15:29 22.06.2019
6001 Clear 40 1007 7 8000 9.3 20 14:52 22.06.2019
6002 Clear 40 1007 7 8000 9.3 20 14:33 22.06.2019
6003 Clear 41 1008 6 10000 8.7 350 13:58 22.06.2019
6004 Clear 41 1008 6 10000 8.7 350 13:39 22.06.2019
6005 Clear 40 1008 7 10000 7.2 10 13:19 22.06.2019
6006 Clear 40 1008 7 10000 7.2 10 12:47 22.06.2019
6007 Clear 40 1008 7 10000 7.2 10 12:29 22.06.2019
6008 Clear 39 1009 7 10000 8.2 10 11:46 22.06.2019
6009 Clear 39 1009 7 10000 8.2 10 11:27 22.06.2019
6010 Clear 37 1009 8 10000 7.7 20 10:47 22.06.2019
6011 Clear 37 1009 8 10000 7.7 20 10:19 22.06.2019
6012 Clear 37 1009 10 10000 7.2 30 09:37 22.06.2019
6013 Clear 35 1009 12 10000 3.1 350 08:56 22.06.2019
6014 Clear 35 1009 12 10000 3.1 350 08:37 22.06.2019
6015 Clear 33 1009 13 10000 3.1 360 07:53 22.06.2019
6016 Clear 33 1009 13 10000 3.1 360 07:29 22.06.2019
6017 Clear 30 1009 15 8000 2.1 310 06:44 22.06.2019
6018 Clear 27 1008 18 6000 2.6 310 04:38 22.06.2019
6019 Clear 29 1008 14 6000 4.6 320 02:27 22.06.2019
6020 Dust 31 1008 20 5000 3.1 310 00:57 22.06.2019
6021 Dust 31 1008 20 5000 3.1 310 00:31 22.06.2019
6022 Dust 33 1008 11 5000 3.6 330 23:50 21.06.2019
6023 Dust 33 1008 11 5000 3.6 330 23:24 21.06.2019
6024 Dust 34 1009 10 5000 4.6 350 22:58 21.06.2019
6025 Dust 34 1009 10 5000 4.6 350 22:58 21.06.2019
6026 Dust 34 1009 10 5000 4.6 350 22:58 21.06.2019
6027 Dust 34 1009 10 5000 4.6 350 22:39 21.06.2019
6028 Dust 34 1009 10 5000 4.6 350 22:20 21.06.2019
6029 Dust 35 1008 10 5000 4.6 350 21:40 21.06.2019
6030 Dust 35 1008 10 5000 4.6 350 21:21 21.06.2019
6031 Dust 35 1008 9 5000 5.1 10 20:48 21.06.2019
6032 Dust 35 1008 9 5000 5.1 10 20:26 21.06.2019
6033 Dust 36 1008 8 4000 6.7 10 19:54 21.06.2019
6034 Dust 36 1008 8 4000 6.7 10 19:22 21.06.2019
6035 Dust 37 1007 8 4000 8.2 360 18:41 21.06.2019
6036 Dust 37 1007 8 4000 8.2 360 18:23 21.06.2019
6037 Dust 39 1007 7 4000 9.8 360 17:31 21.06.2019
6038 Dust 39 1007 7 4000 9.8 360 16:59 21.06.2019
6039 Dust 39 1007 7 4000 9.8 360 16:37 21.06.2019
6040 Dust 39 1007 7 4000 9.8 360 16:18 21.06.2019
6041 Dust 40 1007 6 4000 9.3 350 15:37 21.06.2019
6042 Dust 40 1008 6 5000 9.3 360 14:57 21.06.2019
6043 Dust 40 1008 6 5000 9.3 360 14:39 21.06.2019
6044 Dust 40 1008 6 5000 9.3 360 14:20 21.06.2019
6045 Dust 40 1008 6 5000 10.3 350 13:39 21.06.2019
6046 Dust 40 1008 6 5000 10.3 350 13:21 21.06.2019
6047 Dust 40 1009 6 5000 10.3 350 12:50 21.06.2019
6048 Dust 40 1009 6 5000 10.3 350 12:23 21.06.2019
6049 Clear 39 1009 6 6000 10.3 360 11:55 21.06.2019
6050 Clear 39 1009 6 6000 10.3 360 11:37 21.06.2019
6051 Clear 39 1009 6 6000 10.3 360 11:19 21.06.2019
6052 Clear 38 1010 6 8000 9.3 360 10:42 21.06.2019
6053 Clear 38 1010 6 8000 9.3 360 10:20 21.06.2019
6054 Clear 38 1010 6 8000 9.3 360 10:20 21.06.2019
6055 Clear 37 1010 7 10000 7.2 350 09:43 21.06.2019
6056 Clear 37 1010 7 10000 7.2 350 09:23 21.06.2019
6057 Clear 36 1010 7 10000 6.2 340 08:56 21.06.2019
6058 Clear 36 1010 7 10000 6.2 340 08:37 21.06.2019
6059 Clear 36 1010 7 10000 6.2 340 08:18 21.06.2019
6060 Clear 33 1011 9 10000 6.7 320 07:42 21.06.2019
6061 Clear 33 1011 9 10000 6.7 320 07:19 21.06.2019
6062 Clear 31 1010 10 10000 4.1 310 06:28 21.06.2019
6063 Clear 27 1010 11 8000 4.1 300 05:48 21.06.2019
6064 Clear 28 1010 10 8000 3.6 310 04:48 21.06.2019
6065 Clear 28 1009 11 8000 4.1 310 03:47 21.06.2019
6066 Clear 28 1009 11 8000 4.1 310 03:24 21.06.2019
6067 Clear 29 1009 11 8000 4.6 320 02:34 21.06.2019
6068 Clear 30 1009 11 8000 4.6 320 01:32 21.06.2019
6069 Clear 30 1009 15 8000 4.6 320 00:36 21.06.2019
6070 Clear 31 1009 12 8000 4.6 310 23:57 20.06.2019
6071 Clear 31 1009 12 8000 4.6 310 23:39 20.06.2019
6072 Clear 31 1009 12 8000 4.6 310 23:19 20.06.2019
6073 Clear 32 1009 11 8000 4.1 320 22:41 20.06.2019
6074 Clear 32 1009 11 8000 4.1 320 22:23 20.06.2019
6075 Clear 32 1009 11 8000 4.1 320 22:23 20.06.2019
6076 Clear 34 1009 10 6000 3.6 320 21:56 20.06.2019
6077 Clear 34 1009 10 6000 3.6 320 21:37 20.06.2019
6078 Clear 34 1009 10 6000 3.6 320 21:19 20.06.2019
6079 Clear 34 1009 10 6000 3.6 320 21:19 20.06.2019
6080 Clear 35 1009 10 6000 5.1 330 20:41 20.06.2019
6081 Clear 35 1009 10 6000 5.1 330 20:23 20.06.2019
6082 Clear 36 1008 8 6000 6.7 340 19:45 20.06.2019
6083 Clear 36 1008 8 6000 6.7 340 19:19 20.06.2019
6084 Clear 37 1008 8 6000 7.2 330 18:58 20.06.2019
6085 Clear 37 1008 8 6000 7.2 330 18:40 20.06.2019
6086 Clear 37 1008 8 6000 7.2 330 18:21 20.06.2019
6087 Clear 39 1007 8 6000 8.2 330 17:46 20.06.2019
6088 Clear 39 1007 8 6000 8.2 330 17:27 20.06.2019
6089 Clear 40 1007 7 6000 8.2 320 16:44 20.06.2019
6090 Clear 40 1007 7 6000 8.2 320 16:19 20.06.2019
6091 Clear 41 1007 6 8000 8.2 330 15:56 20.06.2019
6092 Clear 41 1007 6 8000 8.2 330 15:37 20.06.2019
6093 Clear 41 1007 6 8000 8.2 340 15:18 20.06.2019
6094 Clear 41 1007 6 8000 8.2 340 14:42 20.06.2019
6095 Clear 41 1007 6 8000 8.2 340 14:21 20.06.2019
6096 Clear 41 1008 6 8000 8.2 350 13:40 20.06.2019
6097 Clear 41 1008 6 8000 8.2 350 13:19 20.06.2019
6098 Clear 41 1008 6 8000 8.2 330 12:44 20.06.2019
6099 Clear 41 1008 6 8000 8.2 330 12:22 20.06.2019
6100 Clear 40 1009 7 8000 8.2 330 11:44 20.06.2019
6101 Clear 40 1009 7 8000 8.2 330 11:23 20.06.2019
6102 Clear 39 1009 8 10000 6.2 350 10:47 20.06.2019
6103 Clear 39 1009 8 10000 6.2 350 10:25 20.06.2019
6104 Clear 38 1010 9 10000 6.2 350 09:58 20.06.2019
6105 Clear 38 1010 9 10000 6.2 350 09:38 20.06.2019
6106 Clear 38 1010 9 10000 6.2 350 09:20 20.06.2019
6107 Clear 36 1010 11 10000 5.1 350 08:45 20.06.2019
6108 Clear 36 1010 11 10000 5.1 350 08:26 20.06.2019
6109 Clear 34 1010 12 10000 4.6 320 07:51 20.06.2019
6110 Clear 34 1010 12 10000 4.6 320 07:26 20.06.2019
6111 Clear 31 1009 18 10000 2.6 300 06:25 20.06.2019
6112 Clear 29 1008 14 10000 3.1 300 03:55 20.06.2019
6113 Clear 31 1007 12 10000 4.1 320 02:29 20.06.2019
6114 Clear 32 1008 11 10000 3.1 360 00:33 20.06.2019
6115 Clear 33 1008 11 10000 3.6 350 23:49 19.06.2019
6116 Clear 33 1008 11 10000 3.6 350 23:30 19.06.2019
6117 Clear 34 1009 12 10000 3.6 360 22:49 19.06.2019
6118 Clear 34 1009 12 10000 3.6 360 22:25 19.06.2019
6119 Clear 35 1009 11 10000 5.7 10 21:58 19.06.2019
6120 Clear 35 1009 11 10000 5.7 10 21:40 19.06.2019
6121 Clear 35 1009 12 10000 5.7 10 21:21 19.06.2019
6122 Clear 36 1008 12 10000 5.1 10 20:42 19.06.2019
6123 Clear 36 1008 12 10000 5.1 10 20:21 19.06.2019
6124 Clear 38 1008 9 10000 4.6 10 19:51 19.06.2019
6125 Clear 38 1008 9 10000 4.6 10 19:29 19.06.2019
6126 -273 0 0 0 0 0 18:57 19.06.2019
6127 Clear 39 1007 9 10000 5.7 350 18:28 19.06.2019
6128 Clear 41 1006 9 10000 3.6 330 17:53 19.06.2019
6129 Clear 41 1006 9 10000 3.6 330 17:33 19.06.2019
6130 Clear 41 1006 9 10000 3.6 10 16:56 19.06.2019
6131 Clear 41 1006 9 10000 3.6 10 16:38 19.06.2019
6132 Clear 41 1006 9 10000 3.6 10 16:19 19.06.2019
6133 Clear 42 1006 8 10000 3.1 360 15:46 19.06.2019
6134 Clear 42 1006 8 10000 3.1 360 15:25 19.06.2019
6135 Clear 43 1007 7 10000 3.6 340 14:48 19.06.2019
6136 Clear 43 1007 7 10000 3.6 340 14:29 19.06.2019
6137 Clear 42 1007 8 10000 3.1 360 13:56 19.06.2019
6138 Clear 42 1007 8 10000 3.1 360 13:37 19.06.2019
6139 Clear 42 1007 8 10000 3.1 360 13:19 19.06.2019
6140 Clear 41 1008 9 10000 2.1 30 12:42 19.06.2019
6141 Clear 41 1008 9 10000 2.1 30 12:20 19.06.2019
6142 Clear 40 1008 9 8000 3.1 30 11:43 19.06.2019
6143 Clear 40 1008 9 8000 3.1 30 11:23 19.06.2019
6144 Clear 39 1009 10 8000 3.1 40 10:51 19.06.2019
6145 Clear 39 1009 10 8000 3.1 40 10:32 19.06.2019
6146 Clear 39 1009 10 8000 3.1 340 09:58 19.06.2019
6147 Clear 39 1009 10 8000 3.1 340 09:38 19.06.2019
6148 Clouds 39 1009 10 8000 3.1 340 09:19 19.06.2019
6149 Clear 38 1009 10 8000 5.1 340 08:48 19.06.2019
6150 Clear 38 1009 10 8000 5.1 340 08:27 19.06.2019
6151 Clouds 35 1009 12 8000 3.6 330 07:46 19.06.2019
6152 Clouds 35 1009 12 8000 3.6 330 07:23 19.06.2019
6153 Clouds 33 1008 14 8000 1 340 06:44 19.06.2019
6154 Clouds 33 1008 14 8000 1 340 06:22 19.06.2019
6155 Clouds 30 1008 16 8000 1 280 05:41 19.06.2019
6156 Clear 30 1007 15 10000 1 290 03:58 19.06.2019
6157 Clear 31 1007 14 10000 1 300 02:59 19.06.2019
6158 Clear 30 1007 16 10000 1 360 01:48 19.06.2019
6159 Clear 32 1007 14 10000 1.5 60 00:57 19.06.2019
6160 Clear 32 1007 14 10000 1.5 60 00:39 19.06.2019
6161 Clear 32 1007 14 10000 1.5 60 00:19 19.06.2019
6162 Clear 33 1008 13 10000 2.96 49.848 23:46 18.06.2019
6163 Clear 33 1008 13 10000 2.96 49.848 23:25 18.06.2019
6164 Clear 34 1008 13 10000 1.5 50 22:43 18.06.2019
6165 Clear 34 1008 13 10000 1.5 50 22:24 18.06.2019
6166 Clear 36 1008 11 10000 1.5 50 21:56 18.06.2019
6167 Clear 36 1008 11 10000 1.5 50 21:37 18.06.2019
6168 Clear 36 1008 11 10000 1.5 50 21:19 18.06.2019
6169 Clear 37 1008 10 10000 2.1 70 20:42 18.06.2019
6170 Clear 37 1008 10 10000 2.1 70 20:23 18.06.2019
6171 Clear 39 1008 9 10000 3.1 60 19:41 18.06.2019
6172 Clear 39 1008 9 10000 3.1 60 19:22 18.06.2019
6173 Clear 41 1007 9 10000 1.5 50 18:55 18.06.2019
6174 Clear 41 1007 9 10000 1.5 50 18:26 18.06.2019
6175 Clear 42 1007 8 10000 3.1 40 17:55 18.06.2019
6176 Clear 42 1007 8 10000 3.1 40 17:37 18.06.2019
6177 -273 0 0 0 0 0 17:19 18.06.2019
6178 Clear 44 1007 7 10000 2.1 330 16:42 18.06.2019
6179 Clear 44 1007 7 10000 2.1 330 16:22 18.06.2019
6180 Clear 44 1007 7 10000 2.1 330 16:22 18.06.2019
6181 Clear 44 1007 7 10000 1.5 30 15:42 18.06.2019
6182 Clear 44 1007 7 10000 1.5 30 15:23 18.06.2019
6183 Clear 44 1008 7 10000 2.6 330 14:56 18.06.2019
6184 Clear 44 1008 7 10000 2.6 330 14:38 18.06.2019
6185 Clear 44 1008 7 10000 2.6 330 14:19 18.06.2019
6186 Clear 44 1008 7 10000 3.1 20 13:50 18.06.2019
6187 Clear 44 1008 7 10000 3.1 20 13:30 18.06.2019
6188 Clear 43 1009 7 10000 3.6 50 12:46 18.06.2019
6189 Clear 43 1009 7 10000 3.6 50 12:28 18.06.2019
6190 Clear 42 1009 8 10000 2.6 40 11:54 18.06.2019
6191 Clear 42 1009 8 10000 2.6 40 11:36 18.06.2019
6192 Clear 42 1009 8 10000 2.6 40 11:18 18.06.2019
6193 Clear 41 1010 9 10000 3.6 40 10:41 18.06.2019
6194 Clear 41 1010 9 10000 3.6 40 10:21 18.06.2019
6195 Clear 40 1010 8 10000 3.6 30 09:51 18.06.2019
6196 Clear 40 1010 8 10000 3.6 30 09:25 18.06.2019
6197 Clear 38 1010 9 9000 3.6 10 08:50 18.06.2019
6198 Clear 38 1010 9 9000 3.6 10 08:30 18.06.2019
6199 Clear 37 1010 10 8000 2.1 320 07:56 18.06.2019
6200 Clear 37 1010 10 8000 2.1 320 07:26 18.06.2019
6201 Clear 33 1010 13 6000 1.5 310 06:55 18.06.2019
6202 Clear 30 1009 14 10000 1.5 290 05:27 18.06.2019
6203 Clear 31 1009 14 10000 1.5 290 04:21 18.06.2019
6204 Clear 31 1008 13 10000 2.1 300 02:48 18.06.2019
6205 Clear 32 1008 13 10000 2.6 310 01:27 18.06.2019
6206 Clear 34 1008 13 10000 2.1 300 00:58 18.06.2019
6207 Clear 34 1008 10 10000 2.1 300 00:30 18.06.2019
6208 Clear 35 1009 10 10000 1.5 20 23:58 17.06.2019
6209 Clear 35 1009 10 10000 1.5 20 23:37 17.06.2019
6210 Clear 35 1009 10 10000 1.5 20 23:18 17.06.2019
6211 Clear 36 1009 10 10000 2.6 30 22:40 17.06.2019
6212 Clear 36 1009 10 10000 2.6 30 22:21 17.06.2019
6213 Clear 38 1009 8 10000 4.1 20 21:45 17.06.2019
6214 Clear 38 1009 8 10000 4.1 20 21:23 17.06.2019
6215 Clear 39 1008 8 10000 4.1 10 20:43 17.06.2019
6216 Clear 39 1008 8 10000 4.1 10 20:24 17.06.2019
6217 Clouds 40 1008 9 9000 4.1 20 19:57 17.06.2019
6218 Clouds 40 1008 9 9000 4.1 20 19:39 17.06.2019
6219 Clouds 40 1008 9 9000 4.1 20 19:39 17.06.2019
6220 Clouds 40 1008 9 9000 4.1 20 19:20 17.06.2019
6221 Clouds 42 1007 6 8000 4.6 20 18:39 17.06.2019
6222 Clear 43 1007 6 8000 4.1 30 18:18 17.06.2019
6223 Clear 43 1007 6 8000 4.1 30 18:18 17.06.2019
6224 Clear 43 1007 6 8000 4.1 30 17:48 17.06.2019
6225 Clear 43 1007 6 8000 4.1 30 17:30 17.06.2019
6226 Clear 45 1007 5 8000 2.1 350 17:00 17.06.2019
6227 Clear 45 1007 5 8000 2.1 350 16:41 17.06.2019
6228 Clear 44 1007 6 9000 2.6 50 16:23 17.06.2019
6229 Clear 44 1007 6 9000 2.6 50 15:44 17.06.2019
6230 Clear 44 1007 6 9000 2.6 50 15:20 17.06.2019
6231 Clear 44 1007 6 9000 2.6 50 14:56 17.06.2019
6232 Clear 44 1007 6 9000 2.6 50 14:38 17.06.2019
6233 Clear 45 1008 5 9000 3.6 350 14:19 17.06.2019
6234 Clear 45 1008 5 9000 3.6 350 13:41 17.06.2019
6235 Clear 45 1008 5 9000 3.1 10 13:21 17.06.2019
6236 Clear 45 1008 5 9000 3.1 10 12:42 17.06.2019
6237 Clear 43 1009 6 9000 2.6 10 12:21 17.06.2019
6238 Clear 43 1009 6 9000 2.6 10 11:43 17.06.2019
6239 Clear 43 1009 6 9000 2.6 10 11:25 17.06.2019
6240 Clear 43 1009 6 9000 4.1 20 10:48 17.06.2019
6241 Clear 43 1009 6 9000 4.1 20 10:29 17.06.2019
6242 Clear 41 1009 7 9000 5.1 10 09:57 17.06.2019
6243 Clear 41 1009 7 9000 5.1 10 09:35 17.06.2019
6244 Clouds 40 1009 8 9000 6.2 350 08:58 17.06.2019
6245 Clouds 40 1009 8 9000 6.2 350 08:38 17.06.2019
6246 Clear 38 1009 8 10000 5.1 330 08:20 17.06.2019
6247 Clear 38 1009 8 10000 5.1 330 07:39 17.06.2019
6248 Clouds 36 1009 11 8000 3.6 320 07:19 17.06.2019
6249 Clouds 36 1009 11 8000 3.6 320 06:29 17.06.2019
6250 Clouds 34 1008 12 8000 1.5 300 05:31 17.06.2019
6251 Clear 33 1007 12 10000 4.58 315.955 04:33 17.06.2019
6252 Clear 33 1007 12 10000 4.58 315.955 03:33 17.06.2019
6253 Clear 34 1007 12 10000 1.7 205.239 02:49 17.06.2019
6254 Clear 34 1007 12 10000 1.7 205.239 02:31 17.06.2019
6255 Clear 35 1007 12 10000 1 140 01:38 17.06.2019
6256 Clear 36 1007 11 10000 1 130 00:58 17.06.2019
6257 Clear 36 1007 11 10000 1 130 00:38 17.06.2019
6258 Clouds 38 1008 11 7000 1 80 00:20 17.06.2019
6259 Clouds 38 1008 11 7000 1 80 23:40 16.06.2019
6260 Clouds 40 1008 7 7000 3.6 40 23:20 16.06.2019
6261 Clouds 40 1008 7 7000 3.6 40 22:45 16.06.2019
6262 Clouds 39 1007 10 7000 1.5 60 22:21 16.06.2019
6263 Clouds 39 1007 10 7000 1.5 60 21:59 16.06.2019
6264 Clouds 39 1007 10 7000 1.5 60 21:40 16.06.2019
6265 Clouds 40 1007 9 7000 2.1 70 21:21 16.06.2019
6266 Clouds 40 1007 9 7000 2.1 70 20:54 16.06.2019
6267 Clouds 40 1007 9 7000 2.1 70 20:36 16.06.2019
6268 Clouds 40 1007 10 7000 1 90 20:18 16.06.2019
6269 Clouds 40 1007 10 7000 1 90 19:39 16.06.2019
6270 Dust 42 1006 8 5000 3.6 60 19:21 16.06.2019
6271 Dust 42 1006 8 5000 3.6 60 19:21 16.06.2019
6272 Dust 42 1006 8 5000 3.6 60 18:57 16.06.2019
6273 Dust 42 1006 8 5000 3.6 60 18:36 16.06.2019
6274 Dust 43 1005 7 5000 2.6 110 18:18 16.06.2019
6275 Dust 43 1005 7 5000 2.6 110 17:42 16.06.2019
6276 Clouds 44 1005 7 5000 5.1 90 17:21 16.06.2019
6277 Clouds 44 1005 7 5000 5.1 90 16:56 16.06.2019
6278 Clouds 44 1005 7 5000 5.1 90 16:38 16.06.2019
6279 Clouds 45 1005 6 9000 7.86 346.521 16:19 16.06.2019
6280 Clouds 45 1005 6 9000 7.86 346.521 15:41 16.06.2019
6281 Clouds 45 1005 6 9000 7.86 346.521 15:41 16.06.2019
6282 Clouds 45 1005 6 9000 2.1 80 15:23 16.06.2019
6283 Clouds 45 1005 6 9000 2.1 80 14:42 16.06.2019
6284 Clouds 44 1006 7 9000 3.1 40 14:22 16.06.2019
6285 Clouds 44 1006 7 9000 3.1 40 13:51 16.06.2019
6286 Clouds 44 1006 7 9000 3.1 40 13:51 16.06.2019
6287 Clouds 44 1006 7 9000 3.1 40 13:51 16.06.2019
6288 Clouds 44 1006 7 9000 3.1 40 13:26 16.06.2019
6289 Clouds 46 1006 7 9000 2.6 280 13:26 16.06.2019
6290 Clouds 46 1006 7 9000 2.6 280 12:56 16.06.2019
6291 Clouds 46 1006 7 9000 2.6 280 12:37 16.06.2019
6292 Clouds 46 1007 7 8000 1.5 330 12:18 16.06.2019
6293 Clouds 46 1007 7 8000 1.5 330 11:38 16.06.2019
6294 Clouds 43 1007 8 8000 2.6 260 11:19 16.06.2019
6295 Clouds 43 1007 8 8000 2.6 260 10:45 16.06.2019
6296 Clouds 42 1008 9 8000 1.5 230 10:20 16.06.2019
6297 Clouds 42 1008 9 8000 1.5 230 09:47 16.06.2019
6298 Clouds 42 1008 9 8000 1.5 230 09:25 16.06.2019
6299 Clouds 41 1008 10 8000 1 300 08:50 16.06.2019
6300 Clear 38 1007 9 10000 1 130 08:22 16.06.2019
6301 Clear 38 1007 9 10000 1 130 07:50 16.06.2019
6302 Clear 38 1007 9 10000 1 130 07:32 16.06.2019
6303 Clouds 35 1007 13 10000 1 100 06:57 16.06.2019
6304 Clouds 33 1006 14 10000 1 120 06:21 16.06.2019
6305 Clouds 33 1006 14 10000 1 120 05:28 16.06.2019
6306 Clear 33 1006 13 10000 3.1 290 04:33 16.06.2019
6307 Clear 33 1006 14 10000 1 50 03:45 16.06.2019
6308 Clear 33 1006 14 10000 1 50 03:26 16.06.2019
6309 Clouds 37 1005 15 8000 2.6 170 01:55 16.06.2019
6310 Clouds 37 1005 15 8000 2.6 170 01:37 16.06.2019
6311 Clouds 37 1006 11 8000 1.5 140 00:59 16.06.2019
6312 Clouds 37 1006 11 8000 1.5 140 00:37 16.06.2019
6313 Clouds 39 1006 10 6000 3.6 120 00:18 16.06.2019
6314 Clouds 39 1006 10 6000 3.6 120 23:40 15.06.2019
6315 Clouds 40 1007 10 6000 4.6 80 23:20 15.06.2019
6316 Clouds 40 1007 10 6000 4.6 80 22:49 15.06.2019
6317 Clouds 40 1007 10 6000 4.6 80 22:26 15.06.2019
6318 Clouds 40 1007 10 6000 3.1 60 21:45 15.06.2019
6319 Clouds 40 1007 10 6000 3.1 60 21:27 15.06.2019
6320 Clouds 40 1007 10 6000 3.1 60 21:27 15.06.2019
6321 Clouds 41 1007 9 6000 2.1 260 20:46 15.06.2019
6322 Clouds 41 1007 9 6000 2.1 260 20:24 15.06.2019
6323 Clouds 41 1006 9 6000 3.1 290 19:53 15.06.2019
6324 Clouds 41 1006 9 6000 3.1 290 19:30 15.06.2019
6325 Clouds 41 1006 9 6000 3.1 320 18:59 15.06.2019
6326 Clouds 41 1006 9 6000 3.1 320 18:37 15.06.2019
6327 Clouds 42 1005 9 6000 5.1 320 18:19 15.06.2019
6328 Clouds 42 1005 9 6000 5.1 320 17:41 15.06.2019
6329 Clouds 43 1004 8 6000 6.2 340 17:21 15.06.2019
6330 Clouds 43 1004 8 6000 6.2 340 16:44 15.06.2019
6331 Clouds 43 1004 8 8000 7.2 290 16:18 15.06.2019
6332 Clouds 43 1004 8 8000 7.2 290 15:42 15.06.2019
6333 Clouds 45 1004 6 8000 2.6 10 15:22 15.06.2019
6334 Clouds 45 1004 6 8000 2.6 10 14:42 15.06.2019
6335 Clouds 46 1005 6 8000 1.5 190 14:18 15.06.2019
6336 Clouds 46 1005 6 8000 1.5 190 13:55 15.06.2019
6337 Clouds 46 1005 6 8000 1.5 190 13:36 15.06.2019
6338 Clouds 44 1005 8 8000 3.1 50 13:18 15.06.2019
6339 Clouds 44 1005 8 8000 3.1 50 12:42 15.06.2019
6340 Clear 44 1006 7 8000 1.5 330 12:23 15.06.2019
6341 Clouds 44 1006 7 8000 1.5 330 11:48 15.06.2019
6342 Clouds 44 1006 7 8000 1.5 330 11:29 15.06.2019
6343 Clear 43 1006 7 8000 2.6 200 10:46 15.06.2019
6344 Clear 43 1006 7 8000 2.6 200 10:25 15.06.2019
6345 Clear 41 1007 8 9000 2.6 180 09:48 15.06.2019
6346 Clouds 41 1007 8 9000 2.6 180 09:27 15.06.2019
6347 Clouds 39 1007 9 9000 3.6 160 08:55 15.06.2019
6348 Clouds 39 1007 9 9000 3.6 160 08:37 15.06.2019
6349 Clear 37 1007 11 10000 2.1 120 08:18 15.06.2019
6350 Clear 37 1007 11 10000 2.1 120 07:26 15.06.2019
6351 Clear 37 1007 11 10000 2.1 120 07:26 15.06.2019
6352 Clear 37 1007 11 10000 2.1 120 07:26 15.06.2019
6353 Clear 34 1006 12 10000 2.1 110 06:48 15.06.2019
6354 Clear 34 1006 12 10000 2.1 110 06:25 15.06.2019
6355 Clouds 33 1006 15 8000 2.6 110 05:39 15.06.2019
6356 Clouds 33 1006 15 8000 2.6 110 05:39 15.06.2019
6357 Clouds 33 1005 13 8000 1.5 130 04:52 15.06.2019
6358 Clouds 34 1005 12 8000 2.1 120 04:20 15.06.2019
6359 Clouds 35 1005 15 8000 2.6 120 03:22 15.06.2019
6360 Clouds 35 1005 15 8000 2.6 120 02:34 15.06.2019
6361 Clouds 36 1005 11 8000 2.6 120 01:57 15.06.2019
6362 Clouds 37 1006 10 7000 2.6 120 01:20 15.06.2019
6363 Clouds 37 1006 10 7000 2.6 120 00:42 15.06.2019
6364 Dust 39 1006 10 5000 2.1 310 00:23 15.06.2019
6365 Dust 39 1006 10 5000 2.1 310 23:46 14.06.2019
6366 Dust 41 1006 9 5000 3.6 260 23:19 14.06.2019
6367 Dust 41 1006 9 5000 3.6 260 22:41 14.06.2019
6368 Dust 41 1006 9 5000 5.7 10 22:21 14.06.2019
6369 Dust 41 1006 9 5000 5.7 10 21:48 14.06.2019
6370 Dust 41 1006 9 5000 5.7 10 21:28 14.06.2019
6371 Dust 41 1006 9 5000 1.5 260 20:55 14.06.2019
6372 Dust 41 1006 9 5000 1.5 260 20:36 14.06.2019
6373 Dust 41 1006 9 5000 5.1 250 20:18 14.06.2019
6374 Dust 41 1006 9 5000 5.1 250 19:39 14.06.2019
6375 Dust 41 1006 9 5000 3.1 80 19:19 14.06.2019
6376 Dust 41 1006 9 5000 3.1 80 18:45 14.06.2019
6377 Dust 41 1006 9 5000 3.1 80 18:27 14.06.2019
6378 Clouds 43 1004 8 7000 1 310 17:58 14.06.2019
6379 Clouds 43 1004 8 7000 1 310 17:40 14.06.2019
6380 Clouds 44 1004 7 7000 1.5 250 17:21 14.06.2019
6381 Clouds 44 1004 7 7000 1.5 250 16:48 14.06.2019
6382 Clouds 44 1005 7 7000 2.6 230 16:23 14.06.2019
6383 Clouds 44 1005 7 7000 2.6 230 15:59 14.06.2019
6384 Clouds 44 1005 7 7000 2.6 230 15:39 14.06.2019
6385 Clouds 43 1005 8 6000 3.6 280 15:19 14.06.2019
6386 Clouds 43 1005 8 6000 3.6 280 15:19 14.06.2019
6387 Clouds 43 1005 8 6000 3.6 280 14:43 14.06.2019
6388 Clouds 43 1005 8 6000 3.6 280 14:25 14.06.2019
6389 Dust 44 1005 7 5000 3.6 190 13:46 14.06.2019
6390 Dust 44 1005 7 5000 3.6 190 13:27 14.06.2019
6391 Dust 43 1006 8 5000 3.6 190 12:55 14.06.2019
6392 Dust 43 1006 8 5000 3.6 190 12:36 14.06.2019
6393 Dust 41 1007 9 5000 4.1 180 12:18 14.06.2019
6394 Dust 41 1007 9 5000 4.1 180 11:42 14.06.2019
6395 Dust 41 1008 9 5000 3.6 170 11:23 14.06.2019
6396 Dust 41 1008 9 5000 3.6 170 10:47 14.06.2019
6397 Clear 39 1008 10 6000 3.1 170 10:21 14.06.2019
6398 Clear 39 1008 10 6000 3.1 170 09:55 14.06.2019
6399 Clear 39 1008 10 6000 3.1 170 09:33 14.06.2019
6400 Clouds 38 1009 9 6000 2.6 190 08:48 14.06.2019
6401 Clouds 36 1008 8 6000 1.5 190 08:21 14.06.2019
6402 Clouds 36 1008 8 6000 1.5 190 07:55 14.06.2019
6403 Clouds 35 1008 11 6000 1.5 190 07:23 14.06.2019
6404 Clouds 35 1008 11 6000 1.5 190 06:53 14.06.2019
6405 Clouds 32 1008 11 6000 2.1 200 06:18 14.06.2019
6406 Clouds 32 1008 11 6000 2.1 200 05:42 14.06.2019
6407 Clouds 31 1007 14 6000 1.5 210 04:51 14.06.2019
6408 Clouds 31 1007 14 6000 1.5 210 04:23 14.06.2019
6409 Clouds 31 1007 14 8000 1 240 03:38 14.06.2019
6410 Clouds 30 1007 16 8000 1 70 03:19 14.06.2019
6411 Clouds 30 1007 16 8000 1 70 02:36 14.06.2019
6412 Clouds 31 1007 12 6000 2.6 125.992 01:39 14.06.2019
6413 Clouds 31 1007 12 6000 2.6 125.992 01:39 14.06.2019
6414 Clouds 33 1008 12 6000 1 190 00:37 14.06.2019
6415 Dust 34 1008 13 4000 2.6 120 00:18 14.06.2019
6416 Dust 34 1008 13 4000 2.6 120 23:49 13.06.2019
6417 Dust 35 1008 12 4000 3.6 120 23:25 13.06.2019
6418 Dust 35 1008 12 4000 3.6 120 22:40 13.06.2019
6419 Dust 35 1008 12 4000 3.6 120 22:22 13.06.2019
6420 Dust 36 1008 11 4000 5.1 110 22:22 13.06.2019
6421 Dust 36 1008 11 4000 5.1 110 21:58 13.06.2019
6422 Dust 36 1008 11 4000 5.1 110 21:37 13.06.2019
6423 Dust 37 1007 10 5000 5.7 100 21:18 13.06.2019
6424 Dust 37 1007 10 5000 5.7 100 20:44 13.06.2019
6425 Clouds 38 1007 8 6000 5.7 90 20:20 13.06.2019
6426 Clouds 38 1007 8 6000 5.7 90 19:43 13.06.2019
6427 Clear 39 1007 9 10000 3.1 60 19:25 13.06.2019
6428 Clear 39 1007 9 10000 3.1 60 18:59 13.06.2019
6429 Clear 39 1007 9 10000 3.1 60 18:40 13.06.2019
6430 Clear 41 1006 7 10000 3.1 70 18:22 13.06.2019
6431 Clear 41 1006 7 10000 3.1 70 17:44 13.06.2019
6432 Clear 42 1006 6 10000 3.1 40 17:21 13.06.2019
6433 Clear 42 1006 6 10000 3.1 40 16:58 13.06.2019
6434 Clear 42 1006 6 10000 3.1 40 16:38 13.06.2019
6435 Clear 43 1006 6 10000 3.1 30 16:18 13.06.2019
6436 Clear 43 1006 6 10000 3.1 30 15:40 13.06.2019
6437 Clear 42 1007 6 10000 2.6 50 15:22 13.06.2019
6438 Clear 42 1007 6 10000 2.6 50 14:49 13.06.2019
6439 Clear 42 1007 6 10000 2.6 50 14:31 13.06.2019
6440 Clear 42 1007 6 10000 2.6 50 14:31 13.06.2019
6441 Clear 42 1007 6 10000 2.6 110 13:54 13.06.2019
6442 Clear 42 1007 6 10000 2.6 110 13:36 13.06.2019
6443 Clear 42 1008 6 10000 2.1 80 13:18 13.06.2019
6444 Clear 42 1008 6 10000 2.1 80 12:40 13.06.2019
6445 Clear 41 1009 7 10000 3.1 40 12:21 13.06.2019
6446 Clear 41 1009 7 10000 3.1 40 11:44 13.06.2019
6447 Clear 39 1009 8 10000 3.6 70 11:25 13.06.2019
6448 Clear 39 1009 8 10000 3.6 70 10:49 13.06.2019
6449 Clear 39 1009 8 10000 3.6 70 10:30 13.06.2019
6450 Clear 38 1009 8 10000 4.1 50 09:55 13.06.2019
6451 Clear 38 1009 8 10000 4.1 50 09:55 13.06.2019
6452 Clear 38 1009 8 10000 4.1 50 09:36 13.06.2019
6453 Clear 37 1010 7 9000 3.6 50 09:18 13.06.2019
6454 Clear 37 1010 7 9000 3.6 50 08:43 13.06.2019
6455 Clear 34 1009 13 8000 3.1 40 08:22 13.06.2019
6456 Clear 34 1009 13 8000 3.1 40 07:39 13.06.2019
6457 Clear 32 1009 14 6000 1.5 310 07:21 13.06.2019
6458 Clear 32 1009 14 6000 1.5 310 06:40 13.06.2019
6459 Clear 29 1009 16 6000 1 280 06:22 13.06.2019
6460 Clear 29 1009 16 6000 1 280 05:44 13.06.2019
6461 Clear 29 1009 16 6000 1 280 05:26 13.06.2019
6462 Clear 29 1008 14 10000 1 300 03:50 13.06.2019
6463 Clear 31 1008 14 10000 1.5 280 02:20 13.06.2019
6464 Clear 31 1008 14 10000 1 300 00:44 13.06.2019
6465 Clear 33 1008 13 10000 4.63 49.804 23:38 12.06.2019
6466 Clear 35 1009 11 10000 2.1 30 23:20 12.06.2019
6467 Clear 35 1009 11 10000 2.1 30 22:41 12.06.2019
6468 Clear 35 1009 11 10000 2.1 30 22:22 12.06.2019
6469 Clear 36 1008 11 10000 2.6 10 21:47 12.06.2019
6470 Clear 36 1008 10 10000 2.6 10 21:29 12.06.2019
6471 Clear 38 1008 9 10000 3.1 20 20:49 12.06.2019
6472 Clear 38 1008 9 10000 3.1 20 20:31 12.06.2019
6473 Clear 39 1008 10 10000 3.1 30 19:59 12.06.2019
6474 Clear 39 1008 10 10000 3.1 30 19:41 12.06.2019
6475 Clear 40 1007 8 10000 4.6 30 19:22 12.06.2019
6476 Clear 40 1007 8 10000 4.6 30 18:51 12.06.2019
6477 Clear 40 1007 8 10000 4.6 30 18:29 12.06.2019
6478 Clear 40 1007 8 10000 4.6 30 18:29 12.06.2019
6479 Clear 42 1006 8 10000 6.2 30 17:58 12.06.2019
6480 Clear 42 1006 8 10000 6.2 30 17:39 12.06.2019
6481 Clear 43 1006 7 10000 5.7 30 17:18 12.06.2019
6482 Clear 43 1006 7 10000 5.7 30 16:40 12.06.2019
6483 Clear 43 1006 7 10000 5.1 20 16:22 12.06.2019
6484 Clear 43 1006 7 10000 5.1 20 15:47 12.06.2019
6485 Clear 43 1006 7 10000 5.1 20 15:29 12.06.2019
6486 Clear 43 1006 7 10000 5.1 40 14:42 12.06.2019
6487 Clear 43 1007 7 10000 5.7 30 14:22 12.06.2019
6488 -273 0 0 0 0 0 13:42 12.06.2019
6489 Clear 43 1007 8 10000 6.2 50 13:20 12.06.2019
6490 Clear 43 1007 8 10000 6.2 50 12:56 12.06.2019
6491 Clear 43 1007 8 10000 6.2 50 12:38 12.06.2019
6492 Clear 42 1008 8 10000 6.2 50 12:19 12.06.2019
6493 Clear 42 1008 8 10000 6.2 50 11:45 12.06.2019
6494 Clear 42 1008 8 10000 6.2 50 11:27 12.06.2019
6495 Clear 41 1008 8 10000 6.7 40 10:50 12.06.2019
6496 Clear 41 1008 8 10000 6.7 40 10:26 12.06.2019
6497 Clear 40 1009 8 10000 6.2 50 09:45 12.06.2019
6498 Clear 40 1009 8 10000 6.2 50 09:23 12.06.2019
6499 Clear 39 1009 10 10000 5.1 40 08:53 12.06.2019
6500 Clear 36 1009 11 10000 3.6 30 08:21 12.06.2019
6501 Clear 36 1009 11 10000 3.6 30 07:39 12.06.2019
6502 Clear 32 1009 13 10000 3.1 300 06:54 12.06.2019
6503 Clear 30 1008 13 10000 3.1 310 05:27 12.06.2019
6504 Clear 30 1008 13 10000 3.1 300 04:34 12.06.2019
6505 Clear 31 1007 12 10000 2.6 300 01:32 12.06.2019
6506 Clear 33 1007 11 10000 1.5 300 00:40 12.06.2019
6507 Clear 34 1008 9 10000 2.6 360 23:48 11.06.2019
6508 Clear 34 1008 9 10000 2.6 360 23:29 11.06.2019
6509 Clear 35 1008 10 10000 2.1 360 22:44 11.06.2019
6510 Clear 36 1008 8 10000 2.6 10 22:20 11.06.2019
6511 Clear 36 1008 8 10000 2.6 10 21:57 11.06.2019
6512 Clear 36 1008 8 10000 2.6 10 21:38 11.06.2019
6513 Clear 37 1007 9 10000 2.6 20 21:20 11.06.2019
6514 Clear 37 1007 9 10000 2.6 20 20:48 11.06.2019
6515 Clear 37 1007 9 10000 2.6 20 20:26 11.06.2019
6516 Clear 37 1007 9 10000 2.6 20 20:26 11.06.2019
6517 Clear 39 1007 8 10000 3.6 30 19:55 11.06.2019
6518 Clear 39 1007 8 10000 3.6 30 19:34 11.06.2019
6519 Clear 41 1006 6 10000 4.6 30 18:58 11.06.2019
6520 Clear 42 1006 6 10000 6.2 40 18:23 11.06.2019
6521 Clear 42 1006 6 10000 6.2 40 17:54 11.06.2019
6522 Clear 42 1006 6 10000 6.2 40 17:36 11.06.2019
6523 -273 0 0 0 0 0 17:18 11.06.2019
6524 Clear 43 1006 7 10000 6.2 40 16:41 11.06.2019
6525 Clear 44 1005 7 10000 5.7 40 16:23 11.06.2019
6526 Clear 44 1005 7 10000 5.7 40 15:42 11.06.2019
6527 Clear 44 1005 6 10000 5.7 40 15:24 11.06.2019
6528 Clear 44 1006 6 10000 8.2 30 14:54 11.06.2019
6529 Clear 44 1006 7 10000 6.7 20 14:23 11.06.2019
6530 Clear 44 1006 7 10000 6.7 20 14:23 11.06.2019
6531 Clear 44 1006 7 10000 6.7 20 13:56 11.06.2019
6532 Clear 44 1006 7 10000 6.7 20 13:36 11.06.2019
6533 Clear 44 1007 6 10000 3.6 50 13:18 11.06.2019
6534 Clear 44 1007 6 10000 3.6 50 12:40 11.06.2019
6535 Clear 43 1007 7 10000 3.1 50 12:21 11.06.2019
6536 Clear 43 1007 7 10000 3.1 50 11:40 11.06.2019
6537 Clear 43 1008 7 10000 3.1 350 11:20 11.06.2019
6538 Clear 43 1008 7 10000 3.1 350 10:47 11.06.2019
6539 Clear 43 1008 7 10000 3.1 350 10:26 11.06.2019
6540 Clear 40 1008 9 10000 2.6 280 09:50 11.06.2019
6541 Clear 40 1008 9 10000 2.6 280 09:25 11.06.2019
6542 Clear 39 1009 10 10000 4.6 320 08:47 11.06.2019
6543 Clear 39 1009 10 10000 4.6 320 08:29 11.06.2019
6544 Clear 36 1009 11 10000 4.1 330 07:55 11.06.2019
6545 Clear 36 1009 11 10000 4.1 330 07:29 11.06.2019
6546 Clear 33 1008 14 10000 2.46 336.927 06:50 11.06.2019
6547 Clear 29 1007 16 10000 1.19 252.901 04:56 11.06.2019
6548 Clear 31 1007 14 10000 1.19 252.901 03:43 11.06.2019
6549 Clear 31 1006 12 10000 3.64 110.429 01:41 11.06.2019
6550 Clear 32 1007 12 10000 3.64 110.429 00:48 11.06.2019
6551 Clear 34 1007 10 10000 1 70 23:50 10.06.2019
6552 Clear 34 1007 10 10000 1 70 23:32 10.06.2019
6553 Clear 35 1007 10 10000 1.5 50 22:58 10.06.2019
6554 Clear 35 1007 10 10000 1.5 50 22:40 10.06.2019
6555 Clear 36 1007 9 10000 2.1 50 22:22 10.06.2019
6556 Clear 36 1007 9 10000 2.1 50 21:41 10.06.2019
6557 Clear 38 1007 8 10000 3.1 60 21:22 10.06.2019
6558 Clear 38 1007 8 10000 3.1 60 20:47 10.06.2019
6559 Clear 38 1007 8 10000 3.1 60 20:25 10.06.2019
6560 Clear 39 1006 8 10000 2.6 50 19:57 10.06.2019
6561 Clear 39 1006 8 10000 2.6 50 19:38 10.06.2019
6562 Clear 41 1006 7 10000 2.6 70 19:20 10.06.2019
6563 Clear 41 1006 7 10000 2.6 70 18:55 10.06.2019
6564 Clear 41 1006 7 10000 2.6 70 18:37 10.06.2019
6565 Clear 43 1005 6 10000 3.6 10 18:18 10.06.2019
6566 Clear 43 1005 6 10000 3.6 10 17:40 10.06.2019
6567 Clear 44 1005 6 10000 2.6 10 17:21 10.06.2019
6568 Clear 44 1005 6 10000 2.6 10 16:45 10.06.2019
6569 Clear 44 1005 6 10000 2.6 10 16:27 10.06.2019
6570 Clear 45 1005 5 10000 3.1 350 15:43 10.06.2019
6571 Clear 45 1005 5 10000 3.1 350 15:24 10.06.2019
6572 Clear 45 1006 5 10000 2.6 330 14:59 10.06.2019
6573 Clear 45 1006 5 10000 2.6 330 14:38 10.06.2019
6574 Clear 44 1006 6 10000 3.1 270 14:20 10.06.2019
6575 Clear 44 1006 6 10000 3.1 270 13:43 10.06.2019
6576 Clear 44 1006 6 10000 2.1 140 13:22 10.06.2019
6577 Clear 44 1006 6 10000 2.1 140 13:22 10.06.2019
6578 Clear 44 1006 6 10000 2.1 140 12:45 10.06.2019
6579 Clear 44 1006 7 10000 2.1 140 12:26 10.06.2019
6580 Clear 44 1007 7 10000 1.5 310 11:46 10.06.2019
6581 Clear 44 1007 7 10000 1.5 310 11:46 10.06.2019
6582 Clear 44 1007 7 10000 1.5 310 11:28 10.06.2019
6583 Clear 43 1008 7 10000 2.6 340 10:46 10.06.2019
6584 Clear 42 1008 7 10000 0.78 230.204 10:22 10.06.2019
6585 Clear 42 1008 7 10000 0.78 230.204 09:58 10.06.2019
6586 Clear 42 1008 7 10000 0.78 230.204 09:39 10.06.2019
6587 Clear 41 1008 8 10000 1.86 259.94 09:19 10.06.2019
6588 Clear 41 1008 8 10000 1.86 259.94 08:45 10.06.2019
6589 Clear 39 1008 10 10000 1.86 259.94 08:25 10.06.2019
6590 Clear 34 1008 13 10000 0.85 305.12 07:21 10.06.2019
6591 Clear 30 1007 13 10000 3.1 290 04:30 10.06.2019
6592 Clear 32 1006 11 10000 1.21 342.618 01:59 10.06.2019
6593 Clear 32 1006 11 10000 1.21 342.618 01:26 10.06.2019
6594 Clear 31 1007 14 10000 1.5 10 00:58 10.06.2019
6595 Clear 34 1007 9 10000 3.23 235.391 00:20 10.06.2019
6596 Clear 34 1007 9 10000 3.23 235.391 23:43 09.06.2019
6597 Clear 33 1008 13 10000 3.23 235.391 23:20 09.06.2019
6598 Clear 33 1008 13 10000 3.23 235.391 22:45 09.06.2019
6599 Clear 33 1008 13 10000 3.23 235.391 22:25 09.06.2019
6600 Clear 34 1008 12 10000 3.23 235.391 21:45 09.06.2019
6601 Clear 36 1007 11 10000 1.64 302.651 21:23 09.06.2019
6602 Clear 36 1007 11 10000 1.64 302.651 20:44 09.06.2019
6603 Clear 36 1007 11 10000 1.64 302.651 20:23 09.06.2019
6604 Clear 36 1007 11 10000 1.64 302.651 19:48 09.06.2019
6605 Clear 39 1007 9 10000 0.62 194.601 19:19 09.06.2019
6606 Clear 39 1007 9 10000 0.62 194.601 19:19 09.06.2019
6607 Clear 39 1007 9 10000 0.62 194.601 18:59 09.06.2019
6608 Clear 39 1007 9 10000 0.62 194.601 18:41 09.06.2019
6609 Clear 42 1007 6 10000 1.5 280 18:23 09.06.2019
6610 Clear 42 1007 6 10000 1.5 280 17:47 09.06.2019
6611 Clear 42 1007 6 10000 1.5 280 17:27 09.06.2019
6612 Clear 43 1007 6 10000 2.1 170 16:55 09.06.2019
6613 Clear 43 1007 6 10000 2.1 170 16:36 09.06.2019
6614 Clear 43 1007 6 10000 2.6 230 16:18 09.06.2019
6615 Clear 43 1007 6 10000 2.6 230 15:44 09.06.2019
6616 Clear 43 1007 6 10000 2.6 230 15:26 09.06.2019
6617 Clear 43 1008 8 10000 1.5 100 14:46 09.06.2019
6618 Clear 43 1008 8 10000 1.5 100 14:26 09.06.2019
6619 Clear 45 1008 5 10000 3.6 350 13:56 09.06.2019
6620 Clear 45 1008 5 10000 3.6 350 13:35 09.06.2019
6621 Clear 42 1009 6 10000 4.1 240 12:43 09.06.2019
6622 Clear 42 1009 7 10000 4.1 240 12:25 09.06.2019
6623 Clear 42 1009 7 10000 4.6 230 11:47 09.06.2019
6624 Clear 42 1009 7 10000 4.6 230 11:28 09.06.2019
6625 Clear 41 1010 9 10000 4.1 280 10:46 09.06.2019
6626 Clear 41 1010 9 10000 4.1 280 10:46 09.06.2019
6627 Clear 41 1010 8 10000 4.1 270 10:24 09.06.2019
6628 Clear 41 1010 8 10000 4.1 270 09:41 09.06.2019
6629 Clear 40 1010 10 10000 1.5 260 09:23 09.06.2019
6630 Clear 40 1010 10 10000 1.5 260 09:23 09.06.2019
6631 Clear 40 1010 10 10000 1.5 260 08:55 09.06.2019
6632 Clear 40 1010 10 10000 1.5 260 08:36 09.06.2019
6633 Clear 38 1011 9 10000 4.28 212.508 07:28 09.06.2019
6634 Clear 33 1011 13 10000 1 190 06:30 09.06.2019
6635 Clear 29 1010 17 10000 1 110 05:34 09.06.2019
6636 Clear 30 1009 13 10000 1 130 01:46 09.06.2019
6637 Clear 31 1010 12 10000 1 300 01:22 09.06.2019
6638 Clear 31 1010 12 10000 1 300 00:59 09.06.2019
6639 Clear 32 1010 11 10000 1 240 00:19 09.06.2019
6640 Clear 32 1010 11 10000 1 240 23:38 08.06.2019
6641 Clear 33 1010 11 10000 1.5 290 23:20 08.06.2019
6642 Clear 33 1010 11 10000 1.5 290 22:43 08.06.2019
6643 Clear 33 1010 11 10000 1.5 290 22:25 08.06.2019
6644 Clear 34 1010 10 10000 1.5 130 21:52 08.06.2019
6645 Clear 34 1010 10 10000 1.5 130 21:29 08.06.2019
6646 Clear 36 1010 8 10000 1.5 140 20:59 08.06.2019
6647 Clear 36 1010 8 10000 1.5 140 20:40 08.06.2019
6648 Clear 37 1010 9 10000 1 100 20:20 08.06.2019
6649 Clear 37 1010 9 10000 1 100 19:42 08.06.2019
6650 Clear 39 1009 8 10000 2.1 110 19:22 08.06.2019
6651 Clear 39 1009 8 10000 2.1 110 18:58 08.06.2019
6652 Clear 39 1009 8 10000 2.1 110 18:38 08.06.2019
6653 Clear 41 1009 7 10000 2.1 100 18:18 08.06.2019
6654 Clear 41 1009 7 10000 2.1 100 17:41 08.06.2019
6655 Clear 42 1009 6 10000 1.5 70 17:18 08.06.2019
6656 Clear 42 1009 6 10000 1.5 70 16:44 08.06.2019
6657 Clear 43 1009 6 10000 2.1 60 16:20 08.06.2019
6658 Clear 43 1009 6 10000 2.1 60 15:38 08.06.2019
6659 Clear 43 1010 6 10000 2.1 60 14:54 08.06.2019
6660 Clear 43 1010 6 10000 2.1 60 14:32 08.06.2019
6661 Clear 43 1010 6 10000 2.1 240 13:59 08.06.2019
6662 Clear 43 1010 6 10000 2.1 240 13:25 08.06.2019
6663 Clear 43 1011 7 10000 2.1 50 12:46 08.06.2019
6664 Clear 43 1011 8 10000 2.1 220 12:21 08.06.2019
6665 Clear 43 1011 8 10000 2.1 220 11:44 08.06.2019
6666 Clear 43 1011 8 10000 2.1 220 11:22 08.06.2019
6667 Clear 41 1012 8 10000 3.1 270 10:44 08.06.2019
6668 Clear 41 1012 8 10000 2.6 230 10:22 08.06.2019
6669 Clear 41 1012 8 10000 2.6 230 09:48 08.06.2019
6670 Clear 39 1012 9 10000 1.5 270 09:22 08.06.2019
6671 Clear 39 1012 9 10000 1.5 270 08:29 08.06.2019
6672 Clear 38 1012 9 10000 1 340 07:49 08.06.2019
6673 Clear 33 1012 13 10000 1.5 330 06:50 08.06.2019
6674 Clear 28 1011 13 10000 2.1 300 05:47 08.06.2019
6675 Clear 29 1011 14 10000 1.15 189.035 03:30 08.06.2019
6676 Clear 30 1011 12 10000 0.5 230 01:25 08.06.2019
6677 Clear 33 1011 11 10000 3.6 90 00:25 08.06.2019
6678 Clear 33 1011 11 10000 3.6 90 23:43 07.06.2019
6679 Clear 34 1011 10 10000 3.1 90 23:20 07.06.2019
6680 Clear 34 1011 10 10000 3.1 90 23:20 07.06.2019
6681 Clear 34 1011 10 10000 3.1 90 22:39 07.06.2019
6682 Clear 33 1011 10 10000 3.14 156.651 22:19 07.06.2019
6683 Clear 33 1011 10 10000 3.14 156.651 21:49 07.06.2019
6684 Clear 33 1011 10 10000 3.14 156.651 21:28 07.06.2019
6685 Clear 36 1011 8 10000 2.1 160 20:55 07.06.2019
6686 Clear 36 1011 8 10000 2.1 160 20:35 07.06.2019
6687 Clear 38 1010 12 10000 1.5 160 19:48 07.06.2019
6688 Clear 39 1010 10 10000 2.1 150 19:21 07.06.2019
6689 Clear 39 1010 10 10000 2.1 150 18:52 07.06.2019
6690 Clear 39 1010 10 10000 2.1 150 18:28 07.06.2019
6691 Clear 41 1006 7 0 5.04 113.431 17:48 07.06.2019
6692 Clear 42 1010 6 10000 3.1 130 17:27 07.06.2019
6693 Clear 42 1010 6 10000 3.1 130 16:52 07.06.2019
6694 Clear 42 1010 6 10000 3.1 130 16:33 07.06.2019
6695 Clear 42 1010 6 10000 1.5 70 15:50 07.06.2019
6696 Clear 43 1010 7 10000 2.6 200 15:21 07.06.2019
6697 Clear 43 1010 7 10000 2.6 200 14:47 07.06.2019
6698 Clear 43 1010 7 10000 2.6 200 14:25 07.06.2019
6699 Clear 42 1010 8 10000 5.1 110 13:44 07.06.2019
6700 Clear 42 1011 8 10000 4.38 101.525 13:23 07.06.2019
6701 Clear 42 1011 8 10000 3.95 99.364 12:44 07.06.2019
6702 Clear 42 1011 8 10000 3.63 93.379 12:22 07.06.2019
6703 Clear 41 1011 9 10000<